<?xml version="1.0" encoding="UTF-8" standalone="no" ?>
<gpx xmlns="http://www.topografix.com/GPX/1/1" xmlns:xsi="http://www.w3.org/2001/XMLSchema-instance" xsi:schemaLocation="http://www.topografix.com/GPX/1/1 http://www.topografix.com/GPX/1/1/gpx.xsd" version="1.1" creator="VisuGPX - https://www.visugpx.com">
  <metadata>
    <name>Pornichet 26/09/2021</name>
    <desc><![CDATA[Sortie VTT dimanche 26 septembre 2021]]></desc>
  </metadata>
  <trk>
    <name><![CDATA[Pornichet Cyclisme]]></name>
    <trkseg>
      <trkpt lat="47.26036" lon="-2.32285">
        <ele>6.8000001907349</ele>
        <time>2021-09-26T06:53:22.000Z</time>
      </trkpt>
      <trkpt lat="47.26025" lon="-2.32296">
        <ele>6.8000001907349</ele>
        <time>2021-09-26T06:53:25.000Z</time>
      </trkpt>
      <trkpt lat="47.26022" lon="-2.323">
        <ele>6.1999998092651</ele>
        <time>2021-09-26T06:53:26.000Z</time>
      </trkpt>
      <trkpt lat="47.26015" lon="-2.32309">
        <ele>6.1999998092651</ele>
        <time>2021-09-26T06:53:28.000Z</time>
      </trkpt>
      <trkpt lat="47.26012" lon="-2.32313">
        <ele>6.1999998092651</ele>
        <time>2021-09-26T06:53:29.000Z</time>
      </trkpt>
      <trkpt lat="47.25987" lon="-2.32344">
        <ele>6.1999998092651</ele>
        <time>2021-09-26T06:53:36.000Z</time>
      </trkpt>
      <trkpt lat="47.25963" lon="-2.32376">
        <ele>6.1999998092651</ele>
        <time>2021-09-26T06:53:43.000Z</time>
      </trkpt>
      <trkpt lat="47.25932" lon="-2.32416">
        <ele>6.1999998092651</ele>
        <time>2021-09-26T06:53:52.000Z</time>
      </trkpt>
      <trkpt lat="47.25922" lon="-2.32429">
        <ele>6.1999998092651</ele>
        <time>2021-09-26T06:53:55.000Z</time>
      </trkpt>
      <trkpt lat="47.25912" lon="-2.32442">
        <ele>6.1999998092651</ele>
        <time>2021-09-26T06:53:58.000Z</time>
      </trkpt>
      <trkpt lat="47.25891" lon="-2.32467">
        <ele>6.1999998092651</ele>
        <time>2021-09-26T06:54:05.000Z</time>
      </trkpt>
      <trkpt lat="47.25887" lon="-2.32468">
        <ele>6.1999998092651</ele>
        <time>2021-09-26T06:54:06.000Z</time>
      </trkpt>
      <trkpt lat="47.25874" lon="-2.32473">
        <ele>6.1999998092651</ele>
        <time>2021-09-26T06:54:09.000Z</time>
      </trkpt>
      <trkpt lat="47.25865" lon="-2.32475">
        <ele>6.1999998092651</ele>
        <time>2021-09-26T06:54:11.000Z</time>
      </trkpt>
      <trkpt lat="47.25848" lon="-2.32476">
        <ele>6.1999998092651</ele>
        <time>2021-09-26T06:54:15.000Z</time>
      </trkpt>
      <trkpt lat="47.25838" lon="-2.32472">
        <ele>6.1999998092651</ele>
        <time>2021-09-26T06:54:17.000Z</time>
      </trkpt>
      <trkpt lat="47.25807" lon="-2.32459">
        <ele>6.1999998092651</ele>
        <time>2021-09-26T06:54:24.000Z</time>
      </trkpt>
      <trkpt lat="47.25791" lon="-2.3246">
        <ele>6.1999998092651</ele>
        <time>2021-09-26T06:54:28.000Z</time>
      </trkpt>
      <trkpt lat="47.25781" lon="-2.32451">
        <ele>6.1999998092651</ele>
        <time>2021-09-26T06:54:30.000Z</time>
      </trkpt>
      <trkpt lat="47.25781" lon="-2.32451">
        <ele>6.1999998092651</ele>
        <time>2021-09-26T06:54:31.000Z</time>
      </trkpt>
      <trkpt lat="47.25778" lon="-2.32446">
        <ele>6.1999998092651</ele>
        <time>2021-09-26T06:54:32.000Z</time>
      </trkpt>
      <trkpt lat="47.2577" lon="-2.32432">
        <ele>6.1999998092651</ele>
        <time>2021-09-26T06:54:35.000Z</time>
      </trkpt>
      <trkpt lat="47.25766" lon="-2.32429">
        <ele>6.1999998092651</ele>
        <time>2021-09-26T06:54:36.000Z</time>
      </trkpt>
      <trkpt lat="47.25751" lon="-2.32427">
        <ele>6.1999998092651</ele>
        <time>2021-09-26T06:54:39.000Z</time>
      </trkpt>
      <trkpt lat="47.25746" lon="-2.32427">
        <ele>6.1999998092651</ele>
        <time>2021-09-26T06:54:40.000Z</time>
      </trkpt>
      <trkpt lat="47.2571" lon="-2.32425">
        <ele>6.1999998092651</ele>
        <time>2021-09-26T06:54:47.000Z</time>
      </trkpt>
      <trkpt lat="47.25672" lon="-2.32421">
        <ele>6.1999998092651</ele>
        <time>2021-09-26T06:54:55.000Z</time>
      </trkpt>
      <trkpt lat="47.25667" lon="-2.32423">
        <ele>6.1999998092651</ele>
        <time>2021-09-26T06:54:56.000Z</time>
      </trkpt>
      <trkpt lat="47.25661" lon="-2.32437">
        <ele>6.1999998092651</ele>
        <time>2021-09-26T06:54:59.000Z</time>
      </trkpt>
      <trkpt lat="47.25665" lon="-2.3246">
        <ele>6.1999998092651</ele>
        <time>2021-09-26T06:55:03.000Z</time>
      </trkpt>
      <trkpt lat="47.25667" lon="-2.32466">
        <ele>6.1999998092651</ele>
        <time>2021-09-26T06:55:04.000Z</time>
      </trkpt>
      <trkpt lat="47.25672" lon="-2.32488">
        <ele>6.5999999046326</ele>
        <time>2021-09-26T06:55:08.000Z</time>
      </trkpt>
      <trkpt lat="47.25674" lon="-2.32494">
        <ele>7.1999998092651</ele>
        <time>2021-09-26T06:55:09.000Z</time>
      </trkpt>
      <trkpt lat="47.25675" lon="-2.32499">
        <ele>7.5999999046326</ele>
        <time>2021-09-26T06:55:10.000Z</time>
      </trkpt>
      <trkpt lat="47.25677" lon="-2.32505">
        <ele>8</ele>
        <time>2021-09-26T06:55:11.000Z</time>
      </trkpt>
      <trkpt lat="47.25679" lon="-2.3251">
        <ele>8.3999996185303</ele>
        <time>2021-09-26T06:55:12.000Z</time>
      </trkpt>
      <trkpt lat="47.25686" lon="-2.32531">
        <ele>8.3999996185303</ele>
        <time>2021-09-26T06:55:16.000Z</time>
      </trkpt>
      <trkpt lat="47.257" lon="-2.32571">
        <ele>8.3999996185303</ele>
        <time>2021-09-26T06:55:24.000Z</time>
      </trkpt>
      <trkpt lat="47.25702" lon="-2.32576">
        <ele>8.8000001907349</ele>
        <time>2021-09-26T06:55:25.000Z</time>
      </trkpt>
      <trkpt lat="47.25704" lon="-2.32582">
        <ele>9.1999998092651</ele>
        <time>2021-09-26T06:55:26.000Z</time>
      </trkpt>
      <trkpt lat="47.25705" lon="-2.32587">
        <ele>9.6000003814697</ele>
        <time>2021-09-26T06:55:27.000Z</time>
      </trkpt>
      <trkpt lat="47.25707" lon="-2.32592">
        <ele>10</ele>
        <time>2021-09-26T06:55:28.000Z</time>
      </trkpt>
      <trkpt lat="47.25708" lon="-2.32598">
        <ele>10.39999961853</ele>
        <time>2021-09-26T06:55:29.000Z</time>
      </trkpt>
      <trkpt lat="47.2571" lon="-2.32609">
        <ele>10.39999961853</ele>
        <time>2021-09-26T06:55:31.000Z</time>
      </trkpt>
      <trkpt lat="47.25711" lon="-2.32615">
        <ele>10.39999961853</ele>
        <time>2021-09-26T06:55:32.000Z</time>
      </trkpt>
      <trkpt lat="47.25706" lon="-2.32624">
        <ele>10.39999961853</ele>
        <time>2021-09-26T06:55:34.000Z</time>
      </trkpt>
      <trkpt lat="47.25695" lon="-2.32628">
        <ele>10.39999961853</ele>
        <time>2021-09-26T06:55:37.000Z</time>
      </trkpt>
      <trkpt lat="47.25691" lon="-2.3263">
        <ele>10.39999961853</ele>
        <time>2021-09-26T06:55:38.000Z</time>
      </trkpt>
      <trkpt lat="47.25664" lon="-2.3264">
        <ele>10.800000190735</ele>
        <time>2021-09-26T06:55:45.000Z</time>
      </trkpt>
      <trkpt lat="47.25661" lon="-2.32642">
        <ele>11.199999809265</ele>
        <time>2021-09-26T06:55:46.000Z</time>
      </trkpt>
      <trkpt lat="47.25657" lon="-2.32643">
        <ele>12</ele>
        <time>2021-09-26T06:55:47.000Z</time>
      </trkpt>
      <trkpt lat="47.25653" lon="-2.32645">
        <ele>12.60000038147</ele>
        <time>2021-09-26T06:55:48.000Z</time>
      </trkpt>
      <trkpt lat="47.25631" lon="-2.32655">
        <ele>12.60000038147</ele>
        <time>2021-09-26T06:55:54.000Z</time>
      </trkpt>
      <trkpt lat="47.25609" lon="-2.32665">
        <ele>12.60000038147</ele>
        <time>2021-09-26T06:56:00.000Z</time>
      </trkpt>
      <trkpt lat="47.25572" lon="-2.32681">
        <ele>13</ele>
        <time>2021-09-26T06:56:09.000Z</time>
      </trkpt>
      <trkpt lat="47.25568" lon="-2.32683">
        <ele>13.39999961853</ele>
        <time>2021-09-26T06:56:10.000Z</time>
      </trkpt>
      <trkpt lat="47.25564" lon="-2.32685">
        <ele>13.800000190735</ele>
        <time>2021-09-26T06:56:11.000Z</time>
      </trkpt>
      <trkpt lat="47.2556" lon="-2.32687">
        <ele>14.60000038147</ele>
        <time>2021-09-26T06:56:12.000Z</time>
      </trkpt>
      <trkpt lat="47.25539" lon="-2.32696">
        <ele>14.60000038147</ele>
        <time>2021-09-26T06:56:17.000Z</time>
      </trkpt>
      <trkpt lat="47.25521" lon="-2.32701">
        <ele>14.60000038147</ele>
        <time>2021-09-26T06:56:21.000Z</time>
      </trkpt>
      <trkpt lat="47.25508" lon="-2.32701">
        <ele>14.60000038147</ele>
        <time>2021-09-26T06:56:24.000Z</time>
      </trkpt>
      <trkpt lat="47.25486" lon="-2.32706">
        <ele>14.60000038147</ele>
        <time>2021-09-26T06:56:29.000Z</time>
      </trkpt>
      <trkpt lat="47.25478" lon="-2.32712">
        <ele>14.60000038147</ele>
        <time>2021-09-26T06:56:31.000Z</time>
      </trkpt>
      <trkpt lat="47.25464" lon="-2.3273">
        <ele>14.60000038147</ele>
        <time>2021-09-26T06:56:35.000Z</time>
      </trkpt>
      <trkpt lat="47.25451" lon="-2.32748">
        <ele>14.60000038147</ele>
        <time>2021-09-26T06:56:37.000Z</time>
      </trkpt>
      <trkpt lat="47.25436" lon="-2.32772">
        <ele>14.60000038147</ele>
        <time>2021-09-26T06:56:44.000Z</time>
      </trkpt>
      <trkpt lat="47.25432" lon="-2.32784">
        <ele>14.60000038147</ele>
        <time>2021-09-26T06:56:46.000Z</time>
      </trkpt>
      <trkpt lat="47.25425" lon="-2.32794">
        <ele>14.60000038147</ele>
        <time>2021-09-26T06:56:48.000Z</time>
      </trkpt>
      <trkpt lat="47.25421" lon="-2.32799">
        <ele>14.60000038147</ele>
        <time>2021-09-26T06:56:49.000Z</time>
      </trkpt>
      <trkpt lat="47.25418" lon="-2.32805">
        <ele>14.60000038147</ele>
        <time>2021-09-26T06:56:50.000Z</time>
      </trkpt>
      <trkpt lat="47.25392" lon="-2.32841">
        <ele>14.199999809265</ele>
        <time>2021-09-26T06:56:57.000Z</time>
      </trkpt>
      <trkpt lat="47.25388" lon="-2.32846">
        <ele>13.60000038147</ele>
        <time>2021-09-26T06:56:58.000Z</time>
      </trkpt>
      <trkpt lat="47.25384" lon="-2.3285">
        <ele>13.199999809265</ele>
        <time>2021-09-26T06:56:59.000Z</time>
      </trkpt>
      <trkpt lat="47.2538" lon="-2.32854">
        <ele>12.800000190735</ele>
        <time>2021-09-26T06:57:00.000Z</time>
      </trkpt>
      <trkpt lat="47.25376" lon="-2.32858">
        <ele>12.39999961853</ele>
        <time>2021-09-26T06:57:01.000Z</time>
      </trkpt>
      <trkpt lat="47.2536" lon="-2.32874">
        <ele>12.39999961853</ele>
        <time>2021-09-26T06:57:05.000Z</time>
      </trkpt>
      <trkpt lat="47.25329" lon="-2.32905">
        <ele>12.39999961853</ele>
        <time>2021-09-26T06:57:13.000Z</time>
      </trkpt>
      <trkpt lat="47.25321" lon="-2.32913">
        <ele>12.39999961853</ele>
        <time>2021-09-26T06:57:15.000Z</time>
      </trkpt>
      <trkpt lat="47.25312" lon="-2.32924">
        <ele>12.39999961853</ele>
        <time>2021-09-26T06:57:18.000Z</time>
      </trkpt>
      <trkpt lat="47.2531" lon="-2.32929">
        <ele>12.39999961853</ele>
        <time>2021-09-26T06:57:19.000Z</time>
      </trkpt>
      <trkpt lat="47.25309" lon="-2.32951">
        <ele>12.39999961853</ele>
        <time>2021-09-26T06:57:23.000Z</time>
      </trkpt>
      <trkpt lat="47.25316" lon="-2.32968">
        <ele>12.39999961853</ele>
        <time>2021-09-26T06:57:26.000Z</time>
      </trkpt>
      <trkpt lat="47.25323" lon="-2.32986">
        <ele>12.39999961853</ele>
        <time>2021-09-26T06:57:29.000Z</time>
      </trkpt>
      <trkpt lat="47.2533" lon="-2.33004">
        <ele>12</ele>
        <time>2021-09-26T06:57:32.000Z</time>
      </trkpt>
      <trkpt lat="47.25332" lon="-2.3301">
        <ele>11.60000038147</ele>
        <time>2021-09-26T06:57:33.000Z</time>
      </trkpt>
      <trkpt lat="47.25335" lon="-2.33015">
        <ele>11.199999809265</ele>
        <time>2021-09-26T06:57:34.000Z</time>
      </trkpt>
      <trkpt lat="47.25337" lon="-2.33021">
        <ele>10.800000190735</ele>
        <time>2021-09-26T06:57:35.000Z</time>
      </trkpt>
      <trkpt lat="47.2534" lon="-2.33027">
        <ele>10.39999961853</ele>
        <time>2021-09-26T06:57:36.000Z</time>
      </trkpt>
      <trkpt lat="47.25342" lon="-2.33033">
        <ele>10.39999961853</ele>
        <time>2021-09-26T06:57:37.000Z</time>
      </trkpt>
      <trkpt lat="47.25356" lon="-2.33066">
        <ele>10.39999961853</ele>
        <time>2021-09-26T06:57:43.000Z</time>
      </trkpt>
      <trkpt lat="47.25365" lon="-2.33096">
        <ele>10.39999961853</ele>
        <time>2021-09-26T06:57:49.000Z</time>
      </trkpt>
      <trkpt lat="47.25366" lon="-2.33096">
        <ele>10.39999961853</ele>
        <time>2021-09-26T06:57:52.000Z</time>
      </trkpt>
      <trkpt lat="47.25364" lon="-2.33088">
        <ele>6.4000000953674</ele>
        <time>2021-09-26T07:09:03.000Z</time>
      </trkpt>
      <trkpt lat="47.25362" lon="-2.33082">
        <ele>6.4000000953674</ele>
        <time>2021-09-26T07:09:06.000Z</time>
      </trkpt>
      <trkpt lat="47.25355" lon="-2.33064">
        <ele>6.4000000953674</ele>
        <time>2021-09-26T07:09:12.000Z</time>
      </trkpt>
      <trkpt lat="47.25346" lon="-2.33047">
        <ele>6.4000000953674</ele>
        <time>2021-09-26T07:09:18.000Z</time>
      </trkpt>
      <trkpt lat="47.25341" lon="-2.3303">
        <ele>6.4000000953674</ele>
        <time>2021-09-26T07:09:23.000Z</time>
      </trkpt>
      <trkpt lat="47.25328" lon="-2.32998">
        <ele>6.4000000953674</ele>
        <time>2021-09-26T07:09:30.000Z</time>
      </trkpt>
      <trkpt lat="47.25318" lon="-2.32969">
        <ele>6.4000000953674</ele>
        <time>2021-09-26T07:09:36.000Z</time>
      </trkpt>
      <trkpt lat="47.25306" lon="-2.32939">
        <ele>6.4000000953674</ele>
        <time>2021-09-26T07:09:43.000Z</time>
      </trkpt>
      <trkpt lat="47.253" lon="-2.32935">
        <ele>6.4000000953674</ele>
        <time>2021-09-26T07:09:45.000Z</time>
      </trkpt>
      <trkpt lat="47.25294" lon="-2.32939">
        <ele>6.4000000953674</ele>
        <time>2021-09-26T07:09:47.000Z</time>
      </trkpt>
      <trkpt lat="47.25289" lon="-2.32945">
        <ele>6.4000000953674</ele>
        <time>2021-09-26T07:09:49.000Z</time>
      </trkpt>
      <trkpt lat="47.25277" lon="-2.32957">
        <ele>6.4000000953674</ele>
        <time>2021-09-26T07:09:53.000Z</time>
      </trkpt>
      <trkpt lat="47.25256" lon="-2.32977">
        <ele>6.4000000953674</ele>
        <time>2021-09-26T07:10:00.000Z</time>
      </trkpt>
      <trkpt lat="47.25232" lon="-2.33002">
        <ele>6.4000000953674</ele>
        <time>2021-09-26T07:10:08.000Z</time>
      </trkpt>
      <trkpt lat="47.25201" lon="-2.33032">
        <ele>6.4000000953674</ele>
        <time>2021-09-26T07:10:18.000Z</time>
      </trkpt>
      <trkpt lat="47.25177" lon="-2.33056">
        <ele>6.4000000953674</ele>
        <time>2021-09-26T07:10:24.000Z</time>
      </trkpt>
      <trkpt lat="47.25152" lon="-2.33075">
        <ele>6.4000000953674</ele>
        <time>2021-09-26T07:10:30.000Z</time>
      </trkpt>
      <trkpt lat="47.25138" lon="-2.33081">
        <ele>6</ele>
        <time>2021-09-26T07:10:34.000Z</time>
      </trkpt>
      <trkpt lat="47.25135" lon="-2.33083">
        <ele>5.1999998092651</ele>
        <time>2021-09-26T07:10:35.000Z</time>
      </trkpt>
      <trkpt lat="47.25131" lon="-2.33085">
        <ele>4.8000001907349</ele>
        <time>2021-09-26T07:10:36.000Z</time>
      </trkpt>
      <trkpt lat="47.25129" lon="-2.33087">
        <ele>4.4000000953674</ele>
        <time>2021-09-26T07:10:37.000Z</time>
      </trkpt>
      <trkpt lat="47.25119" lon="-2.33092">
        <ele>4.4000000953674</ele>
        <time>2021-09-26T07:10:41.000Z</time>
      </trkpt>
      <trkpt lat="47.25117" lon="-2.33091">
        <ele>4.4000000953674</ele>
        <time>2021-09-26T07:10:42.000Z</time>
      </trkpt>
      <trkpt lat="47.25114" lon="-2.33085">
        <ele>4.4000000953674</ele>
        <time>2021-09-26T07:10:44.000Z</time>
      </trkpt>
      <trkpt lat="47.25118" lon="-2.3307">
        <ele>4.4000000953674</ele>
        <time>2021-09-26T07:10:48.000Z</time>
      </trkpt>
      <trkpt lat="47.25123" lon="-2.3305">
        <ele>4.4000000953674</ele>
        <time>2021-09-26T07:10:53.000Z</time>
      </trkpt>
      <trkpt lat="47.25124" lon="-2.33047">
        <ele>4.4000000953674</ele>
        <time>2021-09-26T07:10:54.000Z</time>
      </trkpt>
      <trkpt lat="47.25131" lon="-2.33032">
        <ele>4.4000000953674</ele>
        <time>2021-09-26T07:11:00.000Z</time>
      </trkpt>
      <trkpt lat="47.25136" lon="-2.33019">
        <ele>4.4000000953674</ele>
        <time>2021-09-26T07:11:07.000Z</time>
      </trkpt>
      <trkpt lat="47.25135" lon="-2.3301">
        <ele>4.4000000953674</ele>
        <time>2021-09-26T07:11:13.000Z</time>
      </trkpt>
      <trkpt lat="47.25131" lon="-2.32993">
        <ele>4.4000000953674</ele>
        <time>2021-09-26T07:11:18.000Z</time>
      </trkpt>
      <trkpt lat="47.25115" lon="-2.32971">
        <ele>4.4000000953674</ele>
        <time>2021-09-26T07:11:25.000Z</time>
      </trkpt>
      <trkpt lat="47.25101" lon="-2.32945">
        <ele>4.4000000953674</ele>
        <time>2021-09-26T07:11:32.000Z</time>
      </trkpt>
      <trkpt lat="47.25094" lon="-2.32919">
        <ele>4.4000000953674</ele>
        <time>2021-09-26T07:11:38.000Z</time>
      </trkpt>
      <trkpt lat="47.25091" lon="-2.32902">
        <ele>4.4000000953674</ele>
        <time>2021-09-26T07:11:42.000Z</time>
      </trkpt>
      <trkpt lat="47.2509" lon="-2.32898">
        <ele>4.4000000953674</ele>
        <time>2021-09-26T07:11:44.000Z</time>
      </trkpt>
      <trkpt lat="47.25085" lon="-2.32892">
        <ele>4.4000000953674</ele>
        <time>2021-09-26T07:11:47.000Z</time>
      </trkpt>
      <trkpt lat="47.25084" lon="-2.32891">
        <ele>4.4000000953674</ele>
        <time>2021-09-26T07:11:48.000Z</time>
      </trkpt>
      <trkpt lat="47.25079" lon="-2.32876">
        <ele>4.4000000953674</ele>
        <time>2021-09-26T07:11:54.000Z</time>
      </trkpt>
      <trkpt lat="47.25076" lon="-2.3286">
        <ele>4.4000000953674</ele>
        <time>2021-09-26T07:11:59.000Z</time>
      </trkpt>
      <trkpt lat="47.25076" lon="-2.32845">
        <ele>4.4000000953674</ele>
        <time>2021-09-26T07:12:04.000Z</time>
      </trkpt>
      <trkpt lat="47.25073" lon="-2.32842">
        <ele>4.4000000953674</ele>
        <time>2021-09-26T07:12:05.000Z</time>
      </trkpt>
      <trkpt lat="47.25066" lon="-2.32834">
        <ele>4.4000000953674</ele>
        <time>2021-09-26T07:12:08.000Z</time>
      </trkpt>
      <trkpt lat="47.25056" lon="-2.32821">
        <ele>4.4000000953674</ele>
        <time>2021-09-26T07:12:12.000Z</time>
      </trkpt>
      <trkpt lat="47.25046" lon="-2.32797">
        <ele>4.4000000953674</ele>
        <time>2021-09-26T07:12:17.000Z</time>
      </trkpt>
      <trkpt lat="47.25041" lon="-2.32777">
        <ele>4.4000000953674</ele>
        <time>2021-09-26T07:12:22.000Z</time>
      </trkpt>
      <trkpt lat="47.2503" lon="-2.32758">
        <ele>4.4000000953674</ele>
        <time>2021-09-26T07:12:28.000Z</time>
      </trkpt>
      <trkpt lat="47.25026" lon="-2.32747">
        <ele>4.4000000953674</ele>
        <time>2021-09-26T07:12:32.000Z</time>
      </trkpt>
      <trkpt lat="47.25027" lon="-2.32743">
        <ele>4.4000000953674</ele>
        <time>2021-09-26T07:12:33.000Z</time>
      </trkpt>
      <trkpt lat="47.25035" lon="-2.32736">
        <ele>4.4000000953674</ele>
        <time>2021-09-26T07:12:36.000Z</time>
      </trkpt>
      <trkpt lat="47.25054" lon="-2.32718">
        <ele>4.4000000953674</ele>
        <time>2021-09-26T07:12:43.000Z</time>
      </trkpt>
      <trkpt lat="47.25073" lon="-2.32702">
        <ele>4.4000000953674</ele>
        <time>2021-09-26T07:12:49.000Z</time>
      </trkpt>
      <trkpt lat="47.25084" lon="-2.32688">
        <ele>4.8000001907349</ele>
        <time>2021-09-26T07:12:54.000Z</time>
      </trkpt>
      <trkpt lat="47.25084" lon="-2.32683">
        <ele>5.1999998092651</ele>
        <time>2021-09-26T07:12:55.000Z</time>
      </trkpt>
      <trkpt lat="47.25082" lon="-2.32679">
        <ele>5.5999999046326</ele>
        <time>2021-09-26T07:12:56.000Z</time>
      </trkpt>
      <trkpt lat="47.2508" lon="-2.32676">
        <ele>6</ele>
        <time>2021-09-26T07:12:57.000Z</time>
      </trkpt>
      <trkpt lat="47.25077" lon="-2.32672">
        <ele>6.4000000953674</ele>
        <time>2021-09-26T07:12:58.000Z</time>
      </trkpt>
      <trkpt lat="47.25073" lon="-2.32663">
        <ele>6.4000000953674</ele>
        <time>2021-09-26T07:13:00.000Z</time>
      </trkpt>
      <trkpt lat="47.25067" lon="-2.3265">
        <ele>6.4000000953674</ele>
        <time>2021-09-26T07:13:03.000Z</time>
      </trkpt>
      <trkpt lat="47.25054" lon="-2.32619">
        <ele>6.4000000953674</ele>
        <time>2021-09-26T07:13:10.000Z</time>
      </trkpt>
      <trkpt lat="47.25049" lon="-2.32607">
        <ele>6.8000001907349</ele>
        <time>2021-09-26T07:13:13.000Z</time>
      </trkpt>
      <trkpt lat="47.25046" lon="-2.32603">
        <ele>7.1999998092651</ele>
        <time>2021-09-26T07:13:14.000Z</time>
      </trkpt>
      <trkpt lat="47.25045" lon="-2.32598">
        <ele>7.5999999046326</ele>
        <time>2021-09-26T07:13:15.000Z</time>
      </trkpt>
      <trkpt lat="47.25042" lon="-2.32595">
        <ele>8</ele>
        <time>2021-09-26T07:13:16.000Z</time>
      </trkpt>
      <trkpt lat="47.25041" lon="-2.32591">
        <ele>8.3999996185303</ele>
        <time>2021-09-26T07:13:17.000Z</time>
      </trkpt>
      <trkpt lat="47.25032" lon="-2.32567">
        <ele>8.3999996185303</ele>
        <time>2021-09-26T07:13:23.000Z</time>
      </trkpt>
      <trkpt lat="47.25028" lon="-2.32534">
        <ele>8.8000001907349</ele>
        <time>2021-09-26T07:13:30.000Z</time>
      </trkpt>
      <trkpt lat="47.25028" lon="-2.3253">
        <ele>9.1999998092651</ele>
        <time>2021-09-26T07:13:31.000Z</time>
      </trkpt>
      <trkpt lat="47.25029" lon="-2.32526">
        <ele>9.8000001907349</ele>
        <time>2021-09-26T07:13:32.000Z</time>
      </trkpt>
      <trkpt lat="47.25031" lon="-2.32522">
        <ele>10.199999809265</ele>
        <time>2021-09-26T07:13:33.000Z</time>
      </trkpt>
      <trkpt lat="47.25033" lon="-2.32519">
        <ele>10.60000038147</ele>
        <time>2021-09-26T07:13:34.000Z</time>
      </trkpt>
      <trkpt lat="47.25034" lon="-2.32517">
        <ele>10.60000038147</ele>
        <time>2021-09-26T07:13:35.000Z</time>
      </trkpt>
      <trkpt lat="47.25049" lon="-2.32504">
        <ele>10.60000038147</ele>
        <time>2021-09-26T07:13:41.000Z</time>
      </trkpt>
      <trkpt lat="47.25065" lon="-2.32494">
        <ele>11</ele>
        <time>2021-09-26T07:13:47.000Z</time>
      </trkpt>
      <trkpt lat="47.25069" lon="-2.32493">
        <ele>11.39999961853</ele>
        <time>2021-09-26T07:13:48.000Z</time>
      </trkpt>
      <trkpt lat="47.25072" lon="-2.32492">
        <ele>11.800000190735</ele>
        <time>2021-09-26T07:13:49.000Z</time>
      </trkpt>
      <trkpt lat="47.25075" lon="-2.32491">
        <ele>12.199999809265</ele>
        <time>2021-09-26T07:13:50.000Z</time>
      </trkpt>
      <trkpt lat="47.25079" lon="-2.32489">
        <ele>12.60000038147</ele>
        <time>2021-09-26T07:13:51.000Z</time>
      </trkpt>
      <trkpt lat="47.25088" lon="-2.32485">
        <ele>12.60000038147</ele>
        <time>2021-09-26T07:13:54.000Z</time>
      </trkpt>
      <trkpt lat="47.25103" lon="-2.32468">
        <ele>12.60000038147</ele>
        <time>2021-09-26T07:14:00.000Z</time>
      </trkpt>
      <trkpt lat="47.25107" lon="-2.32445">
        <ele>12.60000038147</ele>
        <time>2021-09-26T07:14:05.000Z</time>
      </trkpt>
      <trkpt lat="47.25105" lon="-2.3241">
        <ele>12.60000038147</ele>
        <time>2021-09-26T07:14:12.000Z</time>
      </trkpt>
      <trkpt lat="47.25105" lon="-2.32399">
        <ele>13</ele>
        <time>2021-09-26T07:14:14.000Z</time>
      </trkpt>
      <trkpt lat="47.25105" lon="-2.32394">
        <ele>13.39999961853</ele>
        <time>2021-09-26T07:14:15.000Z</time>
      </trkpt>
      <trkpt lat="47.25105" lon="-2.32388">
        <ele>13.800000190735</ele>
        <time>2021-09-26T07:14:16.000Z</time>
      </trkpt>
      <trkpt lat="47.25105" lon="-2.32382">
        <ele>14.60000038147</ele>
        <time>2021-09-26T07:14:17.000Z</time>
      </trkpt>
      <trkpt lat="47.25105" lon="-2.32377">
        <ele>14.60000038147</ele>
        <time>2021-09-26T07:14:18.000Z</time>
      </trkpt>
      <trkpt lat="47.25112" lon="-2.32339">
        <ele>14.60000038147</ele>
        <time>2021-09-26T07:14:26.000Z</time>
      </trkpt>
      <trkpt lat="47.2512" lon="-2.32318">
        <ele>15</ele>
        <time>2021-09-26T07:14:31.000Z</time>
      </trkpt>
      <trkpt lat="47.25122" lon="-2.32315">
        <ele>15.39999961853</ele>
        <time>2021-09-26T07:14:32.000Z</time>
      </trkpt>
      <trkpt lat="47.25124" lon="-2.32312">
        <ele>15.800000190735</ele>
        <time>2021-09-26T07:14:33.000Z</time>
      </trkpt>
      <trkpt lat="47.25126" lon="-2.32309">
        <ele>16.39999961853</ele>
        <time>2021-09-26T07:14:34.000Z</time>
      </trkpt>
      <trkpt lat="47.25128" lon="-2.32306">
        <ele>16.799999237061</ele>
        <time>2021-09-26T07:14:35.000Z</time>
      </trkpt>
      <trkpt lat="47.25134" lon="-2.32292">
        <ele>16.799999237061</ele>
        <time>2021-09-26T07:14:39.000Z</time>
      </trkpt>
      <trkpt lat="47.25134" lon="-2.32278">
        <ele>17.200000762939</ele>
        <time>2021-09-26T07:14:42.000Z</time>
      </trkpt>
      <trkpt lat="47.25133" lon="-2.32272">
        <ele>17.60000038147</ele>
        <time>2021-09-26T07:14:43.000Z</time>
      </trkpt>
      <trkpt lat="47.25133" lon="-2.32267">
        <ele>18</ele>
        <time>2021-09-26T07:14:44.000Z</time>
      </trkpt>
      <trkpt lat="47.25132" lon="-2.32262">
        <ele>18.39999961853</ele>
        <time>2021-09-26T07:14:45.000Z</time>
      </trkpt>
      <trkpt lat="47.25132" lon="-2.32256">
        <ele>18.799999237061</ele>
        <time>2021-09-26T07:14:46.000Z</time>
      </trkpt>
      <trkpt lat="47.25129" lon="-2.32225">
        <ele>18.799999237061</ele>
        <time>2021-09-26T07:14:52.000Z</time>
      </trkpt>
      <trkpt lat="47.25128" lon="-2.32188">
        <ele>18.799999237061</ele>
        <time>2021-09-26T07:14:59.000Z</time>
      </trkpt>
      <trkpt lat="47.25124" lon="-2.32131">
        <ele>18.799999237061</ele>
        <time>2021-09-26T07:15:09.000Z</time>
      </trkpt>
      <trkpt lat="47.25117" lon="-2.32067">
        <ele>18.799999237061</ele>
        <time>2021-09-26T07:15:19.000Z</time>
      </trkpt>
      <trkpt lat="47.25116" lon="-2.32018">
        <ele>18.799999237061</ele>
        <time>2021-09-26T07:15:27.000Z</time>
      </trkpt>
      <trkpt lat="47.25111" lon="-2.31987">
        <ele>18.799999237061</ele>
        <time>2021-09-26T07:15:32.000Z</time>
      </trkpt>
      <trkpt lat="47.25109" lon="-2.31981">
        <ele>18.799999237061</ele>
        <time>2021-09-26T07:15:33.000Z</time>
      </trkpt>
      <trkpt lat="47.25108" lon="-2.31975">
        <ele>18.799999237061</ele>
        <time>2021-09-26T07:15:34.000Z</time>
      </trkpt>
      <trkpt lat="47.25107" lon="-2.31963">
        <ele>18.799999237061</ele>
        <time>2021-09-26T07:15:36.000Z</time>
      </trkpt>
      <trkpt lat="47.25106" lon="-2.31948">
        <ele>18.799999237061</ele>
        <time>2021-09-26T07:15:38.000Z</time>
      </trkpt>
      <trkpt lat="47.251" lon="-2.31895">
        <ele>18.799999237061</ele>
        <time>2021-09-26T07:15:46.000Z</time>
      </trkpt>
      <trkpt lat="47.25096" lon="-2.31868">
        <ele>19.200000762939</ele>
        <time>2021-09-26T07:15:50.000Z</time>
      </trkpt>
      <trkpt lat="47.25095" lon="-2.31861">
        <ele>19.60000038147</ele>
        <time>2021-09-26T07:15:51.000Z</time>
      </trkpt>
      <trkpt lat="47.25094" lon="-2.31854">
        <ele>20</ele>
        <time>2021-09-26T07:15:52.000Z</time>
      </trkpt>
      <trkpt lat="47.25093" lon="-2.31848">
        <ele>20.39999961853</ele>
        <time>2021-09-26T07:15:53.000Z</time>
      </trkpt>
      <trkpt lat="47.25092" lon="-2.31841">
        <ele>20.799999237061</ele>
        <time>2021-09-26T07:15:54.000Z</time>
      </trkpt>
      <trkpt lat="47.25084" lon="-2.31796">
        <ele>20.799999237061</ele>
        <time>2021-09-26T07:16:01.000Z</time>
      </trkpt>
      <trkpt lat="47.2508" lon="-2.31783">
        <ele>20.799999237061</ele>
        <time>2021-09-26T07:16:03.000Z</time>
      </trkpt>
      <trkpt lat="47.25067" lon="-2.31727">
        <ele>20.799999237061</ele>
        <time>2021-09-26T07:16:12.000Z</time>
      </trkpt>
      <trkpt lat="47.25056" lon="-2.31684">
        <ele>20.799999237061</ele>
        <time>2021-09-26T07:16:19.000Z</time>
      </trkpt>
      <trkpt lat="47.25044" lon="-2.31646">
        <ele>20.799999237061</ele>
        <time>2021-09-26T07:16:26.000Z</time>
      </trkpt>
      <trkpt lat="47.25032" lon="-2.3163">
        <ele>20.799999237061</ele>
        <time>2021-09-26T07:16:30.000Z</time>
      </trkpt>
      <trkpt lat="47.25026" lon="-2.31622">
        <ele>20.799999237061</ele>
        <time>2021-09-26T07:16:32.000Z</time>
      </trkpt>
      <trkpt lat="47.25009" lon="-2.31604">
        <ele>21.200000762939</ele>
        <time>2021-09-26T07:16:37.000Z</time>
      </trkpt>
      <trkpt lat="47.25005" lon="-2.316">
        <ele>21.60000038147</ele>
        <time>2021-09-26T07:16:38.000Z</time>
      </trkpt>
      <trkpt lat="47.25002" lon="-2.31597">
        <ele>22</ele>
        <time>2021-09-26T07:16:39.000Z</time>
      </trkpt>
      <trkpt lat="47.24999" lon="-2.31594">
        <ele>22.60000038147</ele>
        <time>2021-09-26T07:16:40.000Z</time>
      </trkpt>
      <trkpt lat="47.24996" lon="-2.3159">
        <ele>23</ele>
        <time>2021-09-26T07:16:41.000Z</time>
      </trkpt>
      <trkpt lat="47.24977" lon="-2.31564">
        <ele>23</ele>
        <time>2021-09-26T07:16:47.000Z</time>
      </trkpt>
      <trkpt lat="47.24975" lon="-2.31559">
        <ele>23</ele>
        <time>2021-09-26T07:16:48.000Z</time>
      </trkpt>
      <trkpt lat="47.24969" lon="-2.31532">
        <ele>23</ele>
        <time>2021-09-26T07:16:52.000Z</time>
      </trkpt>
      <trkpt lat="47.24967" lon="-2.31525">
        <ele>23</ele>
        <time>2021-09-26T07:16:53.000Z</time>
      </trkpt>
      <trkpt lat="47.24963" lon="-2.31495">
        <ele>23</ele>
        <time>2021-09-26T07:16:58.000Z</time>
      </trkpt>
      <trkpt lat="47.24963" lon="-2.31489">
        <ele>23</ele>
        <time>2021-09-26T07:16:59.000Z</time>
      </trkpt>
      <trkpt lat="47.24961" lon="-2.31444">
        <ele>23</ele>
        <time>2021-09-26T07:17:06.000Z</time>
      </trkpt>
      <trkpt lat="47.24951" lon="-2.31395">
        <ele>23</ele>
        <time>2021-09-26T07:17:14.000Z</time>
      </trkpt>
      <trkpt lat="47.24938" lon="-2.31352">
        <ele>23</ele>
        <time>2021-09-26T07:17:21.000Z</time>
      </trkpt>
      <trkpt lat="47.24924" lon="-2.31307">
        <ele>23</ele>
        <time>2021-09-26T07:17:29.000Z</time>
      </trkpt>
      <trkpt lat="47.24917" lon="-2.31283">
        <ele>23.799999237061</ele>
        <time>2021-09-26T07:17:34.000Z</time>
      </trkpt>
      <trkpt lat="47.24916" lon="-2.31277">
        <ele>24.200000762939</ele>
        <time>2021-09-26T07:17:35.000Z</time>
      </trkpt>
      <trkpt lat="47.24914" lon="-2.31271">
        <ele>24.60000038147</ele>
        <time>2021-09-26T07:17:36.000Z</time>
      </trkpt>
      <trkpt lat="47.24913" lon="-2.31265">
        <ele>25</ele>
        <time>2021-09-26T07:17:37.000Z</time>
      </trkpt>
      <trkpt lat="47.24911" lon="-2.3126">
        <ele>25</ele>
        <time>2021-09-26T07:17:38.000Z</time>
      </trkpt>
      <trkpt lat="47.24904" lon="-2.31235">
        <ele>25</ele>
        <time>2021-09-26T07:17:42.000Z</time>
      </trkpt>
      <trkpt lat="47.24892" lon="-2.3119">
        <ele>25</ele>
        <time>2021-09-26T07:17:49.000Z</time>
      </trkpt>
      <trkpt lat="47.24882" lon="-2.31156">
        <ele>25</ele>
        <time>2021-09-26T07:17:54.000Z</time>
      </trkpt>
      <trkpt lat="47.24878" lon="-2.31142">
        <ele>25</ele>
        <time>2021-09-26T07:17:56.000Z</time>
      </trkpt>
      <trkpt lat="47.24863" lon="-2.31087">
        <ele>25</ele>
        <time>2021-09-26T07:18:04.000Z</time>
      </trkpt>
      <trkpt lat="47.24846" lon="-2.31042">
        <ele>25</ele>
        <time>2021-09-26T07:18:11.000Z</time>
      </trkpt>
      <trkpt lat="47.24835" lon="-2.31011">
        <ele>25</ele>
        <time>2021-09-26T07:18:16.000Z</time>
      </trkpt>
      <trkpt lat="47.24828" lon="-2.30994">
        <ele>25</ele>
        <time>2021-09-26T07:18:19.000Z</time>
      </trkpt>
      <trkpt lat="47.24815" lon="-2.30968">
        <ele>25</ele>
        <time>2021-09-26T07:18:25.000Z</time>
      </trkpt>
      <trkpt lat="47.24802" lon="-2.30972">
        <ele>25</ele>
        <time>2021-09-26T07:18:29.000Z</time>
      </trkpt>
      <trkpt lat="47.24773" lon="-2.30988">
        <ele>25</ele>
        <time>2021-09-26T07:18:34.000Z</time>
      </trkpt>
      <trkpt lat="47.24753" lon="-2.30996">
        <ele>25</ele>
        <time>2021-09-26T07:18:37.000Z</time>
      </trkpt>
      <trkpt lat="47.24741" lon="-2.31004">
        <ele>24.60000038147</ele>
        <time>2021-09-26T07:18:39.000Z</time>
      </trkpt>
      <trkpt lat="47.24736" lon="-2.31009">
        <ele>24.200000762939</ele>
        <time>2021-09-26T07:18:40.000Z</time>
      </trkpt>
      <trkpt lat="47.2473" lon="-2.31015">
        <ele>23.60000038147</ele>
        <time>2021-09-26T07:18:41.000Z</time>
      </trkpt>
      <trkpt lat="47.24726" lon="-2.31022">
        <ele>23.200000762939</ele>
        <time>2021-09-26T07:18:42.000Z</time>
      </trkpt>
      <trkpt lat="47.24721" lon="-2.31029">
        <ele>22.799999237061</ele>
        <time>2021-09-26T07:18:43.000Z</time>
      </trkpt>
      <trkpt lat="47.24717" lon="-2.31036">
        <ele>22.799999237061</ele>
        <time>2021-09-26T07:18:44.000Z</time>
      </trkpt>
      <trkpt lat="47.24702" lon="-2.31067">
        <ele>22</ele>
        <time>2021-09-26T07:18:48.000Z</time>
      </trkpt>
      <trkpt lat="47.24698" lon="-2.31073">
        <ele>21.60000038147</ele>
        <time>2021-09-26T07:18:49.000Z</time>
      </trkpt>
      <trkpt lat="47.24694" lon="-2.3108">
        <ele>21.200000762939</ele>
        <time>2021-09-26T07:18:50.000Z</time>
      </trkpt>
      <trkpt lat="47.2469" lon="-2.31086">
        <ele>20.60000038147</ele>
        <time>2021-09-26T07:18:51.000Z</time>
      </trkpt>
      <trkpt lat="47.24672" lon="-2.31119">
        <ele>20.60000038147</ele>
        <time>2021-09-26T07:18:56.000Z</time>
      </trkpt>
      <trkpt lat="47.2467" lon="-2.31125">
        <ele>20.60000038147</ele>
        <time>2021-09-26T07:18:57.000Z</time>
      </trkpt>
      <trkpt lat="47.24656" lon="-2.3115">
        <ele>20.60000038147</ele>
        <time>2021-09-26T07:19:01.000Z</time>
      </trkpt>
      <trkpt lat="47.24652" lon="-2.31155">
        <ele>20.60000038147</ele>
        <time>2021-09-26T07:19:02.000Z</time>
      </trkpt>
      <trkpt lat="47.24636" lon="-2.31175">
        <ele>20.60000038147</ele>
        <time>2021-09-26T07:19:06.000Z</time>
      </trkpt>
      <trkpt lat="47.24628" lon="-2.31183">
        <ele>20.60000038147</ele>
        <time>2021-09-26T07:19:08.000Z</time>
      </trkpt>
      <trkpt lat="47.24614" lon="-2.31199">
        <ele>20.60000038147</ele>
        <time>2021-09-26T07:19:12.000Z</time>
      </trkpt>
      <trkpt lat="47.24603" lon="-2.3121">
        <ele>20.60000038147</ele>
        <time>2021-09-26T07:19:15.000Z</time>
      </trkpt>
      <trkpt lat="47.24592" lon="-2.31219">
        <ele>20.60000038147</ele>
        <time>2021-09-26T07:19:18.000Z</time>
      </trkpt>
      <trkpt lat="47.24566" lon="-2.31248">
        <ele>20.60000038147</ele>
        <time>2021-09-26T07:19:25.000Z</time>
      </trkpt>
      <trkpt lat="47.24535" lon="-2.31278">
        <ele>20.60000038147</ele>
        <time>2021-09-26T07:19:32.000Z</time>
      </trkpt>
      <trkpt lat="47.2451" lon="-2.31302">
        <ele>19.799999237061</ele>
        <time>2021-09-26T07:19:37.000Z</time>
      </trkpt>
      <trkpt lat="47.24505" lon="-2.31307">
        <ele>19.39999961853</ele>
        <time>2021-09-26T07:19:38.000Z</time>
      </trkpt>
      <trkpt lat="47.245" lon="-2.31311">
        <ele>19</ele>
        <time>2021-09-26T07:19:39.000Z</time>
      </trkpt>
      <trkpt lat="47.24495" lon="-2.31314">
        <ele>18.60000038147</ele>
        <time>2021-09-26T07:19:40.000Z</time>
      </trkpt>
      <trkpt lat="47.24492" lon="-2.31316">
        <ele>18</ele>
        <time>2021-09-26T07:19:41.000Z</time>
      </trkpt>
      <trkpt lat="47.24489" lon="-2.31315">
        <ele>17.60000038147</ele>
        <time>2021-09-26T07:19:42.000Z</time>
      </trkpt>
      <trkpt lat="47.24486" lon="-2.31311">
        <ele>17.200000762939</ele>
        <time>2021-09-26T07:19:43.000Z</time>
      </trkpt>
      <trkpt lat="47.24482" lon="-2.31306">
        <ele>16.799999237061</ele>
        <time>2021-09-26T07:19:44.000Z</time>
      </trkpt>
      <trkpt lat="47.24479" lon="-2.313">
        <ele>16.200000762939</ele>
        <time>2021-09-26T07:19:45.000Z</time>
      </trkpt>
      <trkpt lat="47.24477" lon="-2.31294">
        <ele>16.200000762939</ele>
        <time>2021-09-26T07:19:46.000Z</time>
      </trkpt>
      <trkpt lat="47.24468" lon="-2.31274">
        <ele>15.800000190735</ele>
        <time>2021-09-26T07:19:49.000Z</time>
      </trkpt>
      <trkpt lat="47.24466" lon="-2.31266">
        <ele>15.39999961853</ele>
        <time>2021-09-26T07:19:50.000Z</time>
      </trkpt>
      <trkpt lat="47.24464" lon="-2.31259">
        <ele>15</ele>
        <time>2021-09-26T07:19:51.000Z</time>
      </trkpt>
      <trkpt lat="47.24461" lon="-2.31253">
        <ele>14.60000038147</ele>
        <time>2021-09-26T07:19:52.000Z</time>
      </trkpt>
      <trkpt lat="47.24459" lon="-2.31247">
        <ele>14.199999809265</ele>
        <time>2021-09-26T07:19:53.000Z</time>
      </trkpt>
      <trkpt lat="47.24451" lon="-2.31229">
        <ele>14.199999809265</ele>
        <time>2021-09-26T07:19:57.000Z</time>
      </trkpt>
      <trkpt lat="47.24445" lon="-2.31222">
        <ele>13.800000190735</ele>
        <time>2021-09-26T07:20:00.000Z</time>
      </trkpt>
      <trkpt lat="47.24443" lon="-2.31222">
        <ele>13.39999961853</ele>
        <time>2021-09-26T07:20:01.000Z</time>
      </trkpt>
      <trkpt lat="47.24441" lon="-2.31222">
        <ele>12.39999961853</ele>
        <time>2021-09-26T07:20:02.000Z</time>
      </trkpt>
      <trkpt lat="47.24439" lon="-2.31223">
        <ele>12</ele>
        <time>2021-09-26T07:20:03.000Z</time>
      </trkpt>
      <trkpt lat="47.24436" lon="-2.31223">
        <ele>11.60000038147</ele>
        <time>2021-09-26T07:20:04.000Z</time>
      </trkpt>
      <trkpt lat="47.24434" lon="-2.31223">
        <ele>11.199999809265</ele>
        <time>2021-09-26T07:20:05.000Z</time>
      </trkpt>
      <trkpt lat="47.24432" lon="-2.3122">
        <ele>10.60000038147</ele>
        <time>2021-09-26T07:20:06.000Z</time>
      </trkpt>
      <trkpt lat="47.2443" lon="-2.31217">
        <ele>10.199999809265</ele>
        <time>2021-09-26T07:20:07.000Z</time>
      </trkpt>
      <trkpt lat="47.24428" lon="-2.31214">
        <ele>9.8000001907349</ele>
        <time>2021-09-26T07:20:08.000Z</time>
      </trkpt>
      <trkpt lat="47.24423" lon="-2.31204">
        <ele>9.8000001907349</ele>
        <time>2021-09-26T07:20:12.000Z</time>
      </trkpt>
      <trkpt lat="47.24417" lon="-2.31191">
        <ele>9.8000001907349</ele>
        <time>2021-09-26T07:20:17.000Z</time>
      </trkpt>
      <trkpt lat="47.24415" lon="-2.31189">
        <ele>10.199999809265</ele>
        <time>2021-09-26T07:20:18.000Z</time>
      </trkpt>
      <trkpt lat="47.24413" lon="-2.31187">
        <ele>10.60000038147</ele>
        <time>2021-09-26T07:20:19.000Z</time>
      </trkpt>
      <trkpt lat="47.2441" lon="-2.31185">
        <ele>11.199999809265</ele>
        <time>2021-09-26T07:20:20.000Z</time>
      </trkpt>
      <trkpt lat="47.24408" lon="-2.31184">
        <ele>11.60000038147</ele>
        <time>2021-09-26T07:20:21.000Z</time>
      </trkpt>
      <trkpt lat="47.24406" lon="-2.31182">
        <ele>12</ele>
        <time>2021-09-26T07:20:22.000Z</time>
      </trkpt>
      <trkpt lat="47.24402" lon="-2.31178">
        <ele>12</ele>
        <time>2021-09-26T07:20:24.000Z</time>
      </trkpt>
      <trkpt lat="47.24387" lon="-2.31158">
        <ele>12.39999961853</ele>
        <time>2021-09-26T07:20:29.000Z</time>
      </trkpt>
      <trkpt lat="47.24384" lon="-2.31153">
        <ele>12.800000190735</ele>
        <time>2021-09-26T07:20:30.000Z</time>
      </trkpt>
      <trkpt lat="47.2438" lon="-2.31148">
        <ele>13.199999809265</ele>
        <time>2021-09-26T07:20:31.000Z</time>
      </trkpt>
      <trkpt lat="47.24377" lon="-2.31143">
        <ele>13.60000038147</ele>
        <time>2021-09-26T07:20:32.000Z</time>
      </trkpt>
      <trkpt lat="47.24374" lon="-2.31139">
        <ele>14</ele>
        <time>2021-09-26T07:20:33.000Z</time>
      </trkpt>
      <trkpt lat="47.24367" lon="-2.31127">
        <ele>14</ele>
        <time>2021-09-26T07:20:36.000Z</time>
      </trkpt>
      <trkpt lat="47.24357" lon="-2.31097">
        <ele>14</ele>
        <time>2021-09-26T07:20:43.000Z</time>
      </trkpt>
      <trkpt lat="47.24343" lon="-2.31061">
        <ele>14</ele>
        <time>2021-09-26T07:20:51.000Z</time>
      </trkpt>
      <trkpt lat="47.24333" lon="-2.31038">
        <ele>14</ele>
        <time>2021-09-26T07:20:56.000Z</time>
      </trkpt>
      <trkpt lat="47.2433" lon="-2.31035">
        <ele>14</ele>
        <time>2021-09-26T07:20:57.000Z</time>
      </trkpt>
      <trkpt lat="47.24323" lon="-2.3103">
        <ele>14</ele>
        <time>2021-09-26T07:20:59.000Z</time>
      </trkpt>
      <trkpt lat="47.24318" lon="-2.31029">
        <ele>14</ele>
        <time>2021-09-26T07:21:00.000Z</time>
      </trkpt>
      <trkpt lat="47.24301" lon="-2.31031">
        <ele>14</ele>
        <time>2021-09-26T07:21:03.000Z</time>
      </trkpt>
      <trkpt lat="47.24296" lon="-2.31031">
        <ele>13.60000038147</ele>
        <time>2021-09-26T07:21:04.000Z</time>
      </trkpt>
      <trkpt lat="47.24292" lon="-2.31031">
        <ele>13.199999809265</ele>
        <time>2021-09-26T07:21:05.000Z</time>
      </trkpt>
      <trkpt lat="47.24289" lon="-2.31028">
        <ele>12.800000190735</ele>
        <time>2021-09-26T07:21:06.000Z</time>
      </trkpt>
      <trkpt lat="47.24286" lon="-2.31025">
        <ele>12.39999961853</ele>
        <time>2021-09-26T07:21:07.000Z</time>
      </trkpt>
      <trkpt lat="47.24285" lon="-2.31021">
        <ele>12</ele>
        <time>2021-09-26T07:21:08.000Z</time>
      </trkpt>
      <trkpt lat="47.24284" lon="-2.31016">
        <ele>12</ele>
        <time>2021-09-26T07:21:09.000Z</time>
      </trkpt>
      <trkpt lat="47.24284" lon="-2.31005">
        <ele>12</ele>
        <time>2021-09-26T07:21:11.000Z</time>
      </trkpt>
      <trkpt lat="47.24285" lon="-2.30999">
        <ele>12</ele>
        <time>2021-09-26T07:21:12.000Z</time>
      </trkpt>
      <trkpt lat="47.24286" lon="-2.30987">
        <ele>12</ele>
        <time>2021-09-26T07:21:14.000Z</time>
      </trkpt>
      <trkpt lat="47.24289" lon="-2.30969">
        <ele>12</ele>
        <time>2021-09-26T07:21:17.000Z</time>
      </trkpt>
      <trkpt lat="47.2429" lon="-2.30948">
        <ele>12.39999961853</ele>
        <time>2021-09-26T07:21:21.000Z</time>
      </trkpt>
      <trkpt lat="47.24291" lon="-2.30942">
        <ele>12.800000190735</ele>
        <time>2021-09-26T07:21:22.000Z</time>
      </trkpt>
      <trkpt lat="47.24291" lon="-2.30937">
        <ele>13.199999809265</ele>
        <time>2021-09-26T07:21:23.000Z</time>
      </trkpt>
      <trkpt lat="47.24292" lon="-2.30931">
        <ele>13.60000038147</ele>
        <time>2021-09-26T07:21:24.000Z</time>
      </trkpt>
      <trkpt lat="47.24293" lon="-2.30926">
        <ele>14</ele>
        <time>2021-09-26T07:21:25.000Z</time>
      </trkpt>
      <trkpt lat="47.24292" lon="-2.30909">
        <ele>14.39999961853</ele>
        <time>2021-09-26T07:21:28.000Z</time>
      </trkpt>
      <trkpt lat="47.24291" lon="-2.30903">
        <ele>15</ele>
        <time>2021-09-26T07:21:29.000Z</time>
      </trkpt>
      <trkpt lat="47.2429" lon="-2.30897">
        <ele>15.39999961853</ele>
        <time>2021-09-26T07:21:30.000Z</time>
      </trkpt>
      <trkpt lat="47.24289" lon="-2.30892">
        <ele>15.800000190735</ele>
        <time>2021-09-26T07:21:31.000Z</time>
      </trkpt>
      <trkpt lat="47.24288" lon="-2.30886">
        <ele>16.39999961853</ele>
        <time>2021-09-26T07:21:32.000Z</time>
      </trkpt>
      <trkpt lat="47.24286" lon="-2.30868">
        <ele>16.39999961853</ele>
        <time>2021-09-26T07:21:35.000Z</time>
      </trkpt>
      <trkpt lat="47.24289" lon="-2.30843">
        <ele>16.39999961853</ele>
        <time>2021-09-26T07:21:39.000Z</time>
      </trkpt>
      <trkpt lat="47.2429" lon="-2.30838">
        <ele>16.39999961853</ele>
        <time>2021-09-26T07:21:40.000Z</time>
      </trkpt>
      <trkpt lat="47.24293" lon="-2.30828">
        <ele>16.799999237061</ele>
        <time>2021-09-26T07:21:42.000Z</time>
      </trkpt>
      <trkpt lat="47.24295" lon="-2.30823">
        <ele>17.200000762939</ele>
        <time>2021-09-26T07:21:43.000Z</time>
      </trkpt>
      <trkpt lat="47.24298" lon="-2.30819">
        <ele>17.60000038147</ele>
        <time>2021-09-26T07:21:44.000Z</time>
      </trkpt>
      <trkpt lat="47.24301" lon="-2.30815">
        <ele>18</ele>
        <time>2021-09-26T07:21:45.000Z</time>
      </trkpt>
      <trkpt lat="47.24304" lon="-2.30812">
        <ele>18.39999961853</ele>
        <time>2021-09-26T07:21:46.000Z</time>
      </trkpt>
      <trkpt lat="47.24308" lon="-2.30809">
        <ele>18.39999961853</ele>
        <time>2021-09-26T07:21:47.000Z</time>
      </trkpt>
      <trkpt lat="47.2432" lon="-2.30803">
        <ele>18.39999961853</ele>
        <time>2021-09-26T07:21:50.000Z</time>
      </trkpt>
      <trkpt lat="47.24328" lon="-2.30799">
        <ele>18.39999961853</ele>
        <time>2021-09-26T07:21:52.000Z</time>
      </trkpt>
      <trkpt lat="47.24348" lon="-2.30791">
        <ele>18.39999961853</ele>
        <time>2021-09-26T07:21:57.000Z</time>
      </trkpt>
      <trkpt lat="47.24361" lon="-2.30784">
        <ele>18.799999237061</ele>
        <time>2021-09-26T07:22:01.000Z</time>
      </trkpt>
      <trkpt lat="47.24364" lon="-2.30782">
        <ele>19.200000762939</ele>
        <time>2021-09-26T07:22:02.000Z</time>
      </trkpt>
      <trkpt lat="47.24367" lon="-2.3078">
        <ele>19.60000038147</ele>
        <time>2021-09-26T07:22:03.000Z</time>
      </trkpt>
      <trkpt lat="47.2437" lon="-2.30778">
        <ele>20</ele>
        <time>2021-09-26T07:22:04.000Z</time>
      </trkpt>
      <trkpt lat="47.24372" lon="-2.30775">
        <ele>20.39999961853</ele>
        <time>2021-09-26T07:22:05.000Z</time>
      </trkpt>
      <trkpt lat="47.24376" lon="-2.3077">
        <ele>20.39999961853</ele>
        <time>2021-09-26T07:22:07.000Z</time>
      </trkpt>
      <trkpt lat="47.24382" lon="-2.30763">
        <ele>21</ele>
        <time>2021-09-26T07:22:10.000Z</time>
      </trkpt>
      <trkpt lat="47.24384" lon="-2.30761">
        <ele>21.39999961853</ele>
        <time>2021-09-26T07:22:11.000Z</time>
      </trkpt>
      <trkpt lat="47.24385" lon="-2.30759">
        <ele>21.799999237061</ele>
        <time>2021-09-26T07:22:12.000Z</time>
      </trkpt>
      <trkpt lat="47.24386" lon="-2.30757">
        <ele>22.200000762939</ele>
        <time>2021-09-26T07:22:13.000Z</time>
      </trkpt>
      <trkpt lat="47.24387" lon="-2.30756">
        <ele>22.60000038147</ele>
        <time>2021-09-26T07:22:14.000Z</time>
      </trkpt>
      <trkpt lat="47.24394" lon="-2.30744">
        <ele>22.60000038147</ele>
        <time>2021-09-26T07:22:18.000Z</time>
      </trkpt>
      <trkpt lat="47.24399" lon="-2.30718">
        <ele>22.60000038147</ele>
        <time>2021-09-26T07:22:23.000Z</time>
      </trkpt>
      <trkpt lat="47.24407" lon="-2.3068">
        <ele>22.60000038147</ele>
        <time>2021-09-26T07:22:29.000Z</time>
      </trkpt>
      <trkpt lat="47.24417" lon="-2.30646">
        <ele>22.60000038147</ele>
        <time>2021-09-26T07:22:35.000Z</time>
      </trkpt>
      <trkpt lat="47.24432" lon="-2.30617">
        <ele>22.60000038147</ele>
        <time>2021-09-26T07:22:41.000Z</time>
      </trkpt>
      <trkpt lat="47.24452" lon="-2.30591">
        <ele>22.60000038147</ele>
        <time>2021-09-26T07:22:48.000Z</time>
      </trkpt>
      <trkpt lat="47.24463" lon="-2.30572">
        <ele>22.60000038147</ele>
        <time>2021-09-26T07:22:51.000Z</time>
      </trkpt>
      <trkpt lat="47.24467" lon="-2.30559">
        <ele>22.60000038147</ele>
        <time>2021-09-26T07:22:53.000Z</time>
      </trkpt>
      <trkpt lat="47.24468" lon="-2.30548">
        <ele>22.60000038147</ele>
        <time>2021-09-26T07:22:55.000Z</time>
      </trkpt>
      <trkpt lat="47.24467" lon="-2.30545">
        <ele>22.200000762939</ele>
        <time>2021-09-26T07:22:56.000Z</time>
      </trkpt>
      <trkpt lat="47.24466" lon="-2.30543">
        <ele>21.799999237061</ele>
        <time>2021-09-26T07:22:57.000Z</time>
      </trkpt>
      <trkpt lat="47.24465" lon="-2.30542">
        <ele>21.39999961853</ele>
        <time>2021-09-26T07:22:58.000Z</time>
      </trkpt>
      <trkpt lat="47.24462" lon="-2.30543">
        <ele>21</ele>
        <time>2021-09-26T07:22:59.000Z</time>
      </trkpt>
      <trkpt lat="47.24459" lon="-2.30545">
        <ele>20.60000038147</ele>
        <time>2021-09-26T07:23:00.000Z</time>
      </trkpt>
      <trkpt lat="47.24447" lon="-2.3056">
        <ele>20.60000038147</ele>
        <time>2021-09-26T07:23:04.000Z</time>
      </trkpt>
      <trkpt lat="47.24444" lon="-2.30564">
        <ele>20.60000038147</ele>
        <time>2021-09-26T07:23:05.000Z</time>
      </trkpt>
      <trkpt lat="47.2444" lon="-2.30567">
        <ele>20.200000762939</ele>
        <time>2021-09-26T07:23:06.000Z</time>
      </trkpt>
      <trkpt lat="47.24435" lon="-2.30571">
        <ele>19.799999237061</ele>
        <time>2021-09-26T07:23:07.000Z</time>
      </trkpt>
      <trkpt lat="47.2443" lon="-2.30574">
        <ele>19.39999961853</ele>
        <time>2021-09-26T07:23:08.000Z</time>
      </trkpt>
      <trkpt lat="47.24425" lon="-2.30578">
        <ele>18.799999237061</ele>
        <time>2021-09-26T07:23:09.000Z</time>
      </trkpt>
      <trkpt lat="47.24418" lon="-2.30581">
        <ele>18.39999961853</ele>
        <time>2021-09-26T07:23:10.000Z</time>
      </trkpt>
      <trkpt lat="47.24401" lon="-2.30578">
        <ele>18.39999961853</ele>
        <time>2021-09-26T07:23:13.000Z</time>
      </trkpt>
      <trkpt lat="47.2438" lon="-2.30567">
        <ele>18</ele>
        <time>2021-09-26T07:23:17.000Z</time>
      </trkpt>
      <trkpt lat="47.24376" lon="-2.30562">
        <ele>17.60000038147</ele>
        <time>2021-09-26T07:23:18.000Z</time>
      </trkpt>
      <trkpt lat="47.24374" lon="-2.30555">
        <ele>17.200000762939</ele>
        <time>2021-09-26T07:23:19.000Z</time>
      </trkpt>
      <trkpt lat="47.24372" lon="-2.30548">
        <ele>16.39999961853</ele>
        <time>2021-09-26T07:23:20.000Z</time>
      </trkpt>
      <trkpt lat="47.24371" lon="-2.30542">
        <ele>16.39999961853</ele>
        <time>2021-09-26T07:23:21.000Z</time>
      </trkpt>
      <trkpt lat="47.2437" lon="-2.30535">
        <ele>16.39999961853</ele>
        <time>2021-09-26T07:23:22.000Z</time>
      </trkpt>
      <trkpt lat="47.24369" lon="-2.30512">
        <ele>16.39999961853</ele>
        <time>2021-09-26T07:23:27.000Z</time>
      </trkpt>
      <trkpt lat="47.2437" lon="-2.30508">
        <ele>16.799999237061</ele>
        <time>2021-09-26T07:23:28.000Z</time>
      </trkpt>
      <trkpt lat="47.24371" lon="-2.30504">
        <ele>17.200000762939</ele>
        <time>2021-09-26T07:23:29.000Z</time>
      </trkpt>
      <trkpt lat="47.24372" lon="-2.30499">
        <ele>17.60000038147</ele>
        <time>2021-09-26T07:23:30.000Z</time>
      </trkpt>
      <trkpt lat="47.24374" lon="-2.30495">
        <ele>18</ele>
        <time>2021-09-26T07:23:31.000Z</time>
      </trkpt>
      <trkpt lat="47.24375" lon="-2.3049">
        <ele>18.39999961853</ele>
        <time>2021-09-26T07:23:32.000Z</time>
      </trkpt>
      <trkpt lat="47.24376" lon="-2.30484">
        <ele>18.39999961853</ele>
        <time>2021-09-26T07:23:33.000Z</time>
      </trkpt>
      <trkpt lat="47.24379" lon="-2.30472">
        <ele>18.799999237061</ele>
        <time>2021-09-26T07:23:35.000Z</time>
      </trkpt>
      <trkpt lat="47.24379" lon="-2.30465">
        <ele>19.39999961853</ele>
        <time>2021-09-26T07:23:36.000Z</time>
      </trkpt>
      <trkpt lat="47.24379" lon="-2.3046">
        <ele>19.799999237061</ele>
        <time>2021-09-26T07:23:37.000Z</time>
      </trkpt>
      <trkpt lat="47.24378" lon="-2.30456">
        <ele>20.200000762939</ele>
        <time>2021-09-26T07:23:38.000Z</time>
      </trkpt>
      <trkpt lat="47.24378" lon="-2.30452">
        <ele>20.60000038147</ele>
        <time>2021-09-26T07:23:39.000Z</time>
      </trkpt>
      <trkpt lat="47.24377" lon="-2.3045">
        <ele>20.60000038147</ele>
        <time>2021-09-26T07:23:40.000Z</time>
      </trkpt>
      <trkpt lat="47.24373" lon="-2.3045">
        <ele>20.60000038147</ele>
        <time>2021-09-26T07:23:42.000Z</time>
      </trkpt>
      <trkpt lat="47.24358" lon="-2.30449">
        <ele>20.60000038147</ele>
        <time>2021-09-26T07:23:46.000Z</time>
      </trkpt>
      <trkpt lat="47.24351" lon="-2.30445">
        <ele>21</ele>
        <time>2021-09-26T07:23:48.000Z</time>
      </trkpt>
      <trkpt lat="47.24348" lon="-2.30444">
        <ele>21.39999961853</ele>
        <time>2021-09-26T07:23:49.000Z</time>
      </trkpt>
      <trkpt lat="47.24345" lon="-2.30442">
        <ele>21.799999237061</ele>
        <time>2021-09-26T07:23:50.000Z</time>
      </trkpt>
      <trkpt lat="47.24342" lon="-2.3044">
        <ele>22.200000762939</ele>
        <time>2021-09-26T07:23:51.000Z</time>
      </trkpt>
      <trkpt lat="47.24338" lon="-2.30438">
        <ele>22.60000038147</ele>
        <time>2021-09-26T07:23:52.000Z</time>
      </trkpt>
      <trkpt lat="47.24334" lon="-2.30435">
        <ele>22.60000038147</ele>
        <time>2021-09-26T07:23:53.000Z</time>
      </trkpt>
      <trkpt lat="47.24318" lon="-2.30426">
        <ele>22.60000038147</ele>
        <time>2021-09-26T07:23:58.000Z</time>
      </trkpt>
      <trkpt lat="47.24302" lon="-2.30417">
        <ele>22.60000038147</ele>
        <time>2021-09-26T07:24:04.000Z</time>
      </trkpt>
      <trkpt lat="47.24285" lon="-2.30399">
        <ele>22.60000038147</ele>
        <time>2021-09-26T07:24:11.000Z</time>
      </trkpt>
      <trkpt lat="47.24262" lon="-2.30359">
        <ele>22.60000038147</ele>
        <time>2021-09-26T07:24:19.000Z</time>
      </trkpt>
      <trkpt lat="47.24245" lon="-2.30335">
        <ele>22.60000038147</ele>
        <time>2021-09-26T07:24:23.000Z</time>
      </trkpt>
      <trkpt lat="47.24242" lon="-2.30329">
        <ele>22.60000038147</ele>
        <time>2021-09-26T07:24:24.000Z</time>
      </trkpt>
      <trkpt lat="47.24234" lon="-2.30322">
        <ele>22.60000038147</ele>
        <time>2021-09-26T07:24:26.000Z</time>
      </trkpt>
      <trkpt lat="47.2423" lon="-2.30322">
        <ele>22.60000038147</ele>
        <time>2021-09-26T07:24:27.000Z</time>
      </trkpt>
      <trkpt lat="47.2422" lon="-2.30329">
        <ele>22.60000038147</ele>
        <time>2021-09-26T07:24:30.000Z</time>
      </trkpt>
      <trkpt lat="47.24207" lon="-2.30329">
        <ele>22.200000762939</ele>
        <time>2021-09-26T07:24:34.000Z</time>
      </trkpt>
      <trkpt lat="47.24206" lon="-2.30326">
        <ele>21.60000038147</ele>
        <time>2021-09-26T07:24:35.000Z</time>
      </trkpt>
      <trkpt lat="47.24204" lon="-2.30322">
        <ele>21.200000762939</ele>
        <time>2021-09-26T07:24:36.000Z</time>
      </trkpt>
      <trkpt lat="47.24202" lon="-2.30317">
        <ele>20.60000038147</ele>
        <time>2021-09-26T07:24:37.000Z</time>
      </trkpt>
      <trkpt lat="47.242" lon="-2.30309">
        <ele>20.200000762939</ele>
        <time>2021-09-26T07:24:38.000Z</time>
      </trkpt>
      <trkpt lat="47.24196" lon="-2.30292">
        <ele>20.200000762939</ele>
        <time>2021-09-26T07:24:40.000Z</time>
      </trkpt>
      <trkpt lat="47.24192" lon="-2.30265">
        <ele>20.200000762939</ele>
        <time>2021-09-26T07:24:43.000Z</time>
      </trkpt>
      <trkpt lat="47.24187" lon="-2.30241">
        <ele>19.799999237061</ele>
        <time>2021-09-26T07:24:47.000Z</time>
      </trkpt>
      <trkpt lat="47.24185" lon="-2.30241">
        <ele>19.39999961853</ele>
        <time>2021-09-26T07:24:48.000Z</time>
      </trkpt>
      <trkpt lat="47.24181" lon="-2.30243">
        <ele>18.799999237061</ele>
        <time>2021-09-26T07:24:49.000Z</time>
      </trkpt>
      <trkpt lat="47.24178" lon="-2.30244">
        <ele>18.39999961853</ele>
        <time>2021-09-26T07:24:50.000Z</time>
      </trkpt>
      <trkpt lat="47.24173" lon="-2.30244">
        <ele>18</ele>
        <time>2021-09-26T07:24:51.000Z</time>
      </trkpt>
      <trkpt lat="47.2416" lon="-2.30239">
        <ele>18</ele>
        <time>2021-09-26T07:24:54.000Z</time>
      </trkpt>
      <trkpt lat="47.2415" lon="-2.30223">
        <ele>18</ele>
        <time>2021-09-26T07:24:58.000Z</time>
      </trkpt>
      <trkpt lat="47.24146" lon="-2.3021">
        <ele>18</ele>
        <time>2021-09-26T07:25:01.000Z</time>
      </trkpt>
      <trkpt lat="47.24144" lon="-2.30201">
        <ele>18</ele>
        <time>2021-09-26T07:25:03.000Z</time>
      </trkpt>
      <trkpt lat="47.24141" lon="-2.30194">
        <ele>18.39999961853</ele>
        <time>2021-09-26T07:25:05.000Z</time>
      </trkpt>
      <trkpt lat="47.2414" lon="-2.30191">
        <ele>18.799999237061</ele>
        <time>2021-09-26T07:25:06.000Z</time>
      </trkpt>
      <trkpt lat="47.2414" lon="-2.30187">
        <ele>19.39999961853</ele>
        <time>2021-09-26T07:25:07.000Z</time>
      </trkpt>
      <trkpt lat="47.24139" lon="-2.30184">
        <ele>19.799999237061</ele>
        <time>2021-09-26T07:25:08.000Z</time>
      </trkpt>
      <trkpt lat="47.24138" lon="-2.30182">
        <ele>20.200000762939</ele>
        <time>2021-09-26T07:25:09.000Z</time>
      </trkpt>
      <trkpt lat="47.24138" lon="-2.3018">
        <ele>20.200000762939</ele>
        <time>2021-09-26T07:25:10.000Z</time>
      </trkpt>
      <trkpt lat="47.24132" lon="-2.30167">
        <ele>20.60000038147</ele>
        <time>2021-09-26T07:25:15.000Z</time>
      </trkpt>
      <trkpt lat="47.24131" lon="-2.30165">
        <ele>21</ele>
        <time>2021-09-26T07:25:16.000Z</time>
      </trkpt>
      <trkpt lat="47.24131" lon="-2.30164">
        <ele>21.39999961853</ele>
        <time>2021-09-26T07:25:17.000Z</time>
      </trkpt>
      <trkpt lat="47.2413" lon="-2.30163">
        <ele>21.799999237061</ele>
        <time>2021-09-26T07:25:18.000Z</time>
      </trkpt>
      <trkpt lat="47.24129" lon="-2.30162">
        <ele>22.200000762939</ele>
        <time>2021-09-26T07:25:19.000Z</time>
      </trkpt>
      <trkpt lat="47.24129" lon="-2.30161">
        <ele>22.200000762939</ele>
        <time>2021-09-26T07:25:20.000Z</time>
      </trkpt>
      <trkpt lat="47.24126" lon="-2.30163">
        <ele>24.200000762939</ele>
        <time>2021-09-26T07:27:55.000Z</time>
      </trkpt>
      <trkpt lat="47.24125" lon="-2.30164">
        <ele>24.200000762939</ele>
        <time>2021-09-26T07:27:56.000Z</time>
      </trkpt>
      <trkpt lat="47.24122" lon="-2.30167">
        <ele>24.200000762939</ele>
        <time>2021-09-26T07:27:59.000Z</time>
      </trkpt>
      <trkpt lat="47.24116" lon="-2.30167">
        <ele>24.200000762939</ele>
        <time>2021-09-26T07:28:02.000Z</time>
      </trkpt>
      <trkpt lat="47.24098" lon="-2.30164">
        <ele>24.200000762939</ele>
        <time>2021-09-26T07:28:09.000Z</time>
      </trkpt>
      <trkpt lat="47.24092" lon="-2.30165">
        <ele>24.200000762939</ele>
        <time>2021-09-26T07:28:12.000Z</time>
      </trkpt>
      <trkpt lat="47.24086" lon="-2.30171">
        <ele>24.200000762939</ele>
        <time>2021-09-26T07:28:15.000Z</time>
      </trkpt>
      <trkpt lat="47.24063" lon="-2.30179">
        <ele>24.200000762939</ele>
        <time>2021-09-26T07:28:20.000Z</time>
      </trkpt>
      <trkpt lat="47.24047" lon="-2.30189">
        <ele>24.200000762939</ele>
        <time>2021-09-26T07:28:25.000Z</time>
      </trkpt>
      <trkpt lat="47.24034" lon="-2.30186">
        <ele>24.200000762939</ele>
        <time>2021-09-26T07:28:29.000Z</time>
      </trkpt>
      <trkpt lat="47.2402" lon="-2.30172">
        <ele>24.200000762939</ele>
        <time>2021-09-26T07:28:34.000Z</time>
      </trkpt>
      <trkpt lat="47.23998" lon="-2.3016">
        <ele>24.200000762939</ele>
        <time>2021-09-26T07:28:40.000Z</time>
      </trkpt>
      <trkpt lat="47.2397" lon="-2.30143">
        <ele>24.200000762939</ele>
        <time>2021-09-26T07:28:48.000Z</time>
      </trkpt>
      <trkpt lat="47.23966" lon="-2.30142">
        <ele>24.200000762939</ele>
        <time>2021-09-26T07:28:49.000Z</time>
      </trkpt>
      <trkpt lat="47.2395" lon="-2.30139">
        <ele>24.200000762939</ele>
        <time>2021-09-26T07:28:53.000Z</time>
      </trkpt>
      <trkpt lat="47.23936" lon="-2.3014">
        <ele>23.799999237061</ele>
        <time>2021-09-26T07:28:57.000Z</time>
      </trkpt>
      <trkpt lat="47.23931" lon="-2.3014">
        <ele>23.39999961853</ele>
        <time>2021-09-26T07:28:58.000Z</time>
      </trkpt>
      <trkpt lat="47.23927" lon="-2.3014">
        <ele>23</ele>
        <time>2021-09-26T07:28:59.000Z</time>
      </trkpt>
      <trkpt lat="47.23924" lon="-2.30139">
        <ele>22.60000038147</ele>
        <time>2021-09-26T07:29:00.000Z</time>
      </trkpt>
      <trkpt lat="47.2392" lon="-2.30136">
        <ele>22.200000762939</ele>
        <time>2021-09-26T07:29:01.000Z</time>
      </trkpt>
      <trkpt lat="47.2391" lon="-2.30125">
        <ele>22.200000762939</ele>
        <time>2021-09-26T07:29:04.000Z</time>
      </trkpt>
      <trkpt lat="47.23899" lon="-2.30102">
        <ele>22.200000762939</ele>
        <time>2021-09-26T07:29:11.000Z</time>
      </trkpt>
      <trkpt lat="47.23885" lon="-2.30087">
        <ele>22.200000762939</ele>
        <time>2021-09-26T07:29:15.000Z</time>
      </trkpt>
      <trkpt lat="47.23856" lon="-2.30058">
        <ele>22.200000762939</ele>
        <time>2021-09-26T07:29:22.000Z</time>
      </trkpt>
      <trkpt lat="47.23852" lon="-2.30045">
        <ele>22.200000762939</ele>
        <time>2021-09-26T07:29:24.000Z</time>
      </trkpt>
      <trkpt lat="47.23849" lon="-2.30032">
        <ele>22.200000762939</ele>
        <time>2021-09-26T07:29:26.000Z</time>
      </trkpt>
      <trkpt lat="47.23841" lon="-2.29992">
        <ele>22.60000038147</ele>
        <time>2021-09-26T07:29:32.000Z</time>
      </trkpt>
      <trkpt lat="47.2384" lon="-2.29986">
        <ele>23</ele>
        <time>2021-09-26T07:29:33.000Z</time>
      </trkpt>
      <trkpt lat="47.23838" lon="-2.29979">
        <ele>23.39999961853</ele>
        <time>2021-09-26T07:29:34.000Z</time>
      </trkpt>
      <trkpt lat="47.23837" lon="-2.29973">
        <ele>23.799999237061</ele>
        <time>2021-09-26T07:29:35.000Z</time>
      </trkpt>
      <trkpt lat="47.23835" lon="-2.29966">
        <ele>24.200000762939</ele>
        <time>2021-09-26T07:29:36.000Z</time>
      </trkpt>
      <trkpt lat="47.23831" lon="-2.29947">
        <ele>24.200000762939</ele>
        <time>2021-09-26T07:29:39.000Z</time>
      </trkpt>
      <trkpt lat="47.23822" lon="-2.29898">
        <ele>24.200000762939</ele>
        <time>2021-09-26T07:29:47.000Z</time>
      </trkpt>
      <trkpt lat="47.23821" lon="-2.29886">
        <ele>24.799999237061</ele>
        <time>2021-09-26T07:29:49.000Z</time>
      </trkpt>
      <trkpt lat="47.2382" lon="-2.2988">
        <ele>25.200000762939</ele>
        <time>2021-09-26T07:29:50.000Z</time>
      </trkpt>
      <trkpt lat="47.23819" lon="-2.29875">
        <ele>25.60000038147</ele>
        <time>2021-09-26T07:29:51.000Z</time>
      </trkpt>
      <trkpt lat="47.23818" lon="-2.29869">
        <ele>26</ele>
        <time>2021-09-26T07:29:52.000Z</time>
      </trkpt>
      <trkpt lat="47.23817" lon="-2.29863">
        <ele>26.39999961853</ele>
        <time>2021-09-26T07:29:53.000Z</time>
      </trkpt>
      <trkpt lat="47.23815" lon="-2.29851">
        <ele>26.39999961853</ele>
        <time>2021-09-26T07:29:55.000Z</time>
      </trkpt>
      <trkpt lat="47.23812" lon="-2.29806">
        <ele>26.39999961853</ele>
        <time>2021-09-26T07:30:02.000Z</time>
      </trkpt>
      <trkpt lat="47.23813" lon="-2.29748">
        <ele>26.39999961853</ele>
        <time>2021-09-26T07:30:11.000Z</time>
      </trkpt>
      <trkpt lat="47.23815" lon="-2.29697">
        <ele>26.39999961853</ele>
        <time>2021-09-26T07:30:18.000Z</time>
      </trkpt>
      <trkpt lat="47.23817" lon="-2.29644">
        <ele>26.39999961853</ele>
        <time>2021-09-26T07:30:25.000Z</time>
      </trkpt>
      <trkpt lat="47.23818" lon="-2.29593">
        <ele>26.39999961853</ele>
        <time>2021-09-26T07:30:32.000Z</time>
      </trkpt>
      <trkpt lat="47.23822" lon="-2.29543">
        <ele>26.39999961853</ele>
        <time>2021-09-26T07:30:39.000Z</time>
      </trkpt>
      <trkpt lat="47.23822" lon="-2.29529">
        <ele>26.39999961853</ele>
        <time>2021-09-26T07:30:41.000Z</time>
      </trkpt>
      <trkpt lat="47.23823" lon="-2.29496">
        <ele>26.39999961853</ele>
        <time>2021-09-26T07:30:45.000Z</time>
      </trkpt>
      <trkpt lat="47.23823" lon="-2.29439">
        <ele>26.39999961853</ele>
        <time>2021-09-26T07:30:52.000Z</time>
      </trkpt>
      <trkpt lat="47.2383" lon="-2.29417">
        <ele>26.39999961853</ele>
        <time>2021-09-26T07:30:56.000Z</time>
      </trkpt>
      <trkpt lat="47.23832" lon="-2.29411">
        <ele>26.39999961853</ele>
        <time>2021-09-26T07:30:57.000Z</time>
      </trkpt>
      <trkpt lat="47.23844" lon="-2.29387">
        <ele>26.39999961853</ele>
        <time>2021-09-26T07:31:01.000Z</time>
      </trkpt>
      <trkpt lat="47.23867" lon="-2.29337">
        <ele>26.39999961853</ele>
        <time>2021-09-26T07:31:09.000Z</time>
      </trkpt>
      <trkpt lat="47.23881" lon="-2.2933">
        <ele>26.39999961853</ele>
        <time>2021-09-26T07:31:12.000Z</time>
      </trkpt>
      <trkpt lat="47.23893" lon="-2.2933">
        <ele>26.39999961853</ele>
        <time>2021-09-26T07:31:14.000Z</time>
      </trkpt>
      <trkpt lat="47.23904" lon="-2.29331">
        <ele>26.39999961853</ele>
        <time>2021-09-26T07:31:16.000Z</time>
      </trkpt>
      <trkpt lat="47.23912" lon="-2.29337">
        <ele>26.39999961853</ele>
        <time>2021-09-26T07:31:18.000Z</time>
      </trkpt>
      <trkpt lat="47.23915" lon="-2.29343">
        <ele>26.39999961853</ele>
        <time>2021-09-26T07:31:19.000Z</time>
      </trkpt>
      <trkpt lat="47.23933" lon="-2.29374">
        <ele>26.39999961853</ele>
        <time>2021-09-26T07:31:24.000Z</time>
      </trkpt>
      <trkpt lat="47.23936" lon="-2.29381">
        <ele>26.39999961853</ele>
        <time>2021-09-26T07:31:25.000Z</time>
      </trkpt>
      <trkpt lat="47.23951" lon="-2.29411">
        <ele>26.39999961853</ele>
        <time>2021-09-26T07:31:30.000Z</time>
      </trkpt>
      <trkpt lat="47.23975" lon="-2.29455">
        <ele>26.39999961853</ele>
        <time>2021-09-26T07:31:38.000Z</time>
      </trkpt>
      <trkpt lat="47.23995" lon="-2.29494">
        <ele>26.799999237061</ele>
        <time>2021-09-26T07:31:45.000Z</time>
      </trkpt>
      <trkpt lat="47.23997" lon="-2.29501">
        <ele>27.200000762939</ele>
        <time>2021-09-26T07:31:46.000Z</time>
      </trkpt>
      <trkpt lat="47.23997" lon="-2.29509">
        <ele>27.60000038147</ele>
        <time>2021-09-26T07:31:47.000Z</time>
      </trkpt>
      <trkpt lat="47.23998" lon="-2.29516">
        <ele>28</ele>
        <time>2021-09-26T07:31:48.000Z</time>
      </trkpt>
      <trkpt lat="47.23998" lon="-2.29524">
        <ele>28.39999961853</ele>
        <time>2021-09-26T07:31:49.000Z</time>
      </trkpt>
      <trkpt lat="47.23999" lon="-2.2954">
        <ele>28.39999961853</ele>
        <time>2021-09-26T07:31:51.000Z</time>
      </trkpt>
      <trkpt lat="47.24004" lon="-2.29604">
        <ele>28.39999961853</ele>
        <time>2021-09-26T07:31:59.000Z</time>
      </trkpt>
      <trkpt lat="47.24008" lon="-2.29662">
        <ele>28.39999961853</ele>
        <time>2021-09-26T07:32:07.000Z</time>
      </trkpt>
      <trkpt lat="47.2401" lon="-2.29703">
        <ele>28.39999961853</ele>
        <time>2021-09-26T07:32:13.000Z</time>
      </trkpt>
      <trkpt lat="47.24015" lon="-2.29755">
        <ele>28.39999961853</ele>
        <time>2021-09-26T07:32:22.000Z</time>
      </trkpt>
      <trkpt lat="47.24016" lon="-2.29781">
        <ele>28.39999961853</ele>
        <time>2021-09-26T07:32:28.000Z</time>
      </trkpt>
      <trkpt lat="47.24019" lon="-2.29794">
        <ele>28.39999961853</ele>
        <time>2021-09-26T07:32:33.000Z</time>
      </trkpt>
      <trkpt lat="47.2402" lon="-2.29794">
        <ele>28.39999961853</ele>
        <time>2021-09-26T07:32:34.000Z</time>
      </trkpt>
      <trkpt lat="47.24027" lon="-2.29802">
        <ele>28.39999961853</ele>
        <time>2021-09-26T07:32:40.000Z</time>
      </trkpt>
      <trkpt lat="47.24029" lon="-2.29803">
        <ele>28.39999961853</ele>
        <time>2021-09-26T07:32:41.000Z</time>
      </trkpt>
      <trkpt lat="47.2403" lon="-2.29805">
        <ele>28.39999961853</ele>
        <time>2021-09-26T07:32:42.000Z</time>
      </trkpt>
      <trkpt lat="47.24031" lon="-2.29812">
        <ele>28.39999961853</ele>
        <time>2021-09-26T07:32:46.000Z</time>
      </trkpt>
      <trkpt lat="47.24033" lon="-2.2983">
        <ele>28.39999961853</ele>
        <time>2021-09-26T07:32:52.000Z</time>
      </trkpt>
      <trkpt lat="47.24037" lon="-2.29835">
        <ele>28.39999961853</ele>
        <time>2021-09-26T07:32:54.000Z</time>
      </trkpt>
      <trkpt lat="47.24042" lon="-2.29838">
        <ele>28.39999961853</ele>
        <time>2021-09-26T07:32:56.000Z</time>
      </trkpt>
      <trkpt lat="47.24044" lon="-2.29837">
        <ele>28.39999961853</ele>
        <time>2021-09-26T07:32:57.000Z</time>
      </trkpt>
      <trkpt lat="47.24049" lon="-2.29833">
        <ele>28.39999961853</ele>
        <time>2021-09-26T07:33:00.000Z</time>
      </trkpt>
      <trkpt lat="47.24059" lon="-2.29836">
        <ele>28.39999961853</ele>
        <time>2021-09-26T07:33:05.000Z</time>
      </trkpt>
      <trkpt lat="47.24082" lon="-2.29844">
        <ele>28.39999961853</ele>
        <time>2021-09-26T07:33:11.000Z</time>
      </trkpt>
      <trkpt lat="47.24111" lon="-2.29842">
        <ele>28.39999961853</ele>
        <time>2021-09-26T07:33:16.000Z</time>
      </trkpt>
      <trkpt lat="47.24147" lon="-2.29835">
        <ele>28.39999961853</ele>
        <time>2021-09-26T07:33:23.000Z</time>
      </trkpt>
      <trkpt lat="47.24167" lon="-2.29845">
        <ele>28.39999961853</ele>
        <time>2021-09-26T07:33:28.000Z</time>
      </trkpt>
      <trkpt lat="47.24169" lon="-2.29846">
        <ele>28.39999961853</ele>
        <time>2021-09-26T07:33:29.000Z</time>
      </trkpt>
      <trkpt lat="47.24171" lon="-2.29851">
        <ele>28.39999961853</ele>
        <time>2021-09-26T07:33:31.000Z</time>
      </trkpt>
      <trkpt lat="47.24171" lon="-2.29853">
        <ele>28.39999961853</ele>
        <time>2021-09-26T07:33:32.000Z</time>
      </trkpt>
      <trkpt lat="47.24175" lon="-2.29871">
        <ele>28.39999961853</ele>
        <time>2021-09-26T07:33:37.000Z</time>
      </trkpt>
      <trkpt lat="47.24175" lon="-2.29877">
        <ele>28.39999961853</ele>
        <time>2021-09-26T07:33:39.000Z</time>
      </trkpt>
      <trkpt lat="47.24174" lon="-2.29891">
        <ele>28.39999961853</ele>
        <time>2021-09-26T07:33:42.000Z</time>
      </trkpt>
      <trkpt lat="47.24168" lon="-2.2992">
        <ele>28.39999961853</ele>
        <time>2021-09-26T07:33:48.000Z</time>
      </trkpt>
      <trkpt lat="47.24163" lon="-2.29949">
        <ele>28.39999961853</ele>
        <time>2021-09-26T07:33:54.000Z</time>
      </trkpt>
      <trkpt lat="47.24163" lon="-2.29968">
        <ele>28.39999961853</ele>
        <time>2021-09-26T07:33:59.000Z</time>
      </trkpt>
      <trkpt lat="47.24172" lon="-2.29984">
        <ele>28.39999961853</ele>
        <time>2021-09-26T07:34:04.000Z</time>
      </trkpt>
      <trkpt lat="47.24176" lon="-2.29991">
        <ele>28</ele>
        <time>2021-09-26T07:34:06.000Z</time>
      </trkpt>
      <trkpt lat="47.24179" lon="-2.29996">
        <ele>27.60000038147</ele>
        <time>2021-09-26T07:34:07.000Z</time>
      </trkpt>
      <trkpt lat="47.24181" lon="-2.30001">
        <ele>27</ele>
        <time>2021-09-26T07:34:08.000Z</time>
      </trkpt>
      <trkpt lat="47.24182" lon="-2.30005">
        <ele>26.60000038147</ele>
        <time>2021-09-26T07:34:09.000Z</time>
      </trkpt>
      <trkpt lat="47.24184" lon="-2.30008">
        <ele>26.200000762939</ele>
        <time>2021-09-26T07:34:10.000Z</time>
      </trkpt>
      <trkpt lat="47.24179" lon="-2.30026">
        <ele>26.200000762939</ele>
        <time>2021-09-26T07:34:15.000Z</time>
      </trkpt>
      <trkpt lat="47.24176" lon="-2.30028">
        <ele>26.200000762939</ele>
        <time>2021-09-26T07:34:16.000Z</time>
      </trkpt>
      <trkpt lat="47.24164" lon="-2.30028">
        <ele>26.200000762939</ele>
        <time>2021-09-26T07:34:21.000Z</time>
      </trkpt>
      <trkpt lat="47.24147" lon="-2.30036">
        <ele>26.200000762939</ele>
        <time>2021-09-26T07:34:28.000Z</time>
      </trkpt>
      <trkpt lat="47.24145" lon="-2.30052">
        <ele>26.200000762939</ele>
        <time>2021-09-26T07:34:33.000Z</time>
      </trkpt>
      <trkpt lat="47.24145" lon="-2.30061">
        <ele>25.799999237061</ele>
        <time>2021-09-26T07:34:35.000Z</time>
      </trkpt>
      <trkpt lat="47.24144" lon="-2.30065">
        <ele>25.39999961853</ele>
        <time>2021-09-26T07:34:36.000Z</time>
      </trkpt>
      <trkpt lat="47.24144" lon="-2.30068">
        <ele>24.799999237061</ele>
        <time>2021-09-26T07:34:37.000Z</time>
      </trkpt>
      <trkpt lat="47.24142" lon="-2.3007">
        <ele>24.39999961853</ele>
        <time>2021-09-26T07:34:38.000Z</time>
      </trkpt>
      <trkpt lat="47.24141" lon="-2.30071">
        <ele>24</ele>
        <time>2021-09-26T07:34:39.000Z</time>
      </trkpt>
      <trkpt lat="47.2413" lon="-2.30076">
        <ele>24</ele>
        <time>2021-09-26T07:34:44.000Z</time>
      </trkpt>
      <trkpt lat="47.24125" lon="-2.30087">
        <ele>24</ele>
        <time>2021-09-26T07:34:47.000Z</time>
      </trkpt>
      <trkpt lat="47.24123" lon="-2.30091">
        <ele>24</ele>
        <time>2021-09-26T07:34:48.000Z</time>
      </trkpt>
      <trkpt lat="47.24115" lon="-2.30112">
        <ele>24</ele>
        <time>2021-09-26T07:34:54.000Z</time>
      </trkpt>
      <trkpt lat="47.24116" lon="-2.30122">
        <ele>24</ele>
        <time>2021-09-26T07:34:57.000Z</time>
      </trkpt>
      <trkpt lat="47.24118" lon="-2.30123">
        <ele>24</ele>
        <time>2021-09-26T07:34:58.000Z</time>
      </trkpt>
      <trkpt lat="47.2412" lon="-2.3012">
        <ele>24</ele>
        <time>2021-09-26T07:35:03.000Z</time>
      </trkpt>
      <trkpt lat="47.24126" lon="-2.30124">
        <ele>24</ele>
        <time>2021-09-26T07:35:08.000Z</time>
      </trkpt>
      <trkpt lat="47.24127" lon="-2.30132">
        <ele>24</ele>
        <time>2021-09-26T07:35:12.000Z</time>
      </trkpt>
      <trkpt lat="47.24127" lon="-2.30141">
        <ele>24</ele>
        <time>2021-09-26T07:35:15.000Z</time>
      </trkpt>
      <trkpt lat="47.24127" lon="-2.30156">
        <ele>24</ele>
        <time>2021-09-26T07:35:20.000Z</time>
      </trkpt>
      <trkpt lat="47.24129" lon="-2.30158">
        <ele>23.60000038147</ele>
        <time>2021-09-26T07:35:22.000Z</time>
      </trkpt>
      <trkpt lat="47.24131" lon="-2.30157">
        <ele>23</ele>
        <time>2021-09-26T07:35:23.000Z</time>
      </trkpt>
      <trkpt lat="47.24132" lon="-2.30156">
        <ele>22.60000038147</ele>
        <time>2021-09-26T07:35:24.000Z</time>
      </trkpt>
      <trkpt lat="47.24133" lon="-2.30154">
        <ele>22.200000762939</ele>
        <time>2021-09-26T07:35:25.000Z</time>
      </trkpt>
      <trkpt lat="47.24135" lon="-2.3015">
        <ele>21.799999237061</ele>
        <time>2021-09-26T07:35:26.000Z</time>
      </trkpt>
      <trkpt lat="47.24137" lon="-2.30138">
        <ele>21.799999237061</ele>
        <time>2021-09-26T07:35:29.000Z</time>
      </trkpt>
      <trkpt lat="47.24138" lon="-2.30134">
        <ele>21.799999237061</ele>
        <time>2021-09-26T07:35:30.000Z</time>
      </trkpt>
      <trkpt lat="47.24145" lon="-2.30104">
        <ele>21.799999237061</ele>
        <time>2021-09-26T07:35:36.000Z</time>
      </trkpt>
      <trkpt lat="47.24151" lon="-2.30072">
        <ele>22.200000762939</ele>
        <time>2021-09-26T07:35:42.000Z</time>
      </trkpt>
      <trkpt lat="47.24152" lon="-2.30067">
        <ele>22.60000038147</ele>
        <time>2021-09-26T07:35:43.000Z</time>
      </trkpt>
      <trkpt lat="47.24152" lon="-2.30062">
        <ele>23</ele>
        <time>2021-09-26T07:35:44.000Z</time>
      </trkpt>
      <trkpt lat="47.24152" lon="-2.30057">
        <ele>23.39999961853</ele>
        <time>2021-09-26T07:35:45.000Z</time>
      </trkpt>
      <trkpt lat="47.24152" lon="-2.30053">
        <ele>24</ele>
        <time>2021-09-26T07:35:46.000Z</time>
      </trkpt>
      <trkpt lat="47.24151" lon="-2.30045">
        <ele>24</ele>
        <time>2021-09-26T07:35:48.000Z</time>
      </trkpt>
      <trkpt lat="47.24155" lon="-2.30032">
        <ele>24</ele>
        <time>2021-09-26T07:35:53.000Z</time>
      </trkpt>
      <trkpt lat="47.24159" lon="-2.30026">
        <ele>24.39999961853</ele>
        <time>2021-09-26T07:35:57.000Z</time>
      </trkpt>
      <trkpt lat="47.24161" lon="-2.30022">
        <ele>24.799999237061</ele>
        <time>2021-09-26T07:35:58.000Z</time>
      </trkpt>
      <trkpt lat="47.24162" lon="-2.30018">
        <ele>25.200000762939</ele>
        <time>2021-09-26T07:35:59.000Z</time>
      </trkpt>
      <trkpt lat="47.24163" lon="-2.30012">
        <ele>25.60000038147</ele>
        <time>2021-09-26T07:36:00.000Z</time>
      </trkpt>
      <trkpt lat="47.24165" lon="-2.30004">
        <ele>26</ele>
        <time>2021-09-26T07:36:01.000Z</time>
      </trkpt>
      <trkpt lat="47.24171" lon="-2.29982">
        <ele>26</ele>
        <time>2021-09-26T07:36:06.000Z</time>
      </trkpt>
      <trkpt lat="47.24179" lon="-2.2998">
        <ele>26</ele>
        <time>2021-09-26T07:36:08.000Z</time>
      </trkpt>
      <trkpt lat="47.24187" lon="-2.29976">
        <ele>26</ele>
        <time>2021-09-26T07:36:10.000Z</time>
      </trkpt>
      <trkpt lat="47.24217" lon="-2.29959">
        <ele>26</ele>
        <time>2021-09-26T07:36:16.000Z</time>
      </trkpt>
      <trkpt lat="47.24223" lon="-2.29958">
        <ele>26</ele>
        <time>2021-09-26T07:36:17.000Z</time>
      </trkpt>
      <trkpt lat="47.24239" lon="-2.2995">
        <ele>26</ele>
        <time>2021-09-26T07:36:20.000Z</time>
      </trkpt>
      <trkpt lat="47.24245" lon="-2.29945">
        <ele>26</ele>
        <time>2021-09-26T07:36:21.000Z</time>
      </trkpt>
      <trkpt lat="47.24255" lon="-2.29933">
        <ele>25.60000038147</ele>
        <time>2021-09-26T07:36:23.000Z</time>
      </trkpt>
      <trkpt lat="47.24259" lon="-2.29927">
        <ele>25.200000762939</ele>
        <time>2021-09-26T07:36:24.000Z</time>
      </trkpt>
      <trkpt lat="47.24263" lon="-2.29922">
        <ele>24.799999237061</ele>
        <time>2021-09-26T07:36:25.000Z</time>
      </trkpt>
      <trkpt lat="47.24267" lon="-2.29917">
        <ele>24.39999961853</ele>
        <time>2021-09-26T07:36:26.000Z</time>
      </trkpt>
      <trkpt lat="47.24272" lon="-2.29913">
        <ele>24</ele>
        <time>2021-09-26T07:36:27.000Z</time>
      </trkpt>
      <trkpt lat="47.24291" lon="-2.299">
        <ele>24</ele>
        <time>2021-09-26T07:36:31.000Z</time>
      </trkpt>
      <trkpt lat="47.2431" lon="-2.29885">
        <ele>24</ele>
        <time>2021-09-26T07:36:35.000Z</time>
      </trkpt>
      <trkpt lat="47.24313" lon="-2.29879">
        <ele>24</ele>
        <time>2021-09-26T07:36:36.000Z</time>
      </trkpt>
      <trkpt lat="47.24317" lon="-2.29855">
        <ele>24</ele>
        <time>2021-09-26T07:36:39.000Z</time>
      </trkpt>
      <trkpt lat="47.24318" lon="-2.29847">
        <ele>24</ele>
        <time>2021-09-26T07:36:40.000Z</time>
      </trkpt>
      <trkpt lat="47.24318" lon="-2.29831">
        <ele>24</ele>
        <time>2021-09-26T07:36:42.000Z</time>
      </trkpt>
      <trkpt lat="47.24323" lon="-2.29817">
        <ele>24</ele>
        <time>2021-09-26T07:36:44.000Z</time>
      </trkpt>
      <trkpt lat="47.24338" lon="-2.29807">
        <ele>24</ele>
        <time>2021-09-26T07:36:47.000Z</time>
      </trkpt>
      <trkpt lat="47.24348" lon="-2.29803">
        <ele>24</ele>
        <time>2021-09-26T07:36:49.000Z</time>
      </trkpt>
      <trkpt lat="47.24353" lon="-2.29801">
        <ele>24</ele>
        <time>2021-09-26T07:36:50.000Z</time>
      </trkpt>
      <trkpt lat="47.24357" lon="-2.29798">
        <ele>24.39999961853</ele>
        <time>2021-09-26T07:36:51.000Z</time>
      </trkpt>
      <trkpt lat="47.24362" lon="-2.29793">
        <ele>24.799999237061</ele>
        <time>2021-09-26T07:36:52.000Z</time>
      </trkpt>
      <trkpt lat="47.24365" lon="-2.29787">
        <ele>25.200000762939</ele>
        <time>2021-09-26T07:36:53.000Z</time>
      </trkpt>
      <trkpt lat="47.24369" lon="-2.29781">
        <ele>26.200000762939</ele>
        <time>2021-09-26T07:36:54.000Z</time>
      </trkpt>
      <trkpt lat="47.24372" lon="-2.29774">
        <ele>26.200000762939</ele>
        <time>2021-09-26T07:36:55.000Z</time>
      </trkpt>
      <trkpt lat="47.24375" lon="-2.29767">
        <ele>26.200000762939</ele>
        <time>2021-09-26T07:36:56.000Z</time>
      </trkpt>
      <trkpt lat="47.24388" lon="-2.29737">
        <ele>26.200000762939</ele>
        <time>2021-09-26T07:37:00.000Z</time>
      </trkpt>
      <trkpt lat="47.24396" lon="-2.29714">
        <ele>26.200000762939</ele>
        <time>2021-09-26T07:37:03.000Z</time>
      </trkpt>
      <trkpt lat="47.244" lon="-2.29707">
        <ele>26.200000762939</ele>
        <time>2021-09-26T07:37:04.000Z</time>
      </trkpt>
      <trkpt lat="47.24413" lon="-2.29693">
        <ele>26.200000762939</ele>
        <time>2021-09-26T07:37:07.000Z</time>
      </trkpt>
      <trkpt lat="47.24435" lon="-2.29691">
        <ele>26.200000762939</ele>
        <time>2021-09-26T07:37:12.000Z</time>
      </trkpt>
      <trkpt lat="47.24445" lon="-2.29712">
        <ele>26.200000762939</ele>
        <time>2021-09-26T07:37:15.000Z</time>
      </trkpt>
      <trkpt lat="47.24449" lon="-2.29727">
        <ele>26.200000762939</ele>
        <time>2021-09-26T07:37:17.000Z</time>
      </trkpt>
      <trkpt lat="47.24457" lon="-2.29749">
        <ele>26.200000762939</ele>
        <time>2021-09-26T07:37:20.000Z</time>
      </trkpt>
      <trkpt lat="47.2446" lon="-2.29765">
        <ele>26.200000762939</ele>
        <time>2021-09-26T07:37:22.000Z</time>
      </trkpt>
      <trkpt lat="47.24465" lon="-2.29788">
        <ele>26.200000762939</ele>
        <time>2021-09-26T07:37:25.000Z</time>
      </trkpt>
      <trkpt lat="47.24479" lon="-2.29821">
        <ele>26.200000762939</ele>
        <time>2021-09-26T07:37:30.000Z</time>
      </trkpt>
      <trkpt lat="47.24497" lon="-2.29841">
        <ele>26.60000038147</ele>
        <time>2021-09-26T07:37:34.000Z</time>
      </trkpt>
      <trkpt lat="47.24503" lon="-2.29845">
        <ele>27</ele>
        <time>2021-09-26T07:37:35.000Z</time>
      </trkpt>
      <trkpt lat="47.24509" lon="-2.29848">
        <ele>27.39999961853</ele>
        <time>2021-09-26T07:37:36.000Z</time>
      </trkpt>
      <trkpt lat="47.24513" lon="-2.29852">
        <ele>27.799999237061</ele>
        <time>2021-09-26T07:37:37.000Z</time>
      </trkpt>
      <trkpt lat="47.24518" lon="-2.29854">
        <ele>28.200000762939</ele>
        <time>2021-09-26T07:37:38.000Z</time>
      </trkpt>
      <trkpt lat="47.24529" lon="-2.29858">
        <ele>28.200000762939</ele>
        <time>2021-09-26T07:37:41.000Z</time>
      </trkpt>
      <trkpt lat="47.24541" lon="-2.29864">
        <ele>28.200000762939</ele>
        <time>2021-09-26T07:37:46.000Z</time>
      </trkpt>
      <trkpt lat="47.24548" lon="-2.29867">
        <ele>28.200000762939</ele>
        <time>2021-09-26T07:37:52.000Z</time>
      </trkpt>
      <trkpt lat="47.24556" lon="-2.29874">
        <ele>29.39999961853</ele>
        <time>2021-09-26T07:40:11.000Z</time>
      </trkpt>
      <trkpt lat="47.24561" lon="-2.29882">
        <ele>29.39999961853</ele>
        <time>2021-09-26T07:40:14.000Z</time>
      </trkpt>
      <trkpt lat="47.24566" lon="-2.29888">
        <ele>29.39999961853</ele>
        <time>2021-09-26T07:40:16.000Z</time>
      </trkpt>
      <trkpt lat="47.24575" lon="-2.29901">
        <ele>29.39999961853</ele>
        <time>2021-09-26T07:40:19.000Z</time>
      </trkpt>
      <trkpt lat="47.246" lon="-2.2994">
        <ele>29.39999961853</ele>
        <time>2021-09-26T07:40:27.000Z</time>
      </trkpt>
      <trkpt lat="47.24615" lon="-2.29938">
        <ele>29.39999961853</ele>
        <time>2021-09-26T07:40:30.000Z</time>
      </trkpt>
      <trkpt lat="47.2462" lon="-2.29937">
        <ele>29.39999961853</ele>
        <time>2021-09-26T07:40:31.000Z</time>
      </trkpt>
      <trkpt lat="47.24661" lon="-2.29921">
        <ele>29.39999961853</ele>
        <time>2021-09-26T07:40:39.000Z</time>
      </trkpt>
      <trkpt lat="47.24697" lon="-2.29909">
        <ele>29.39999961853</ele>
        <time>2021-09-26T07:40:46.000Z</time>
      </trkpt>
      <trkpt lat="47.24738" lon="-2.29896">
        <ele>29.39999961853</ele>
        <time>2021-09-26T07:40:54.000Z</time>
      </trkpt>
      <trkpt lat="47.24768" lon="-2.29877">
        <ele>29.39999961853</ele>
        <time>2021-09-26T07:41:00.000Z</time>
      </trkpt>
      <trkpt lat="47.24788" lon="-2.29862">
        <ele>29.799999237061</ele>
        <time>2021-09-26T07:41:04.000Z</time>
      </trkpt>
      <trkpt lat="47.24793" lon="-2.29858">
        <ele>30.200000762939</ele>
        <time>2021-09-26T07:41:05.000Z</time>
      </trkpt>
      <trkpt lat="47.24798" lon="-2.29855">
        <ele>30.60000038147</ele>
        <time>2021-09-26T07:41:06.000Z</time>
      </trkpt>
      <trkpt lat="47.24803" lon="-2.29852">
        <ele>31</ele>
        <time>2021-09-26T07:41:07.000Z</time>
      </trkpt>
      <trkpt lat="47.24808" lon="-2.29849">
        <ele>31.60000038147</ele>
        <time>2021-09-26T07:41:08.000Z</time>
      </trkpt>
      <trkpt lat="47.2484" lon="-2.2984">
        <ele>31.60000038147</ele>
        <time>2021-09-26T07:41:14.000Z</time>
      </trkpt>
      <trkpt lat="47.24854" lon="-2.29833">
        <ele>31.60000038147</ele>
        <time>2021-09-26T07:41:17.000Z</time>
      </trkpt>
      <trkpt lat="47.24862" lon="-2.2983">
        <ele>31.60000038147</ele>
        <time>2021-09-26T07:41:19.000Z</time>
      </trkpt>
      <trkpt lat="47.24865" lon="-2.29832">
        <ele>31.60000038147</ele>
        <time>2021-09-26T07:41:20.000Z</time>
      </trkpt>
      <trkpt lat="47.24869" lon="-2.2984">
        <ele>31.60000038147</ele>
        <time>2021-09-26T07:41:22.000Z</time>
      </trkpt>
      <trkpt lat="47.24873" lon="-2.29859">
        <ele>31.60000038147</ele>
        <time>2021-09-26T07:41:25.000Z</time>
      </trkpt>
      <trkpt lat="47.24874" lon="-2.29867">
        <ele>31.60000038147</ele>
        <time>2021-09-26T07:41:26.000Z</time>
      </trkpt>
      <trkpt lat="47.24879" lon="-2.29918">
        <ele>31.60000038147</ele>
        <time>2021-09-26T07:41:32.000Z</time>
      </trkpt>
      <trkpt lat="47.2489" lon="-2.29964">
        <ele>31.60000038147</ele>
        <time>2021-09-26T07:41:37.000Z</time>
      </trkpt>
      <trkpt lat="47.24903" lon="-2.30014">
        <ele>31.60000038147</ele>
        <time>2021-09-26T07:41:43.000Z</time>
      </trkpt>
      <trkpt lat="47.24905" lon="-2.30036">
        <ele>31.60000038147</ele>
        <time>2021-09-26T07:41:46.000Z</time>
      </trkpt>
      <trkpt lat="47.24904" lon="-2.30047">
        <ele>31.60000038147</ele>
        <time>2021-09-26T07:41:48.000Z</time>
      </trkpt>
      <trkpt lat="47.24911" lon="-2.30057">
        <ele>31.60000038147</ele>
        <time>2021-09-26T07:41:51.000Z</time>
      </trkpt>
      <trkpt lat="47.24919" lon="-2.30056">
        <ele>31.60000038147</ele>
        <time>2021-09-26T07:41:53.000Z</time>
      </trkpt>
      <trkpt lat="47.24928" lon="-2.30055">
        <ele>31.60000038147</ele>
        <time>2021-09-26T07:41:55.000Z</time>
      </trkpt>
      <trkpt lat="47.2496" lon="-2.30055">
        <ele>31.60000038147</ele>
        <time>2021-09-26T07:42:01.000Z</time>
      </trkpt>
      <trkpt lat="47.24997" lon="-2.30052">
        <ele>31.60000038147</ele>
        <time>2021-09-26T07:42:08.000Z</time>
      </trkpt>
      <trkpt lat="47.25024" lon="-2.30052">
        <ele>31.60000038147</ele>
        <time>2021-09-26T07:42:13.000Z</time>
      </trkpt>
      <trkpt lat="47.25064" lon="-2.30055">
        <ele>31.60000038147</ele>
        <time>2021-09-26T07:42:20.000Z</time>
      </trkpt>
      <trkpt lat="47.25069" lon="-2.30056">
        <ele>31.60000038147</ele>
        <time>2021-09-26T07:42:21.000Z</time>
      </trkpt>
      <trkpt lat="47.25074" lon="-2.30065">
        <ele>31.200000762939</ele>
        <time>2021-09-26T07:42:23.000Z</time>
      </trkpt>
      <trkpt lat="47.25072" lon="-2.30071">
        <ele>30.60000038147</ele>
        <time>2021-09-26T07:42:24.000Z</time>
      </trkpt>
      <trkpt lat="47.25071" lon="-2.30078">
        <ele>30.200000762939</ele>
        <time>2021-09-26T07:42:25.000Z</time>
      </trkpt>
      <trkpt lat="47.2507" lon="-2.30085">
        <ele>29.799999237061</ele>
        <time>2021-09-26T07:42:26.000Z</time>
      </trkpt>
      <trkpt lat="47.25069" lon="-2.30092">
        <ele>29.39999961853</ele>
        <time>2021-09-26T07:42:27.000Z</time>
      </trkpt>
      <trkpt lat="47.25069" lon="-2.30101">
        <ele>29.39999961853</ele>
        <time>2021-09-26T07:42:28.000Z</time>
      </trkpt>
      <trkpt lat="47.25067" lon="-2.30124">
        <ele>29.39999961853</ele>
        <time>2021-09-26T07:42:31.000Z</time>
      </trkpt>
      <trkpt lat="47.25067" lon="-2.3013">
        <ele>29.39999961853</ele>
        <time>2021-09-26T07:42:32.000Z</time>
      </trkpt>
      <trkpt lat="47.25073" lon="-2.30137">
        <ele>29.39999961853</ele>
        <time>2021-09-26T07:42:34.000Z</time>
      </trkpt>
      <trkpt lat="47.25087" lon="-2.30135">
        <ele>29.39999961853</ele>
        <time>2021-09-26T07:42:37.000Z</time>
      </trkpt>
      <trkpt lat="47.25108" lon="-2.30131">
        <ele>29.39999961853</ele>
        <time>2021-09-26T07:42:41.000Z</time>
      </trkpt>
      <trkpt lat="47.25123" lon="-2.30127">
        <ele>29.39999961853</ele>
        <time>2021-09-26T07:42:44.000Z</time>
      </trkpt>
      <trkpt lat="47.25141" lon="-2.30122">
        <ele>29.39999961853</ele>
        <time>2021-09-26T07:42:47.000Z</time>
      </trkpt>
      <trkpt lat="47.25153" lon="-2.30119">
        <ele>29.39999961853</ele>
        <time>2021-09-26T07:42:49.000Z</time>
      </trkpt>
      <trkpt lat="47.25173" lon="-2.30115">
        <ele>29</ele>
        <time>2021-09-26T07:42:52.000Z</time>
      </trkpt>
      <trkpt lat="47.25179" lon="-2.30118">
        <ele>28.60000038147</ele>
        <time>2021-09-26T07:42:53.000Z</time>
      </trkpt>
      <trkpt lat="47.25183" lon="-2.30124">
        <ele>28.200000762939</ele>
        <time>2021-09-26T07:42:54.000Z</time>
      </trkpt>
      <trkpt lat="47.25187" lon="-2.30133">
        <ele>27.799999237061</ele>
        <time>2021-09-26T07:42:55.000Z</time>
      </trkpt>
      <trkpt lat="47.25191" lon="-2.30141">
        <ele>27.39999961853</ele>
        <time>2021-09-26T07:42:56.000Z</time>
      </trkpt>
      <trkpt lat="47.25195" lon="-2.30147">
        <ele>27.39999961853</ele>
        <time>2021-09-26T07:42:57.000Z</time>
      </trkpt>
      <trkpt lat="47.25222" lon="-2.30177">
        <ele>27.39999961853</ele>
        <time>2021-09-26T07:43:02.000Z</time>
      </trkpt>
      <trkpt lat="47.25229" lon="-2.30179">
        <ele>27</ele>
        <time>2021-09-26T07:43:03.000Z</time>
      </trkpt>
      <trkpt lat="47.25235" lon="-2.30181">
        <ele>26.60000038147</ele>
        <time>2021-09-26T07:43:04.000Z</time>
      </trkpt>
      <trkpt lat="47.25241" lon="-2.30182">
        <ele>26.200000762939</ele>
        <time>2021-09-26T07:43:05.000Z</time>
      </trkpt>
      <trkpt lat="47.25247" lon="-2.30184">
        <ele>25.39999961853</ele>
        <time>2021-09-26T07:43:06.000Z</time>
      </trkpt>
      <trkpt lat="47.25281" lon="-2.30198">
        <ele>25.39999961853</ele>
        <time>2021-09-26T07:43:11.000Z</time>
      </trkpt>
      <trkpt lat="47.25299" lon="-2.30207">
        <ele>25</ele>
        <time>2021-09-26T07:43:14.000Z</time>
      </trkpt>
      <trkpt lat="47.25303" lon="-2.30208">
        <ele>24.60000038147</ele>
        <time>2021-09-26T07:43:15.000Z</time>
      </trkpt>
      <trkpt lat="47.25305" lon="-2.30208">
        <ele>24.200000762939</ele>
        <time>2021-09-26T07:43:16.000Z</time>
      </trkpt>
      <trkpt lat="47.25307" lon="-2.30206">
        <ele>23.60000038147</ele>
        <time>2021-09-26T07:43:17.000Z</time>
      </trkpt>
      <trkpt lat="47.25308" lon="-2.30202">
        <ele>23.200000762939</ele>
        <time>2021-09-26T07:43:18.000Z</time>
      </trkpt>
      <trkpt lat="47.2532" lon="-2.30204">
        <ele>23.200000762939</ele>
        <time>2021-09-26T07:43:21.000Z</time>
      </trkpt>
      <trkpt lat="47.25331" lon="-2.30206">
        <ele>23.200000762939</ele>
        <time>2021-09-26T07:43:23.000Z</time>
      </trkpt>
      <trkpt lat="47.25344" lon="-2.30205">
        <ele>23.200000762939</ele>
        <time>2021-09-26T07:43:25.000Z</time>
      </trkpt>
      <trkpt lat="47.2538" lon="-2.30207">
        <ele>22.799999237061</ele>
        <time>2021-09-26T07:43:31.000Z</time>
      </trkpt>
      <trkpt lat="47.25385" lon="-2.30208">
        <ele>22.39999961853</ele>
        <time>2021-09-26T07:43:32.000Z</time>
      </trkpt>
      <trkpt lat="47.25391" lon="-2.3021">
        <ele>22</ele>
        <time>2021-09-26T07:43:33.000Z</time>
      </trkpt>
      <trkpt lat="47.25396" lon="-2.30213">
        <ele>21.60000038147</ele>
        <time>2021-09-26T07:43:34.000Z</time>
      </trkpt>
      <trkpt lat="47.254" lon="-2.30216">
        <ele>21.200000762939</ele>
        <time>2021-09-26T07:43:35.000Z</time>
      </trkpt>
      <trkpt lat="47.25411" lon="-2.30222">
        <ele>21.200000762939</ele>
        <time>2021-09-26T07:43:37.000Z</time>
      </trkpt>
      <trkpt lat="47.25421" lon="-2.30226">
        <ele>21.200000762939</ele>
        <time>2021-09-26T07:43:39.000Z</time>
      </trkpt>
      <trkpt lat="47.25452" lon="-2.30236">
        <ele>21.200000762939</ele>
        <time>2021-09-26T07:43:45.000Z</time>
      </trkpt>
      <trkpt lat="47.25468" lon="-2.30242">
        <ele>21.200000762939</ele>
        <time>2021-09-26T07:43:48.000Z</time>
      </trkpt>
      <trkpt lat="47.25473" lon="-2.30244">
        <ele>20.799999237061</ele>
        <time>2021-09-26T07:43:49.000Z</time>
      </trkpt>
      <trkpt lat="47.25477" lon="-2.30245">
        <ele>20.200000762939</ele>
        <time>2021-09-26T07:43:50.000Z</time>
      </trkpt>
      <trkpt lat="47.25479" lon="-2.30242">
        <ele>19.799999237061</ele>
        <time>2021-09-26T07:43:51.000Z</time>
      </trkpt>
      <trkpt lat="47.25481" lon="-2.30238">
        <ele>19.39999961853</ele>
        <time>2021-09-26T07:43:52.000Z</time>
      </trkpt>
      <trkpt lat="47.25483" lon="-2.30234">
        <ele>19</ele>
        <time>2021-09-26T07:43:53.000Z</time>
      </trkpt>
      <trkpt lat="47.25486" lon="-2.30223">
        <ele>19</ele>
        <time>2021-09-26T07:43:55.000Z</time>
      </trkpt>
      <trkpt lat="47.25493" lon="-2.30207">
        <ele>19</ele>
        <time>2021-09-26T07:43:58.000Z</time>
      </trkpt>
      <trkpt lat="47.25502" lon="-2.30198">
        <ele>19</ele>
        <time>2021-09-26T07:44:01.000Z</time>
      </trkpt>
      <trkpt lat="47.25506" lon="-2.30197">
        <ele>19</ele>
        <time>2021-09-26T07:44:02.000Z</time>
      </trkpt>
      <trkpt lat="47.25523" lon="-2.30198">
        <ele>19</ele>
        <time>2021-09-26T07:44:06.000Z</time>
      </trkpt>
      <trkpt lat="47.2554" lon="-2.30189">
        <ele>19</ele>
        <time>2021-09-26T07:44:10.000Z</time>
      </trkpt>
      <trkpt lat="47.25545" lon="-2.30187">
        <ele>19</ele>
        <time>2021-09-26T07:44:11.000Z</time>
      </trkpt>
      <trkpt lat="47.2555" lon="-2.30185">
        <ele>19</ele>
        <time>2021-09-26T07:44:12.000Z</time>
      </trkpt>
      <trkpt lat="47.25564" lon="-2.30186">
        <ele>19</ele>
        <time>2021-09-26T07:44:15.000Z</time>
      </trkpt>
      <trkpt lat="47.25567" lon="-2.30187">
        <ele>18.60000038147</ele>
        <time>2021-09-26T07:44:16.000Z</time>
      </trkpt>
      <trkpt lat="47.25571" lon="-2.30188">
        <ele>18.200000762939</ele>
        <time>2021-09-26T07:44:17.000Z</time>
      </trkpt>
      <trkpt lat="47.25575" lon="-2.30189">
        <ele>17.799999237061</ele>
        <time>2021-09-26T07:44:18.000Z</time>
      </trkpt>
      <trkpt lat="47.25579" lon="-2.3019">
        <ele>17.39999961853</ele>
        <time>2021-09-26T07:44:19.000Z</time>
      </trkpt>
      <trkpt lat="47.25583" lon="-2.30192">
        <ele>16.799999237061</ele>
        <time>2021-09-26T07:44:20.000Z</time>
      </trkpt>
      <trkpt lat="47.25591" lon="-2.302">
        <ele>16.799999237061</ele>
        <time>2021-09-26T07:44:22.000Z</time>
      </trkpt>
      <trkpt lat="47.25602" lon="-2.30212">
        <ele>16.799999237061</ele>
        <time>2021-09-26T07:44:25.000Z</time>
      </trkpt>
      <trkpt lat="47.25608" lon="-2.30218">
        <ele>16.799999237061</ele>
        <time>2021-09-26T07:44:28.000Z</time>
      </trkpt>
      <trkpt lat="47.25607" lon="-2.30217">
        <ele>16.799999237061</ele>
        <time>2021-09-26T07:44:29.000Z</time>
      </trkpt>
      <trkpt lat="47.25609" lon="-2.30221">
        <ele>16.799999237061</ele>
        <time>2021-09-26T07:44:42.000Z</time>
      </trkpt>
      <trkpt lat="47.25611" lon="-2.30225">
        <ele>16.799999237061</ele>
        <time>2021-09-26T07:44:43.000Z</time>
      </trkpt>
      <trkpt lat="47.25619" lon="-2.30249">
        <ele>16.799999237061</ele>
        <time>2021-09-26T07:44:48.000Z</time>
      </trkpt>
      <trkpt lat="47.25626" lon="-2.30284">
        <ele>16.799999237061</ele>
        <time>2021-09-26T07:44:54.000Z</time>
      </trkpt>
      <trkpt lat="47.25632" lon="-2.30328">
        <ele>16.799999237061</ele>
        <time>2021-09-26T07:45:02.000Z</time>
      </trkpt>
      <trkpt lat="47.25637" lon="-2.30337">
        <ele>16.799999237061</ele>
        <time>2021-09-26T07:45:05.000Z</time>
      </trkpt>
      <trkpt lat="47.25638" lon="-2.30337">
        <ele>16.799999237061</ele>
        <time>2021-09-26T07:45:06.000Z</time>
      </trkpt>
      <trkpt lat="47.25645" lon="-2.30326">
        <ele>16.799999237061</ele>
        <time>2021-09-26T07:45:09.000Z</time>
      </trkpt>
      <trkpt lat="47.25648" lon="-2.30321">
        <ele>16.799999237061</ele>
        <time>2021-09-26T07:45:10.000Z</time>
      </trkpt>
      <trkpt lat="47.25657" lon="-2.303">
        <ele>16.799999237061</ele>
        <time>2021-09-26T07:45:14.000Z</time>
      </trkpt>
      <trkpt lat="47.25659" lon="-2.3028">
        <ele>16.799999237061</ele>
        <time>2021-09-26T07:45:17.000Z</time>
      </trkpt>
      <trkpt lat="47.25672" lon="-2.30261">
        <ele>16.799999237061</ele>
        <time>2021-09-26T07:45:21.000Z</time>
      </trkpt>
      <trkpt lat="47.25682" lon="-2.30244">
        <ele>16.799999237061</ele>
        <time>2021-09-26T07:45:24.000Z</time>
      </trkpt>
      <trkpt lat="47.25688" lon="-2.30229">
        <ele>16.799999237061</ele>
        <time>2021-09-26T07:45:26.000Z</time>
      </trkpt>
      <trkpt lat="47.25712" lon="-2.30197">
        <ele>16.799999237061</ele>
        <time>2021-09-26T07:45:32.000Z</time>
      </trkpt>
      <trkpt lat="47.25733" lon="-2.30201">
        <ele>16.799999237061</ele>
        <time>2021-09-26T07:45:35.000Z</time>
      </trkpt>
      <trkpt lat="47.2574" lon="-2.30205">
        <ele>16.799999237061</ele>
        <time>2021-09-26T07:45:36.000Z</time>
      </trkpt>
      <trkpt lat="47.25748" lon="-2.30208">
        <ele>16.39999961853</ele>
        <time>2021-09-26T07:45:37.000Z</time>
      </trkpt>
      <trkpt lat="47.25755" lon="-2.30212">
        <ele>16</ele>
        <time>2021-09-26T07:45:38.000Z</time>
      </trkpt>
      <trkpt lat="47.25762" lon="-2.30216">
        <ele>15.60000038147</ele>
        <time>2021-09-26T07:45:39.000Z</time>
      </trkpt>
      <trkpt lat="47.2577" lon="-2.3022">
        <ele>15.199999809265</ele>
        <time>2021-09-26T07:45:40.000Z</time>
      </trkpt>
      <trkpt lat="47.25777" lon="-2.30224">
        <ele>14.800000190735</ele>
        <time>2021-09-26T07:45:41.000Z</time>
      </trkpt>
      <trkpt lat="47.25825" lon="-2.3025">
        <ele>14.800000190735</ele>
        <time>2021-09-26T07:45:47.000Z</time>
      </trkpt>
      <trkpt lat="47.25849" lon="-2.30261">
        <ele>14.800000190735</ele>
        <time>2021-09-26T07:45:51.000Z</time>
      </trkpt>
      <trkpt lat="47.25875" lon="-2.30269">
        <ele>14.800000190735</ele>
        <time>2021-09-26T07:45:56.000Z</time>
      </trkpt>
      <trkpt lat="47.25881" lon="-2.30268">
        <ele>14.800000190735</ele>
        <time>2021-09-26T07:45:57.000Z</time>
      </trkpt>
      <trkpt lat="47.25898" lon="-2.30278">
        <ele>14.800000190735</ele>
        <time>2021-09-26T07:46:00.000Z</time>
      </trkpt>
      <trkpt lat="47.25902" lon="-2.30303">
        <ele>14.800000190735</ele>
        <time>2021-09-26T07:46:03.000Z</time>
      </trkpt>
      <trkpt lat="47.25903" lon="-2.30312">
        <ele>14.800000190735</ele>
        <time>2021-09-26T07:46:04.000Z</time>
      </trkpt>
      <trkpt lat="47.25905" lon="-2.3032">
        <ele>14.800000190735</ele>
        <time>2021-09-26T07:46:05.000Z</time>
      </trkpt>
      <trkpt lat="47.25911" lon="-2.30335">
        <ele>14.800000190735</ele>
        <time>2021-09-26T07:46:07.000Z</time>
      </trkpt>
      <trkpt lat="47.25917" lon="-2.30368">
        <ele>14.800000190735</ele>
        <time>2021-09-26T07:46:11.000Z</time>
      </trkpt>
      <trkpt lat="47.25916" lon="-2.30385">
        <ele>14.800000190735</ele>
        <time>2021-09-26T07:46:13.000Z</time>
      </trkpt>
      <trkpt lat="47.25913" lon="-2.30417">
        <ele>14.800000190735</ele>
        <time>2021-09-26T07:46:17.000Z</time>
      </trkpt>
      <trkpt lat="47.25911" lon="-2.30425">
        <ele>14.800000190735</ele>
        <time>2021-09-26T07:46:18.000Z</time>
      </trkpt>
      <trkpt lat="47.25904" lon="-2.30446">
        <ele>14.800000190735</ele>
        <time>2021-09-26T07:46:21.000Z</time>
      </trkpt>
      <trkpt lat="47.25893" lon="-2.30482">
        <ele>15.199999809265</ele>
        <time>2021-09-26T07:46:26.000Z</time>
      </trkpt>
      <trkpt lat="47.25891" lon="-2.30489">
        <ele>15.60000038147</ele>
        <time>2021-09-26T07:46:27.000Z</time>
      </trkpt>
      <trkpt lat="47.25889" lon="-2.30496">
        <ele>16</ele>
        <time>2021-09-26T07:46:28.000Z</time>
      </trkpt>
      <trkpt lat="47.25886" lon="-2.30502">
        <ele>16.39999961853</ele>
        <time>2021-09-26T07:46:29.000Z</time>
      </trkpt>
      <trkpt lat="47.25884" lon="-2.30508">
        <ele>16.799999237061</ele>
        <time>2021-09-26T07:46:30.000Z</time>
      </trkpt>
      <trkpt lat="47.25874" lon="-2.3054">
        <ele>16.799999237061</ele>
        <time>2021-09-26T07:46:35.000Z</time>
      </trkpt>
      <trkpt lat="47.25856" lon="-2.30603">
        <ele>16.799999237061</ele>
        <time>2021-09-26T07:46:44.000Z</time>
      </trkpt>
      <trkpt lat="47.25841" lon="-2.30665">
        <ele>16.799999237061</ele>
        <time>2021-09-26T07:46:52.000Z</time>
      </trkpt>
      <trkpt lat="47.25832" lon="-2.30723">
        <ele>16.799999237061</ele>
        <time>2021-09-26T07:46:59.000Z</time>
      </trkpt>
      <trkpt lat="47.25819" lon="-2.30805">
        <ele>16.799999237061</ele>
        <time>2021-09-26T07:47:09.000Z</time>
      </trkpt>
      <trkpt lat="47.25805" lon="-2.30888">
        <ele>16.799999237061</ele>
        <time>2021-09-26T07:47:19.000Z</time>
      </trkpt>
      <trkpt lat="47.25796" lon="-2.30927">
        <ele>16.799999237061</ele>
        <time>2021-09-26T07:47:24.000Z</time>
      </trkpt>
      <trkpt lat="47.25786" lon="-2.30947">
        <ele>16.39999961853</ele>
        <time>2021-09-26T07:47:27.000Z</time>
      </trkpt>
      <trkpt lat="47.25783" lon="-2.30955">
        <ele>16</ele>
        <time>2021-09-26T07:47:28.000Z</time>
      </trkpt>
      <trkpt lat="47.25781" lon="-2.30963">
        <ele>15.60000038147</ele>
        <time>2021-09-26T07:47:29.000Z</time>
      </trkpt>
      <trkpt lat="47.25779" lon="-2.30972">
        <ele>15.199999809265</ele>
        <time>2021-09-26T07:47:30.000Z</time>
      </trkpt>
      <trkpt lat="47.25777" lon="-2.3098">
        <ele>14.800000190735</ele>
        <time>2021-09-26T07:47:31.000Z</time>
      </trkpt>
      <trkpt lat="47.25767" lon="-2.31022">
        <ele>14.800000190735</ele>
        <time>2021-09-26T07:47:36.000Z</time>
      </trkpt>
      <trkpt lat="47.25763" lon="-2.31037">
        <ele>14.39999961853</ele>
        <time>2021-09-26T07:47:38.000Z</time>
      </trkpt>
      <trkpt lat="47.25762" lon="-2.31043">
        <ele>14</ele>
        <time>2021-09-26T07:47:39.000Z</time>
      </trkpt>
      <trkpt lat="47.25761" lon="-2.31049">
        <ele>13.39999961853</ele>
        <time>2021-09-26T07:47:40.000Z</time>
      </trkpt>
      <trkpt lat="47.2576" lon="-2.31054">
        <ele>13</ele>
        <time>2021-09-26T07:47:41.000Z</time>
      </trkpt>
      <trkpt lat="47.25761" lon="-2.31061">
        <ele>12.60000038147</ele>
        <time>2021-09-26T07:47:42.000Z</time>
      </trkpt>
      <trkpt lat="47.25762" lon="-2.31068">
        <ele>12.199999809265</ele>
        <time>2021-09-26T07:47:43.000Z</time>
      </trkpt>
      <trkpt lat="47.25765" lon="-2.31075">
        <ele>11.800000190735</ele>
        <time>2021-09-26T07:47:44.000Z</time>
      </trkpt>
      <trkpt lat="47.25768" lon="-2.31082">
        <ele>11.39999961853</ele>
        <time>2021-09-26T07:47:45.000Z</time>
      </trkpt>
      <trkpt lat="47.25771" lon="-2.3109">
        <ele>11</ele>
        <time>2021-09-26T07:47:46.000Z</time>
      </trkpt>
      <trkpt lat="47.25774" lon="-2.31097">
        <ele>10.60000038147</ele>
        <time>2021-09-26T07:47:47.000Z</time>
      </trkpt>
      <trkpt lat="47.25784" lon="-2.3112">
        <ele>10.60000038147</ele>
        <time>2021-09-26T07:47:50.000Z</time>
      </trkpt>
      <trkpt lat="47.2579" lon="-2.31129">
        <ele>10.60000038147</ele>
        <time>2021-09-26T07:47:52.000Z</time>
      </trkpt>
      <trkpt lat="47.25795" lon="-2.3113">
        <ele>10.199999809265</ele>
        <time>2021-09-26T07:47:53.000Z</time>
      </trkpt>
      <trkpt lat="47.25799" lon="-2.31126">
        <ele>9.6000003814697</ele>
        <time>2021-09-26T07:47:54.000Z</time>
      </trkpt>
      <trkpt lat="47.25803" lon="-2.31121">
        <ele>9.1999998092651</ele>
        <time>2021-09-26T07:47:55.000Z</time>
      </trkpt>
      <trkpt lat="47.25807" lon="-2.31115">
        <ele>8.8000001907349</ele>
        <time>2021-09-26T07:47:56.000Z</time>
      </trkpt>
      <trkpt lat="47.25811" lon="-2.3111">
        <ele>8.3999996185303</ele>
        <time>2021-09-26T07:47:57.000Z</time>
      </trkpt>
      <trkpt lat="47.25816" lon="-2.31106">
        <ele>8.3999996185303</ele>
        <time>2021-09-26T07:47:58.000Z</time>
      </trkpt>
      <trkpt lat="47.25829" lon="-2.31091">
        <ele>8.3999996185303</ele>
        <time>2021-09-26T07:48:01.000Z</time>
      </trkpt>
      <trkpt lat="47.25834" lon="-2.31088">
        <ele>8.3999996185303</ele>
        <time>2021-09-26T07:48:02.000Z</time>
      </trkpt>
      <trkpt lat="47.25844" lon="-2.31093">
        <ele>8.3999996185303</ele>
        <time>2021-09-26T07:48:04.000Z</time>
      </trkpt>
      <trkpt lat="47.25858" lon="-2.31112">
        <ele>8.3999996185303</ele>
        <time>2021-09-26T07:48:07.000Z</time>
      </trkpt>
      <trkpt lat="47.25891" lon="-2.31141">
        <ele>8.3999996185303</ele>
        <time>2021-09-26T07:48:13.000Z</time>
      </trkpt>
      <trkpt lat="47.25902" lon="-2.31152">
        <ele>8.3999996185303</ele>
        <time>2021-09-26T07:48:15.000Z</time>
      </trkpt>
      <trkpt lat="47.25909" lon="-2.31167">
        <ele>8.3999996185303</ele>
        <time>2021-09-26T07:48:17.000Z</time>
      </trkpt>
      <trkpt lat="47.25914" lon="-2.31184">
        <ele>8.3999996185303</ele>
        <time>2021-09-26T07:48:19.000Z</time>
      </trkpt>
      <trkpt lat="47.25924" lon="-2.3121">
        <ele>8.3999996185303</ele>
        <time>2021-09-26T07:48:22.000Z</time>
      </trkpt>
      <trkpt lat="47.25933" lon="-2.31226">
        <ele>8.3999996185303</ele>
        <time>2021-09-26T07:48:24.000Z</time>
      </trkpt>
      <trkpt lat="47.25945" lon="-2.31238">
        <ele>8.3999996185303</ele>
        <time>2021-09-26T07:48:26.000Z</time>
      </trkpt>
      <trkpt lat="47.25972" lon="-2.31252">
        <ele>8.3999996185303</ele>
        <time>2021-09-26T07:48:30.000Z</time>
      </trkpt>
      <trkpt lat="47.26012" lon="-2.31258">
        <ele>8.3999996185303</ele>
        <time>2021-09-26T07:48:36.000Z</time>
      </trkpt>
      <trkpt lat="47.2603" lon="-2.31261">
        <ele>8.3999996185303</ele>
        <time>2021-09-26T07:48:39.000Z</time>
      </trkpt>
      <trkpt lat="47.26037" lon="-2.31271">
        <ele>8.3999996185303</ele>
        <time>2021-09-26T07:48:41.000Z</time>
      </trkpt>
      <trkpt lat="47.26035" lon="-2.31287">
        <ele>8.3999996185303</ele>
        <time>2021-09-26T07:48:43.000Z</time>
      </trkpt>
      <trkpt lat="47.26031" lon="-2.31303">
        <ele>8</ele>
        <time>2021-09-26T07:48:45.000Z</time>
      </trkpt>
      <trkpt lat="47.26028" lon="-2.31311">
        <ele>7.5999999046326</ele>
        <time>2021-09-26T07:48:46.000Z</time>
      </trkpt>
      <trkpt lat="47.26026" lon="-2.31319">
        <ele>7.1999998092651</ele>
        <time>2021-09-26T07:48:47.000Z</time>
      </trkpt>
      <trkpt lat="47.26024" lon="-2.31327">
        <ele>6.5999999046326</ele>
        <time>2021-09-26T07:48:48.000Z</time>
      </trkpt>
      <trkpt lat="47.26022" lon="-2.31336">
        <ele>6.1999998092651</ele>
        <time>2021-09-26T07:48:49.000Z</time>
      </trkpt>
      <trkpt lat="47.26016" lon="-2.31369">
        <ele>5.8000001907349</ele>
        <time>2021-09-26T07:48:53.000Z</time>
      </trkpt>
      <trkpt lat="47.26016" lon="-2.31373">
        <ele>5.1999998092651</ele>
        <time>2021-09-26T07:48:54.000Z</time>
      </trkpt>
      <trkpt lat="47.26016" lon="-2.31376">
        <ele>4.8000001907349</ele>
        <time>2021-09-26T07:48:55.000Z</time>
      </trkpt>
      <trkpt lat="47.26015" lon="-2.31378">
        <ele>4.1999998092651</ele>
        <time>2021-09-26T07:48:56.000Z</time>
      </trkpt>
      <trkpt lat="47.26015" lon="-2.31381">
        <ele>3.7999999523163</ele>
        <time>2021-09-26T07:48:57.000Z</time>
      </trkpt>
      <trkpt lat="47.2601" lon="-2.31386">
        <ele>3.7999999523163</ele>
        <time>2021-09-26T07:49:01.000Z</time>
      </trkpt>
      <trkpt lat="47.26009" lon="-2.31397">
        <ele>3.4000000953674</ele>
        <time>2021-09-26T07:49:04.000Z</time>
      </trkpt>
      <trkpt lat="47.26008" lon="-2.31401">
        <ele>3</ele>
        <time>2021-09-26T07:49:05.000Z</time>
      </trkpt>
      <trkpt lat="47.26006" lon="-2.31407">
        <ele>2.5999999046326</ele>
        <time>2021-09-26T07:49:06.000Z</time>
      </trkpt>
      <trkpt lat="47.26004" lon="-2.31413">
        <ele>2.2000000476837</ele>
        <time>2021-09-26T07:49:07.000Z</time>
      </trkpt>
      <trkpt lat="47.26002" lon="-2.31419">
        <ele>1.7999999523163</ele>
        <time>2021-09-26T07:49:08.000Z</time>
      </trkpt>
      <trkpt lat="47.26001" lon="-2.31423">
        <ele>1.7999999523163</ele>
        <time>2021-09-26T07:49:09.000Z</time>
      </trkpt>
      <trkpt lat="47.26002" lon="-2.31429">
        <ele>1.7999999523163</ele>
        <time>2021-09-26T07:49:10.000Z</time>
      </trkpt>
      <trkpt lat="47.26008" lon="-2.31436">
        <ele>1.7999999523163</ele>
        <time>2021-09-26T07:49:12.000Z</time>
      </trkpt>
      <trkpt lat="47.26021" lon="-2.31445">
        <ele>1.7999999523163</ele>
        <time>2021-09-26T07:49:15.000Z</time>
      </trkpt>
      <trkpt lat="47.26031" lon="-2.31451">
        <ele>1.7999999523163</ele>
        <time>2021-09-26T07:49:17.000Z</time>
      </trkpt>
      <trkpt lat="47.2604" lon="-2.31457">
        <ele>1.7999999523163</ele>
        <time>2021-09-26T07:49:19.000Z</time>
      </trkpt>
      <trkpt lat="47.26055" lon="-2.31466">
        <ele>1.7999999523163</ele>
        <time>2021-09-26T07:49:22.000Z</time>
      </trkpt>
      <trkpt lat="47.26072" lon="-2.31482">
        <ele>1.7999999523163</ele>
        <time>2021-09-26T07:49:26.000Z</time>
      </trkpt>
      <trkpt lat="47.26068" lon="-2.31487">
        <ele>1.7999999523163</ele>
        <time>2021-09-26T07:49:27.000Z</time>
      </trkpt>
      <trkpt lat="47.26057" lon="-2.31495">
        <ele>1.7999999523163</ele>
        <time>2021-09-26T07:49:30.000Z</time>
      </trkpt>
      <trkpt lat="47.26052" lon="-2.31503">
        <ele>1.7999999523163</ele>
        <time>2021-09-26T07:49:32.000Z</time>
      </trkpt>
      <trkpt lat="47.26054" lon="-2.3151">
        <ele>1.7999999523163</ele>
        <time>2021-09-26T07:49:33.000Z</time>
      </trkpt>
      <trkpt lat="47.26063" lon="-2.31527">
        <ele>1.7999999523163</ele>
        <time>2021-09-26T07:49:36.000Z</time>
      </trkpt>
      <trkpt lat="47.26066" lon="-2.31533">
        <ele>1.2000000476837</ele>
        <time>2021-09-26T07:49:37.000Z</time>
      </trkpt>
      <trkpt lat="47.26069" lon="-2.3154">
        <ele>0.80000001192093</ele>
        <time>2021-09-26T07:49:38.000Z</time>
      </trkpt>
      <trkpt lat="47.26072" lon="-2.31547">
        <ele>0.40000000596046</ele>
        <time>2021-09-26T07:49:39.000Z</time>
      </trkpt>
      <trkpt lat="47.26075" lon="-2.31553">
        <ele>5.7</ele>
        <time>2021-09-26T07:49:40.000Z</time>
      </trkpt>
      <trkpt lat="47.26077" lon="-2.3156">
        <ele>-0.40000000596046</ele>
        <time>2021-09-26T07:49:41.000Z</time>
      </trkpt>
      <trkpt lat="47.26082" lon="-2.31572">
        <ele>-0.40000000596046</ele>
        <time>2021-09-26T07:49:43.000Z</time>
      </trkpt>
      <trkpt lat="47.26091" lon="-2.31579">
        <ele>-0.40000000596046</ele>
        <time>2021-09-26T07:49:46.000Z</time>
      </trkpt>
      <trkpt lat="47.26102" lon="-2.31592">
        <ele>-0.40000000596046</ele>
        <time>2021-09-26T07:49:49.000Z</time>
      </trkpt>
      <trkpt lat="47.26106" lon="-2.31598">
        <ele>-0.40000000596046</ele>
        <time>2021-09-26T07:49:50.000Z</time>
      </trkpt>
      <trkpt lat="47.26114" lon="-2.31609">
        <ele>-0.40000000596046</ele>
        <time>2021-09-26T07:49:52.000Z</time>
      </trkpt>
      <trkpt lat="47.26126" lon="-2.31613">
        <ele>-0.40000000596046</ele>
        <time>2021-09-26T07:49:54.000Z</time>
      </trkpt>
      <trkpt lat="47.26139" lon="-2.31612">
        <ele>-0.40000000596046</ele>
        <time>2021-09-26T07:49:56.000Z</time>
      </trkpt>
      <trkpt lat="47.26158" lon="-2.31607">
        <ele>-0.40000000596046</ele>
        <time>2021-09-26T07:49:59.000Z</time>
      </trkpt>
      <trkpt lat="47.26195" lon="-2.31595">
        <ele>-0.40000000596046</ele>
        <time>2021-09-26T07:50:05.000Z</time>
      </trkpt>
      <trkpt lat="47.26216" lon="-2.31591">
        <ele>-0.40000000596046</ele>
        <time>2021-09-26T07:50:09.000Z</time>
      </trkpt>
      <trkpt lat="47.26227" lon="-2.31595">
        <ele>-0.40000000596046</ele>
        <time>2021-09-26T07:50:11.000Z</time>
      </trkpt>
      <trkpt lat="47.26237" lon="-2.31601">
        <ele>-0.40000000596046</ele>
        <time>2021-09-26T07:50:13.000Z</time>
      </trkpt>
      <trkpt lat="47.26246" lon="-2.31609">
        <ele>-0.40000000596046</ele>
        <time>2021-09-26T07:50:15.000Z</time>
      </trkpt>
      <trkpt lat="47.26251" lon="-2.31614">
        <ele>-0.40000000596046</ele>
        <time>2021-09-26T07:50:16.000Z</time>
      </trkpt>
      <trkpt lat="47.26269" lon="-2.31644">
        <ele>-0.40000000596046</ele>
        <time>2021-09-26T07:50:21.000Z</time>
      </trkpt>
      <trkpt lat="47.26297" lon="-2.31694">
        <ele>-0.40000000596046</ele>
        <time>2021-09-26T07:50:30.000Z</time>
      </trkpt>
      <trkpt lat="47.263" lon="-2.31705">
        <ele>-0.80000001192093</ele>
        <time>2021-09-26T07:50:32.000Z</time>
      </trkpt>
      <trkpt lat="47.26302" lon="-2.31709">
        <ele>-1.2000000476837</ele>
        <time>2021-09-26T07:50:33.000Z</time>
      </trkpt>
      <trkpt lat="47.26302" lon="-2.31714">
        <ele>-1.6000000238419</ele>
        <time>2021-09-26T07:50:34.000Z</time>
      </trkpt>
      <trkpt lat="47.26302" lon="-2.31721">
        <ele>-2</ele>
        <time>2021-09-26T07:50:35.000Z</time>
      </trkpt>
      <trkpt lat="47.26302" lon="-2.31727">
        <ele>-2.4000000953674</ele>
        <time>2021-09-26T07:50:36.000Z</time>
      </trkpt>
      <trkpt lat="47.26303" lon="-2.31748">
        <ele>-2.4000000953674</ele>
        <time>2021-09-26T07:50:39.000Z</time>
      </trkpt>
      <trkpt lat="47.26304" lon="-2.31756">
        <ele>-2.4000000953674</ele>
        <time>2021-09-26T07:50:40.000Z</time>
      </trkpt>
      <trkpt lat="47.26306" lon="-2.31796">
        <ele>-2.4000000953674</ele>
        <time>2021-09-26T07:50:45.000Z</time>
      </trkpt>
      <trkpt lat="47.26306" lon="-2.31803">
        <ele>-2.4000000953674</ele>
        <time>2021-09-26T07:50:46.000Z</time>
      </trkpt>
      <trkpt lat="47.26301" lon="-2.31862">
        <ele>-2.4000000953674</ele>
        <time>2021-09-26T07:50:53.000Z</time>
      </trkpt>
      <trkpt lat="47.26302" lon="-2.31913">
        <ele>-2.4000000953674</ele>
        <time>2021-09-26T07:50:59.000Z</time>
      </trkpt>
      <trkpt lat="47.26303" lon="-2.3192">
        <ele>-2.4000000953674</ele>
        <time>2021-09-26T07:51:00.000Z</time>
      </trkpt>
      <trkpt lat="47.26304" lon="-2.31926">
        <ele>-2.4000000953674</ele>
        <time>2021-09-26T07:51:01.000Z</time>
      </trkpt>
      <trkpt lat="47.2631" lon="-2.31931">
        <ele>-2.4000000953674</ele>
        <time>2021-09-26T07:51:03.000Z</time>
      </trkpt>
      <trkpt lat="47.2632" lon="-2.3193">
        <ele>-2.4000000953674</ele>
        <time>2021-09-26T07:51:06.000Z</time>
      </trkpt>
      <trkpt lat="47.26326" lon="-2.3193">
        <ele>-2.4000000953674</ele>
        <time>2021-09-26T07:51:08.000Z</time>
      </trkpt>
      <trkpt lat="47.26334" lon="-2.31935">
        <ele>-2.4000000953674</ele>
        <time>2021-09-26T07:51:10.000Z</time>
      </trkpt>
      <trkpt lat="47.26338" lon="-2.3194">
        <ele>-2.4000000953674</ele>
        <time>2021-09-26T07:51:11.000Z</time>
      </trkpt>
      <trkpt lat="47.26359" lon="-2.31974">
        <ele>-2.4000000953674</ele>
        <time>2021-09-26T07:51:19.000Z</time>
      </trkpt>
      <trkpt lat="47.26373" lon="-2.31982">
        <ele>-2.4000000953674</ele>
        <time>2021-09-26T07:51:23.000Z</time>
      </trkpt>
      <trkpt lat="47.26376" lon="-2.31982">
        <ele>-2</ele>
        <time>2021-09-26T07:51:24.000Z</time>
      </trkpt>
      <trkpt lat="47.26379" lon="-2.31983">
        <ele>-1.6000000238419</ele>
        <time>2021-09-26T07:51:25.000Z</time>
      </trkpt>
      <trkpt lat="47.26381" lon="-2.31982">
        <ele>-1.2000000476837</ele>
        <time>2021-09-26T07:51:26.000Z</time>
      </trkpt>
      <trkpt lat="47.26384" lon="-2.31983">
        <ele>-0.80000001192093</ele>
        <time>2021-09-26T07:51:27.000Z</time>
      </trkpt>
      <trkpt lat="47.26387" lon="-2.31983">
        <ele>-0.40000000596046</ele>
        <time>2021-09-26T07:51:28.000Z</time>
      </trkpt>
      <trkpt lat="47.26403" lon="-2.31986">
        <ele>-0.40000000596046</ele>
        <time>2021-09-26T07:51:34.000Z</time>
      </trkpt>
      <trkpt lat="47.26406" lon="-2.31987">
        <ele>0.20000000298023</ele>
        <time>2021-09-26T07:51:35.000Z</time>
      </trkpt>
      <trkpt lat="47.26409" lon="-2.31988">
        <ele>0.60000002384186</ele>
        <time>2021-09-26T07:51:36.000Z</time>
      </trkpt>
      <trkpt lat="47.26412" lon="-2.31988">
        <ele>1</ele>
        <time>2021-09-26T07:51:37.000Z</time>
      </trkpt>
      <trkpt lat="47.26415" lon="-2.31988">
        <ele>1.3999999761581</ele>
        <time>2021-09-26T07:51:38.000Z</time>
      </trkpt>
      <trkpt lat="47.26418" lon="-2.31989">
        <ele>1.7999999523163</ele>
        <time>2021-09-26T07:51:39.000Z</time>
      </trkpt>
      <trkpt lat="47.26423" lon="-2.31991">
        <ele>1.7999999523163</ele>
        <time>2021-09-26T07:51:41.000Z</time>
      </trkpt>
      <trkpt lat="47.26432" lon="-2.31994">
        <ele>2.2000000476837</ele>
        <time>2021-09-26T07:51:44.000Z</time>
      </trkpt>
      <trkpt lat="47.26435" lon="-2.31995">
        <ele>2.5999999046326</ele>
        <time>2021-09-26T07:51:45.000Z</time>
      </trkpt>
      <trkpt lat="47.26439" lon="-2.31995">
        <ele>3.2000000476837</ele>
        <time>2021-09-26T07:51:46.000Z</time>
      </trkpt>
      <trkpt lat="47.26443" lon="-2.31996">
        <ele>3.5999999046326</ele>
        <time>2021-09-26T07:51:47.000Z</time>
      </trkpt>
      <trkpt lat="47.26448" lon="-2.31997">
        <ele>4</ele>
        <time>2021-09-26T07:51:48.000Z</time>
      </trkpt>
      <trkpt lat="47.26468" lon="-2.31997">
        <ele>4.4000000953674</ele>
        <time>2021-09-26T07:51:53.000Z</time>
      </trkpt>
      <trkpt lat="47.26471" lon="-2.31997">
        <ele>4.8000001907349</ele>
        <time>2021-09-26T07:51:54.000Z</time>
      </trkpt>
      <trkpt lat="47.26475" lon="-2.31996">
        <ele>5.1999998092651</ele>
        <time>2021-09-26T07:51:55.000Z</time>
      </trkpt>
      <trkpt lat="47.26481" lon="-2.31996">
        <ele>5.5999999046326</ele>
        <time>2021-09-26T07:51:56.000Z</time>
      </trkpt>
      <trkpt lat="47.26486" lon="-2.31995">
        <ele>6</ele>
        <time>2021-09-26T07:51:57.000Z</time>
      </trkpt>
      <trkpt lat="47.26495" lon="-2.31995">
        <ele>6</ele>
        <time>2021-09-26T07:51:59.000Z</time>
      </trkpt>
      <trkpt lat="47.26505" lon="-2.31994">
        <ele>6.4000000953674</ele>
        <time>2021-09-26T07:52:02.000Z</time>
      </trkpt>
      <trkpt lat="47.26509" lon="-2.31995">
        <ele>7</ele>
        <time>2021-09-26T07:52:03.000Z</time>
      </trkpt>
      <trkpt lat="47.26512" lon="-2.31996">
        <ele>7.4000000953674</ele>
        <time>2021-09-26T07:52:04.000Z</time>
      </trkpt>
      <trkpt lat="47.26515" lon="-2.31998">
        <ele>7.8000001907349</ele>
        <time>2021-09-26T07:52:05.000Z</time>
      </trkpt>
      <trkpt lat="47.26518" lon="-2.32">
        <ele>8.1999998092651</ele>
        <time>2021-09-26T07:52:06.000Z</time>
      </trkpt>
      <trkpt lat="47.26526" lon="-2.32007">
        <ele>9</ele>
        <time>2021-09-26T07:52:09.000Z</time>
      </trkpt>
      <trkpt lat="47.26529" lon="-2.32011">
        <ele>9.3999996185303</ele>
        <time>2021-09-26T07:52:10.000Z</time>
      </trkpt>
      <trkpt lat="47.26531" lon="-2.32014">
        <ele>9.8000001907349</ele>
        <time>2021-09-26T07:52:11.000Z</time>
      </trkpt>
      <trkpt lat="47.26533" lon="-2.32017">
        <ele>10.39999961853</ele>
        <time>2021-09-26T07:52:12.000Z</time>
      </trkpt>
      <trkpt lat="47.26541" lon="-2.32032">
        <ele>10.39999961853</ele>
        <time>2021-09-26T07:52:16.000Z</time>
      </trkpt>
      <trkpt lat="47.26553" lon="-2.32031">
        <ele>10.39999961853</ele>
        <time>2021-09-26T07:52:20.000Z</time>
      </trkpt>
      <trkpt lat="47.2656" lon="-2.3203">
        <ele>10.800000190735</ele>
        <time>2021-09-26T07:52:22.000Z</time>
      </trkpt>
      <trkpt lat="47.26563" lon="-2.32029">
        <ele>11.199999809265</ele>
        <time>2021-09-26T07:52:23.000Z</time>
      </trkpt>
      <trkpt lat="47.26567" lon="-2.32028">
        <ele>11.60000038147</ele>
        <time>2021-09-26T07:52:24.000Z</time>
      </trkpt>
      <trkpt lat="47.26571" lon="-2.32026">
        <ele>12</ele>
        <time>2021-09-26T07:52:25.000Z</time>
      </trkpt>
      <trkpt lat="47.26574" lon="-2.32025">
        <ele>12.39999961853</ele>
        <time>2021-09-26T07:52:26.000Z</time>
      </trkpt>
      <trkpt lat="47.26582" lon="-2.32021">
        <ele>12.39999961853</ele>
        <time>2021-09-26T07:52:28.000Z</time>
      </trkpt>
      <trkpt lat="47.2661" lon="-2.32013">
        <ele>12.800000190735</ele>
        <time>2021-09-26T07:52:35.000Z</time>
      </trkpt>
      <trkpt lat="47.26614" lon="-2.32013">
        <ele>13.199999809265</ele>
        <time>2021-09-26T07:52:36.000Z</time>
      </trkpt>
      <trkpt lat="47.26618" lon="-2.32012">
        <ele>13.60000038147</ele>
        <time>2021-09-26T07:52:37.000Z</time>
      </trkpt>
      <trkpt lat="47.26621" lon="-2.32011">
        <ele>14</ele>
        <time>2021-09-26T07:52:38.000Z</time>
      </trkpt>
      <trkpt lat="47.26625" lon="-2.3201">
        <ele>14.39999961853</ele>
        <time>2021-09-26T07:52:39.000Z</time>
      </trkpt>
      <trkpt lat="47.26633" lon="-2.32007">
        <ele>14.39999961853</ele>
        <time>2021-09-26T07:52:42.000Z</time>
      </trkpt>
      <trkpt lat="47.26641" lon="-2.32003">
        <ele>14.39999961853</ele>
        <time>2021-09-26T07:52:46.000Z</time>
      </trkpt>
      <trkpt lat="47.26642" lon="-2.32003">
        <ele>14.39999961853</ele>
        <time>2021-09-26T07:52:47.000Z</time>
      </trkpt>
      <trkpt lat="47.26646" lon="-2.32003">
        <ele>14.39999961853</ele>
        <time>2021-09-26T07:54:03.000Z</time>
      </trkpt>
      <trkpt lat="47.26649" lon="-2.32009">
        <ele>14.39999961853</ele>
        <time>2021-09-26T07:54:05.000Z</time>
      </trkpt>
      <trkpt lat="47.26651" lon="-2.32017">
        <ele>14.39999961853</ele>
        <time>2021-09-26T07:54:07.000Z</time>
      </trkpt>
      <trkpt lat="47.26657" lon="-2.32036">
        <ele>14.39999961853</ele>
        <time>2021-09-26T07:54:11.000Z</time>
      </trkpt>
      <trkpt lat="47.26667" lon="-2.3208">
        <ele>14.39999961853</ele>
        <time>2021-09-26T07:54:18.000Z</time>
      </trkpt>
      <trkpt lat="47.26675" lon="-2.32119">
        <ele>14.39999961853</ele>
        <time>2021-09-26T07:54:24.000Z</time>
      </trkpt>
      <trkpt lat="47.26678" lon="-2.32121">
        <ele>14.39999961853</ele>
        <time>2021-09-26T07:54:25.000Z</time>
      </trkpt>
      <trkpt lat="47.26682" lon="-2.32118">
        <ele>14.39999961853</ele>
        <time>2021-09-26T07:54:27.000Z</time>
      </trkpt>
      <trkpt lat="47.26684" lon="-2.32104">
        <ele>14.39999961853</ele>
        <time>2021-09-26T07:54:30.000Z</time>
      </trkpt>
      <trkpt lat="47.26685" lon="-2.32098">
        <ele>14.39999961853</ele>
        <time>2021-09-26T07:54:31.000Z</time>
      </trkpt>
      <trkpt lat="47.26685" lon="-2.32066">
        <ele>14.39999961853</ele>
        <time>2021-09-26T07:54:36.000Z</time>
      </trkpt>
      <trkpt lat="47.26688" lon="-2.32032">
        <ele>14.39999961853</ele>
        <time>2021-09-26T07:54:42.000Z</time>
      </trkpt>
      <trkpt lat="47.26703" lon="-2.32003">
        <ele>14.39999961853</ele>
        <time>2021-09-26T07:54:48.000Z</time>
      </trkpt>
      <trkpt lat="47.26728" lon="-2.31987">
        <ele>14.39999961853</ele>
        <time>2021-09-26T07:54:53.000Z</time>
      </trkpt>
      <trkpt lat="47.26748" lon="-2.31969">
        <ele>14</ele>
        <time>2021-09-26T07:54:57.000Z</time>
      </trkpt>
      <trkpt lat="47.26752" lon="-2.31964">
        <ele>13.60000038147</ele>
        <time>2021-09-26T07:54:58.000Z</time>
      </trkpt>
      <trkpt lat="47.26755" lon="-2.31957">
        <ele>13.199999809265</ele>
        <time>2021-09-26T07:54:59.000Z</time>
      </trkpt>
      <trkpt lat="47.26759" lon="-2.31951">
        <ele>12.800000190735</ele>
        <time>2021-09-26T07:55:00.000Z</time>
      </trkpt>
      <trkpt lat="47.26762" lon="-2.31947">
        <ele>12.39999961853</ele>
        <time>2021-09-26T07:55:01.000Z</time>
      </trkpt>
      <trkpt lat="47.26764" lon="-2.31945">
        <ele>12.39999961853</ele>
        <time>2021-09-26T07:55:02.000Z</time>
      </trkpt>
      <trkpt lat="47.26773" lon="-2.31958">
        <ele>12.39999961853</ele>
        <time>2021-09-26T07:55:05.000Z</time>
      </trkpt>
      <trkpt lat="47.26777" lon="-2.31965">
        <ele>12.39999961853</ele>
        <time>2021-09-26T07:55:06.000Z</time>
      </trkpt>
      <trkpt lat="47.26793" lon="-2.31996">
        <ele>12.39999961853</ele>
        <time>2021-09-26T07:55:10.000Z</time>
      </trkpt>
      <trkpt lat="47.26802" lon="-2.32013">
        <ele>12</ele>
        <time>2021-09-26T07:55:12.000Z</time>
      </trkpt>
      <trkpt lat="47.26806" lon="-2.32023">
        <ele>11.60000038147</ele>
        <time>2021-09-26T07:55:13.000Z</time>
      </trkpt>
      <trkpt lat="47.2681" lon="-2.32033">
        <ele>11.199999809265</ele>
        <time>2021-09-26T07:55:14.000Z</time>
      </trkpt>
      <trkpt lat="47.26813" lon="-2.32043">
        <ele>10.60000038147</ele>
        <time>2021-09-26T07:55:15.000Z</time>
      </trkpt>
      <trkpt lat="47.26815" lon="-2.32053">
        <ele>10.199999809265</ele>
        <time>2021-09-26T07:55:16.000Z</time>
      </trkpt>
      <trkpt lat="47.26823" lon="-2.32081">
        <ele>10.199999809265</ele>
        <time>2021-09-26T07:55:19.000Z</time>
      </trkpt>
      <trkpt lat="47.26825" lon="-2.3209">
        <ele>10.199999809265</ele>
        <time>2021-09-26T07:55:20.000Z</time>
      </trkpt>
      <trkpt lat="47.26827" lon="-2.321">
        <ele>9.8000001907349</ele>
        <time>2021-09-26T07:55:21.000Z</time>
      </trkpt>
      <trkpt lat="47.26829" lon="-2.32109">
        <ele>9.3999996185303</ele>
        <time>2021-09-26T07:55:22.000Z</time>
      </trkpt>
      <trkpt lat="47.26832" lon="-2.32119">
        <ele>9</ele>
        <time>2021-09-26T07:55:23.000Z</time>
      </trkpt>
      <trkpt lat="47.26835" lon="-2.32128">
        <ele>8.6000003814697</ele>
        <time>2021-09-26T07:55:24.000Z</time>
      </trkpt>
      <trkpt lat="47.26837" lon="-2.32138">
        <ele>8</ele>
        <time>2021-09-26T07:55:25.000Z</time>
      </trkpt>
      <trkpt lat="47.2684" lon="-2.32148">
        <ele>8</ele>
        <time>2021-09-26T07:55:26.000Z</time>
      </trkpt>
      <trkpt lat="47.26866" lon="-2.32209">
        <ele>8</ele>
        <time>2021-09-26T07:55:33.000Z</time>
      </trkpt>
      <trkpt lat="47.2687" lon="-2.32218">
        <ele>7.5999999046326</ele>
        <time>2021-09-26T07:55:34.000Z</time>
      </trkpt>
      <trkpt lat="47.26874" lon="-2.32226">
        <ele>7.1999998092651</ele>
        <time>2021-09-26T07:55:35.000Z</time>
      </trkpt>
      <trkpt lat="47.26878" lon="-2.32234">
        <ele>6.8000001907349</ele>
        <time>2021-09-26T07:55:36.000Z</time>
      </trkpt>
      <trkpt lat="47.26882" lon="-2.32242">
        <ele>6.1999998092651</ele>
        <time>2021-09-26T07:55:37.000Z</time>
      </trkpt>
      <trkpt lat="47.26887" lon="-2.32251">
        <ele>5.8000001907349</ele>
        <time>2021-09-26T07:55:38.000Z</time>
      </trkpt>
      <trkpt lat="47.26892" lon="-2.3226">
        <ele>5.8000001907349</ele>
        <time>2021-09-26T07:55:39.000Z</time>
      </trkpt>
      <trkpt lat="47.26912" lon="-2.32299">
        <ele>5.4000000953674</ele>
        <time>2021-09-26T07:55:43.000Z</time>
      </trkpt>
      <trkpt lat="47.26915" lon="-2.32309">
        <ele>5</ele>
        <time>2021-09-26T07:55:44.000Z</time>
      </trkpt>
      <trkpt lat="47.26918" lon="-2.3232">
        <ele>4.5999999046326</ele>
        <time>2021-09-26T07:55:45.000Z</time>
      </trkpt>
      <trkpt lat="47.2692" lon="-2.32329">
        <ele>4</ele>
        <time>2021-09-26T07:55:46.000Z</time>
      </trkpt>
      <trkpt lat="47.26923" lon="-2.32337">
        <ele>3.5999999046326</ele>
        <time>2021-09-26T07:55:47.000Z</time>
      </trkpt>
      <trkpt lat="47.26927" lon="-2.32345">
        <ele>3.5999999046326</ele>
        <time>2021-09-26T07:55:48.000Z</time>
      </trkpt>
      <trkpt lat="47.26939" lon="-2.32369">
        <ele>2.7999999523163</ele>
        <time>2021-09-26T07:55:51.000Z</time>
      </trkpt>
      <trkpt lat="47.26941" lon="-2.32378">
        <ele>2.4000000953674</ele>
        <time>2021-09-26T07:55:52.000Z</time>
      </trkpt>
      <trkpt lat="47.26944" lon="-2.32388">
        <ele>2</ele>
        <time>2021-09-26T07:55:53.000Z</time>
      </trkpt>
      <trkpt lat="47.26946" lon="-2.32397">
        <ele>1.6000000238419</ele>
        <time>2021-09-26T07:55:54.000Z</time>
      </trkpt>
      <trkpt lat="47.2696" lon="-2.3243">
        <ele>1.6000000238419</ele>
        <time>2021-09-26T07:55:58.000Z</time>
      </trkpt>
      <trkpt lat="47.2697" lon="-2.32445">
        <ele>1.6000000238419</ele>
        <time>2021-09-26T07:56:00.000Z</time>
      </trkpt>
      <trkpt lat="47.26985" lon="-2.32469">
        <ele>1.6000000238419</ele>
        <time>2021-09-26T07:56:03.000Z</time>
      </trkpt>
      <trkpt lat="47.27003" lon="-2.32507">
        <ele>1.2000000476837</ele>
        <time>2021-09-26T07:56:08.000Z</time>
      </trkpt>
      <trkpt lat="47.27007" lon="-2.3251">
        <ele>0.80000001192093</ele>
        <time>2021-09-26T07:56:09.000Z</time>
      </trkpt>
      <trkpt lat="47.2701" lon="-2.32513">
        <ele>0.40000000596046</ele>
        <time>2021-09-26T07:56:10.000Z</time>
      </trkpt>
      <trkpt lat="47.27015" lon="-2.32514">
        <ele>4.5</ele>
        <time>2021-09-26T07:56:11.000Z</time>
      </trkpt>
      <trkpt lat="47.27019" lon="-2.32513">
        <ele>-0.40000000596046</ele>
        <time>2021-09-26T07:56:12.000Z</time>
      </trkpt>
      <trkpt lat="47.27025" lon="-2.32497">
        <ele>-0.40000000596046</ele>
        <time>2021-09-26T07:56:14.000Z</time>
      </trkpt>
      <trkpt lat="47.27029" lon="-2.32467">
        <ele>-0.40000000596046</ele>
        <time>2021-09-26T07:56:17.000Z</time>
      </trkpt>
      <trkpt lat="47.27029" lon="-2.32457">
        <ele>-0.40000000596046</ele>
        <time>2021-09-26T07:56:18.000Z</time>
      </trkpt>
      <trkpt lat="47.27025" lon="-2.32393">
        <ele>-0.40000000596046</ele>
        <time>2021-09-26T07:56:24.000Z</time>
      </trkpt>
      <trkpt lat="47.27021" lon="-2.32319">
        <ele>-0.40000000596046</ele>
        <time>2021-09-26T07:56:31.000Z</time>
      </trkpt>
      <trkpt lat="47.2702" lon="-2.32259">
        <ele>-0.40000000596046</ele>
        <time>2021-09-26T07:56:37.000Z</time>
      </trkpt>
      <trkpt lat="47.2702" lon="-2.32249">
        <ele>-0.40000000596046</ele>
        <time>2021-09-26T07:56:38.000Z</time>
      </trkpt>
      <trkpt lat="47.27017" lon="-2.32222">
        <ele>-0.40000000596046</ele>
        <time>2021-09-26T07:56:41.000Z</time>
      </trkpt>
      <trkpt lat="47.27013" lon="-2.32203">
        <ele>-0.40000000596046</ele>
        <time>2021-09-26T07:56:43.000Z</time>
      </trkpt>
      <trkpt lat="47.27008" lon="-2.32186">
        <ele>-0.40000000596046</ele>
        <time>2021-09-26T07:56:45.000Z</time>
      </trkpt>
      <trkpt lat="47.27005" lon="-2.32178">
        <ele>-0.40000000596046</ele>
        <time>2021-09-26T07:56:46.000Z</time>
      </trkpt>
      <trkpt lat="47.27001" lon="-2.3217">
        <ele>-0.40000000596046</ele>
        <time>2021-09-26T07:56:47.000Z</time>
      </trkpt>
      <trkpt lat="47.26993" lon="-2.32158">
        <ele>-0.40000000596046</ele>
        <time>2021-09-26T07:56:49.000Z</time>
      </trkpt>
      <trkpt lat="47.2699" lon="-2.32138">
        <ele>-0.40000000596046</ele>
        <time>2021-09-26T07:56:52.000Z</time>
      </trkpt>
      <trkpt lat="47.27" lon="-2.32126">
        <ele>-0.40000000596046</ele>
        <time>2021-09-26T07:56:55.000Z</time>
      </trkpt>
      <trkpt lat="47.27007" lon="-2.32117">
        <ele>-0.40000000596046</ele>
        <time>2021-09-26T07:56:57.000Z</time>
      </trkpt>
      <trkpt lat="47.27012" lon="-2.32107">
        <ele>-0.40000000596046</ele>
        <time>2021-09-26T07:56:59.000Z</time>
      </trkpt>
      <trkpt lat="47.27014" lon="-2.32089">
        <ele>-0.40000000596046</ele>
        <time>2021-09-26T07:57:02.000Z</time>
      </trkpt>
      <trkpt lat="47.27015" lon="-2.32075">
        <ele>-0.40000000596046</ele>
        <time>2021-09-26T07:57:04.000Z</time>
      </trkpt>
      <trkpt lat="47.27015" lon="-2.32068">
        <ele>-0.40000000596046</ele>
        <time>2021-09-26T07:57:05.000Z</time>
      </trkpt>
      <trkpt lat="47.27014" lon="-2.32041">
        <ele>-0.40000000596046</ele>
        <time>2021-09-26T07:57:09.000Z</time>
      </trkpt>
      <trkpt lat="47.27008" lon="-2.32007">
        <ele>-0.40000000596046</ele>
        <time>2021-09-26T07:57:14.000Z</time>
      </trkpt>
      <trkpt lat="47.27006" lon="-2.32002">
        <ele>-0.40000000596046</ele>
        <time>2021-09-26T07:57:15.000Z</time>
      </trkpt>
      <trkpt lat="47.27005" lon="-2.3199">
        <ele>-0.40000000596046</ele>
        <time>2021-09-26T07:57:17.000Z</time>
      </trkpt>
      <trkpt lat="47.27009" lon="-2.31979">
        <ele>-0.40000000596046</ele>
        <time>2021-09-26T07:57:19.000Z</time>
      </trkpt>
      <trkpt lat="47.27017" lon="-2.31972">
        <ele>9.4</ele>
        <time>2021-09-26T07:57:22.000Z</time>
      </trkpt>
      <trkpt lat="47.27019" lon="-2.31971">
        <ele>0.40000000596046</ele>
        <time>2021-09-26T07:57:23.000Z</time>
      </trkpt>
      <trkpt lat="47.27022" lon="-2.31969">
        <ele>0.80000001192093</ele>
        <time>2021-09-26T07:57:24.000Z</time>
      </trkpt>
      <trkpt lat="47.27025" lon="-2.31968">
        <ele>1.2000000476837</ele>
        <time>2021-09-26T07:57:25.000Z</time>
      </trkpt>
      <trkpt lat="47.27028" lon="-2.31966">
        <ele>1.6000000238419</ele>
        <time>2021-09-26T07:57:26.000Z</time>
      </trkpt>
      <trkpt lat="47.27034" lon="-2.31961">
        <ele>1.6000000238419</ele>
        <time>2021-09-26T07:57:28.000Z</time>
      </trkpt>
      <trkpt lat="47.27048" lon="-2.31957">
        <ele>1.6000000238419</ele>
        <time>2021-09-26T07:57:33.000Z</time>
      </trkpt>
      <trkpt lat="47.27057" lon="-2.31958">
        <ele>1.6000000238419</ele>
        <time>2021-09-26T07:57:38.000Z</time>
      </trkpt>
      <trkpt lat="47.27066" lon="-2.3196">
        <ele>1.6000000238419</ele>
        <time>2021-09-26T07:57:45.000Z</time>
      </trkpt>
      <trkpt lat="47.27071" lon="-2.31957">
        <ele>1.6000000238419</ele>
        <time>2021-09-26T07:57:48.000Z</time>
      </trkpt>
      <trkpt lat="47.27073" lon="-2.31952">
        <ele>1.6000000238419</ele>
        <time>2021-09-26T07:57:50.000Z</time>
      </trkpt>
      <trkpt lat="47.27074" lon="-2.3193">
        <ele>1.6000000238419</ele>
        <time>2021-09-26T07:57:55.000Z</time>
      </trkpt>
      <trkpt lat="47.2707" lon="-2.31894">
        <ele>1.6000000238419</ele>
        <time>2021-09-26T07:58:03.000Z</time>
      </trkpt>
      <trkpt lat="47.27075" lon="-2.31871">
        <ele>1.6000000238419</ele>
        <time>2021-09-26T07:58:09.000Z</time>
      </trkpt>
      <trkpt lat="47.27076" lon="-2.31864">
        <ele>1.6000000238419</ele>
        <time>2021-09-26T07:58:11.000Z</time>
      </trkpt>
      <trkpt lat="47.27071" lon="-2.31858">
        <ele>1.6000000238419</ele>
        <time>2021-09-26T07:58:13.000Z</time>
      </trkpt>
      <trkpt lat="47.2706" lon="-2.31845">
        <ele>1.6000000238419</ele>
        <time>2021-09-26T07:58:18.000Z</time>
      </trkpt>
      <trkpt lat="47.27059" lon="-2.31836">
        <ele>1.6000000238419</ele>
        <time>2021-09-26T07:58:20.000Z</time>
      </trkpt>
      <trkpt lat="47.27058" lon="-2.31824">
        <ele>1.6000000238419</ele>
        <time>2021-09-26T07:58:23.000Z</time>
      </trkpt>
      <trkpt lat="47.27058" lon="-2.3182">
        <ele>2</ele>
        <time>2021-09-26T07:58:24.000Z</time>
      </trkpt>
      <trkpt lat="47.27057" lon="-2.31815">
        <ele>2.4000000953674</ele>
        <time>2021-09-26T07:58:25.000Z</time>
      </trkpt>
      <trkpt lat="47.27057" lon="-2.3181">
        <ele>2.7999999523163</ele>
        <time>2021-09-26T07:58:26.000Z</time>
      </trkpt>
      <trkpt lat="47.27056" lon="-2.31806">
        <ele>3.2000000476837</ele>
        <time>2021-09-26T07:58:27.000Z</time>
      </trkpt>
      <trkpt lat="47.27056" lon="-2.31801">
        <ele>3.5999999046326</ele>
        <time>2021-09-26T07:58:28.000Z</time>
      </trkpt>
      <trkpt lat="47.27055" lon="-2.31797">
        <ele>3.5999999046326</ele>
        <time>2021-09-26T07:58:29.000Z</time>
      </trkpt>
      <trkpt lat="47.27054" lon="-2.31776">
        <ele>3.5999999046326</ele>
        <time>2021-09-26T07:58:34.000Z</time>
      </trkpt>
      <trkpt lat="47.2705" lon="-2.31751">
        <ele>3.5999999046326</ele>
        <time>2021-09-26T07:58:41.000Z</time>
      </trkpt>
      <trkpt lat="47.27051" lon="-2.31734">
        <ele>3.5999999046326</ele>
        <time>2021-09-26T07:58:45.000Z</time>
      </trkpt>
      <trkpt lat="47.2705" lon="-2.3173">
        <ele>3.5999999046326</ele>
        <time>2021-09-26T07:58:46.000Z</time>
      </trkpt>
      <trkpt lat="47.27047" lon="-2.31728">
        <ele>4</ele>
        <time>2021-09-26T07:58:47.000Z</time>
      </trkpt>
      <trkpt lat="47.27045" lon="-2.31726">
        <ele>4.4000000953674</ele>
        <time>2021-09-26T07:58:48.000Z</time>
      </trkpt>
      <trkpt lat="47.27042" lon="-2.31724">
        <ele>5</ele>
        <time>2021-09-26T07:58:49.000Z</time>
      </trkpt>
      <trkpt lat="47.27038" lon="-2.31722">
        <ele>5.4000000953674</ele>
        <time>2021-09-26T07:58:50.000Z</time>
      </trkpt>
      <trkpt lat="47.27035" lon="-2.31719">
        <ele>5.8000001907349</ele>
        <time>2021-09-26T07:58:51.000Z</time>
      </trkpt>
      <trkpt lat="47.27026" lon="-2.31711">
        <ele>5.8000001907349</ele>
        <time>2021-09-26T07:58:55.000Z</time>
      </trkpt>
      <trkpt lat="47.27024" lon="-2.31707">
        <ele>5.8000001907349</ele>
        <time>2021-09-26T07:58:57.000Z</time>
      </trkpt>
      <trkpt lat="47.27025" lon="-2.31702">
        <ele>5.8000001907349</ele>
        <time>2021-09-26T07:58:59.000Z</time>
      </trkpt>
      <trkpt lat="47.27029" lon="-2.31689">
        <ele>5.8000001907349</ele>
        <time>2021-09-26T07:59:02.000Z</time>
      </trkpt>
      <trkpt lat="47.27031" lon="-2.31677">
        <ele>5.8000001907349</ele>
        <time>2021-09-26T07:59:05.000Z</time>
      </trkpt>
      <trkpt lat="47.27032" lon="-2.3167">
        <ele>6.1999998092651</ele>
        <time>2021-09-26T07:59:07.000Z</time>
      </trkpt>
      <trkpt lat="47.27033" lon="-2.31666">
        <ele>7</ele>
        <time>2021-09-26T07:59:08.000Z</time>
      </trkpt>
      <trkpt lat="47.27033" lon="-2.31662">
        <ele>7.4000000953674</ele>
        <time>2021-09-26T07:59:09.000Z</time>
      </trkpt>
      <trkpt lat="47.27033" lon="-2.31658">
        <ele>7.8000001907349</ele>
        <time>2021-09-26T07:59:10.000Z</time>
      </trkpt>
      <trkpt lat="47.27032" lon="-2.31653">
        <ele>7.8000001907349</ele>
        <time>2021-09-26T07:59:11.000Z</time>
      </trkpt>
      <trkpt lat="47.2703" lon="-2.31627">
        <ele>7.8000001907349</ele>
        <time>2021-09-26T07:59:17.000Z</time>
      </trkpt>
      <trkpt lat="47.27028" lon="-2.31614">
        <ele>8.1999998092651</ele>
        <time>2021-09-26T07:59:21.000Z</time>
      </trkpt>
      <trkpt lat="47.27027" lon="-2.31611">
        <ele>8.6000003814697</ele>
        <time>2021-09-26T07:59:22.000Z</time>
      </trkpt>
      <trkpt lat="47.27026" lon="-2.31608">
        <ele>9</ele>
        <time>2021-09-26T07:59:23.000Z</time>
      </trkpt>
      <trkpt lat="47.27026" lon="-2.31605">
        <ele>9.3999996185303</ele>
        <time>2021-09-26T07:59:24.000Z</time>
      </trkpt>
      <trkpt lat="47.27025" lon="-2.31603">
        <ele>9.8000001907349</ele>
        <time>2021-09-26T07:59:25.000Z</time>
      </trkpt>
      <trkpt lat="47.2702" lon="-2.31585">
        <ele>9.8000001907349</ele>
        <time>2021-09-26T07:59:31.000Z</time>
      </trkpt>
      <trkpt lat="47.27019" lon="-2.31577">
        <ele>10.39999961853</ele>
        <time>2021-09-26T07:59:33.000Z</time>
      </trkpt>
      <trkpt lat="47.27018" lon="-2.31574">
        <ele>10.800000190735</ele>
        <time>2021-09-26T07:59:34.000Z</time>
      </trkpt>
      <trkpt lat="47.27017" lon="-2.31572">
        <ele>11.199999809265</ele>
        <time>2021-09-26T07:59:35.000Z</time>
      </trkpt>
      <trkpt lat="47.27016" lon="-2.3157">
        <ele>11.60000038147</ele>
        <time>2021-09-26T07:59:36.000Z</time>
      </trkpt>
      <trkpt lat="47.27015" lon="-2.31568">
        <ele>12</ele>
        <time>2021-09-26T07:59:37.000Z</time>
      </trkpt>
      <trkpt lat="47.27009" lon="-2.31547">
        <ele>12</ele>
        <time>2021-09-26T07:59:43.000Z</time>
      </trkpt>
      <trkpt lat="47.27005" lon="-2.31538">
        <ele>12.39999961853</ele>
        <time>2021-09-26T07:59:45.000Z</time>
      </trkpt>
      <trkpt lat="47.27004" lon="-2.31533">
        <ele>12.800000190735</ele>
        <time>2021-09-26T07:59:46.000Z</time>
      </trkpt>
      <trkpt lat="47.27003" lon="-2.31528">
        <ele>13.39999961853</ele>
        <time>2021-09-26T07:59:47.000Z</time>
      </trkpt>
      <trkpt lat="47.27001" lon="-2.31522">
        <ele>13.800000190735</ele>
        <time>2021-09-26T07:59:48.000Z</time>
      </trkpt>
      <trkpt lat="47.27001" lon="-2.31516">
        <ele>14.199999809265</ele>
        <time>2021-09-26T07:59:49.000Z</time>
      </trkpt>
      <trkpt lat="47.26993" lon="-2.31489">
        <ele>14.199999809265</ele>
        <time>2021-09-26T07:59:55.000Z</time>
      </trkpt>
      <trkpt lat="47.26992" lon="-2.31485">
        <ele>14.60000038147</ele>
        <time>2021-09-26T07:59:56.000Z</time>
      </trkpt>
      <trkpt lat="47.26991" lon="-2.3148">
        <ele>15.39999961853</ele>
        <time>2021-09-26T07:59:57.000Z</time>
      </trkpt>
      <trkpt lat="47.2699" lon="-2.31475">
        <ele>15.800000190735</ele>
        <time>2021-09-26T07:59:58.000Z</time>
      </trkpt>
      <trkpt lat="47.2699" lon="-2.31471">
        <ele>16.200000762939</ele>
        <time>2021-09-26T07:59:59.000Z</time>
      </trkpt>
      <trkpt lat="47.26988" lon="-2.31464">
        <ele>16.200000762939</ele>
        <time>2021-09-26T08:00:01.000Z</time>
      </trkpt>
      <trkpt lat="47.26987" lon="-2.31435">
        <ele>16.200000762939</ele>
        <time>2021-09-26T08:00:06.000Z</time>
      </trkpt>
      <trkpt lat="47.26985" lon="-2.31406">
        <ele>16.60000038147</ele>
        <time>2021-09-26T08:00:11.000Z</time>
      </trkpt>
      <trkpt lat="47.26984" lon="-2.31401">
        <ele>17.200000762939</ele>
        <time>2021-09-26T08:00:12.000Z</time>
      </trkpt>
      <trkpt lat="47.26984" lon="-2.31396">
        <ele>17.60000038147</ele>
        <time>2021-09-26T08:00:13.000Z</time>
      </trkpt>
      <trkpt lat="47.26984" lon="-2.31391">
        <ele>18</ele>
        <time>2021-09-26T08:00:14.000Z</time>
      </trkpt>
      <trkpt lat="47.26983" lon="-2.31385">
        <ele>18.39999961853</ele>
        <time>2021-09-26T08:00:15.000Z</time>
      </trkpt>
      <trkpt lat="47.26983" lon="-2.31366">
        <ele>18.39999961853</ele>
        <time>2021-09-26T08:00:19.000Z</time>
      </trkpt>
      <trkpt lat="47.2698" lon="-2.31337">
        <ele>18.799999237061</ele>
        <time>2021-09-26T08:00:25.000Z</time>
      </trkpt>
      <trkpt lat="47.26979" lon="-2.31332">
        <ele>19.200000762939</ele>
        <time>2021-09-26T08:00:26.000Z</time>
      </trkpt>
      <trkpt lat="47.26978" lon="-2.31326">
        <ele>19.60000038147</ele>
        <time>2021-09-26T08:00:27.000Z</time>
      </trkpt>
      <trkpt lat="47.26978" lon="-2.3132">
        <ele>20</ele>
        <time>2021-09-26T08:00:28.000Z</time>
      </trkpt>
      <trkpt lat="47.26977" lon="-2.31314">
        <ele>20.60000038147</ele>
        <time>2021-09-26T08:00:29.000Z</time>
      </trkpt>
      <trkpt lat="47.26975" lon="-2.31286">
        <ele>20.60000038147</ele>
        <time>2021-09-26T08:00:34.000Z</time>
      </trkpt>
      <trkpt lat="47.26973" lon="-2.31254">
        <ele>20.60000038147</ele>
        <time>2021-09-26T08:00:39.000Z</time>
      </trkpt>
      <trkpt lat="47.26974" lon="-2.3124">
        <ele>20.60000038147</ele>
        <time>2021-09-26T08:00:41.000Z</time>
      </trkpt>
      <trkpt lat="47.26979" lon="-2.31211">
        <ele>20.60000038147</ele>
        <time>2021-09-26T08:00:45.000Z</time>
      </trkpt>
      <trkpt lat="47.26986" lon="-2.3116">
        <ele>20.60000038147</ele>
        <time>2021-09-26T08:00:51.000Z</time>
      </trkpt>
      <trkpt lat="47.26989" lon="-2.31124">
        <ele>20</ele>
        <time>2021-09-26T08:00:55.000Z</time>
      </trkpt>
      <trkpt lat="47.2699" lon="-2.31115">
        <ele>19.60000038147</ele>
        <time>2021-09-26T08:00:56.000Z</time>
      </trkpt>
      <trkpt lat="47.26989" lon="-2.31107">
        <ele>19.200000762939</ele>
        <time>2021-09-26T08:00:57.000Z</time>
      </trkpt>
      <trkpt lat="47.26989" lon="-2.311">
        <ele>18.799999237061</ele>
        <time>2021-09-26T08:00:58.000Z</time>
      </trkpt>
      <trkpt lat="47.26988" lon="-2.31092">
        <ele>18.39999961853</ele>
        <time>2021-09-26T08:00:59.000Z</time>
      </trkpt>
      <trkpt lat="47.26987" lon="-2.31074">
        <ele>18</ele>
        <time>2021-09-26T08:01:02.000Z</time>
      </trkpt>
      <trkpt lat="47.26989" lon="-2.3107">
        <ele>17.60000038147</ele>
        <time>2021-09-26T08:01:03.000Z</time>
      </trkpt>
      <trkpt lat="47.26991" lon="-2.31066">
        <ele>17.200000762939</ele>
        <time>2021-09-26T08:01:04.000Z</time>
      </trkpt>
      <trkpt lat="47.26993" lon="-2.31062">
        <ele>16.799999237061</ele>
        <time>2021-09-26T08:01:05.000Z</time>
      </trkpt>
      <trkpt lat="47.26996" lon="-2.31058">
        <ele>16.39999961853</ele>
        <time>2021-09-26T08:01:06.000Z</time>
      </trkpt>
      <trkpt lat="47.27018" lon="-2.31037">
        <ele>16</ele>
        <time>2021-09-26T08:01:12.000Z</time>
      </trkpt>
      <trkpt lat="47.27023" lon="-2.31034">
        <ele>15.60000038147</ele>
        <time>2021-09-26T08:01:13.000Z</time>
      </trkpt>
      <trkpt lat="47.27028" lon="-2.3103">
        <ele>15.199999809265</ele>
        <time>2021-09-26T08:01:14.000Z</time>
      </trkpt>
      <trkpt lat="47.27032" lon="-2.31026">
        <ele>14.800000190735</ele>
        <time>2021-09-26T08:01:15.000Z</time>
      </trkpt>
      <trkpt lat="47.27037" lon="-2.31022">
        <ele>14.199999809265</ele>
        <time>2021-09-26T08:01:16.000Z</time>
      </trkpt>
      <trkpt lat="47.27051" lon="-2.31008">
        <ele>14.199999809265</ele>
        <time>2021-09-26T08:01:19.000Z</time>
      </trkpt>
      <trkpt lat="47.27058" lon="-2.30989">
        <ele>14.199999809265</ele>
        <time>2021-09-26T08:01:22.000Z</time>
      </trkpt>
      <trkpt lat="47.27056" lon="-2.30968">
        <ele>14.199999809265</ele>
        <time>2021-09-26T08:01:25.000Z</time>
      </trkpt>
      <trkpt lat="47.27056" lon="-2.30955">
        <ele>14.199999809265</ele>
        <time>2021-09-26T08:01:27.000Z</time>
      </trkpt>
      <trkpt lat="47.27048" lon="-2.30925">
        <ele>14.199999809265</ele>
        <time>2021-09-26T08:01:32.000Z</time>
      </trkpt>
      <trkpt lat="47.2704" lon="-2.30906">
        <ele>14.199999809265</ele>
        <time>2021-09-26T08:01:37.000Z</time>
      </trkpt>
      <trkpt lat="47.27036" lon="-2.30881">
        <ele>14.199999809265</ele>
        <time>2021-09-26T08:01:42.000Z</time>
      </trkpt>
      <trkpt lat="47.27031" lon="-2.3087">
        <ele>14.199999809265</ele>
        <time>2021-09-26T08:01:44.000Z</time>
      </trkpt>
      <trkpt lat="47.27022" lon="-2.30852">
        <ele>14.199999809265</ele>
        <time>2021-09-26T08:01:47.000Z</time>
      </trkpt>
      <trkpt lat="47.27018" lon="-2.30847">
        <ele>14.199999809265</ele>
        <time>2021-09-26T08:01:48.000Z</time>
      </trkpt>
      <trkpt lat="47.27012" lon="-2.30836">
        <ele>14.199999809265</ele>
        <time>2021-09-26T08:01:50.000Z</time>
      </trkpt>
      <trkpt lat="47.27002" lon="-2.30819">
        <ele>14.199999809265</ele>
        <time>2021-09-26T08:01:53.000Z</time>
      </trkpt>
      <trkpt lat="47.26999" lon="-2.30814">
        <ele>14.199999809265</ele>
        <time>2021-09-26T08:01:54.000Z</time>
      </trkpt>
      <trkpt lat="47.26981" lon="-2.3079">
        <ele>14.199999809265</ele>
        <time>2021-09-26T08:01:59.000Z</time>
      </trkpt>
      <trkpt lat="47.26978" lon="-2.30785">
        <ele>14.800000190735</ele>
        <time>2021-09-26T08:02:00.000Z</time>
      </trkpt>
      <trkpt lat="47.26974" lon="-2.3078">
        <ele>15.60000038147</ele>
        <time>2021-09-26T08:02:01.000Z</time>
      </trkpt>
      <trkpt lat="47.26971" lon="-2.30775">
        <ele>16</ele>
        <time>2021-09-26T08:02:02.000Z</time>
      </trkpt>
      <trkpt lat="47.26968" lon="-2.3077">
        <ele>16.39999961853</ele>
        <time>2021-09-26T08:02:03.000Z</time>
      </trkpt>
      <trkpt lat="47.26961" lon="-2.3076">
        <ele>16.39999961853</ele>
        <time>2021-09-26T08:02:05.000Z</time>
      </trkpt>
      <trkpt lat="47.26958" lon="-2.30755">
        <ele>16.39999961853</ele>
        <time>2021-09-26T08:02:06.000Z</time>
      </trkpt>
      <trkpt lat="47.26941" lon="-2.30735">
        <ele>16.39999961853</ele>
        <time>2021-09-26T08:02:11.000Z</time>
      </trkpt>
      <trkpt lat="47.26938" lon="-2.3073">
        <ele>16.799999237061</ele>
        <time>2021-09-26T08:02:12.000Z</time>
      </trkpt>
      <trkpt lat="47.26935" lon="-2.30725">
        <ele>17.200000762939</ele>
        <time>2021-09-26T08:02:13.000Z</time>
      </trkpt>
      <trkpt lat="47.26933" lon="-2.30721">
        <ele>17.60000038147</ele>
        <time>2021-09-26T08:02:14.000Z</time>
      </trkpt>
      <trkpt lat="47.26931" lon="-2.30716">
        <ele>18.200000762939</ele>
        <time>2021-09-26T08:02:15.000Z</time>
      </trkpt>
      <trkpt lat="47.26928" lon="-2.30711">
        <ele>18.60000038147</ele>
        <time>2021-09-26T08:02:16.000Z</time>
      </trkpt>
      <trkpt lat="47.26919" lon="-2.30698">
        <ele>18.60000038147</ele>
        <time>2021-09-26T08:02:19.000Z</time>
      </trkpt>
      <trkpt lat="47.269" lon="-2.30671">
        <ele>18.60000038147</ele>
        <time>2021-09-26T08:02:26.000Z</time>
      </trkpt>
      <trkpt lat="47.26897" lon="-2.30665">
        <ele>18.60000038147</ele>
        <time>2021-09-26T08:02:30.000Z</time>
      </trkpt>
      <trkpt lat="47.26894" lon="-2.30663">
        <ele>18.60000038147</ele>
        <time>2021-09-26T08:03:39.000Z</time>
      </trkpt>
      <trkpt lat="47.26891" lon="-2.30662">
        <ele>18.60000038147</ele>
        <time>2021-09-26T08:03:41.000Z</time>
      </trkpt>
      <trkpt lat="47.2689" lon="-2.30664">
        <ele>18.60000038147</ele>
        <time>2021-09-26T08:03:42.000Z</time>
      </trkpt>
      <trkpt lat="47.26884" lon="-2.30672">
        <ele>18.60000038147</ele>
        <time>2021-09-26T08:03:45.000Z</time>
      </trkpt>
      <trkpt lat="47.26879" lon="-2.30679">
        <ele>18.60000038147</ele>
        <time>2021-09-26T08:03:47.000Z</time>
      </trkpt>
      <trkpt lat="47.26861" lon="-2.3071">
        <ele>18.60000038147</ele>
        <time>2021-09-26T08:03:54.000Z</time>
      </trkpt>
      <trkpt lat="47.26845" lon="-2.30749">
        <ele>18.60000038147</ele>
        <time>2021-09-26T08:04:01.000Z</time>
      </trkpt>
      <trkpt lat="47.2683" lon="-2.30786">
        <ele>18.60000038147</ele>
        <time>2021-09-26T08:04:08.000Z</time>
      </trkpt>
      <trkpt lat="47.26827" lon="-2.3079">
        <ele>18.60000038147</ele>
        <time>2021-09-26T08:04:09.000Z</time>
      </trkpt>
      <trkpt lat="47.26815" lon="-2.30801">
        <ele>18.60000038147</ele>
        <time>2021-09-26T08:04:12.000Z</time>
      </trkpt>
      <trkpt lat="47.26807" lon="-2.30809">
        <ele>18.60000038147</ele>
        <time>2021-09-26T08:04:14.000Z</time>
      </trkpt>
      <trkpt lat="47.2679" lon="-2.30826">
        <ele>18.60000038147</ele>
        <time>2021-09-26T08:04:18.000Z</time>
      </trkpt>
      <trkpt lat="47.26768" lon="-2.30849">
        <ele>19</ele>
        <time>2021-09-26T08:04:23.000Z</time>
      </trkpt>
      <trkpt lat="47.26763" lon="-2.30853">
        <ele>19.39999961853</ele>
        <time>2021-09-26T08:04:24.000Z</time>
      </trkpt>
      <trkpt lat="47.26759" lon="-2.30857">
        <ele>19.799999237061</ele>
        <time>2021-09-26T08:04:25.000Z</time>
      </trkpt>
      <trkpt lat="47.26755" lon="-2.30861">
        <ele>20.200000762939</ele>
        <time>2021-09-26T08:04:26.000Z</time>
      </trkpt>
      <trkpt lat="47.26751" lon="-2.30866">
        <ele>20.60000038147</ele>
        <time>2021-09-26T08:04:27.000Z</time>
      </trkpt>
      <trkpt lat="47.26743" lon="-2.30871">
        <ele>20.60000038147</ele>
        <time>2021-09-26T08:04:29.000Z</time>
      </trkpt>
      <trkpt lat="47.2673" lon="-2.30865">
        <ele>20.60000038147</ele>
        <time>2021-09-26T08:04:32.000Z</time>
      </trkpt>
      <trkpt lat="47.26717" lon="-2.30843">
        <ele>20.60000038147</ele>
        <time>2021-09-26T08:04:36.000Z</time>
      </trkpt>
      <trkpt lat="47.26709" lon="-2.30824">
        <ele>20.60000038147</ele>
        <time>2021-09-26T08:04:39.000Z</time>
      </trkpt>
      <trkpt lat="47.26701" lon="-2.30803">
        <ele>20.60000038147</ele>
        <time>2021-09-26T08:04:42.000Z</time>
      </trkpt>
      <trkpt lat="47.26689" lon="-2.30768">
        <ele>20.200000762939</ele>
        <time>2021-09-26T08:04:47.000Z</time>
      </trkpt>
      <trkpt lat="47.26686" lon="-2.30761">
        <ele>19.799999237061</ele>
        <time>2021-09-26T08:04:48.000Z</time>
      </trkpt>
      <trkpt lat="47.26683" lon="-2.30754">
        <ele>19.39999961853</ele>
        <time>2021-09-26T08:04:49.000Z</time>
      </trkpt>
      <trkpt lat="47.2668" lon="-2.30746">
        <ele>19</ele>
        <time>2021-09-26T08:04:50.000Z</time>
      </trkpt>
      <trkpt lat="47.26677" lon="-2.30739">
        <ele>18.60000038147</ele>
        <time>2021-09-26T08:04:51.000Z</time>
      </trkpt>
      <trkpt lat="47.26664" lon="-2.30707">
        <ele>18.200000762939</ele>
        <time>2021-09-26T08:04:55.000Z</time>
      </trkpt>
      <trkpt lat="47.26662" lon="-2.307">
        <ele>17.60000038147</ele>
        <time>2021-09-26T08:04:56.000Z</time>
      </trkpt>
      <trkpt lat="47.2666" lon="-2.30694">
        <ele>17.200000762939</ele>
        <time>2021-09-26T08:04:57.000Z</time>
      </trkpt>
      <trkpt lat="47.26657" lon="-2.3069">
        <ele>16.799999237061</ele>
        <time>2021-09-26T08:04:58.000Z</time>
      </trkpt>
      <trkpt lat="47.26654" lon="-2.30688">
        <ele>16.39999961853</ele>
        <time>2021-09-26T08:04:59.000Z</time>
      </trkpt>
      <trkpt lat="47.2665" lon="-2.30691">
        <ele>16.39999961853</ele>
        <time>2021-09-26T08:05:01.000Z</time>
      </trkpt>
      <trkpt lat="47.26643" lon="-2.30713">
        <ele>16.39999961853</ele>
        <time>2021-09-26T08:05:06.000Z</time>
      </trkpt>
      <trkpt lat="47.26638" lon="-2.30719">
        <ele>16</ele>
        <time>2021-09-26T08:05:08.000Z</time>
      </trkpt>
      <trkpt lat="47.26636" lon="-2.30721">
        <ele>15.60000038147</ele>
        <time>2021-09-26T08:05:09.000Z</time>
      </trkpt>
      <trkpt lat="47.26634" lon="-2.30723">
        <ele>15.199999809265</ele>
        <time>2021-09-26T08:05:10.000Z</time>
      </trkpt>
      <trkpt lat="47.26632" lon="-2.30726">
        <ele>14.800000190735</ele>
        <time>2021-09-26T08:05:11.000Z</time>
      </trkpt>
      <trkpt lat="47.2663" lon="-2.30729">
        <ele>14.39999961853</ele>
        <time>2021-09-26T08:05:12.000Z</time>
      </trkpt>
      <trkpt lat="47.26624" lon="-2.30742">
        <ele>14.39999961853</ele>
        <time>2021-09-26T08:05:15.000Z</time>
      </trkpt>
      <trkpt lat="47.26618" lon="-2.30756">
        <ele>14.39999961853</ele>
        <time>2021-09-26T08:05:19.000Z</time>
      </trkpt>
      <trkpt lat="47.26614" lon="-2.30759">
        <ele>14.39999961853</ele>
        <time>2021-09-26T08:05:20.000Z</time>
      </trkpt>
      <trkpt lat="47.26599" lon="-2.30778">
        <ele>14.39999961853</ele>
        <time>2021-09-26T08:05:24.000Z</time>
      </trkpt>
      <trkpt lat="47.26581" lon="-2.308">
        <ele>14</ele>
        <time>2021-09-26T08:05:29.000Z</time>
      </trkpt>
      <trkpt lat="47.26578" lon="-2.30804">
        <ele>13.60000038147</ele>
        <time>2021-09-26T08:05:30.000Z</time>
      </trkpt>
      <trkpt lat="47.26575" lon="-2.3081">
        <ele>13.199999809265</ele>
        <time>2021-09-26T08:05:31.000Z</time>
      </trkpt>
      <trkpt lat="47.26572" lon="-2.30815">
        <ele>12.800000190735</ele>
        <time>2021-09-26T08:05:32.000Z</time>
      </trkpt>
      <trkpt lat="47.2657" lon="-2.3082">
        <ele>12.39999961853</ele>
        <time>2021-09-26T08:05:33.000Z</time>
      </trkpt>
      <trkpt lat="47.26567" lon="-2.30828">
        <ele>12.39999961853</ele>
        <time>2021-09-26T08:05:35.000Z</time>
      </trkpt>
      <trkpt lat="47.2656" lon="-2.30836">
        <ele>12.39999961853</ele>
        <time>2021-09-26T08:05:38.000Z</time>
      </trkpt>
      <trkpt lat="47.26556" lon="-2.3084">
        <ele>12.39999961853</ele>
        <time>2021-09-26T08:05:39.000Z</time>
      </trkpt>
      <trkpt lat="47.26547" lon="-2.30851">
        <ele>12</ele>
        <time>2021-09-26T08:05:42.000Z</time>
      </trkpt>
      <trkpt lat="47.26543" lon="-2.30855">
        <ele>11.60000038147</ele>
        <time>2021-09-26T08:05:43.000Z</time>
      </trkpt>
      <trkpt lat="47.26541" lon="-2.30859">
        <ele>10.800000190735</ele>
        <time>2021-09-26T08:05:44.000Z</time>
      </trkpt>
      <trkpt lat="47.26538" lon="-2.30863">
        <ele>10.39999961853</ele>
        <time>2021-09-26T08:05:45.000Z</time>
      </trkpt>
      <trkpt lat="47.26527" lon="-2.30874">
        <ele>10.39999961853</ele>
        <time>2021-09-26T08:05:48.000Z</time>
      </trkpt>
      <trkpt lat="47.2652" lon="-2.3088">
        <ele>10.39999961853</ele>
        <time>2021-09-26T08:05:50.000Z</time>
      </trkpt>
      <trkpt lat="47.2651" lon="-2.30885">
        <ele>10.39999961853</ele>
        <time>2021-09-26T08:05:53.000Z</time>
      </trkpt>
      <trkpt lat="47.26507" lon="-2.30884">
        <ele>10.39999961853</ele>
        <time>2021-09-26T08:05:54.000Z</time>
      </trkpt>
      <trkpt lat="47.26498" lon="-2.30872">
        <ele>10.39999961853</ele>
        <time>2021-09-26T08:05:59.000Z</time>
      </trkpt>
      <trkpt lat="47.26491" lon="-2.30861">
        <ele>10.39999961853</ele>
        <time>2021-09-26T08:06:02.000Z</time>
      </trkpt>
      <trkpt lat="47.26486" lon="-2.30849">
        <ele>10.39999961853</ele>
        <time>2021-09-26T08:06:05.000Z</time>
      </trkpt>
      <trkpt lat="47.26485" lon="-2.30846">
        <ele>10.800000190735</ele>
        <time>2021-09-26T08:06:06.000Z</time>
      </trkpt>
      <trkpt lat="47.26484" lon="-2.30841">
        <ele>11.199999809265</ele>
        <time>2021-09-26T08:06:07.000Z</time>
      </trkpt>
      <trkpt lat="47.26482" lon="-2.30837">
        <ele>12</ele>
        <time>2021-09-26T08:06:08.000Z</time>
      </trkpt>
      <trkpt lat="47.26481" lon="-2.30832">
        <ele>12.39999961853</ele>
        <time>2021-09-26T08:06:09.000Z</time>
      </trkpt>
      <trkpt lat="47.26477" lon="-2.30821">
        <ele>12.39999961853</ele>
        <time>2021-09-26T08:06:11.000Z</time>
      </trkpt>
      <trkpt lat="47.26469" lon="-2.30804">
        <ele>13</ele>
        <time>2021-09-26T08:06:15.000Z</time>
      </trkpt>
      <trkpt lat="47.26467" lon="-2.30799">
        <ele>13.39999961853</ele>
        <time>2021-09-26T08:06:16.000Z</time>
      </trkpt>
      <trkpt lat="47.26465" lon="-2.30794">
        <ele>13.800000190735</ele>
        <time>2021-09-26T08:06:17.000Z</time>
      </trkpt>
      <trkpt lat="47.26463" lon="-2.30789">
        <ele>14.39999961853</ele>
        <time>2021-09-26T08:06:18.000Z</time>
      </trkpt>
      <trkpt lat="47.26461" lon="-2.30784">
        <ele>14.800000190735</ele>
        <time>2021-09-26T08:06:19.000Z</time>
      </trkpt>
      <trkpt lat="47.26454" lon="-2.30765">
        <ele>14.800000190735</ele>
        <time>2021-09-26T08:06:23.000Z</time>
      </trkpt>
      <trkpt lat="47.26442" lon="-2.30732">
        <ele>14.800000190735</ele>
        <time>2021-09-26T08:06:30.000Z</time>
      </trkpt>
      <trkpt lat="47.26436" lon="-2.30719">
        <ele>15.60000038147</ele>
        <time>2021-09-26T08:06:33.000Z</time>
      </trkpt>
      <trkpt lat="47.26434" lon="-2.30715">
        <ele>16</ele>
        <time>2021-09-26T08:06:34.000Z</time>
      </trkpt>
      <trkpt lat="47.26432" lon="-2.30711">
        <ele>16.39999961853</ele>
        <time>2021-09-26T08:06:35.000Z</time>
      </trkpt>
      <trkpt lat="47.2643" lon="-2.30706">
        <ele>16.799999237061</ele>
        <time>2021-09-26T08:06:36.000Z</time>
      </trkpt>
      <trkpt lat="47.26426" lon="-2.30698">
        <ele>16.799999237061</ele>
        <time>2021-09-26T08:06:38.000Z</time>
      </trkpt>
      <trkpt lat="47.26416" lon="-2.30681">
        <ele>16.799999237061</ele>
        <time>2021-09-26T08:06:44.000Z</time>
      </trkpt>
      <trkpt lat="47.26398" lon="-2.3067">
        <ele>16.799999237061</ele>
        <time>2021-09-26T08:06:49.000Z</time>
      </trkpt>
      <trkpt lat="47.26373" lon="-2.30647">
        <ele>16.799999237061</ele>
        <time>2021-09-26T08:06:56.000Z</time>
      </trkpt>
      <trkpt lat="47.26361" lon="-2.30623">
        <ele>16.799999237061</ele>
        <time>2021-09-26T08:07:01.000Z</time>
      </trkpt>
      <trkpt lat="47.26347" lon="-2.30593">
        <ele>16.799999237061</ele>
        <time>2021-09-26T08:07:07.000Z</time>
      </trkpt>
      <trkpt lat="47.26343" lon="-2.30574">
        <ele>16.799999237061</ele>
        <time>2021-09-26T08:07:12.000Z</time>
      </trkpt>
      <trkpt lat="47.26343" lon="-2.30555">
        <ele>17.200000762939</ele>
        <time>2021-09-26T08:07:17.000Z</time>
      </trkpt>
      <trkpt lat="47.26343" lon="-2.30549">
        <ele>17.60000038147</ele>
        <time>2021-09-26T08:07:18.000Z</time>
      </trkpt>
      <trkpt lat="47.26342" lon="-2.30542">
        <ele>18</ele>
        <time>2021-09-26T08:07:19.000Z</time>
      </trkpt>
      <trkpt lat="47.2634" lon="-2.30534">
        <ele>18.39999961853</ele>
        <time>2021-09-26T08:07:20.000Z</time>
      </trkpt>
      <trkpt lat="47.26339" lon="-2.30527">
        <ele>18.799999237061</ele>
        <time>2021-09-26T08:07:21.000Z</time>
      </trkpt>
      <trkpt lat="47.26337" lon="-2.3052">
        <ele>18.799999237061</ele>
        <time>2021-09-26T08:07:22.000Z</time>
      </trkpt>
      <trkpt lat="47.26328" lon="-2.30474">
        <ele>18.799999237061</ele>
        <time>2021-09-26T08:07:29.000Z</time>
      </trkpt>
      <trkpt lat="47.26317" lon="-2.30423">
        <ele>18.799999237061</ele>
        <time>2021-09-26T08:07:36.000Z</time>
      </trkpt>
      <trkpt lat="47.26315" lon="-2.30416">
        <ele>18.799999237061</ele>
        <time>2021-09-26T08:07:37.000Z</time>
      </trkpt>
      <trkpt lat="47.26312" lon="-2.30402">
        <ele>18.799999237061</ele>
        <time>2021-09-26T08:07:39.000Z</time>
      </trkpt>
      <trkpt lat="47.26309" lon="-2.30388">
        <ele>18.799999237061</ele>
        <time>2021-09-26T08:07:41.000Z</time>
      </trkpt>
      <trkpt lat="47.263" lon="-2.30335">
        <ele>18.799999237061</ele>
        <time>2021-09-26T08:07:48.000Z</time>
      </trkpt>
      <trkpt lat="47.26296" lon="-2.30321">
        <ele>18.799999237061</ele>
        <time>2021-09-26T08:07:50.000Z</time>
      </trkpt>
      <trkpt lat="47.26289" lon="-2.30301">
        <ele>18.799999237061</ele>
        <time>2021-09-26T08:07:53.000Z</time>
      </trkpt>
      <trkpt lat="47.26279" lon="-2.30256">
        <ele>18.799999237061</ele>
        <time>2021-09-26T08:07:59.000Z</time>
      </trkpt>
      <trkpt lat="47.26268" lon="-2.30197">
        <ele>18.799999237061</ele>
        <time>2021-09-26T08:08:07.000Z</time>
      </trkpt>
      <trkpt lat="47.26264" lon="-2.30177">
        <ele>19.200000762939</ele>
        <time>2021-09-26T08:08:10.000Z</time>
      </trkpt>
      <trkpt lat="47.26262" lon="-2.3017">
        <ele>19.60000038147</ele>
        <time>2021-09-26T08:08:11.000Z</time>
      </trkpt>
      <trkpt lat="47.2626" lon="-2.30163">
        <ele>20.200000762939</ele>
        <time>2021-09-26T08:08:12.000Z</time>
      </trkpt>
      <trkpt lat="47.26257" lon="-2.30157">
        <ele>21</ele>
        <time>2021-09-26T08:08:13.000Z</time>
      </trkpt>
      <trkpt lat="47.26246" lon="-2.30131">
        <ele>21</ele>
        <time>2021-09-26T08:08:18.000Z</time>
      </trkpt>
      <trkpt lat="47.26242" lon="-2.3013">
        <ele>21</ele>
        <time>2021-09-26T08:08:19.000Z</time>
      </trkpt>
      <trkpt lat="47.26225" lon="-2.30137">
        <ele>21</ele>
        <time>2021-09-26T08:08:23.000Z</time>
      </trkpt>
      <trkpt lat="47.26192" lon="-2.30149">
        <ele>21</ele>
        <time>2021-09-26T08:08:30.000Z</time>
      </trkpt>
      <trkpt lat="47.26182" lon="-2.30154">
        <ele>21</ele>
        <time>2021-09-26T08:08:32.000Z</time>
      </trkpt>
      <trkpt lat="47.26174" lon="-2.30154">
        <ele>21</ele>
        <time>2021-09-26T08:08:35.000Z</time>
      </trkpt>
      <trkpt lat="47.26172" lon="-2.30145">
        <ele>21</ele>
        <time>2021-09-26T08:08:38.000Z</time>
      </trkpt>
      <trkpt lat="47.26166" lon="-2.30147">
        <ele>21</ele>
        <time>2021-09-26T08:08:41.000Z</time>
      </trkpt>
      <trkpt lat="47.26159" lon="-2.30149">
        <ele>20.60000038147</ele>
        <time>2021-09-26T08:08:43.000Z</time>
      </trkpt>
      <trkpt lat="47.26155" lon="-2.30151">
        <ele>20.200000762939</ele>
        <time>2021-09-26T08:08:44.000Z</time>
      </trkpt>
      <trkpt lat="47.26151" lon="-2.30152">
        <ele>19.799999237061</ele>
        <time>2021-09-26T08:08:45.000Z</time>
      </trkpt>
      <trkpt lat="47.26147" lon="-2.30153">
        <ele>19.39999961853</ele>
        <time>2021-09-26T08:08:46.000Z</time>
      </trkpt>
      <trkpt lat="47.26142" lon="-2.30154">
        <ele>19</ele>
        <time>2021-09-26T08:08:47.000Z</time>
      </trkpt>
      <trkpt lat="47.26119" lon="-2.3016">
        <ele>18.60000038147</ele>
        <time>2021-09-26T08:08:52.000Z</time>
      </trkpt>
      <trkpt lat="47.26116" lon="-2.30161">
        <ele>18.200000762939</ele>
        <time>2021-09-26T08:08:53.000Z</time>
      </trkpt>
      <trkpt lat="47.26113" lon="-2.30162">
        <ele>17.799999237061</ele>
        <time>2021-09-26T08:08:54.000Z</time>
      </trkpt>
      <trkpt lat="47.2611" lon="-2.30163">
        <ele>17.39999961853</ele>
        <time>2021-09-26T08:08:55.000Z</time>
      </trkpt>
      <trkpt lat="47.26107" lon="-2.30163">
        <ele>17</ele>
        <time>2021-09-26T08:08:56.000Z</time>
      </trkpt>
      <trkpt lat="47.26103" lon="-2.30159">
        <ele>17</ele>
        <time>2021-09-26T08:08:58.000Z</time>
      </trkpt>
      <trkpt lat="47.26099" lon="-2.30152">
        <ele>17</ele>
        <time>2021-09-26T08:09:00.000Z</time>
      </trkpt>
      <trkpt lat="47.26089" lon="-2.30151">
        <ele>17</ele>
        <time>2021-09-26T08:09:03.000Z</time>
      </trkpt>
      <trkpt lat="47.26085" lon="-2.30152">
        <ele>16.39999961853</ele>
        <time>2021-09-26T08:09:04.000Z</time>
      </trkpt>
      <trkpt lat="47.26081" lon="-2.30152">
        <ele>16</ele>
        <time>2021-09-26T08:09:05.000Z</time>
      </trkpt>
      <trkpt lat="47.26078" lon="-2.30152">
        <ele>15.60000038147</ele>
        <time>2021-09-26T08:09:06.000Z</time>
      </trkpt>
      <trkpt lat="47.26074" lon="-2.30152">
        <ele>15.199999809265</ele>
        <time>2021-09-26T08:09:07.000Z</time>
      </trkpt>
      <trkpt lat="47.26071" lon="-2.3015">
        <ele>14.800000190735</ele>
        <time>2021-09-26T08:09:08.000Z</time>
      </trkpt>
      <trkpt lat="47.26069" lon="-2.30148">
        <ele>14.800000190735</ele>
        <time>2021-09-26T08:09:09.000Z</time>
      </trkpt>
      <trkpt lat="47.26055" lon="-2.30139">
        <ele>14.800000190735</ele>
        <time>2021-09-26T08:09:13.000Z</time>
      </trkpt>
      <trkpt lat="47.26039" lon="-2.3014">
        <ele>14.800000190735</ele>
        <time>2021-09-26T08:09:16.000Z</time>
      </trkpt>
      <trkpt lat="47.26033" lon="-2.30139">
        <ele>14.800000190735</ele>
        <time>2021-09-26T08:09:17.000Z</time>
      </trkpt>
      <trkpt lat="47.26023" lon="-2.30136">
        <ele>14.39999961853</ele>
        <time>2021-09-26T08:09:19.000Z</time>
      </trkpt>
      <trkpt lat="47.26019" lon="-2.30134">
        <ele>13.800000190735</ele>
        <time>2021-09-26T08:09:20.000Z</time>
      </trkpt>
      <trkpt lat="47.26014" lon="-2.30132">
        <ele>13.39999961853</ele>
        <time>2021-09-26T08:09:21.000Z</time>
      </trkpt>
      <trkpt lat="47.2601" lon="-2.30132">
        <ele>13</ele>
        <time>2021-09-26T08:09:22.000Z</time>
      </trkpt>
      <trkpt lat="47.26006" lon="-2.30133">
        <ele>12.39999961853</ele>
        <time>2021-09-26T08:09:23.000Z</time>
      </trkpt>
      <trkpt lat="47.26004" lon="-2.30133">
        <ele>12.39999961853</ele>
        <time>2021-09-26T08:09:24.000Z</time>
      </trkpt>
      <trkpt lat="47.25997" lon="-2.30133">
        <ele>12.39999961853</ele>
        <time>2021-09-26T08:09:26.000Z</time>
      </trkpt>
      <trkpt lat="47.2599" lon="-2.30135">
        <ele>12</ele>
        <time>2021-09-26T08:09:28.000Z</time>
      </trkpt>
      <trkpt lat="47.25986" lon="-2.30135">
        <ele>11.60000038147</ele>
        <time>2021-09-26T08:09:29.000Z</time>
      </trkpt>
      <trkpt lat="47.25983" lon="-2.30135">
        <ele>11.199999809265</ele>
        <time>2021-09-26T08:09:30.000Z</time>
      </trkpt>
      <trkpt lat="47.25979" lon="-2.30133">
        <ele>10.800000190735</ele>
        <time>2021-09-26T08:09:31.000Z</time>
      </trkpt>
      <trkpt lat="47.25977" lon="-2.3013">
        <ele>10.39999961853</ele>
        <time>2021-09-26T08:09:32.000Z</time>
      </trkpt>
      <trkpt lat="47.25971" lon="-2.30104">
        <ele>10.39999961853</ele>
        <time>2021-09-26T08:09:36.000Z</time>
      </trkpt>
      <trkpt lat="47.2597" lon="-2.30078">
        <ele>10.39999961853</ele>
        <time>2021-09-26T08:09:39.000Z</time>
      </trkpt>
      <trkpt lat="47.25971" lon="-2.30053">
        <ele>10.39999961853</ele>
        <time>2021-09-26T08:09:42.000Z</time>
      </trkpt>
      <trkpt lat="47.25972" lon="-2.30019">
        <ele>10.39999961853</ele>
        <time>2021-09-26T08:09:46.000Z</time>
      </trkpt>
      <trkpt lat="47.25973" lon="-2.29994">
        <ele>10.39999961853</ele>
        <time>2021-09-26T08:09:49.000Z</time>
      </trkpt>
      <trkpt lat="47.25977" lon="-2.29964">
        <ele>10.39999961853</ele>
        <time>2021-09-26T08:09:53.000Z</time>
      </trkpt>
      <trkpt lat="47.2598" lon="-2.29951">
        <ele>10.39999961853</ele>
        <time>2021-09-26T08:09:55.000Z</time>
      </trkpt>
      <trkpt lat="47.25987" lon="-2.29931">
        <ele>10.39999961853</ele>
        <time>2021-09-26T08:10:00.000Z</time>
      </trkpt>
      <trkpt lat="47.25991" lon="-2.29924">
        <ele>10.39999961853</ele>
        <time>2021-09-26T08:10:05.000Z</time>
      </trkpt>
      <trkpt lat="47.2599" lon="-2.29924">
        <ele>10.39999961853</ele>
        <time>2021-09-26T08:10:06.000Z</time>
      </trkpt>
      <trkpt lat="47.25987" lon="-2.2992">
        <ele>10.39999961853</ele>
        <time>2021-09-26T08:10:31.000Z</time>
      </trkpt>
      <trkpt lat="47.25984" lon="-2.29918">
        <ele>10.39999961853</ele>
        <time>2021-09-26T08:10:33.000Z</time>
      </trkpt>
      <trkpt lat="47.25982" lon="-2.29917">
        <ele>10.39999961853</ele>
        <time>2021-09-26T08:10:34.000Z</time>
      </trkpt>
      <trkpt lat="47.25979" lon="-2.29908">
        <ele>10.39999961853</ele>
        <time>2021-09-26T08:10:37.000Z</time>
      </trkpt>
      <trkpt lat="47.25977" lon="-2.29902">
        <ele>10.39999961853</ele>
        <time>2021-09-26T08:10:39.000Z</time>
      </trkpt>
      <trkpt lat="47.2597" lon="-2.29887">
        <ele>10.39999961853</ele>
        <time>2021-09-26T08:10:44.000Z</time>
      </trkpt>
      <trkpt lat="47.25966" lon="-2.29877">
        <ele>10.39999961853</ele>
        <time>2021-09-26T08:10:49.000Z</time>
      </trkpt>
      <trkpt lat="47.25963" lon="-2.29871">
        <ele>10.39999961853</ele>
        <time>2021-09-26T08:10:55.000Z</time>
      </trkpt>
      <trkpt lat="47.25962" lon="-2.29867">
        <ele>10.39999961853</ele>
        <time>2021-09-26T08:10:57.000Z</time>
      </trkpt>
      <trkpt lat="47.2596" lon="-2.29859">
        <ele>10.39999961853</ele>
        <time>2021-09-26T08:11:01.000Z</time>
      </trkpt>
      <trkpt lat="47.25957" lon="-2.29838">
        <ele>10.39999961853</ele>
        <time>2021-09-26T08:11:09.000Z</time>
      </trkpt>
      <trkpt lat="47.25955" lon="-2.29822">
        <ele>10.39999961853</ele>
        <time>2021-09-26T08:11:15.000Z</time>
      </trkpt>
      <trkpt lat="47.25954" lon="-2.29815">
        <ele>10.39999961853</ele>
        <time>2021-09-26T08:11:17.000Z</time>
      </trkpt>
      <trkpt lat="47.2593" lon="-2.29727">
        <ele>10.39999961853</ele>
        <time>2021-09-26T08:18:26.000Z</time>
      </trkpt>
      <trkpt lat="47.2593" lon="-2.29721">
        <ele>10.39999961853</ele>
        <time>2021-09-26T08:18:28.000Z</time>
      </trkpt>
      <trkpt lat="47.2593" lon="-2.29715">
        <ele>10.800000190735</ele>
        <time>2021-09-26T08:18:33.000Z</time>
      </trkpt>
      <trkpt lat="47.2593" lon="-2.29713">
        <ele>11.199999809265</ele>
        <time>2021-09-26T08:18:34.000Z</time>
      </trkpt>
      <trkpt lat="47.2593" lon="-2.29712">
        <ele>11.60000038147</ele>
        <time>2021-09-26T08:18:35.000Z</time>
      </trkpt>
      <trkpt lat="47.2593" lon="-2.29711">
        <ele>12</ele>
        <time>2021-09-26T08:18:36.000Z</time>
      </trkpt>
      <trkpt lat="47.2593" lon="-2.2971">
        <ele>12.39999961853</ele>
        <time>2021-09-26T08:18:37.000Z</time>
      </trkpt>
      <trkpt lat="47.25931" lon="-2.29702">
        <ele>12.39999961853</ele>
        <time>2021-09-26T08:18:46.000Z</time>
      </trkpt>
      <trkpt lat="47.25931" lon="-2.29696">
        <ele>12.39999961853</ele>
        <time>2021-09-26T08:18:48.000Z</time>
      </trkpt>
      <trkpt lat="47.25931" lon="-2.29673">
        <ele>12.39999961853</ele>
        <time>2021-09-26T08:18:55.000Z</time>
      </trkpt>
      <trkpt lat="47.25931" lon="-2.29648">
        <ele>12.39999961853</ele>
        <time>2021-09-26T08:19:02.000Z</time>
      </trkpt>
      <trkpt lat="47.25932" lon="-2.29644">
        <ele>12.800000190735</ele>
        <time>2021-09-26T08:19:03.000Z</time>
      </trkpt>
      <trkpt lat="47.25933" lon="-2.29639">
        <ele>13.199999809265</ele>
        <time>2021-09-26T08:19:04.000Z</time>
      </trkpt>
      <trkpt lat="47.25934" lon="-2.29636">
        <ele>13.800000190735</ele>
        <time>2021-09-26T08:19:05.000Z</time>
      </trkpt>
      <trkpt lat="47.25936" lon="-2.29633">
        <ele>14.199999809265</ele>
        <time>2021-09-26T08:19:06.000Z</time>
      </trkpt>
      <trkpt lat="47.25938" lon="-2.29632">
        <ele>14.60000038147</ele>
        <time>2021-09-26T08:19:07.000Z</time>
      </trkpt>
      <trkpt lat="47.25949" lon="-2.29639">
        <ele>14.60000038147</ele>
        <time>2021-09-26T08:19:10.000Z</time>
      </trkpt>
      <trkpt lat="47.25953" lon="-2.29642">
        <ele>14.60000038147</ele>
        <time>2021-09-26T08:19:11.000Z</time>
      </trkpt>
      <trkpt lat="47.25961" lon="-2.29647">
        <ele>14.60000038147</ele>
        <time>2021-09-26T08:19:13.000Z</time>
      </trkpt>
      <trkpt lat="47.25969" lon="-2.29647">
        <ele>14.60000038147</ele>
        <time>2021-09-26T08:19:15.000Z</time>
      </trkpt>
      <trkpt lat="47.25986" lon="-2.29637">
        <ele>14.60000038147</ele>
        <time>2021-09-26T08:19:19.000Z</time>
      </trkpt>
      <trkpt lat="47.2599" lon="-2.29635">
        <ele>14.60000038147</ele>
        <time>2021-09-26T08:19:20.000Z</time>
      </trkpt>
      <trkpt lat="47.26005" lon="-2.29628">
        <ele>14.60000038147</ele>
        <time>2021-09-26T08:19:24.000Z</time>
      </trkpt>
      <trkpt lat="47.26024" lon="-2.29623">
        <ele>14.60000038147</ele>
        <time>2021-09-26T08:19:31.000Z</time>
      </trkpt>
      <trkpt lat="47.2605" lon="-2.29619">
        <ele>14.60000038147</ele>
        <time>2021-09-26T08:19:39.000Z</time>
      </trkpt>
      <trkpt lat="47.26061" lon="-2.29618">
        <ele>15</ele>
        <time>2021-09-26T08:19:42.000Z</time>
      </trkpt>
      <trkpt lat="47.26065" lon="-2.29617">
        <ele>15.39999961853</ele>
        <time>2021-09-26T08:19:43.000Z</time>
      </trkpt>
      <trkpt lat="47.26068" lon="-2.29616">
        <ele>15.800000190735</ele>
        <time>2021-09-26T08:19:44.000Z</time>
      </trkpt>
      <trkpt lat="47.26071" lon="-2.29615">
        <ele>16.200000762939</ele>
        <time>2021-09-26T08:19:45.000Z</time>
      </trkpt>
      <trkpt lat="47.26073" lon="-2.29614">
        <ele>16.60000038147</ele>
        <time>2021-09-26T08:19:46.000Z</time>
      </trkpt>
      <trkpt lat="47.26087" lon="-2.29612">
        <ele>16.60000038147</ele>
        <time>2021-09-26T08:19:50.000Z</time>
      </trkpt>
      <trkpt lat="47.26091" lon="-2.29612">
        <ele>17</ele>
        <time>2021-09-26T08:19:51.000Z</time>
      </trkpt>
      <trkpt lat="47.26094" lon="-2.29611">
        <ele>17.39999961853</ele>
        <time>2021-09-26T08:19:52.000Z</time>
      </trkpt>
      <trkpt lat="47.26097" lon="-2.2961">
        <ele>17.799999237061</ele>
        <time>2021-09-26T08:19:53.000Z</time>
      </trkpt>
      <trkpt lat="47.261" lon="-2.29609">
        <ele>18.200000762939</ele>
        <time>2021-09-26T08:19:54.000Z</time>
      </trkpt>
      <trkpt lat="47.26103" lon="-2.29607">
        <ele>18.799999237061</ele>
        <time>2021-09-26T08:19:55.000Z</time>
      </trkpt>
      <trkpt lat="47.26107" lon="-2.29606">
        <ele>18.799999237061</ele>
        <time>2021-09-26T08:19:56.000Z</time>
      </trkpt>
      <trkpt lat="47.26117" lon="-2.29603">
        <ele>19.200000762939</ele>
        <time>2021-09-26T08:19:59.000Z</time>
      </trkpt>
      <trkpt lat="47.26121" lon="-2.29603">
        <ele>19.60000038147</ele>
        <time>2021-09-26T08:20:00.000Z</time>
      </trkpt>
      <trkpt lat="47.26125" lon="-2.29601">
        <ele>20</ele>
        <time>2021-09-26T08:20:01.000Z</time>
      </trkpt>
      <trkpt lat="47.26128" lon="-2.296">
        <ele>20.39999961853</ele>
        <time>2021-09-26T08:20:02.000Z</time>
      </trkpt>
      <trkpt lat="47.26132" lon="-2.29598">
        <ele>20.799999237061</ele>
        <time>2021-09-26T08:20:03.000Z</time>
      </trkpt>
      <trkpt lat="47.26142" lon="-2.29592">
        <ele>21.39999961853</ele>
        <time>2021-09-26T08:20:06.000Z</time>
      </trkpt>
      <trkpt lat="47.26146" lon="-2.2959">
        <ele>21.799999237061</ele>
        <time>2021-09-26T08:20:07.000Z</time>
      </trkpt>
      <trkpt lat="47.2615" lon="-2.29589">
        <ele>22.200000762939</ele>
        <time>2021-09-26T08:20:08.000Z</time>
      </trkpt>
      <trkpt lat="47.26154" lon="-2.29586">
        <ele>22.60000038147</ele>
        <time>2021-09-26T08:20:09.000Z</time>
      </trkpt>
      <trkpt lat="47.26157" lon="-2.29585">
        <ele>23.200000762939</ele>
        <time>2021-09-26T08:20:10.000Z</time>
      </trkpt>
      <trkpt lat="47.26175" lon="-2.29577">
        <ele>23.60000038147</ele>
        <time>2021-09-26T08:20:15.000Z</time>
      </trkpt>
      <trkpt lat="47.26178" lon="-2.29576">
        <ele>24</ele>
        <time>2021-09-26T08:20:16.000Z</time>
      </trkpt>
      <trkpt lat="47.26181" lon="-2.29574">
        <ele>24.39999961853</ele>
        <time>2021-09-26T08:20:17.000Z</time>
      </trkpt>
      <trkpt lat="47.26184" lon="-2.29573">
        <ele>24.799999237061</ele>
        <time>2021-09-26T08:20:18.000Z</time>
      </trkpt>
      <trkpt lat="47.26186" lon="-2.29572">
        <ele>25.200000762939</ele>
        <time>2021-09-26T08:20:19.000Z</time>
      </trkpt>
      <trkpt lat="47.26188" lon="-2.29568">
        <ele>25.200000762939</ele>
        <time>2021-09-26T08:20:21.000Z</time>
      </trkpt>
      <trkpt lat="47.26189" lon="-2.29567">
        <ele>25.200000762939</ele>
        <time>2021-09-26T08:20:23.000Z</time>
      </trkpt>
      <trkpt lat="47.26192" lon="-2.29559">
        <ele>25.200000762939</ele>
        <time>2021-09-26T08:21:26.000Z</time>
      </trkpt>
      <trkpt lat="47.26192" lon="-2.29556">
        <ele>25.200000762939</ele>
        <time>2021-09-26T08:21:27.000Z</time>
      </trkpt>
      <trkpt lat="47.26184" lon="-2.29539">
        <ele>25.200000762939</ele>
        <time>2021-09-26T08:21:32.000Z</time>
      </trkpt>
      <trkpt lat="47.26172" lon="-2.2953">
        <ele>25.200000762939</ele>
        <time>2021-09-26T08:21:35.000Z</time>
      </trkpt>
      <trkpt lat="47.26167" lon="-2.29528">
        <ele>25.200000762939</ele>
        <time>2021-09-26T08:21:36.000Z</time>
      </trkpt>
      <trkpt lat="47.26148" lon="-2.29513">
        <ele>25.200000762939</ele>
        <time>2021-09-26T08:21:40.000Z</time>
      </trkpt>
      <trkpt lat="47.26141" lon="-2.295">
        <ele>25.200000762939</ele>
        <time>2021-09-26T08:21:42.000Z</time>
      </trkpt>
      <trkpt lat="47.26126" lon="-2.29461">
        <ele>25.200000762939</ele>
        <time>2021-09-26T08:21:48.000Z</time>
      </trkpt>
      <trkpt lat="47.26125" lon="-2.29455">
        <ele>25.200000762939</ele>
        <time>2021-09-26T08:21:49.000Z</time>
      </trkpt>
      <trkpt lat="47.26124" lon="-2.29426">
        <ele>25.200000762939</ele>
        <time>2021-09-26T08:21:53.000Z</time>
      </trkpt>
      <trkpt lat="47.26125" lon="-2.29418">
        <ele>25.200000762939</ele>
        <time>2021-09-26T08:21:54.000Z</time>
      </trkpt>
      <trkpt lat="47.26129" lon="-2.29391">
        <ele>25.200000762939</ele>
        <time>2021-09-26T08:21:58.000Z</time>
      </trkpt>
      <trkpt lat="47.26139" lon="-2.29352">
        <ele>25.200000762939</ele>
        <time>2021-09-26T08:22:05.000Z</time>
      </trkpt>
      <trkpt lat="47.26149" lon="-2.29355">
        <ele>25.200000762939</ele>
        <time>2021-09-26T08:22:08.000Z</time>
      </trkpt>
      <trkpt lat="47.26153" lon="-2.29357">
        <ele>25.200000762939</ele>
        <time>2021-09-26T08:22:09.000Z</time>
      </trkpt>
      <trkpt lat="47.26174" lon="-2.29361">
        <ele>25.200000762939</ele>
        <time>2021-09-26T08:22:15.000Z</time>
      </trkpt>
      <trkpt lat="47.26179" lon="-2.29359">
        <ele>25.200000762939</ele>
        <time>2021-09-26T08:22:16.000Z</time>
      </trkpt>
      <trkpt lat="47.2619" lon="-2.29352">
        <ele>25.200000762939</ele>
        <time>2021-09-26T08:22:19.000Z</time>
      </trkpt>
      <trkpt lat="47.26194" lon="-2.29349">
        <ele>25.60000038147</ele>
        <time>2021-09-26T08:22:20.000Z</time>
      </trkpt>
      <trkpt lat="47.26197" lon="-2.29346">
        <ele>26.200000762939</ele>
        <time>2021-09-26T08:22:21.000Z</time>
      </trkpt>
      <trkpt lat="47.26201" lon="-2.29343">
        <ele>26.60000038147</ele>
        <time>2021-09-26T08:22:22.000Z</time>
      </trkpt>
      <trkpt lat="47.26204" lon="-2.2934">
        <ele>27</ele>
        <time>2021-09-26T08:22:23.000Z</time>
      </trkpt>
      <trkpt lat="47.26208" lon="-2.29338">
        <ele>27.39999961853</ele>
        <time>2021-09-26T08:22:24.000Z</time>
      </trkpt>
      <trkpt lat="47.26218" lon="-2.2933">
        <ele>27.39999961853</ele>
        <time>2021-09-26T08:22:27.000Z</time>
      </trkpt>
      <trkpt lat="47.26255" lon="-2.29296">
        <ele>27.39999961853</ele>
        <time>2021-09-26T08:22:36.000Z</time>
      </trkpt>
      <trkpt lat="47.26264" lon="-2.29289">
        <ele>27.39999961853</ele>
        <time>2021-09-26T08:22:38.000Z</time>
      </trkpt>
      <trkpt lat="47.26269" lon="-2.29287">
        <ele>27.799999237061</ele>
        <time>2021-09-26T08:22:39.000Z</time>
      </trkpt>
      <trkpt lat="47.26274" lon="-2.29285">
        <ele>28.200000762939</ele>
        <time>2021-09-26T08:22:40.000Z</time>
      </trkpt>
      <trkpt lat="47.26279" lon="-2.29283">
        <ele>28.60000038147</ele>
        <time>2021-09-26T08:22:41.000Z</time>
      </trkpt>
      <trkpt lat="47.26283" lon="-2.29281">
        <ele>29.200000762939</ele>
        <time>2021-09-26T08:22:42.000Z</time>
      </trkpt>
      <trkpt lat="47.26288" lon="-2.29279">
        <ele>29.60000038147</ele>
        <time>2021-09-26T08:22:43.000Z</time>
      </trkpt>
      <trkpt lat="47.26318" lon="-2.29273">
        <ele>29.60000038147</ele>
        <time>2021-09-26T08:22:49.000Z</time>
      </trkpt>
      <trkpt lat="47.26328" lon="-2.29273">
        <ele>29.60000038147</ele>
        <time>2021-09-26T08:22:51.000Z</time>
      </trkpt>
      <trkpt lat="47.26338" lon="-2.29273">
        <ele>30</ele>
        <time>2021-09-26T08:22:53.000Z</time>
      </trkpt>
      <trkpt lat="47.26343" lon="-2.29274">
        <ele>30.39999961853</ele>
        <time>2021-09-26T08:22:54.000Z</time>
      </trkpt>
      <trkpt lat="47.26348" lon="-2.29275">
        <ele>30.799999237061</ele>
        <time>2021-09-26T08:22:55.000Z</time>
      </trkpt>
      <trkpt lat="47.26353" lon="-2.29277">
        <ele>31.200000762939</ele>
        <time>2021-09-26T08:22:56.000Z</time>
      </trkpt>
      <trkpt lat="47.26358" lon="-2.29279">
        <ele>31.60000038147</ele>
        <time>2021-09-26T08:22:57.000Z</time>
      </trkpt>
      <trkpt lat="47.26384" lon="-2.29289">
        <ele>31.60000038147</ele>
        <time>2021-09-26T08:23:02.000Z</time>
      </trkpt>
      <trkpt lat="47.26418" lon="-2.29307">
        <ele>31.60000038147</ele>
        <time>2021-09-26T08:23:09.000Z</time>
      </trkpt>
      <trkpt lat="47.26452" lon="-2.29327">
        <ele>31.60000038147</ele>
        <time>2021-09-26T08:23:16.000Z</time>
      </trkpt>
      <trkpt lat="47.26482" lon="-2.29338">
        <ele>31.60000038147</ele>
        <time>2021-09-26T08:23:22.000Z</time>
      </trkpt>
      <trkpt lat="47.26487" lon="-2.29338">
        <ele>31.60000038147</ele>
        <time>2021-09-26T08:23:23.000Z</time>
      </trkpt>
      <trkpt lat="47.26519" lon="-2.29332">
        <ele>31.60000038147</ele>
        <time>2021-09-26T08:23:29.000Z</time>
      </trkpt>
      <trkpt lat="47.26557" lon="-2.29314">
        <ele>31.60000038147</ele>
        <time>2021-09-26T08:23:36.000Z</time>
      </trkpt>
      <trkpt lat="47.26594" lon="-2.29292">
        <ele>31.60000038147</ele>
        <time>2021-09-26T08:23:43.000Z</time>
      </trkpt>
      <trkpt lat="47.26625" lon="-2.29269">
        <ele>31.60000038147</ele>
        <time>2021-09-26T08:23:49.000Z</time>
      </trkpt>
      <trkpt lat="47.26662" lon="-2.29236">
        <ele>31.60000038147</ele>
        <time>2021-09-26T08:23:55.000Z</time>
      </trkpt>
      <trkpt lat="47.26693" lon="-2.29204">
        <ele>31.200000762939</ele>
        <time>2021-09-26T08:24:00.000Z</time>
      </trkpt>
      <trkpt lat="47.26699" lon="-2.29198">
        <ele>30.799999237061</ele>
        <time>2021-09-26T08:24:01.000Z</time>
      </trkpt>
      <trkpt lat="47.26705" lon="-2.29193">
        <ele>30.39999961853</ele>
        <time>2021-09-26T08:24:02.000Z</time>
      </trkpt>
      <trkpt lat="47.26711" lon="-2.29187">
        <ele>29.799999237061</ele>
        <time>2021-09-26T08:24:03.000Z</time>
      </trkpt>
      <trkpt lat="47.26717" lon="-2.29182">
        <ele>29.39999961853</ele>
        <time>2021-09-26T08:24:04.000Z</time>
      </trkpt>
      <trkpt lat="47.26747" lon="-2.29153">
        <ele>29</ele>
        <time>2021-09-26T08:24:09.000Z</time>
      </trkpt>
      <trkpt lat="47.26753" lon="-2.29147">
        <ele>28.60000038147</ele>
        <time>2021-09-26T08:24:10.000Z</time>
      </trkpt>
      <trkpt lat="47.26759" lon="-2.29141">
        <ele>28.200000762939</ele>
        <time>2021-09-26T08:24:11.000Z</time>
      </trkpt>
      <trkpt lat="47.26765" lon="-2.29135">
        <ele>27.60000038147</ele>
        <time>2021-09-26T08:24:12.000Z</time>
      </trkpt>
      <trkpt lat="47.26772" lon="-2.29129">
        <ele>27.200000762939</ele>
        <time>2021-09-26T08:24:13.000Z</time>
      </trkpt>
      <trkpt lat="47.26791" lon="-2.2911">
        <ele>27.200000762939</ele>
        <time>2021-09-26T08:24:16.000Z</time>
      </trkpt>
      <trkpt lat="47.26798" lon="-2.29103">
        <ele>26.799999237061</ele>
        <time>2021-09-26T08:24:17.000Z</time>
      </trkpt>
      <trkpt lat="47.26803" lon="-2.29097">
        <ele>26.39999961853</ele>
        <time>2021-09-26T08:24:18.000Z</time>
      </trkpt>
      <trkpt lat="47.2681" lon="-2.2909">
        <ele>26</ele>
        <time>2021-09-26T08:24:19.000Z</time>
      </trkpt>
      <trkpt lat="47.26816" lon="-2.29084">
        <ele>25.60000038147</ele>
        <time>2021-09-26T08:24:20.000Z</time>
      </trkpt>
      <trkpt lat="47.26822" lon="-2.29078">
        <ele>25.200000762939</ele>
        <time>2021-09-26T08:24:21.000Z</time>
      </trkpt>
      <trkpt lat="47.2684" lon="-2.29061">
        <ele>25.200000762939</ele>
        <time>2021-09-26T08:24:24.000Z</time>
      </trkpt>
      <trkpt lat="47.26863" lon="-2.29039">
        <ele>24.799999237061</ele>
        <time>2021-09-26T08:24:28.000Z</time>
      </trkpt>
      <trkpt lat="47.26869" lon="-2.29035">
        <ele>24.200000762939</ele>
        <time>2021-09-26T08:24:29.000Z</time>
      </trkpt>
      <trkpt lat="47.26873" lon="-2.2903">
        <ele>23.799999237061</ele>
        <time>2021-09-26T08:24:30.000Z</time>
      </trkpt>
      <trkpt lat="47.26879" lon="-2.29025">
        <ele>23.39999961853</ele>
        <time>2021-09-26T08:24:31.000Z</time>
      </trkpt>
      <trkpt lat="47.26885" lon="-2.29019">
        <ele>23</ele>
        <time>2021-09-26T08:24:32.000Z</time>
      </trkpt>
      <trkpt lat="47.26909" lon="-2.29002">
        <ele>23</ele>
        <time>2021-09-26T08:24:36.000Z</time>
      </trkpt>
      <trkpt lat="47.26929" lon="-2.28994">
        <ele>23</ele>
        <time>2021-09-26T08:24:40.000Z</time>
      </trkpt>
      <trkpt lat="47.26932" lon="-2.28991">
        <ele>23</ele>
        <time>2021-09-26T08:24:41.000Z</time>
      </trkpt>
      <trkpt lat="47.26931" lon="-2.2898">
        <ele>23</ele>
        <time>2021-09-26T08:24:43.000Z</time>
      </trkpt>
      <trkpt lat="47.26921" lon="-2.28972">
        <ele>23</ele>
        <time>2021-09-26T08:24:46.000Z</time>
      </trkpt>
      <trkpt lat="47.26913" lon="-2.28969">
        <ele>23</ele>
        <time>2021-09-26T08:24:48.000Z</time>
      </trkpt>
      <trkpt lat="47.26895" lon="-2.28965">
        <ele>23</ele>
        <time>2021-09-26T08:24:52.000Z</time>
      </trkpt>
      <trkpt lat="47.26866" lon="-2.28953">
        <ele>23</ele>
        <time>2021-09-26T08:24:58.000Z</time>
      </trkpt>
      <trkpt lat="47.26819" lon="-2.28925">
        <ele>23</ele>
        <time>2021-09-26T08:25:07.000Z</time>
      </trkpt>
      <trkpt lat="47.26786" lon="-2.28907">
        <ele>23</ele>
        <time>2021-09-26T08:25:13.000Z</time>
      </trkpt>
      <trkpt lat="47.2678" lon="-2.28903">
        <ele>23</ele>
        <time>2021-09-26T08:25:14.000Z</time>
      </trkpt>
      <trkpt lat="47.26738" lon="-2.28866">
        <ele>23</ele>
        <time>2021-09-26T08:25:22.000Z</time>
      </trkpt>
      <trkpt lat="47.26695" lon="-2.28832">
        <ele>23</ele>
        <time>2021-09-26T08:25:30.000Z</time>
      </trkpt>
      <trkpt lat="47.2668" lon="-2.28816">
        <ele>23</ele>
        <time>2021-09-26T08:25:33.000Z</time>
      </trkpt>
      <trkpt lat="47.26666" lon="-2.28802">
        <ele>23</ele>
        <time>2021-09-26T08:25:36.000Z</time>
      </trkpt>
      <trkpt lat="47.26633" lon="-2.28766">
        <ele>23.39999961853</ele>
        <time>2021-09-26T08:25:43.000Z</time>
      </trkpt>
      <trkpt lat="47.26628" lon="-2.28761">
        <ele>23.799999237061</ele>
        <time>2021-09-26T08:25:44.000Z</time>
      </trkpt>
      <trkpt lat="47.26623" lon="-2.28757">
        <ele>24.200000762939</ele>
        <time>2021-09-26T08:25:45.000Z</time>
      </trkpt>
      <trkpt lat="47.26619" lon="-2.28752">
        <ele>24.60000038147</ele>
        <time>2021-09-26T08:25:46.000Z</time>
      </trkpt>
      <trkpt lat="47.26614" lon="-2.28747">
        <ele>25</ele>
        <time>2021-09-26T08:25:47.000Z</time>
      </trkpt>
      <trkpt lat="47.26593" lon="-2.28721">
        <ele>25</ele>
        <time>2021-09-26T08:25:52.000Z</time>
      </trkpt>
      <trkpt lat="47.2658" lon="-2.28706">
        <ele>25</ele>
        <time>2021-09-26T08:25:55.000Z</time>
      </trkpt>
      <trkpt lat="47.26567" lon="-2.28692">
        <ele>25</ele>
        <time>2021-09-26T08:25:58.000Z</time>
      </trkpt>
      <trkpt lat="47.26547" lon="-2.28673">
        <ele>25.39999961853</ele>
        <time>2021-09-26T08:26:02.000Z</time>
      </trkpt>
      <trkpt lat="47.26543" lon="-2.28668">
        <ele>25.799999237061</ele>
        <time>2021-09-26T08:26:03.000Z</time>
      </trkpt>
      <trkpt lat="47.26538" lon="-2.28662">
        <ele>26.200000762939</ele>
        <time>2021-09-26T08:26:04.000Z</time>
      </trkpt>
      <trkpt lat="47.26534" lon="-2.28657">
        <ele>26.60000038147</ele>
        <time>2021-09-26T08:26:05.000Z</time>
      </trkpt>
      <trkpt lat="47.2653" lon="-2.2865">
        <ele>27.200000762939</ele>
        <time>2021-09-26T08:26:06.000Z</time>
      </trkpt>
      <trkpt lat="47.26518" lon="-2.28634">
        <ele>27.200000762939</ele>
        <time>2021-09-26T08:26:09.000Z</time>
      </trkpt>
      <trkpt lat="47.2651" lon="-2.28624">
        <ele>27.200000762939</ele>
        <time>2021-09-26T08:26:11.000Z</time>
      </trkpt>
      <trkpt lat="47.265" lon="-2.28614">
        <ele>27.200000762939</ele>
        <time>2021-09-26T08:26:14.000Z</time>
      </trkpt>
      <trkpt lat="47.26499" lon="-2.28609">
        <ele>27.200000762939</ele>
        <time>2021-09-26T08:26:15.000Z</time>
      </trkpt>
      <trkpt lat="47.265" lon="-2.28585">
        <ele>27.200000762939</ele>
        <time>2021-09-26T08:26:21.000Z</time>
      </trkpt>
      <trkpt lat="47.26499" lon="-2.28585">
        <ele>27.200000762939</ele>
        <time>2021-09-26T08:26:24.000Z</time>
      </trkpt>
      <trkpt lat="47.26499" lon="-2.28585">
        <ele>27.200000762939</ele>
        <time>2021-09-26T08:26:36.000Z</time>
      </trkpt>
      <trkpt lat="47.26495" lon="-2.28568">
        <ele>27.200000762939</ele>
        <time>2021-09-26T08:26:41.000Z</time>
      </trkpt>
      <trkpt lat="47.26484" lon="-2.28543">
        <ele>27.60000038147</ele>
        <time>2021-09-26T08:26:46.000Z</time>
      </trkpt>
      <trkpt lat="47.26482" lon="-2.28538">
        <ele>28</ele>
        <time>2021-09-26T08:26:47.000Z</time>
      </trkpt>
      <trkpt lat="47.26479" lon="-2.28533">
        <ele>28.39999961853</ele>
        <time>2021-09-26T08:26:48.000Z</time>
      </trkpt>
      <trkpt lat="47.26476" lon="-2.28527">
        <ele>28.799999237061</ele>
        <time>2021-09-26T08:26:49.000Z</time>
      </trkpt>
      <trkpt lat="47.26474" lon="-2.28521">
        <ele>29.200000762939</ele>
        <time>2021-09-26T08:26:50.000Z</time>
      </trkpt>
      <trkpt lat="47.26464" lon="-2.28503">
        <ele>29.200000762939</ele>
        <time>2021-09-26T08:26:53.000Z</time>
      </trkpt>
      <trkpt lat="47.26444" lon="-2.2846">
        <ele>29.60000038147</ele>
        <time>2021-09-26T08:27:00.000Z</time>
      </trkpt>
      <trkpt lat="47.26441" lon="-2.28454">
        <ele>30</ele>
        <time>2021-09-26T08:27:01.000Z</time>
      </trkpt>
      <trkpt lat="47.26438" lon="-2.28448">
        <ele>30.39999961853</ele>
        <time>2021-09-26T08:27:02.000Z</time>
      </trkpt>
      <trkpt lat="47.26435" lon="-2.28442">
        <ele>30.799999237061</ele>
        <time>2021-09-26T08:27:03.000Z</time>
      </trkpt>
      <trkpt lat="47.26432" lon="-2.28435">
        <ele>31.200000762939</ele>
        <time>2021-09-26T08:27:04.000Z</time>
      </trkpt>
      <trkpt lat="47.26427" lon="-2.28423">
        <ele>31.200000762939</ele>
        <time>2021-09-26T08:27:06.000Z</time>
      </trkpt>
      <trkpt lat="47.26405" lon="-2.28376">
        <ele>31.200000762939</ele>
        <time>2021-09-26T08:27:13.000Z</time>
      </trkpt>
      <trkpt lat="47.26384" lon="-2.28327">
        <ele>31.200000762939</ele>
        <time>2021-09-26T08:27:20.000Z</time>
      </trkpt>
      <trkpt lat="47.26364" lon="-2.28269">
        <ele>31.200000762939</ele>
        <time>2021-09-26T08:27:28.000Z</time>
      </trkpt>
      <trkpt lat="47.26346" lon="-2.28197">
        <ele>31.200000762939</ele>
        <time>2021-09-26T08:27:37.000Z</time>
      </trkpt>
      <trkpt lat="47.26336" lon="-2.28141">
        <ele>31.200000762939</ele>
        <time>2021-09-26T08:27:44.000Z</time>
      </trkpt>
      <trkpt lat="47.26326" lon="-2.28076">
        <ele>31.200000762939</ele>
        <time>2021-09-26T08:27:52.000Z</time>
      </trkpt>
      <trkpt lat="47.2631" lon="-2.2802">
        <ele>31.200000762939</ele>
        <time>2021-09-26T08:27:59.000Z</time>
      </trkpt>
      <trkpt lat="47.26295" lon="-2.27979">
        <ele>31.200000762939</ele>
        <time>2021-09-26T08:28:05.000Z</time>
      </trkpt>
      <trkpt lat="47.26293" lon="-2.27976">
        <ele>30.799999237061</ele>
        <time>2021-09-26T08:28:06.000Z</time>
      </trkpt>
      <trkpt lat="47.26292" lon="-2.27973">
        <ele>30.39999961853</ele>
        <time>2021-09-26T08:28:07.000Z</time>
      </trkpt>
      <trkpt lat="47.26289" lon="-2.27971">
        <ele>30</ele>
        <time>2021-09-26T08:28:08.000Z</time>
      </trkpt>
      <trkpt lat="47.26287" lon="-2.27969">
        <ele>29.39999961853</ele>
        <time>2021-09-26T08:28:09.000Z</time>
      </trkpt>
      <trkpt lat="47.26284" lon="-2.27967">
        <ele>29</ele>
        <time>2021-09-26T08:28:10.000Z</time>
      </trkpt>
      <trkpt lat="47.26271" lon="-2.27948">
        <ele>29</ele>
        <time>2021-09-26T08:28:15.000Z</time>
      </trkpt>
      <trkpt lat="47.26254" lon="-2.27915">
        <ele>29</ele>
        <time>2021-09-26T08:28:21.000Z</time>
      </trkpt>
      <trkpt lat="47.26232" lon="-2.27867">
        <ele>29</ele>
        <time>2021-09-26T08:28:30.000Z</time>
      </trkpt>
      <trkpt lat="47.26229" lon="-2.27863">
        <ele>29</ele>
        <time>2021-09-26T08:28:31.000Z</time>
      </trkpt>
      <trkpt lat="47.2621" lon="-2.2783">
        <ele>29</ele>
        <time>2021-09-26T08:28:38.000Z</time>
      </trkpt>
      <trkpt lat="47.26189" lon="-2.27784">
        <ele>29</ele>
        <time>2021-09-26T08:28:46.000Z</time>
      </trkpt>
      <trkpt lat="47.26173" lon="-2.27732">
        <ele>29</ele>
        <time>2021-09-26T08:28:54.000Z</time>
      </trkpt>
      <trkpt lat="47.26157" lon="-2.27678">
        <ele>29</ele>
        <time>2021-09-26T08:29:03.000Z</time>
      </trkpt>
      <trkpt lat="47.26154" lon="-2.27667">
        <ele>29</ele>
        <time>2021-09-26T08:29:05.000Z</time>
      </trkpt>
      <trkpt lat="47.26149" lon="-2.27644">
        <ele>29</ele>
        <time>2021-09-26T08:29:09.000Z</time>
      </trkpt>
      <trkpt lat="47.26146" lon="-2.27625">
        <ele>29</ele>
        <time>2021-09-26T08:29:14.000Z</time>
      </trkpt>
      <trkpt lat="47.26141" lon="-2.27599">
        <ele>29</ele>
        <time>2021-09-26T08:29:21.000Z</time>
      </trkpt>
      <trkpt lat="47.26131" lon="-2.27585">
        <ele>29</ele>
        <time>2021-09-26T08:29:25.000Z</time>
      </trkpt>
      <trkpt lat="47.26116" lon="-2.27587">
        <ele>29</ele>
        <time>2021-09-26T08:29:28.000Z</time>
      </trkpt>
      <trkpt lat="47.26101" lon="-2.27594">
        <ele>29</ele>
        <time>2021-09-26T08:29:31.000Z</time>
      </trkpt>
      <trkpt lat="47.26096" lon="-2.27598">
        <ele>29</ele>
        <time>2021-09-26T08:29:32.000Z</time>
      </trkpt>
      <trkpt lat="47.26091" lon="-2.27601">
        <ele>29</ele>
        <time>2021-09-26T08:29:33.000Z</time>
      </trkpt>
      <trkpt lat="47.26078" lon="-2.2761">
        <ele>29.60000038147</ele>
        <time>2021-09-26T08:29:36.000Z</time>
      </trkpt>
      <trkpt lat="47.26074" lon="-2.27613">
        <ele>30</ele>
        <time>2021-09-26T08:29:37.000Z</time>
      </trkpt>
      <trkpt lat="47.2607" lon="-2.27615">
        <ele>30.39999961853</ele>
        <time>2021-09-26T08:29:38.000Z</time>
      </trkpt>
      <trkpt lat="47.26065" lon="-2.27617">
        <ele>30.799999237061</ele>
        <time>2021-09-26T08:29:39.000Z</time>
      </trkpt>
      <trkpt lat="47.26061" lon="-2.27619">
        <ele>31.200000762939</ele>
        <time>2021-09-26T08:29:40.000Z</time>
      </trkpt>
      <trkpt lat="47.26052" lon="-2.27622">
        <ele>31.200000762939</ele>
        <time>2021-09-26T08:29:42.000Z</time>
      </trkpt>
      <trkpt lat="47.26042" lon="-2.27618">
        <ele>31.200000762939</ele>
        <time>2021-09-26T08:29:44.000Z</time>
      </trkpt>
      <trkpt lat="47.26033" lon="-2.27602">
        <ele>31.200000762939</ele>
        <time>2021-09-26T08:29:47.000Z</time>
      </trkpt>
      <trkpt lat="47.26031" lon="-2.27596">
        <ele>31.200000762939</ele>
        <time>2021-09-26T08:29:48.000Z</time>
      </trkpt>
      <trkpt lat="47.26022" lon="-2.2756">
        <ele>31.200000762939</ele>
        <time>2021-09-26T08:29:53.000Z</time>
      </trkpt>
      <trkpt lat="47.2602" lon="-2.27553">
        <ele>31.200000762939</ele>
        <time>2021-09-26T08:29:54.000Z</time>
      </trkpt>
      <trkpt lat="47.26015" lon="-2.2753">
        <ele>31.200000762939</ele>
        <time>2021-09-26T08:29:57.000Z</time>
      </trkpt>
      <trkpt lat="47.26016" lon="-2.27516">
        <ele>31.200000762939</ele>
        <time>2021-09-26T08:29:59.000Z</time>
      </trkpt>
      <trkpt lat="47.26018" lon="-2.27501">
        <ele>31.200000762939</ele>
        <time>2021-09-26T08:30:01.000Z</time>
      </trkpt>
      <trkpt lat="47.26025" lon="-2.27478">
        <ele>31.200000762939</ele>
        <time>2021-09-26T08:30:04.000Z</time>
      </trkpt>
      <trkpt lat="47.2605" lon="-2.27425">
        <ele>31.200000762939</ele>
        <time>2021-09-26T08:30:10.000Z</time>
      </trkpt>
      <trkpt lat="47.26083" lon="-2.27375">
        <ele>31.200000762939</ele>
        <time>2021-09-26T08:30:16.000Z</time>
      </trkpt>
      <trkpt lat="47.26121" lon="-2.27332">
        <ele>31.200000762939</ele>
        <time>2021-09-26T08:30:22.000Z</time>
      </trkpt>
      <trkpt lat="47.26133" lon="-2.2732">
        <ele>31.200000762939</ele>
        <time>2021-09-26T08:30:24.000Z</time>
      </trkpt>
      <trkpt lat="47.26146" lon="-2.27314">
        <ele>31.200000762939</ele>
        <time>2021-09-26T08:30:26.000Z</time>
      </trkpt>
      <trkpt lat="47.2616" lon="-2.27315">
        <ele>31.200000762939</ele>
        <time>2021-09-26T08:30:28.000Z</time>
      </trkpt>
      <trkpt lat="47.26168" lon="-2.27315">
        <ele>31.200000762939</ele>
        <time>2021-09-26T08:30:29.000Z</time>
      </trkpt>
      <trkpt lat="47.26182" lon="-2.27313">
        <ele>31.200000762939</ele>
        <time>2021-09-26T08:30:31.000Z</time>
      </trkpt>
      <trkpt lat="47.26203" lon="-2.27311">
        <ele>31.200000762939</ele>
        <time>2021-09-26T08:30:34.000Z</time>
      </trkpt>
      <trkpt lat="47.26218" lon="-2.27314">
        <ele>31.200000762939</ele>
        <time>2021-09-26T08:30:36.000Z</time>
      </trkpt>
      <trkpt lat="47.26238" lon="-2.27318">
        <ele>31.200000762939</ele>
        <time>2021-09-26T08:30:39.000Z</time>
      </trkpt>
      <trkpt lat="47.26244" lon="-2.2732">
        <ele>30.799999237061</ele>
        <time>2021-09-26T08:30:40.000Z</time>
      </trkpt>
      <trkpt lat="47.26251" lon="-2.27321">
        <ele>30.39999961853</ele>
        <time>2021-09-26T08:30:41.000Z</time>
      </trkpt>
      <trkpt lat="47.26258" lon="-2.27322">
        <ele>30</ele>
        <time>2021-09-26T08:30:42.000Z</time>
      </trkpt>
      <trkpt lat="47.26266" lon="-2.27322">
        <ele>29.60000038147</ele>
        <time>2021-09-26T08:30:43.000Z</time>
      </trkpt>
      <trkpt lat="47.26273" lon="-2.27323">
        <ele>29.200000762939</ele>
        <time>2021-09-26T08:30:44.000Z</time>
      </trkpt>
      <trkpt lat="47.26295" lon="-2.27324">
        <ele>29.200000762939</ele>
        <time>2021-09-26T08:30:47.000Z</time>
      </trkpt>
      <trkpt lat="47.26339" lon="-2.27327">
        <ele>29.200000762939</ele>
        <time>2021-09-26T08:30:53.000Z</time>
      </trkpt>
      <trkpt lat="47.26345" lon="-2.27329">
        <ele>29.200000762939</ele>
        <time>2021-09-26T08:30:54.000Z</time>
      </trkpt>
      <trkpt lat="47.26386" lon="-2.27329">
        <ele>28.799999237061</ele>
        <time>2021-09-26T08:31:00.000Z</time>
      </trkpt>
      <trkpt lat="47.26393" lon="-2.27329">
        <ele>28.39999961853</ele>
        <time>2021-09-26T08:31:01.000Z</time>
      </trkpt>
      <trkpt lat="47.26399" lon="-2.27329">
        <ele>28</ele>
        <time>2021-09-26T08:31:02.000Z</time>
      </trkpt>
      <trkpt lat="47.26406" lon="-2.2733">
        <ele>27.60000038147</ele>
        <time>2021-09-26T08:31:03.000Z</time>
      </trkpt>
      <trkpt lat="47.26413" lon="-2.27331">
        <ele>27.200000762939</ele>
        <time>2021-09-26T08:31:04.000Z</time>
      </trkpt>
      <trkpt lat="47.26418" lon="-2.27333">
        <ele>27.200000762939</ele>
        <time>2021-09-26T08:31:05.000Z</time>
      </trkpt>
      <trkpt lat="47.26424" lon="-2.27338">
        <ele>27.200000762939</ele>
        <time>2021-09-26T08:31:06.000Z</time>
      </trkpt>
      <trkpt lat="47.26436" lon="-2.27358">
        <ele>27.200000762939</ele>
        <time>2021-09-26T08:31:09.000Z</time>
      </trkpt>
      <trkpt lat="47.26442" lon="-2.27374">
        <ele>27.200000762939</ele>
        <time>2021-09-26T08:31:11.000Z</time>
      </trkpt>
      <trkpt lat="47.2645" lon="-2.27402">
        <ele>27.200000762939</ele>
        <time>2021-09-26T08:31:14.000Z</time>
      </trkpt>
      <trkpt lat="47.26465" lon="-2.27453">
        <ele>26.799999237061</ele>
        <time>2021-09-26T08:31:19.000Z</time>
      </trkpt>
      <trkpt lat="47.26469" lon="-2.27463">
        <ele>26.39999961853</ele>
        <time>2021-09-26T08:31:20.000Z</time>
      </trkpt>
      <trkpt lat="47.26472" lon="-2.27473">
        <ele>25.799999237061</ele>
        <time>2021-09-26T08:31:21.000Z</time>
      </trkpt>
      <trkpt lat="47.26475" lon="-2.27483">
        <ele>25.39999961853</ele>
        <time>2021-09-26T08:31:22.000Z</time>
      </trkpt>
      <trkpt lat="47.26478" lon="-2.27493">
        <ele>25</ele>
        <time>2021-09-26T08:31:23.000Z</time>
      </trkpt>
      <trkpt lat="47.26486" lon="-2.27523">
        <ele>25</ele>
        <time>2021-09-26T08:31:26.000Z</time>
      </trkpt>
      <trkpt lat="47.26487" lon="-2.27534">
        <ele>25</ele>
        <time>2021-09-26T08:31:27.000Z</time>
      </trkpt>
      <trkpt lat="47.26491" lon="-2.27564">
        <ele>24.60000038147</ele>
        <time>2021-09-26T08:31:30.000Z</time>
      </trkpt>
      <trkpt lat="47.26493" lon="-2.27571">
        <ele>24.200000762939</ele>
        <time>2021-09-26T08:31:31.000Z</time>
      </trkpt>
      <trkpt lat="47.26496" lon="-2.27577">
        <ele>23.799999237061</ele>
        <time>2021-09-26T08:31:32.000Z</time>
      </trkpt>
      <trkpt lat="47.265" lon="-2.2758">
        <ele>23.39999961853</ele>
        <time>2021-09-26T08:31:33.000Z</time>
      </trkpt>
      <trkpt lat="47.26505" lon="-2.27582">
        <ele>22.799999237061</ele>
        <time>2021-09-26T08:31:34.000Z</time>
      </trkpt>
      <trkpt lat="47.2651" lon="-2.27581">
        <ele>22.200000762939</ele>
        <time>2021-09-26T08:31:35.000Z</time>
      </trkpt>
      <trkpt lat="47.26516" lon="-2.2758">
        <ele>21.799999237061</ele>
        <time>2021-09-26T08:31:36.000Z</time>
      </trkpt>
      <trkpt lat="47.26522" lon="-2.2758">
        <ele>20.60000038147</ele>
        <time>2021-09-26T08:31:37.000Z</time>
      </trkpt>
      <trkpt lat="47.26527" lon="-2.27579">
        <ele>20.60000038147</ele>
        <time>2021-09-26T08:31:38.000Z</time>
      </trkpt>
      <trkpt lat="47.26533" lon="-2.27575">
        <ele>20.60000038147</ele>
        <time>2021-09-26T08:31:40.000Z</time>
      </trkpt>
      <trkpt lat="47.26535" lon="-2.27572">
        <ele>20.60000038147</ele>
        <time>2021-09-26T08:31:43.000Z</time>
      </trkpt>
      <trkpt lat="47.26535" lon="-2.27571">
        <ele>20.60000038147</ele>
        <time>2021-09-26T08:31:57.000Z</time>
      </trkpt>
      <trkpt lat="47.26542" lon="-2.27558">
        <ele>20.60000038147</ele>
        <time>2021-09-26T08:32:02.000Z</time>
      </trkpt>
      <trkpt lat="47.26546" lon="-2.27553">
        <ele>20.60000038147</ele>
        <time>2021-09-26T08:32:04.000Z</time>
      </trkpt>
      <trkpt lat="47.26555" lon="-2.27543">
        <ele>20.60000038147</ele>
        <time>2021-09-26T08:32:07.000Z</time>
      </trkpt>
      <trkpt lat="47.26563" lon="-2.27529">
        <ele>20.60000038147</ele>
        <time>2021-09-26T08:32:10.000Z</time>
      </trkpt>
      <trkpt lat="47.26568" lon="-2.27517">
        <ele>20.60000038147</ele>
        <time>2021-09-26T08:32:12.000Z</time>
      </trkpt>
      <trkpt lat="47.2657" lon="-2.27511">
        <ele>20.60000038147</ele>
        <time>2021-09-26T08:32:13.000Z</time>
      </trkpt>
      <trkpt lat="47.26576" lon="-2.27489">
        <ele>20.60000038147</ele>
        <time>2021-09-26T08:32:17.000Z</time>
      </trkpt>
      <trkpt lat="47.26586" lon="-2.27474">
        <ele>20.60000038147</ele>
        <time>2021-09-26T08:32:21.000Z</time>
      </trkpt>
      <trkpt lat="47.26592" lon="-2.27466">
        <ele>21</ele>
        <time>2021-09-26T08:32:23.000Z</time>
      </trkpt>
      <trkpt lat="47.26595" lon="-2.27462">
        <ele>21.60000038147</ele>
        <time>2021-09-26T08:32:24.000Z</time>
      </trkpt>
      <trkpt lat="47.26598" lon="-2.27458">
        <ele>22</ele>
        <time>2021-09-26T08:32:25.000Z</time>
      </trkpt>
      <trkpt lat="47.26602" lon="-2.27454">
        <ele>22.799999237061</ele>
        <time>2021-09-26T08:32:26.000Z</time>
      </trkpt>
      <trkpt lat="47.26609" lon="-2.27445">
        <ele>22.799999237061</ele>
        <time>2021-09-26T08:32:28.000Z</time>
      </trkpt>
      <trkpt lat="47.26642" lon="-2.27412">
        <ele>22.799999237061</ele>
        <time>2021-09-26T08:32:36.000Z</time>
      </trkpt>
      <trkpt lat="47.26686" lon="-2.27373">
        <ele>22.799999237061</ele>
        <time>2021-09-26T08:32:47.000Z</time>
      </trkpt>
      <trkpt lat="47.26701" lon="-2.27364">
        <ele>22.799999237061</ele>
        <time>2021-09-26T08:32:50.000Z</time>
      </trkpt>
      <trkpt lat="47.26712" lon="-2.2736">
        <ele>22.799999237061</ele>
        <time>2021-09-26T08:32:52.000Z</time>
      </trkpt>
      <trkpt lat="47.26732" lon="-2.27351">
        <ele>22.799999237061</ele>
        <time>2021-09-26T08:32:56.000Z</time>
      </trkpt>
      <trkpt lat="47.26736" lon="-2.27347">
        <ele>22.799999237061</ele>
        <time>2021-09-26T08:32:57.000Z</time>
      </trkpt>
      <trkpt lat="47.26737" lon="-2.27328">
        <ele>22.799999237061</ele>
        <time>2021-09-26T08:33:00.000Z</time>
      </trkpt>
      <trkpt lat="47.26736" lon="-2.27322">
        <ele>22.799999237061</ele>
        <time>2021-09-26T08:33:01.000Z</time>
      </trkpt>
      <trkpt lat="47.2673" lon="-2.27285">
        <ele>22.799999237061</ele>
        <time>2021-09-26T08:33:07.000Z</time>
      </trkpt>
      <trkpt lat="47.26723" lon="-2.27254">
        <ele>22.799999237061</ele>
        <time>2021-09-26T08:33:13.000Z</time>
      </trkpt>
      <trkpt lat="47.2672" lon="-2.27222">
        <ele>22.799999237061</ele>
        <time>2021-09-26T08:33:19.000Z</time>
      </trkpt>
      <trkpt lat="47.26716" lon="-2.27202">
        <ele>22.799999237061</ele>
        <time>2021-09-26T08:33:24.000Z</time>
      </trkpt>
      <trkpt lat="47.26722" lon="-2.27187">
        <ele>22.799999237061</ele>
        <time>2021-09-26T08:33:29.000Z</time>
      </trkpt>
      <trkpt lat="47.26724" lon="-2.27183">
        <ele>22.799999237061</ele>
        <time>2021-09-26T08:33:30.000Z</time>
      </trkpt>
      <trkpt lat="47.26737" lon="-2.27163">
        <ele>22.799999237061</ele>
        <time>2021-09-26T08:33:34.000Z</time>
      </trkpt>
      <trkpt lat="47.26742" lon="-2.27158">
        <ele>22.799999237061</ele>
        <time>2021-09-26T08:33:35.000Z</time>
      </trkpt>
      <trkpt lat="47.26762" lon="-2.27143">
        <ele>22.799999237061</ele>
        <time>2021-09-26T08:33:39.000Z</time>
      </trkpt>
      <trkpt lat="47.26771" lon="-2.2714">
        <ele>22.799999237061</ele>
        <time>2021-09-26T08:33:41.000Z</time>
      </trkpt>
      <trkpt lat="47.268" lon="-2.27131">
        <ele>22.39999961853</ele>
        <time>2021-09-26T08:33:47.000Z</time>
      </trkpt>
      <trkpt lat="47.26805" lon="-2.2713">
        <ele>22</ele>
        <time>2021-09-26T08:33:48.000Z</time>
      </trkpt>
      <trkpt lat="47.2681" lon="-2.27128">
        <ele>21.60000038147</ele>
        <time>2021-09-26T08:33:49.000Z</time>
      </trkpt>
      <trkpt lat="47.26816" lon="-2.27127">
        <ele>21.200000762939</ele>
        <time>2021-09-26T08:33:50.000Z</time>
      </trkpt>
      <trkpt lat="47.26821" lon="-2.27127">
        <ele>20.799999237061</ele>
        <time>2021-09-26T08:33:51.000Z</time>
      </trkpt>
      <trkpt lat="47.26836" lon="-2.27124">
        <ele>20.799999237061</ele>
        <time>2021-09-26T08:33:54.000Z</time>
      </trkpt>
      <trkpt lat="47.26857" lon="-2.27112">
        <ele>20.799999237061</ele>
        <time>2021-09-26T08:33:58.000Z</time>
      </trkpt>
      <trkpt lat="47.26867" lon="-2.27105">
        <ele>20.799999237061</ele>
        <time>2021-09-26T08:34:00.000Z</time>
      </trkpt>
      <trkpt lat="47.26886" lon="-2.27085">
        <ele>20.200000762939</ele>
        <time>2021-09-26T08:34:04.000Z</time>
      </trkpt>
      <trkpt lat="47.26891" lon="-2.27079">
        <ele>19.200000762939</ele>
        <time>2021-09-26T08:34:05.000Z</time>
      </trkpt>
      <trkpt lat="47.26896" lon="-2.27072">
        <ele>18.799999237061</ele>
        <time>2021-09-26T08:34:06.000Z</time>
      </trkpt>
      <trkpt lat="47.26901" lon="-2.27065">
        <ele>18.39999961853</ele>
        <time>2021-09-26T08:34:07.000Z</time>
      </trkpt>
      <trkpt lat="47.26911" lon="-2.27051">
        <ele>18</ele>
        <time>2021-09-26T08:34:09.000Z</time>
      </trkpt>
      <trkpt lat="47.26916" lon="-2.27044">
        <ele>17.60000038147</ele>
        <time>2021-09-26T08:34:10.000Z</time>
      </trkpt>
      <trkpt lat="47.26922" lon="-2.27037">
        <ele>17.200000762939</ele>
        <time>2021-09-26T08:34:11.000Z</time>
      </trkpt>
      <trkpt lat="47.26927" lon="-2.27029">
        <ele>16.799999237061</ele>
        <time>2021-09-26T08:34:12.000Z</time>
      </trkpt>
      <trkpt lat="47.26932" lon="-2.27022">
        <ele>16.39999961853</ele>
        <time>2021-09-26T08:34:13.000Z</time>
      </trkpt>
      <trkpt lat="47.26945" lon="-2.26999">
        <ele>15.800000190735</ele>
        <time>2021-09-26T08:34:16.000Z</time>
      </trkpt>
      <trkpt lat="47.26949" lon="-2.26991">
        <ele>15.39999961853</ele>
        <time>2021-09-26T08:34:17.000Z</time>
      </trkpt>
      <trkpt lat="47.26952" lon="-2.26983">
        <ele>15</ele>
        <time>2021-09-26T08:34:18.000Z</time>
      </trkpt>
      <trkpt lat="47.26955" lon="-2.26974">
        <ele>14.60000038147</ele>
        <time>2021-09-26T08:34:19.000Z</time>
      </trkpt>
      <trkpt lat="47.26956" lon="-2.26965">
        <ele>14.199999809265</ele>
        <time>2021-09-26T08:34:20.000Z</time>
      </trkpt>
      <trkpt lat="47.26959" lon="-2.26946">
        <ele>14.199999809265</ele>
        <time>2021-09-26T08:34:22.000Z</time>
      </trkpt>
      <trkpt lat="47.26962" lon="-2.26915">
        <ele>14.199999809265</ele>
        <time>2021-09-26T08:34:25.000Z</time>
      </trkpt>
      <trkpt lat="47.26961" lon="-2.26894">
        <ele>14.199999809265</ele>
        <time>2021-09-26T08:34:27.000Z</time>
      </trkpt>
      <trkpt lat="47.26958" lon="-2.26874">
        <ele>14.199999809265</ele>
        <time>2021-09-26T08:34:29.000Z</time>
      </trkpt>
      <trkpt lat="47.26957" lon="-2.26865">
        <ele>13.800000190735</ele>
        <time>2021-09-26T08:34:30.000Z</time>
      </trkpt>
      <trkpt lat="47.26955" lon="-2.26856">
        <ele>13.199999809265</ele>
        <time>2021-09-26T08:34:31.000Z</time>
      </trkpt>
      <trkpt lat="47.26954" lon="-2.26848">
        <ele>12.800000190735</ele>
        <time>2021-09-26T08:34:32.000Z</time>
      </trkpt>
      <trkpt lat="47.26953" lon="-2.26841">
        <ele>12.39999961853</ele>
        <time>2021-09-26T08:34:33.000Z</time>
      </trkpt>
      <trkpt lat="47.26953" lon="-2.26834">
        <ele>12</ele>
        <time>2021-09-26T08:34:34.000Z</time>
      </trkpt>
      <trkpt lat="47.26953" lon="-2.26828">
        <ele>12</ele>
        <time>2021-09-26T08:34:35.000Z</time>
      </trkpt>
      <trkpt lat="47.26956" lon="-2.26817">
        <ele>12</ele>
        <time>2021-09-26T08:34:37.000Z</time>
      </trkpt>
      <trkpt lat="47.26974" lon="-2.26801">
        <ele>11.60000038147</ele>
        <time>2021-09-26T08:34:42.000Z</time>
      </trkpt>
      <trkpt lat="47.26976" lon="-2.26799">
        <ele>11.199999809265</ele>
        <time>2021-09-26T08:34:43.000Z</time>
      </trkpt>
      <trkpt lat="47.26979" lon="-2.26798">
        <ele>10.800000190735</ele>
        <time>2021-09-26T08:34:44.000Z</time>
      </trkpt>
      <trkpt lat="47.2698" lon="-2.26796">
        <ele>10.39999961853</ele>
        <time>2021-09-26T08:34:45.000Z</time>
      </trkpt>
      <trkpt lat="47.26982" lon="-2.26795">
        <ele>10</ele>
        <time>2021-09-26T08:34:46.000Z</time>
      </trkpt>
      <trkpt lat="47.26984" lon="-2.26793">
        <ele>10</ele>
        <time>2021-09-26T08:34:47.000Z</time>
      </trkpt>
      <trkpt lat="47.26993" lon="-2.26792">
        <ele>10</ele>
        <time>2021-09-26T08:34:52.000Z</time>
      </trkpt>
      <trkpt lat="47.27001" lon="-2.26783">
        <ele>10</ele>
        <time>2021-09-26T08:34:56.000Z</time>
      </trkpt>
      <trkpt lat="47.27011" lon="-2.26768">
        <ele>10</ele>
        <time>2021-09-26T08:35:01.000Z</time>
      </trkpt>
      <trkpt lat="47.27023" lon="-2.26754">
        <ele>10</ele>
        <time>2021-09-26T08:35:06.000Z</time>
      </trkpt>
      <trkpt lat="47.27028" lon="-2.26749">
        <ele>10</ele>
        <time>2021-09-26T08:35:09.000Z</time>
      </trkpt>
      <trkpt lat="47.2703" lon="-2.26743">
        <ele>10</ele>
        <time>2021-09-26T08:35:11.000Z</time>
      </trkpt>
      <trkpt lat="47.27035" lon="-2.26717">
        <ele>10</ele>
        <time>2021-09-26T08:35:16.000Z</time>
      </trkpt>
      <trkpt lat="47.27034" lon="-2.26683">
        <ele>10</ele>
        <time>2021-09-26T08:35:22.000Z</time>
      </trkpt>
      <trkpt lat="47.27033" lon="-2.26653">
        <ele>10</ele>
        <time>2021-09-26T08:35:26.000Z</time>
      </trkpt>
      <trkpt lat="47.27032" lon="-2.26646">
        <ele>10</ele>
        <time>2021-09-26T08:35:27.000Z</time>
      </trkpt>
      <trkpt lat="47.27031" lon="-2.2664">
        <ele>10</ele>
        <time>2021-09-26T08:35:28.000Z</time>
      </trkpt>
      <trkpt lat="47.27024" lon="-2.26622">
        <ele>10</ele>
        <time>2021-09-26T08:35:31.000Z</time>
      </trkpt>
      <trkpt lat="47.27017" lon="-2.26612">
        <ele>10</ele>
        <time>2021-09-26T08:35:33.000Z</time>
      </trkpt>
      <trkpt lat="47.27" lon="-2.26587">
        <ele>10</ele>
        <time>2021-09-26T08:35:38.000Z</time>
      </trkpt>
      <trkpt lat="47.26981" lon="-2.26562">
        <ele>10</ele>
        <time>2021-09-26T08:35:43.000Z</time>
      </trkpt>
      <trkpt lat="47.26978" lon="-2.26557">
        <ele>10</ele>
        <time>2021-09-26T08:35:44.000Z</time>
      </trkpt>
      <trkpt lat="47.26974" lon="-2.26543">
        <ele>10.39999961853</ele>
        <time>2021-09-26T08:35:46.000Z</time>
      </trkpt>
      <trkpt lat="47.26973" lon="-2.26537">
        <ele>10.800000190735</ele>
        <time>2021-09-26T08:35:47.000Z</time>
      </trkpt>
      <trkpt lat="47.26971" lon="-2.26531">
        <ele>11.199999809265</ele>
        <time>2021-09-26T08:35:48.000Z</time>
      </trkpt>
      <trkpt lat="47.2697" lon="-2.26526">
        <ele>11.60000038147</ele>
        <time>2021-09-26T08:35:49.000Z</time>
      </trkpt>
      <trkpt lat="47.26968" lon="-2.26521">
        <ele>12</ele>
        <time>2021-09-26T08:35:50.000Z</time>
      </trkpt>
      <trkpt lat="47.26967" lon="-2.26512">
        <ele>12</ele>
        <time>2021-09-26T08:35:52.000Z</time>
      </trkpt>
      <trkpt lat="47.26969" lon="-2.26504">
        <ele>12</ele>
        <time>2021-09-26T08:35:54.000Z</time>
      </trkpt>
      <trkpt lat="47.26971" lon="-2.265">
        <ele>12.60000038147</ele>
        <time>2021-09-26T08:35:55.000Z</time>
      </trkpt>
      <trkpt lat="47.26973" lon="-2.26496">
        <ele>13</ele>
        <time>2021-09-26T08:35:56.000Z</time>
      </trkpt>
      <trkpt lat="47.26976" lon="-2.26493">
        <ele>13.39999961853</ele>
        <time>2021-09-26T08:35:57.000Z</time>
      </trkpt>
      <trkpt lat="47.26978" lon="-2.2649">
        <ele>13.800000190735</ele>
        <time>2021-09-26T08:35:58.000Z</time>
      </trkpt>
      <trkpt lat="47.2698" lon="-2.26486">
        <ele>14.199999809265</ele>
        <time>2021-09-26T08:35:59.000Z</time>
      </trkpt>
      <trkpt lat="47.26987" lon="-2.26473">
        <ele>14.199999809265</ele>
        <time>2021-09-26T08:36:04.000Z</time>
      </trkpt>
      <trkpt lat="47.26987" lon="-2.26473">
        <ele>14.199999809265</ele>
        <time>2021-09-26T08:36:05.000Z</time>
      </trkpt>
      <trkpt lat="47.26993" lon="-2.26469">
        <ele>14.199999809265</ele>
        <time>2021-09-26T08:38:06.000Z</time>
      </trkpt>
      <trkpt lat="47.26997" lon="-2.26463">
        <ele>14.199999809265</ele>
        <time>2021-09-26T08:38:08.000Z</time>
      </trkpt>
      <trkpt lat="47.27009" lon="-2.26449">
        <ele>14.199999809265</ele>
        <time>2021-09-26T08:38:13.000Z</time>
      </trkpt>
      <trkpt lat="47.27024" lon="-2.26426">
        <ele>14.199999809265</ele>
        <time>2021-09-26T08:38:19.000Z</time>
      </trkpt>
      <trkpt lat="47.27041" lon="-2.26404">
        <ele>14.199999809265</ele>
        <time>2021-09-26T08:38:26.000Z</time>
      </trkpt>
      <trkpt lat="47.27052" lon="-2.26388">
        <ele>14.199999809265</ele>
        <time>2021-09-26T08:38:30.000Z</time>
      </trkpt>
      <trkpt lat="47.27055" lon="-2.26383">
        <ele>14.199999809265</ele>
        <time>2021-09-26T08:38:31.000Z</time>
      </trkpt>
      <trkpt lat="47.27079" lon="-2.26348">
        <ele>14.199999809265</ele>
        <time>2021-09-26T08:38:38.000Z</time>
      </trkpt>
      <trkpt lat="47.27102" lon="-2.26313">
        <ele>14.199999809265</ele>
        <time>2021-09-26T08:38:45.000Z</time>
      </trkpt>
      <trkpt lat="47.2712" lon="-2.2629">
        <ele>14.199999809265</ele>
        <time>2021-09-26T08:38:50.000Z</time>
      </trkpt>
      <trkpt lat="47.27146" lon="-2.26252">
        <ele>14.199999809265</ele>
        <time>2021-09-26T08:38:56.000Z</time>
      </trkpt>
      <trkpt lat="47.27191" lon="-2.26201">
        <ele>14.199999809265</ele>
        <time>2021-09-26T08:39:04.000Z</time>
      </trkpt>
      <trkpt lat="47.27204" lon="-2.2619">
        <ele>13.800000190735</ele>
        <time>2021-09-26T08:39:06.000Z</time>
      </trkpt>
      <trkpt lat="47.2721" lon="-2.26184">
        <ele>13.39999961853</ele>
        <time>2021-09-26T08:39:07.000Z</time>
      </trkpt>
      <trkpt lat="47.27217" lon="-2.26179">
        <ele>12.800000190735</ele>
        <time>2021-09-26T08:39:08.000Z</time>
      </trkpt>
      <trkpt lat="47.27224" lon="-2.26175">
        <ele>12.39999961853</ele>
        <time>2021-09-26T08:39:09.000Z</time>
      </trkpt>
      <trkpt lat="47.27231" lon="-2.2617">
        <ele>12</ele>
        <time>2021-09-26T08:39:10.000Z</time>
      </trkpt>
      <trkpt lat="47.27276" lon="-2.26147">
        <ele>12</ele>
        <time>2021-09-26T08:39:17.000Z</time>
      </trkpt>
      <trkpt lat="47.27313" lon="-2.26134">
        <ele>12</ele>
        <time>2021-09-26T08:39:23.000Z</time>
      </trkpt>
      <trkpt lat="47.2733" lon="-2.26128">
        <ele>11.199999809265</ele>
        <time>2021-09-26T08:39:26.000Z</time>
      </trkpt>
      <trkpt lat="47.27335" lon="-2.26127">
        <ele>10.800000190735</ele>
        <time>2021-09-26T08:39:27.000Z</time>
      </trkpt>
      <trkpt lat="47.2734" lon="-2.26125">
        <ele>10.39999961853</ele>
        <time>2021-09-26T08:39:28.000Z</time>
      </trkpt>
      <trkpt lat="47.27346" lon="-2.26123">
        <ele>10</ele>
        <time>2021-09-26T08:39:29.000Z</time>
      </trkpt>
      <trkpt lat="47.27352" lon="-2.26123">
        <ele>10</ele>
        <time>2021-09-26T08:39:30.000Z</time>
      </trkpt>
      <trkpt lat="47.27368" lon="-2.26133">
        <ele>10</ele>
        <time>2021-09-26T08:39:33.000Z</time>
      </trkpt>
      <trkpt lat="47.27385" lon="-2.26158">
        <ele>10</ele>
        <time>2021-09-26T08:39:37.000Z</time>
      </trkpt>
      <trkpt lat="47.27403" lon="-2.26189">
        <ele>10</ele>
        <time>2021-09-26T08:39:42.000Z</time>
      </trkpt>
      <trkpt lat="47.2743" lon="-2.26231">
        <ele>10</ele>
        <time>2021-09-26T08:39:49.000Z</time>
      </trkpt>
      <trkpt lat="47.2746" lon="-2.26265">
        <ele>9.6000003814697</ele>
        <time>2021-09-26T08:39:55.000Z</time>
      </trkpt>
      <trkpt lat="47.27466" lon="-2.2627">
        <ele>9.1999998092651</ele>
        <time>2021-09-26T08:39:56.000Z</time>
      </trkpt>
      <trkpt lat="47.27472" lon="-2.26274">
        <ele>8.8000001907349</ele>
        <time>2021-09-26T08:39:57.000Z</time>
      </trkpt>
      <trkpt lat="47.27479" lon="-2.26278">
        <ele>8.1999998092651</ele>
        <time>2021-09-26T08:39:58.000Z</time>
      </trkpt>
      <trkpt lat="47.27485" lon="-2.26281">
        <ele>7.8000001907349</ele>
        <time>2021-09-26T08:39:59.000Z</time>
      </trkpt>
      <trkpt lat="47.27492" lon="-2.26284">
        <ele>7.8000001907349</ele>
        <time>2021-09-26T08:40:00.000Z</time>
      </trkpt>
      <trkpt lat="47.27499" lon="-2.26285">
        <ele>7.8000001907349</ele>
        <time>2021-09-26T08:40:01.000Z</time>
      </trkpt>
      <trkpt lat="47.27541" lon="-2.26287">
        <ele>7.8000001907349</ele>
        <time>2021-09-26T08:40:07.000Z</time>
      </trkpt>
      <trkpt lat="47.27596" lon="-2.26287">
        <ele>7.8000001907349</ele>
        <time>2021-09-26T08:40:15.000Z</time>
      </trkpt>
      <trkpt lat="47.2762" lon="-2.26296">
        <ele>7.4000000953674</ele>
        <time>2021-09-26T08:40:19.000Z</time>
      </trkpt>
      <trkpt lat="47.27625" lon="-2.263">
        <ele>7</ele>
        <time>2021-09-26T08:40:20.000Z</time>
      </trkpt>
      <trkpt lat="47.2763" lon="-2.26304">
        <ele>6.5999999046326</ele>
        <time>2021-09-26T08:40:21.000Z</time>
      </trkpt>
      <trkpt lat="47.27635" lon="-2.26308">
        <ele>6.1999998092651</ele>
        <time>2021-09-26T08:40:22.000Z</time>
      </trkpt>
      <trkpt lat="47.2764" lon="-2.26313">
        <ele>5.8000001907349</ele>
        <time>2021-09-26T08:40:23.000Z</time>
      </trkpt>
      <trkpt lat="47.27651" lon="-2.26327">
        <ele>5.8000001907349</ele>
        <time>2021-09-26T08:40:26.000Z</time>
      </trkpt>
      <trkpt lat="47.27664" lon="-2.26337">
        <ele>5.8000001907349</ele>
        <time>2021-09-26T08:40:30.000Z</time>
      </trkpt>
      <trkpt lat="47.27667" lon="-2.26327">
        <ele>5.8000001907349</ele>
        <time>2021-09-26T08:40:33.000Z</time>
      </trkpt>
      <trkpt lat="47.27666" lon="-2.26316">
        <ele>5.8000001907349</ele>
        <time>2021-09-26T08:40:36.000Z</time>
      </trkpt>
      <trkpt lat="47.27665" lon="-2.26311">
        <ele>5.8000001907349</ele>
        <time>2021-09-26T08:40:37.000Z</time>
      </trkpt>
      <trkpt lat="47.27659" lon="-2.26292">
        <ele>5.8000001907349</ele>
        <time>2021-09-26T08:40:41.000Z</time>
      </trkpt>
      <trkpt lat="47.27651" lon="-2.26259">
        <ele>5.8000001907349</ele>
        <time>2021-09-26T08:40:47.000Z</time>
      </trkpt>
      <trkpt lat="47.27644" lon="-2.26242">
        <ele>5.8000001907349</ele>
        <time>2021-09-26T08:40:52.000Z</time>
      </trkpt>
      <trkpt lat="47.27632" lon="-2.26217">
        <ele>5.8000001907349</ele>
        <time>2021-09-26T08:40:58.000Z</time>
      </trkpt>
      <trkpt lat="47.27626" lon="-2.26191">
        <ele>5.8000001907349</ele>
        <time>2021-09-26T08:41:03.000Z</time>
      </trkpt>
      <trkpt lat="47.27623" lon="-2.2618">
        <ele>5.8000001907349</ele>
        <time>2021-09-26T08:41:06.000Z</time>
      </trkpt>
      <trkpt lat="47.27624" lon="-2.26177">
        <ele>5.8000001907349</ele>
        <time>2021-09-26T08:41:07.000Z</time>
      </trkpt>
      <trkpt lat="47.27636" lon="-2.26171">
        <ele>5.8000001907349</ele>
        <time>2021-09-26T08:41:11.000Z</time>
      </trkpt>
      <trkpt lat="47.27639" lon="-2.26169">
        <ele>5.8000001907349</ele>
        <time>2021-09-26T08:41:12.000Z</time>
      </trkpt>
      <trkpt lat="47.27657" lon="-2.26156">
        <ele>5.8000001907349</ele>
        <time>2021-09-26T08:41:17.000Z</time>
      </trkpt>
      <trkpt lat="47.27668" lon="-2.26142">
        <ele>5.8000001907349</ele>
        <time>2021-09-26T08:41:20.000Z</time>
      </trkpt>
      <trkpt lat="47.27674" lon="-2.26131">
        <ele>5.8000001907349</ele>
        <time>2021-09-26T08:41:22.000Z</time>
      </trkpt>
      <trkpt lat="47.27681" lon="-2.26121">
        <ele>5.8000001907349</ele>
        <time>2021-09-26T08:41:24.000Z</time>
      </trkpt>
      <trkpt lat="47.27695" lon="-2.26108">
        <ele>5.8000001907349</ele>
        <time>2021-09-26T08:41:27.000Z</time>
      </trkpt>
      <trkpt lat="47.27709" lon="-2.26096">
        <ele>5.8000001907349</ele>
        <time>2021-09-26T08:41:30.000Z</time>
      </trkpt>
      <trkpt lat="47.27716" lon="-2.2609">
        <ele>5.8000001907349</ele>
        <time>2021-09-26T08:41:32.000Z</time>
      </trkpt>
      <trkpt lat="47.27721" lon="-2.26089">
        <ele>5.8000001907349</ele>
        <time>2021-09-26T08:41:33.000Z</time>
      </trkpt>
      <trkpt lat="47.27756" lon="-2.26089">
        <ele>5.8000001907349</ele>
        <time>2021-09-26T08:41:40.000Z</time>
      </trkpt>
      <trkpt lat="47.27766" lon="-2.26092">
        <ele>5.8000001907349</ele>
        <time>2021-09-26T08:41:44.000Z</time>
      </trkpt>
      <trkpt lat="47.27782" lon="-2.26098">
        <ele>5.8000001907349</ele>
        <time>2021-09-26T08:41:50.000Z</time>
      </trkpt>
      <trkpt lat="47.27782" lon="-2.26098">
        <ele>5.8000001907349</ele>
        <time>2021-09-26T08:41:51.000Z</time>
      </trkpt>
      <trkpt lat="47.2778" lon="-2.26097">
        <ele>5.8000001907349</ele>
        <time>2021-09-26T08:46:22.000Z</time>
      </trkpt>
      <trkpt lat="47.2778" lon="-2.26097">
        <ele>5.8000001907349</ele>
        <time>2021-09-26T08:46:23.000Z</time>
      </trkpt>
      <trkpt lat="47.27778" lon="-2.26098">
        <ele>5.8000001907349</ele>
        <time>2021-09-26T08:46:26.000Z</time>
      </trkpt>
      <trkpt lat="47.27774" lon="-2.26089">
        <ele>3.5999999046326</ele>
        <time>2021-09-26T08:56:28.000Z</time>
      </trkpt>
      <trkpt lat="47.27774" lon="-2.26087">
        <ele>3.5999999046326</ele>
        <time>2021-09-26T08:56:29.000Z</time>
      </trkpt>
      <trkpt lat="47.27774" lon="-2.26079">
        <ele>3.5999999046326</ele>
        <time>2021-09-26T08:56:32.000Z</time>
      </trkpt>
      <trkpt lat="47.27776" lon="-2.26071">
        <ele>3.5999999046326</ele>
        <time>2021-09-26T08:56:34.000Z</time>
      </trkpt>
      <trkpt lat="47.27789" lon="-2.26044">
        <ele>3.5999999046326</ele>
        <time>2021-09-26T08:56:40.000Z</time>
      </trkpt>
      <trkpt lat="47.27798" lon="-2.26004">
        <ele>3.5999999046326</ele>
        <time>2021-09-26T08:56:48.000Z</time>
      </trkpt>
      <trkpt lat="47.27797" lon="-2.25983">
        <ele>3.5999999046326</ele>
        <time>2021-09-26T08:56:55.000Z</time>
      </trkpt>
      <trkpt lat="47.27794" lon="-2.25959">
        <ele>3.5999999046326</ele>
        <time>2021-09-26T08:57:02.000Z</time>
      </trkpt>
      <trkpt lat="47.27786" lon="-2.25932">
        <ele>3.5999999046326</ele>
        <time>2021-09-26T08:57:10.000Z</time>
      </trkpt>
      <trkpt lat="47.27778" lon="-2.25916">
        <ele>3.5999999046326</ele>
        <time>2021-09-26T08:57:15.000Z</time>
      </trkpt>
      <trkpt lat="47.27766" lon="-2.259">
        <ele>3.5999999046326</ele>
        <time>2021-09-26T08:57:21.000Z</time>
      </trkpt>
      <trkpt lat="47.27756" lon="-2.25875">
        <ele>3.5999999046326</ele>
        <time>2021-09-26T08:57:29.000Z</time>
      </trkpt>
      <trkpt lat="47.27748" lon="-2.25863">
        <ele>3.5999999046326</ele>
        <time>2021-09-26T08:57:33.000Z</time>
      </trkpt>
      <trkpt lat="47.27746" lon="-2.25862">
        <ele>3.5999999046326</ele>
        <time>2021-09-26T08:57:34.000Z</time>
      </trkpt>
      <trkpt lat="47.27725" lon="-2.25858">
        <ele>3.5999999046326</ele>
        <time>2021-09-26T08:57:41.000Z</time>
      </trkpt>
      <trkpt lat="47.27703" lon="-2.25849">
        <ele>3.5999999046326</ele>
        <time>2021-09-26T08:57:48.000Z</time>
      </trkpt>
      <trkpt lat="47.2769" lon="-2.25839">
        <ele>3.5999999046326</ele>
        <time>2021-09-26T08:57:54.000Z</time>
      </trkpt>
      <trkpt lat="47.27689" lon="-2.25836">
        <ele>3.5999999046326</ele>
        <time>2021-09-26T08:57:55.000Z</time>
      </trkpt>
      <trkpt lat="47.27686" lon="-2.25824">
        <ele>3.5999999046326</ele>
        <time>2021-09-26T08:57:58.000Z</time>
      </trkpt>
      <trkpt lat="47.2768" lon="-2.25802">
        <ele>3.5999999046326</ele>
        <time>2021-09-26T08:58:04.000Z</time>
      </trkpt>
      <trkpt lat="47.27678" lon="-2.25793">
        <ele>3.5999999046326</ele>
        <time>2021-09-26T08:58:10.000Z</time>
      </trkpt>
      <trkpt lat="47.2768" lon="-2.25791">
        <ele>3.5999999046326</ele>
        <time>2021-09-26T08:58:12.000Z</time>
      </trkpt>
      <trkpt lat="47.27685" lon="-2.2579">
        <ele>3.5999999046326</ele>
        <time>2021-09-26T08:58:15.000Z</time>
      </trkpt>
      <trkpt lat="47.27686" lon="-2.25781">
        <ele>3.5999999046326</ele>
        <time>2021-09-26T08:58:19.000Z</time>
      </trkpt>
      <trkpt lat="47.27676" lon="-2.25771">
        <ele>3.5999999046326</ele>
        <time>2021-09-26T08:58:24.000Z</time>
      </trkpt>
      <trkpt lat="47.27671" lon="-2.25763">
        <ele>3.5999999046326</ele>
        <time>2021-09-26T08:58:26.000Z</time>
      </trkpt>
      <trkpt lat="47.27666" lon="-2.25749">
        <ele>3.5999999046326</ele>
        <time>2021-09-26T08:58:29.000Z</time>
      </trkpt>
      <trkpt lat="47.27658" lon="-2.25711">
        <ele>3.5999999046326</ele>
        <time>2021-09-26T08:58:35.000Z</time>
      </trkpt>
      <trkpt lat="47.27654" lon="-2.25674">
        <ele>3.5999999046326</ele>
        <time>2021-09-26T08:58:41.000Z</time>
      </trkpt>
      <trkpt lat="47.2765" lon="-2.25654">
        <ele>3.5999999046326</ele>
        <time>2021-09-26T08:58:44.000Z</time>
      </trkpt>
      <trkpt lat="47.27647" lon="-2.2565">
        <ele>3.5999999046326</ele>
        <time>2021-09-26T08:58:45.000Z</time>
      </trkpt>
      <trkpt lat="47.27635" lon="-2.25648">
        <ele>3.5999999046326</ele>
        <time>2021-09-26T08:58:48.000Z</time>
      </trkpt>
      <trkpt lat="47.27631" lon="-2.25646">
        <ele>3.5999999046326</ele>
        <time>2021-09-26T08:58:49.000Z</time>
      </trkpt>
      <trkpt lat="47.27619" lon="-2.25638">
        <ele>3.5999999046326</ele>
        <time>2021-09-26T08:58:52.000Z</time>
      </trkpt>
      <trkpt lat="47.27616" lon="-2.25634">
        <ele>3.5999999046326</ele>
        <time>2021-09-26T08:58:53.000Z</time>
      </trkpt>
      <trkpt lat="47.27605" lon="-2.25621">
        <ele>3.5999999046326</ele>
        <time>2021-09-26T08:58:56.000Z</time>
      </trkpt>
      <trkpt lat="47.27594" lon="-2.25612">
        <ele>3.5999999046326</ele>
        <time>2021-09-26T08:58:59.000Z</time>
      </trkpt>
      <trkpt lat="47.27586" lon="-2.25608">
        <ele>3.5999999046326</ele>
        <time>2021-09-26T08:59:01.000Z</time>
      </trkpt>
      <trkpt lat="47.27572" lon="-2.25608">
        <ele>3.5999999046326</ele>
        <time>2021-09-26T08:59:04.000Z</time>
      </trkpt>
      <trkpt lat="47.27566" lon="-2.25604">
        <ele>3.5999999046326</ele>
        <time>2021-09-26T08:59:06.000Z</time>
      </trkpt>
      <trkpt lat="47.27564" lon="-2.256">
        <ele>3.5999999046326</ele>
        <time>2021-09-26T08:59:07.000Z</time>
      </trkpt>
      <trkpt lat="47.2756" lon="-2.25566">
        <ele>3.5999999046326</ele>
        <time>2021-09-26T08:59:12.000Z</time>
      </trkpt>
      <trkpt lat="47.27554" lon="-2.25537">
        <ele>3.5999999046326</ele>
        <time>2021-09-26T08:59:16.000Z</time>
      </trkpt>
      <trkpt lat="47.2755" lon="-2.25524">
        <ele>3.5999999046326</ele>
        <time>2021-09-26T08:59:18.000Z</time>
      </trkpt>
      <trkpt lat="47.27546" lon="-2.25512">
        <ele>3.5999999046326</ele>
        <time>2021-09-26T08:59:20.000Z</time>
      </trkpt>
      <trkpt lat="47.27544" lon="-2.25505">
        <ele>3.5999999046326</ele>
        <time>2021-09-26T08:59:21.000Z</time>
      </trkpt>
      <trkpt lat="47.27539" lon="-2.25495">
        <ele>3.5999999046326</ele>
        <time>2021-09-26T08:59:23.000Z</time>
      </trkpt>
      <trkpt lat="47.27521" lon="-2.25469">
        <ele>3.5999999046326</ele>
        <time>2021-09-26T08:59:28.000Z</time>
      </trkpt>
      <trkpt lat="47.27517" lon="-2.25465">
        <ele>3.5999999046326</ele>
        <time>2021-09-26T08:59:29.000Z</time>
      </trkpt>
      <trkpt lat="47.27504" lon="-2.25455">
        <ele>3.5999999046326</ele>
        <time>2021-09-26T08:59:32.000Z</time>
      </trkpt>
      <trkpt lat="47.275" lon="-2.25452">
        <ele>3.5999999046326</ele>
        <time>2021-09-26T08:59:33.000Z</time>
      </trkpt>
      <trkpt lat="47.27495" lon="-2.25451">
        <ele>3.5999999046326</ele>
        <time>2021-09-26T08:59:34.000Z</time>
      </trkpt>
      <trkpt lat="47.27478" lon="-2.25451">
        <ele>3.5999999046326</ele>
        <time>2021-09-26T08:59:37.000Z</time>
      </trkpt>
      <trkpt lat="47.27473" lon="-2.25451">
        <ele>3.5999999046326</ele>
        <time>2021-09-26T08:59:38.000Z</time>
      </trkpt>
      <trkpt lat="47.27467" lon="-2.25451">
        <ele>3.5999999046326</ele>
        <time>2021-09-26T08:59:39.000Z</time>
      </trkpt>
      <trkpt lat="47.27451" lon="-2.25445">
        <ele>3.5999999046326</ele>
        <time>2021-09-26T08:59:42.000Z</time>
      </trkpt>
      <trkpt lat="47.27446" lon="-2.25442">
        <ele>3.5999999046326</ele>
        <time>2021-09-26T08:59:43.000Z</time>
      </trkpt>
      <trkpt lat="47.2743" lon="-2.25426">
        <ele>3.5999999046326</ele>
        <time>2021-09-26T08:59:47.000Z</time>
      </trkpt>
      <trkpt lat="47.27426" lon="-2.25422">
        <ele>3.5999999046326</ele>
        <time>2021-09-26T08:59:48.000Z</time>
      </trkpt>
      <trkpt lat="47.27415" lon="-2.25405">
        <ele>3.5999999046326</ele>
        <time>2021-09-26T08:59:52.000Z</time>
      </trkpt>
      <trkpt lat="47.27404" lon="-2.25383">
        <ele>4</ele>
        <time>2021-09-26T08:59:58.000Z</time>
      </trkpt>
      <trkpt lat="47.27403" lon="-2.25379">
        <ele>4.5999999046326</ele>
        <time>2021-09-26T08:59:59.000Z</time>
      </trkpt>
      <trkpt lat="47.27401" lon="-2.25375">
        <ele>5</ele>
        <time>2021-09-26T09:00:00.000Z</time>
      </trkpt>
      <trkpt lat="47.274" lon="-2.25371">
        <ele>5.4000000953674</ele>
        <time>2021-09-26T09:00:01.000Z</time>
      </trkpt>
      <trkpt lat="47.27399" lon="-2.25367">
        <ele>5.8000001907349</ele>
        <time>2021-09-26T09:00:02.000Z</time>
      </trkpt>
      <trkpt lat="47.27398" lon="-2.25359">
        <ele>5.8000001907349</ele>
        <time>2021-09-26T09:00:04.000Z</time>
      </trkpt>
      <trkpt lat="47.27394" lon="-2.25334">
        <ele>5.8000001907349</ele>
        <time>2021-09-26T09:00:09.000Z</time>
      </trkpt>
      <trkpt lat="47.27393" lon="-2.25324">
        <ele>5.8000001907349</ele>
        <time>2021-09-26T09:00:11.000Z</time>
      </trkpt>
      <trkpt lat="47.27393" lon="-2.25315">
        <ele>5.8000001907349</ele>
        <time>2021-09-26T09:00:13.000Z</time>
      </trkpt>
      <trkpt lat="47.27399" lon="-2.25287">
        <ele>5.8000001907349</ele>
        <time>2021-09-26T09:00:18.000Z</time>
      </trkpt>
      <trkpt lat="47.27397" lon="-2.25258">
        <ele>5.8000001907349</ele>
        <time>2021-09-26T09:00:24.000Z</time>
      </trkpt>
      <trkpt lat="47.27398" lon="-2.25228">
        <ele>5.4000000953674</ele>
        <time>2021-09-26T09:00:28.000Z</time>
      </trkpt>
      <trkpt lat="47.27398" lon="-2.2522">
        <ele>5</ele>
        <time>2021-09-26T09:00:29.000Z</time>
      </trkpt>
      <trkpt lat="47.27397" lon="-2.25212">
        <ele>4.4000000953674</ele>
        <time>2021-09-26T09:00:30.000Z</time>
      </trkpt>
      <trkpt lat="47.27396" lon="-2.25204">
        <ele>4</ele>
        <time>2021-09-26T09:00:31.000Z</time>
      </trkpt>
      <trkpt lat="47.27394" lon="-2.25197">
        <ele>3.5999999046326</ele>
        <time>2021-09-26T09:00:32.000Z</time>
      </trkpt>
      <trkpt lat="47.27379" lon="-2.25154">
        <ele>3.5999999046326</ele>
        <time>2021-09-26T09:00:38.000Z</time>
      </trkpt>
      <trkpt lat="47.27355" lon="-2.25097">
        <ele>3.5999999046326</ele>
        <time>2021-09-26T09:00:46.000Z</time>
      </trkpt>
      <trkpt lat="47.27346" lon="-2.25068">
        <ele>3.5999999046326</ele>
        <time>2021-09-26T09:00:50.000Z</time>
      </trkpt>
      <trkpt lat="47.27342" lon="-2.25053">
        <ele>3.5999999046326</ele>
        <time>2021-09-26T09:00:52.000Z</time>
      </trkpt>
      <trkpt lat="47.27332" lon="-2.25013">
        <ele>3.5999999046326</ele>
        <time>2021-09-26T09:00:58.000Z</time>
      </trkpt>
      <trkpt lat="47.27334" lon="-2.24991">
        <ele>3.5999999046326</ele>
        <time>2021-09-26T09:01:02.000Z</time>
      </trkpt>
      <trkpt lat="47.27344" lon="-2.24966">
        <ele>3.5999999046326</ele>
        <time>2021-09-26T09:01:08.000Z</time>
      </trkpt>
      <trkpt lat="47.27352" lon="-2.24957">
        <ele>3.5999999046326</ele>
        <time>2021-09-26T09:01:14.000Z</time>
      </trkpt>
      <trkpt lat="47.27361" lon="-2.24946">
        <ele>3.5999999046326</ele>
        <time>2021-09-26T09:01:21.000Z</time>
      </trkpt>
      <trkpt lat="47.27376" lon="-2.24924">
        <ele>3.5999999046326</ele>
        <time>2021-09-26T09:01:30.000Z</time>
      </trkpt>
      <trkpt lat="47.27388" lon="-2.24905">
        <ele>3.5999999046326</ele>
        <time>2021-09-26T09:01:37.000Z</time>
      </trkpt>
      <trkpt lat="47.27396" lon="-2.24891">
        <ele>3.5999999046326</ele>
        <time>2021-09-26T09:01:43.000Z</time>
      </trkpt>
      <trkpt lat="47.27401" lon="-2.24882">
        <ele>3.5999999046326</ele>
        <time>2021-09-26T09:01:46.000Z</time>
      </trkpt>
      <trkpt lat="47.27402" lon="-2.24878">
        <ele>3.5999999046326</ele>
        <time>2021-09-26T09:01:47.000Z</time>
      </trkpt>
      <trkpt lat="47.27419" lon="-2.24819">
        <ele>3.5999999046326</ele>
        <time>2021-09-26T09:01:59.000Z</time>
      </trkpt>
      <trkpt lat="47.27429" lon="-2.248">
        <ele>3.5999999046326</ele>
        <time>2021-09-26T09:02:02.000Z</time>
      </trkpt>
      <trkpt lat="47.27436" lon="-2.2479">
        <ele>3.5999999046326</ele>
        <time>2021-09-26T09:02:04.000Z</time>
      </trkpt>
      <trkpt lat="47.27441" lon="-2.24787">
        <ele>3.5999999046326</ele>
        <time>2021-09-26T09:02:05.000Z</time>
      </trkpt>
      <trkpt lat="47.27449" lon="-2.24782">
        <ele>4</ele>
        <time>2021-09-26T09:02:07.000Z</time>
      </trkpt>
      <trkpt lat="47.27454" lon="-2.24781">
        <ele>4.4000000953674</ele>
        <time>2021-09-26T09:02:08.000Z</time>
      </trkpt>
      <trkpt lat="47.27457" lon="-2.24781">
        <ele>4.8000001907349</ele>
        <time>2021-09-26T09:02:09.000Z</time>
      </trkpt>
      <trkpt lat="47.27461" lon="-2.24781">
        <ele>5.1999998092651</ele>
        <time>2021-09-26T09:02:10.000Z</time>
      </trkpt>
      <trkpt lat="47.27465" lon="-2.24781">
        <ele>5.5999999046326</ele>
        <time>2021-09-26T09:02:11.000Z</time>
      </trkpt>
      <trkpt lat="47.27473" lon="-2.24784">
        <ele>6</ele>
        <time>2021-09-26T09:02:13.000Z</time>
      </trkpt>
      <trkpt lat="47.27477" lon="-2.24784">
        <ele>6.5999999046326</ele>
        <time>2021-09-26T09:02:14.000Z</time>
      </trkpt>
      <trkpt lat="47.27482" lon="-2.24784">
        <ele>7</ele>
        <time>2021-09-26T09:02:15.000Z</time>
      </trkpt>
      <trkpt lat="47.27485" lon="-2.24784">
        <ele>7.5999999046326</ele>
        <time>2021-09-26T09:02:16.000Z</time>
      </trkpt>
      <trkpt lat="47.27489" lon="-2.24784">
        <ele>8</ele>
        <time>2021-09-26T09:02:17.000Z</time>
      </trkpt>
      <trkpt lat="47.27492" lon="-2.24785">
        <ele>8</ele>
        <time>2021-09-26T09:02:18.000Z</time>
      </trkpt>
      <trkpt lat="47.27504" lon="-2.24785">
        <ele>8.3999996185303</ele>
        <time>2021-09-26T09:02:21.000Z</time>
      </trkpt>
      <trkpt lat="47.27508" lon="-2.24785">
        <ele>9.1999998092651</ele>
        <time>2021-09-26T09:02:22.000Z</time>
      </trkpt>
      <trkpt lat="47.27512" lon="-2.24785">
        <ele>9.6000003814697</ele>
        <time>2021-09-26T09:02:23.000Z</time>
      </trkpt>
      <trkpt lat="47.27516" lon="-2.24786">
        <ele>10</ele>
        <time>2021-09-26T09:02:24.000Z</time>
      </trkpt>
      <trkpt lat="47.27525" lon="-2.24785">
        <ele>10</ele>
        <time>2021-09-26T09:02:26.000Z</time>
      </trkpt>
      <trkpt lat="47.27559" lon="-2.24787">
        <ele>10</ele>
        <time>2021-09-26T09:02:33.000Z</time>
      </trkpt>
      <trkpt lat="47.27579" lon="-2.24789">
        <ele>10</ele>
        <time>2021-09-26T09:02:37.000Z</time>
      </trkpt>
      <trkpt lat="47.27589" lon="-2.24791">
        <ele>10</ele>
        <time>2021-09-26T09:02:39.000Z</time>
      </trkpt>
      <trkpt lat="47.27606" lon="-2.24791">
        <ele>10.39999961853</ele>
        <time>2021-09-26T09:02:43.000Z</time>
      </trkpt>
      <trkpt lat="47.27611" lon="-2.24791">
        <ele>10.800000190735</ele>
        <time>2021-09-26T09:02:44.000Z</time>
      </trkpt>
      <trkpt lat="47.27615" lon="-2.24792">
        <ele>11.199999809265</ele>
        <time>2021-09-26T09:02:45.000Z</time>
      </trkpt>
      <trkpt lat="47.2762" lon="-2.24792">
        <ele>11.60000038147</ele>
        <time>2021-09-26T09:02:46.000Z</time>
      </trkpt>
      <trkpt lat="47.27624" lon="-2.24792">
        <ele>12.199999809265</ele>
        <time>2021-09-26T09:02:47.000Z</time>
      </trkpt>
      <trkpt lat="47.27646" lon="-2.24796">
        <ele>12.199999809265</ele>
        <time>2021-09-26T09:02:51.000Z</time>
      </trkpt>
      <trkpt lat="47.27652" lon="-2.248">
        <ele>12.199999809265</ele>
        <time>2021-09-26T09:02:52.000Z</time>
      </trkpt>
      <trkpt lat="47.27665" lon="-2.24806">
        <ele>12.199999809265</ele>
        <time>2021-09-26T09:02:54.000Z</time>
      </trkpt>
      <trkpt lat="47.27685" lon="-2.24805">
        <ele>12.199999809265</ele>
        <time>2021-09-26T09:02:57.000Z</time>
      </trkpt>
      <trkpt lat="47.27722" lon="-2.24803">
        <ele>12.199999809265</ele>
        <time>2021-09-26T09:03:03.000Z</time>
      </trkpt>
      <trkpt lat="47.27773" lon="-2.24802">
        <ele>12.199999809265</ele>
        <time>2021-09-26T09:03:12.000Z</time>
      </trkpt>
      <trkpt lat="47.27804" lon="-2.248">
        <ele>12.199999809265</ele>
        <time>2021-09-26T09:03:18.000Z</time>
      </trkpt>
      <trkpt lat="47.27814" lon="-2.24799">
        <ele>12.199999809265</ele>
        <time>2021-09-26T09:03:20.000Z</time>
      </trkpt>
      <trkpt lat="47.27846" lon="-2.24792">
        <ele>12.199999809265</ele>
        <time>2021-09-26T09:03:26.000Z</time>
      </trkpt>
      <trkpt lat="47.2785" lon="-2.24789">
        <ele>12.199999809265</ele>
        <time>2021-09-26T09:03:27.000Z</time>
      </trkpt>
      <trkpt lat="47.27858" lon="-2.24775">
        <ele>12.199999809265</ele>
        <time>2021-09-26T09:03:30.000Z</time>
      </trkpt>
      <trkpt lat="47.27862" lon="-2.2477">
        <ele>12.199999809265</ele>
        <time>2021-09-26T09:03:32.000Z</time>
      </trkpt>
      <trkpt lat="47.27865" lon="-2.2477">
        <ele>12.199999809265</ele>
        <time>2021-09-26T09:03:33.000Z</time>
      </trkpt>
      <trkpt lat="47.2787" lon="-2.24778">
        <ele>12.199999809265</ele>
        <time>2021-09-26T09:03:37.000Z</time>
      </trkpt>
      <trkpt lat="47.27877" lon="-2.24783">
        <ele>12.199999809265</ele>
        <time>2021-09-26T09:03:41.000Z</time>
      </trkpt>
      <trkpt lat="47.27879" lon="-2.24783">
        <ele>12.199999809265</ele>
        <time>2021-09-26T09:03:43.000Z</time>
      </trkpt>
      <trkpt lat="47.27883" lon="-2.24782">
        <ele>12.199999809265</ele>
        <time>2021-09-26T09:03:47.000Z</time>
      </trkpt>
      <trkpt lat="47.2789" lon="-2.24782">
        <ele>12.199999809265</ele>
        <time>2021-09-26T09:03:51.000Z</time>
      </trkpt>
      <trkpt lat="47.27891" lon="-2.24784">
        <ele>12.199999809265</ele>
        <time>2021-09-26T09:03:52.000Z</time>
      </trkpt>
      <trkpt lat="47.27895" lon="-2.24791">
        <ele>12.199999809265</ele>
        <time>2021-09-26T09:03:55.000Z</time>
      </trkpt>
      <trkpt lat="47.27897" lon="-2.24796">
        <ele>12.199999809265</ele>
        <time>2021-09-26T09:03:57.000Z</time>
      </trkpt>
      <trkpt lat="47.27903" lon="-2.24801">
        <ele>12.199999809265</ele>
        <time>2021-09-26T09:04:00.000Z</time>
      </trkpt>
      <trkpt lat="47.27908" lon="-2.24804">
        <ele>12.199999809265</ele>
        <time>2021-09-26T09:04:02.000Z</time>
      </trkpt>
      <trkpt lat="47.27919" lon="-2.2481">
        <ele>12.199999809265</ele>
        <time>2021-09-26T09:04:07.000Z</time>
      </trkpt>
      <trkpt lat="47.2792" lon="-2.24812">
        <ele>12.199999809265</ele>
        <time>2021-09-26T09:04:11.000Z</time>
      </trkpt>
      <trkpt lat="47.27922" lon="-2.24812">
        <ele>12.199999809265</ele>
        <time>2021-09-26T09:04:18.000Z</time>
      </trkpt>
      <trkpt lat="47.27936" lon="-2.24814">
        <ele>12.199999809265</ele>
        <time>2021-09-26T09:04:23.000Z</time>
      </trkpt>
      <trkpt lat="47.27955" lon="-2.2482">
        <ele>12.199999809265</ele>
        <time>2021-09-26T09:04:29.000Z</time>
      </trkpt>
      <trkpt lat="47.27959" lon="-2.24821">
        <ele>12.199999809265</ele>
        <time>2021-09-26T09:04:30.000Z</time>
      </trkpt>
      <trkpt lat="47.27963" lon="-2.24822">
        <ele>12.60000038147</ele>
        <time>2021-09-26T09:04:31.000Z</time>
      </trkpt>
      <trkpt lat="47.27968" lon="-2.24823">
        <ele>13</ele>
        <time>2021-09-26T09:04:32.000Z</time>
      </trkpt>
      <trkpt lat="47.27972" lon="-2.24825">
        <ele>13.39999961853</ele>
        <time>2021-09-26T09:04:33.000Z</time>
      </trkpt>
      <trkpt lat="47.27977" lon="-2.24826">
        <ele>13.800000190735</ele>
        <time>2021-09-26T09:04:34.000Z</time>
      </trkpt>
      <trkpt lat="47.27981" lon="-2.24828">
        <ele>14.199999809265</ele>
        <time>2021-09-26T09:04:35.000Z</time>
      </trkpt>
      <trkpt lat="47.28013" lon="-2.24834">
        <ele>14.199999809265</ele>
        <time>2021-09-26T09:04:42.000Z</time>
      </trkpt>
      <trkpt lat="47.28027" lon="-2.24835">
        <ele>14.199999809265</ele>
        <time>2021-09-26T09:04:45.000Z</time>
      </trkpt>
      <trkpt lat="47.28041" lon="-2.24839">
        <ele>14.199999809265</ele>
        <time>2021-09-26T09:04:48.000Z</time>
      </trkpt>
      <trkpt lat="47.28045" lon="-2.24839">
        <ele>14.199999809265</ele>
        <time>2021-09-26T09:04:49.000Z</time>
      </trkpt>
      <trkpt lat="47.28059" lon="-2.24842">
        <ele>14.199999809265</ele>
        <time>2021-09-26T09:04:52.000Z</time>
      </trkpt>
      <trkpt lat="47.28068" lon="-2.24844">
        <ele>14.199999809265</ele>
        <time>2021-09-26T09:04:54.000Z</time>
      </trkpt>
      <trkpt lat="47.28084" lon="-2.24843">
        <ele>14.199999809265</ele>
        <time>2021-09-26T09:04:57.000Z</time>
      </trkpt>
      <trkpt lat="47.2809" lon="-2.24844">
        <ele>14.199999809265</ele>
        <time>2021-09-26T09:04:58.000Z</time>
      </trkpt>
      <trkpt lat="47.28096" lon="-2.24845">
        <ele>14.199999809265</ele>
        <time>2021-09-26T09:04:59.000Z</time>
      </trkpt>
      <trkpt lat="47.28113" lon="-2.24852">
        <ele>14.199999809265</ele>
        <time>2021-09-26T09:05:02.000Z</time>
      </trkpt>
      <trkpt lat="47.28119" lon="-2.24854">
        <ele>14.199999809265</ele>
        <time>2021-09-26T09:05:03.000Z</time>
      </trkpt>
      <trkpt lat="47.28126" lon="-2.24855">
        <ele>14.199999809265</ele>
        <time>2021-09-26T09:05:04.000Z</time>
      </trkpt>
      <trkpt lat="47.28145" lon="-2.24857">
        <ele>13.60000038147</ele>
        <time>2021-09-26T09:05:07.000Z</time>
      </trkpt>
      <trkpt lat="47.2815" lon="-2.24855">
        <ele>13.199999809265</ele>
        <time>2021-09-26T09:05:08.000Z</time>
      </trkpt>
      <trkpt lat="47.28154" lon="-2.24854">
        <ele>12.60000038147</ele>
        <time>2021-09-26T09:05:09.000Z</time>
      </trkpt>
      <trkpt lat="47.28158" lon="-2.24851">
        <ele>12</ele>
        <time>2021-09-26T09:05:10.000Z</time>
      </trkpt>
      <trkpt lat="47.28161" lon="-2.24847">
        <ele>11.60000038147</ele>
        <time>2021-09-26T09:05:11.000Z</time>
      </trkpt>
      <trkpt lat="47.28163" lon="-2.24842">
        <ele>11.199999809265</ele>
        <time>2021-09-26T09:05:12.000Z</time>
      </trkpt>
      <trkpt lat="47.28165" lon="-2.24837">
        <ele>10.60000038147</ele>
        <time>2021-09-26T09:05:13.000Z</time>
      </trkpt>
      <trkpt lat="47.28167" lon="-2.24832">
        <ele>10.199999809265</ele>
        <time>2021-09-26T09:05:14.000Z</time>
      </trkpt>
      <trkpt lat="47.28168" lon="-2.24827">
        <ele>9.3999996185303</ele>
        <time>2021-09-26T09:05:15.000Z</time>
      </trkpt>
      <trkpt lat="47.28171" lon="-2.24814">
        <ele>9.3999996185303</ele>
        <time>2021-09-26T09:05:19.000Z</time>
      </trkpt>
      <trkpt lat="47.28181" lon="-2.2481">
        <ele>9.3999996185303</ele>
        <time>2021-09-26T09:05:23.000Z</time>
      </trkpt>
      <trkpt lat="47.28192" lon="-2.24809">
        <ele>9</ele>
        <time>2021-09-26T09:05:25.000Z</time>
      </trkpt>
      <trkpt lat="47.28199" lon="-2.24809">
        <ele>8.3999996185303</ele>
        <time>2021-09-26T09:05:26.000Z</time>
      </trkpt>
      <trkpt lat="47.28206" lon="-2.2481">
        <ele>8</ele>
        <time>2021-09-26T09:05:27.000Z</time>
      </trkpt>
      <trkpt lat="47.28214" lon="-2.2481">
        <ele>7.5999999046326</ele>
        <time>2021-09-26T09:05:28.000Z</time>
      </trkpt>
      <trkpt lat="47.28221" lon="-2.24811">
        <ele>7</ele>
        <time>2021-09-26T09:05:29.000Z</time>
      </trkpt>
      <trkpt lat="47.28228" lon="-2.24811">
        <ele>6.4000000953674</ele>
        <time>2021-09-26T09:05:30.000Z</time>
      </trkpt>
      <trkpt lat="47.28236" lon="-2.24811">
        <ele>5.8000001907349</ele>
        <time>2021-09-26T09:05:31.000Z</time>
      </trkpt>
      <trkpt lat="47.28243" lon="-2.24809">
        <ele>5.1999998092651</ele>
        <time>2021-09-26T09:05:32.000Z</time>
      </trkpt>
      <trkpt lat="47.2825" lon="-2.24807">
        <ele>4.5999999046326</ele>
        <time>2021-09-26T09:05:33.000Z</time>
      </trkpt>
      <trkpt lat="47.28255" lon="-2.24805">
        <ele>3.7999999523163</ele>
        <time>2021-09-26T09:05:34.000Z</time>
      </trkpt>
      <trkpt lat="47.2826" lon="-2.24802">
        <ele>3.2000000476837</ele>
        <time>2021-09-26T09:05:35.000Z</time>
      </trkpt>
      <trkpt lat="47.28264" lon="-2.24799">
        <ele>2.5999999046326</ele>
        <time>2021-09-26T09:05:36.000Z</time>
      </trkpt>
      <trkpt lat="47.2828" lon="-2.2479">
        <ele>1.6000000238419</ele>
        <time>2021-09-26T09:05:40.000Z</time>
      </trkpt>
      <trkpt lat="47.28285" lon="-2.24787">
        <ele>1.2000000476837</ele>
        <time>2021-09-26T09:05:41.000Z</time>
      </trkpt>
      <trkpt lat="47.2829" lon="-2.24784">
        <ele>0.80000001192093</ele>
        <time>2021-09-26T09:05:42.000Z</time>
      </trkpt>
      <trkpt lat="47.28295" lon="-2.2478">
        <ele>0.40000000596046</ele>
        <time>2021-09-26T09:05:43.000Z</time>
      </trkpt>
      <trkpt lat="47.28328" lon="-2.24762">
        <ele>0.40000000596046</ele>
        <time>2021-09-26T09:05:49.000Z</time>
      </trkpt>
      <trkpt lat="47.2834" lon="-2.24758">
        <ele>9.6</ele>
        <time>2021-09-26T09:05:51.000Z</time>
      </trkpt>
      <trkpt lat="47.28345" lon="-2.24757">
        <ele>-0.40000000596046</ele>
        <time>2021-09-26T09:05:52.000Z</time>
      </trkpt>
      <trkpt lat="47.28349" lon="-2.24754">
        <ele>-0.80000001192093</ele>
        <time>2021-09-26T09:05:53.000Z</time>
      </trkpt>
      <trkpt lat="47.28352" lon="-2.24751">
        <ele>-1.2000000476837</ele>
        <time>2021-09-26T09:05:54.000Z</time>
      </trkpt>
      <trkpt lat="47.28354" lon="-2.24748">
        <ele>-1.6000000238419</ele>
        <time>2021-09-26T09:05:55.000Z</time>
      </trkpt>
      <trkpt lat="47.28361" lon="-2.24743">
        <ele>-1.6000000238419</ele>
        <time>2021-09-26T09:05:58.000Z</time>
      </trkpt>
      <trkpt lat="47.28365" lon="-2.24752">
        <ele>-1.6000000238419</ele>
        <time>2021-09-26T09:06:01.000Z</time>
      </trkpt>
      <trkpt lat="47.28366" lon="-2.24756">
        <ele>-1.6000000238419</ele>
        <time>2021-09-26T09:06:02.000Z</time>
      </trkpt>
      <trkpt lat="47.28365" lon="-2.24765">
        <ele>-2</ele>
        <time>2021-09-26T09:06:05.000Z</time>
      </trkpt>
      <trkpt lat="47.28366" lon="-2.24768">
        <ele>-2.4000000953674</ele>
        <time>2021-09-26T09:06:06.000Z</time>
      </trkpt>
      <trkpt lat="47.28367" lon="-2.24769">
        <ele>-2.7999999523163</ele>
        <time>2021-09-26T09:06:07.000Z</time>
      </trkpt>
      <trkpt lat="47.28367" lon="-2.24771">
        <ele>-3.2000000476837</ele>
        <time>2021-09-26T09:06:08.000Z</time>
      </trkpt>
      <trkpt lat="47.28369" lon="-2.24773">
        <ele>-3.5999999046326</ele>
        <time>2021-09-26T09:06:09.000Z</time>
      </trkpt>
      <trkpt lat="47.28372" lon="-2.24774">
        <ele>-3.5999999046326</ele>
        <time>2021-09-26T09:06:10.000Z</time>
      </trkpt>
      <trkpt lat="47.28382" lon="-2.24772">
        <ele>-3.5999999046326</ele>
        <time>2021-09-26T09:06:14.000Z</time>
      </trkpt>
      <trkpt lat="47.28396" lon="-2.24767">
        <ele>-3.5999999046326</ele>
        <time>2021-09-26T09:06:18.000Z</time>
      </trkpt>
      <trkpt lat="47.284" lon="-2.24764">
        <ele>-3.5999999046326</ele>
        <time>2021-09-26T09:06:19.000Z</time>
      </trkpt>
      <trkpt lat="47.2841" lon="-2.24758">
        <ele>-3.5999999046326</ele>
        <time>2021-09-26T09:06:23.000Z</time>
      </trkpt>
      <trkpt lat="47.28428" lon="-2.24745">
        <ele>-3.5999999046326</ele>
        <time>2021-09-26T09:06:29.000Z</time>
      </trkpt>
      <trkpt lat="47.2845" lon="-2.2473">
        <ele>-3.5999999046326</ele>
        <time>2021-09-26T09:06:34.000Z</time>
      </trkpt>
      <trkpt lat="47.28455" lon="-2.24726">
        <ele>-3.5999999046326</ele>
        <time>2021-09-26T09:06:35.000Z</time>
      </trkpt>
      <trkpt lat="47.28488" lon="-2.24702">
        <ele>-3.5999999046326</ele>
        <time>2021-09-26T09:06:42.000Z</time>
      </trkpt>
      <trkpt lat="47.28493" lon="-2.24698">
        <ele>-4</ele>
        <time>2021-09-26T09:06:43.000Z</time>
      </trkpt>
      <trkpt lat="47.28498" lon="-2.24695">
        <ele>-4.5999999046326</ele>
        <time>2021-09-26T09:06:44.000Z</time>
      </trkpt>
      <trkpt lat="47.28502" lon="-2.24691">
        <ele>-5</ele>
        <time>2021-09-26T09:06:45.000Z</time>
      </trkpt>
      <trkpt lat="47.28506" lon="-2.24687">
        <ele>-5.4000000953674</ele>
        <time>2021-09-26T09:06:46.000Z</time>
      </trkpt>
      <trkpt lat="47.2851" lon="-2.24684">
        <ele>-5.8000001907349</ele>
        <time>2021-09-26T09:06:47.000Z</time>
      </trkpt>
      <trkpt lat="47.28519" lon="-2.24677">
        <ele>-5.8000001907349</ele>
        <time>2021-09-26T09:06:49.000Z</time>
      </trkpt>
      <trkpt lat="47.28534" lon="-2.24666">
        <ele>-5.8000001907349</ele>
        <time>2021-09-26T09:06:52.000Z</time>
      </trkpt>
      <trkpt lat="47.28548" lon="-2.24654">
        <ele>-5.8000001907349</ele>
        <time>2021-09-26T09:06:55.000Z</time>
      </trkpt>
      <trkpt lat="47.28566" lon="-2.24637">
        <ele>-5.8000001907349</ele>
        <time>2021-09-26T09:07:00.000Z</time>
      </trkpt>
      <trkpt lat="47.2857" lon="-2.24633">
        <ele>-5.8000001907349</ele>
        <time>2021-09-26T09:07:04.000Z</time>
      </trkpt>
      <trkpt lat="47.2858" lon="-2.24624">
        <ele>-5.8000001907349</ele>
        <time>2021-09-26T09:07:11.000Z</time>
      </trkpt>
      <trkpt lat="47.28591" lon="-2.24609">
        <ele>-5.8000001907349</ele>
        <time>2021-09-26T09:07:16.000Z</time>
      </trkpt>
      <trkpt lat="47.28604" lon="-2.24591">
        <ele>-5.8000001907349</ele>
        <time>2021-09-26T09:07:21.000Z</time>
      </trkpt>
      <trkpt lat="47.28609" lon="-2.24564">
        <ele>-5.8000001907349</ele>
        <time>2021-09-26T09:07:26.000Z</time>
      </trkpt>
      <trkpt lat="47.28619" lon="-2.2453">
        <ele>-5.8000001907349</ele>
        <time>2021-09-26T09:07:32.000Z</time>
      </trkpt>
      <trkpt lat="47.28623" lon="-2.24515">
        <ele>-5.8000001907349</ele>
        <time>2021-09-26T09:07:34.000Z</time>
      </trkpt>
      <trkpt lat="47.2863" lon="-2.24489">
        <ele>-5.8000001907349</ele>
        <time>2021-09-26T09:07:37.000Z</time>
      </trkpt>
      <trkpt lat="47.2864" lon="-2.24445">
        <ele>-5.8000001907349</ele>
        <time>2021-09-26T09:07:43.000Z</time>
      </trkpt>
      <trkpt lat="47.28652" lon="-2.24393">
        <ele>-5.8000001907349</ele>
        <time>2021-09-26T09:07:50.000Z</time>
      </trkpt>
      <trkpt lat="47.28666" lon="-2.24338">
        <ele>-5.8000001907349</ele>
        <time>2021-09-26T09:07:58.000Z</time>
      </trkpt>
      <trkpt lat="47.28679" lon="-2.24289">
        <ele>-5.8000001907349</ele>
        <time>2021-09-26T09:08:06.000Z</time>
      </trkpt>
      <trkpt lat="47.28685" lon="-2.24255">
        <ele>-5.8000001907349</ele>
        <time>2021-09-26T09:08:11.000Z</time>
      </trkpt>
      <trkpt lat="47.28682" lon="-2.24217">
        <ele>-5.8000001907349</ele>
        <time>2021-09-26T09:08:16.000Z</time>
      </trkpt>
      <trkpt lat="47.28677" lon="-2.24167">
        <ele>-5.8000001907349</ele>
        <time>2021-09-26T09:08:24.000Z</time>
      </trkpt>
      <trkpt lat="47.28673" lon="-2.24122">
        <ele>-5.8000001907349</ele>
        <time>2021-09-26T09:08:30.000Z</time>
      </trkpt>
      <trkpt lat="47.28668" lon="-2.24064">
        <ele>-5.8000001907349</ele>
        <time>2021-09-26T09:08:37.000Z</time>
      </trkpt>
      <trkpt lat="47.28664" lon="-2.24011">
        <ele>-5.8000001907349</ele>
        <time>2021-09-26T09:08:43.000Z</time>
      </trkpt>
      <trkpt lat="47.2866" lon="-2.23966">
        <ele>-5.8000001907349</ele>
        <time>2021-09-26T09:08:48.000Z</time>
      </trkpt>
      <trkpt lat="47.28659" lon="-2.23958">
        <ele>-5.8000001907349</ele>
        <time>2021-09-26T09:08:49.000Z</time>
      </trkpt>
      <trkpt lat="47.28649" lon="-2.23893">
        <ele>-5.8000001907349</ele>
        <time>2021-09-26T09:08:57.000Z</time>
      </trkpt>
      <trkpt lat="47.28646" lon="-2.23877">
        <ele>-5.8000001907349</ele>
        <time>2021-09-26T09:08:59.000Z</time>
      </trkpt>
      <trkpt lat="47.28644" lon="-2.23854">
        <ele>-5.8000001907349</ele>
        <time>2021-09-26T09:09:02.000Z</time>
      </trkpt>
      <trkpt lat="47.28637" lon="-2.238">
        <ele>-5.8000001907349</ele>
        <time>2021-09-26T09:09:09.000Z</time>
      </trkpt>
      <trkpt lat="47.2863" lon="-2.23738">
        <ele>-5.8000001907349</ele>
        <time>2021-09-26T09:09:17.000Z</time>
      </trkpt>
      <trkpt lat="47.28629" lon="-2.2373">
        <ele>-5.8000001907349</ele>
        <time>2021-09-26T09:09:18.000Z</time>
      </trkpt>
      <trkpt lat="47.28626" lon="-2.23697">
        <ele>-5.8000001907349</ele>
        <time>2021-09-26T09:09:22.000Z</time>
      </trkpt>
      <trkpt lat="47.28623" lon="-2.23634">
        <ele>-5.8000001907349</ele>
        <time>2021-09-26T09:09:30.000Z</time>
      </trkpt>
      <trkpt lat="47.28624" lon="-2.23593">
        <ele>-5.8000001907349</ele>
        <time>2021-09-26T09:09:36.000Z</time>
      </trkpt>
      <trkpt lat="47.28631" lon="-2.23563">
        <ele>-5.8000001907349</ele>
        <time>2021-09-26T09:09:42.000Z</time>
      </trkpt>
      <trkpt lat="47.28643" lon="-2.23559">
        <ele>-5.8000001907349</ele>
        <time>2021-09-26T09:09:45.000Z</time>
      </trkpt>
      <trkpt lat="47.28646" lon="-2.23554">
        <ele>-5.8000001907349</ele>
        <time>2021-09-26T09:09:46.000Z</time>
      </trkpt>
      <trkpt lat="47.28649" lon="-2.23543">
        <ele>-5.8000001907349</ele>
        <time>2021-09-26T09:09:48.000Z</time>
      </trkpt>
      <trkpt lat="47.2865" lon="-2.23527">
        <ele>-5.8000001907349</ele>
        <time>2021-09-26T09:09:51.000Z</time>
      </trkpt>
      <trkpt lat="47.2865" lon="-2.23521">
        <ele>-5.8000001907349</ele>
        <time>2021-09-26T09:09:52.000Z</time>
      </trkpt>
      <trkpt lat="47.28654" lon="-2.23494">
        <ele>-5.8000001907349</ele>
        <time>2021-09-26T09:09:57.000Z</time>
      </trkpt>
      <trkpt lat="47.28654" lon="-2.23488">
        <ele>-5.8000001907349</ele>
        <time>2021-09-26T09:09:58.000Z</time>
      </trkpt>
      <trkpt lat="47.28656" lon="-2.23458">
        <ele>-5.8000001907349</ele>
        <time>2021-09-26T09:10:03.000Z</time>
      </trkpt>
      <trkpt lat="47.28649" lon="-2.23431">
        <ele>-5.8000001907349</ele>
        <time>2021-09-26T09:10:08.000Z</time>
      </trkpt>
      <trkpt lat="47.28644" lon="-2.23391">
        <ele>-5.8000001907349</ele>
        <time>2021-09-26T09:10:14.000Z</time>
      </trkpt>
      <trkpt lat="47.28649" lon="-2.23367">
        <ele>-6.1999998092651</ele>
        <time>2021-09-26T09:10:18.000Z</time>
      </trkpt>
      <trkpt lat="47.28651" lon="-2.23363">
        <ele>-6.5999999046326</ele>
        <time>2021-09-26T09:10:19.000Z</time>
      </trkpt>
      <trkpt lat="47.28653" lon="-2.23361">
        <ele>-7</ele>
        <time>2021-09-26T09:10:20.000Z</time>
      </trkpt>
      <trkpt lat="47.28655" lon="-2.2336">
        <ele>-7.4000000953674</ele>
        <time>2021-09-26T09:10:21.000Z</time>
      </trkpt>
      <trkpt lat="47.28656" lon="-2.23361">
        <ele>-7.8000001907349</ele>
        <time>2021-09-26T09:10:22.000Z</time>
      </trkpt>
      <trkpt lat="47.28658" lon="-2.23361">
        <ele>-7.8000001907349</ele>
        <time>2021-09-26T09:10:23.000Z</time>
      </trkpt>
      <trkpt lat="47.28668" lon="-2.23358">
        <ele>-7.8000001907349</ele>
        <time>2021-09-26T09:10:29.000Z</time>
      </trkpt>
      <trkpt lat="47.28669" lon="-2.23355">
        <ele>-7.4000000953674</ele>
        <time>2021-09-26T09:10:30.000Z</time>
      </trkpt>
      <trkpt lat="47.28669" lon="-2.23351">
        <ele>-7</ele>
        <time>2021-09-26T09:10:31.000Z</time>
      </trkpt>
      <trkpt lat="47.2867" lon="-2.23347">
        <ele>-6.5999999046326</ele>
        <time>2021-09-26T09:10:32.000Z</time>
      </trkpt>
      <trkpt lat="47.28671" lon="-2.23343">
        <ele>-6.1999998092651</ele>
        <time>2021-09-26T09:10:33.000Z</time>
      </trkpt>
      <trkpt lat="47.28671" lon="-2.23339">
        <ele>-5.8000001907349</ele>
        <time>2021-09-26T09:10:34.000Z</time>
      </trkpt>
      <trkpt lat="47.28674" lon="-2.23313">
        <ele>-5.8000001907349</ele>
        <time>2021-09-26T09:10:41.000Z</time>
      </trkpt>
      <trkpt lat="47.28674" lon="-2.23302">
        <ele>-5.8000001907349</ele>
        <time>2021-09-26T09:10:47.000Z</time>
      </trkpt>
      <trkpt lat="47.28672" lon="-2.2329">
        <ele>-5.8000001907349</ele>
        <time>2021-09-26T09:10:51.000Z</time>
      </trkpt>
      <trkpt lat="47.28674" lon="-2.23287">
        <ele>-5.8000001907349</ele>
        <time>2021-09-26T09:10:52.000Z</time>
      </trkpt>
      <trkpt lat="47.28676" lon="-2.23273">
        <ele>-5.8000001907349</ele>
        <time>2021-09-26T09:10:55.000Z</time>
      </trkpt>
      <trkpt lat="47.28676" lon="-2.23263">
        <ele>-5.8000001907349</ele>
        <time>2021-09-26T09:10:57.000Z</time>
      </trkpt>
      <trkpt lat="47.28676" lon="-2.23242">
        <ele>-5.8000001907349</ele>
        <time>2021-09-26T09:11:01.000Z</time>
      </trkpt>
      <trkpt lat="47.28674" lon="-2.23212">
        <ele>-5.8000001907349</ele>
        <time>2021-09-26T09:11:05.000Z</time>
      </trkpt>
      <trkpt lat="47.28672" lon="-2.23204">
        <ele>-5.8000001907349</ele>
        <time>2021-09-26T09:11:06.000Z</time>
      </trkpt>
      <trkpt lat="47.28657" lon="-2.2319">
        <ele>-5.8000001907349</ele>
        <time>2021-09-26T09:11:09.000Z</time>
      </trkpt>
      <trkpt lat="47.28641" lon="-2.23189">
        <ele>-5.8000001907349</ele>
        <time>2021-09-26T09:11:12.000Z</time>
      </trkpt>
      <trkpt lat="47.28626" lon="-2.23195">
        <ele>-5.8000001907349</ele>
        <time>2021-09-26T09:11:15.000Z</time>
      </trkpt>
      <trkpt lat="47.28617" lon="-2.232">
        <ele>-5.8000001907349</ele>
        <time>2021-09-26T09:11:17.000Z</time>
      </trkpt>
      <trkpt lat="47.286" lon="-2.23219">
        <ele>-5.8000001907349</ele>
        <time>2021-09-26T09:11:22.000Z</time>
      </trkpt>
      <trkpt lat="47.28594" lon="-2.23243">
        <ele>-5.8000001907349</ele>
        <time>2021-09-26T09:11:26.000Z</time>
      </trkpt>
      <trkpt lat="47.28591" lon="-2.23269">
        <ele>-5.8000001907349</ele>
        <time>2021-09-26T09:11:32.000Z</time>
      </trkpt>
      <trkpt lat="47.28593" lon="-2.23277">
        <ele>-5.8000001907349</ele>
        <time>2021-09-26T09:11:35.000Z</time>
      </trkpt>
      <trkpt lat="47.28596" lon="-2.23287">
        <ele>-6.1999998092651</ele>
        <time>2021-09-26T09:11:37.000Z</time>
      </trkpt>
      <trkpt lat="47.28598" lon="-2.23292">
        <ele>-6.5999999046326</ele>
        <time>2021-09-26T09:11:38.000Z</time>
      </trkpt>
      <trkpt lat="47.28601" lon="-2.23295">
        <ele>-7</ele>
        <time>2021-09-26T09:11:39.000Z</time>
      </trkpt>
      <trkpt lat="47.28604" lon="-2.23297">
        <ele>-7.4000000953674</ele>
        <time>2021-09-26T09:11:40.000Z</time>
      </trkpt>
      <trkpt lat="47.28607" lon="-2.23298">
        <ele>-7.8000001907349</ele>
        <time>2021-09-26T09:11:41.000Z</time>
      </trkpt>
      <trkpt lat="47.28628" lon="-2.23303">
        <ele>-7.8000001907349</ele>
        <time>2021-09-26T09:11:46.000Z</time>
      </trkpt>
      <trkpt lat="47.28645" lon="-2.233">
        <ele>-7.8000001907349</ele>
        <time>2021-09-26T09:11:51.000Z</time>
      </trkpt>
      <trkpt lat="47.28663" lon="-2.23302">
        <ele>-7.8000001907349</ele>
        <time>2021-09-26T09:11:56.000Z</time>
      </trkpt>
      <trkpt lat="47.28667" lon="-2.23301">
        <ele>-7.1999998092651</ele>
        <time>2021-09-26T09:11:58.000Z</time>
      </trkpt>
      <trkpt lat="47.28668" lon="-2.233">
        <ele>-6.8000001907349</ele>
        <time>2021-09-26T09:11:59.000Z</time>
      </trkpt>
      <trkpt lat="47.2867" lon="-2.233">
        <ele>-6.4000000953674</ele>
        <time>2021-09-26T09:12:00.000Z</time>
      </trkpt>
      <trkpt lat="47.28671" lon="-2.23301">
        <ele>-5.8000001907349</ele>
        <time>2021-09-26T09:12:01.000Z</time>
      </trkpt>
      <trkpt lat="47.28672" lon="-2.23303">
        <ele>-5.4000000953674</ele>
        <time>2021-09-26T09:12:02.000Z</time>
      </trkpt>
      <trkpt lat="47.28672" lon="-2.23308">
        <ele>-5.4000000953674</ele>
        <time>2021-09-26T09:12:04.000Z</time>
      </trkpt>
      <trkpt lat="47.2867" lon="-2.23327">
        <ele>-5.4000000953674</ele>
        <time>2021-09-26T09:12:08.000Z</time>
      </trkpt>
      <trkpt lat="47.28669" lon="-2.23333">
        <ele>-5.4000000953674</ele>
        <time>2021-09-26T09:12:09.000Z</time>
      </trkpt>
      <trkpt lat="47.28668" lon="-2.23358">
        <ele>-5.4000000953674</ele>
        <time>2021-09-26T09:12:15.000Z</time>
      </trkpt>
      <trkpt lat="47.28666" lon="-2.2336">
        <ele>-5.4000000953674</ele>
        <time>2021-09-26T09:12:16.000Z</time>
      </trkpt>
      <trkpt lat="47.28661" lon="-2.23362">
        <ele>-5.4000000953674</ele>
        <time>2021-09-26T09:12:19.000Z</time>
      </trkpt>
      <trkpt lat="47.28649" lon="-2.23369">
        <ele>-5.4000000953674</ele>
        <time>2021-09-26T09:12:22.000Z</time>
      </trkpt>
      <trkpt lat="47.28647" lon="-2.23374">
        <ele>-5.4000000953674</ele>
        <time>2021-09-26T09:12:23.000Z</time>
      </trkpt>
      <trkpt lat="47.28646" lon="-2.2338">
        <ele>-5.8000001907349</ele>
        <time>2021-09-26T09:12:24.000Z</time>
      </trkpt>
      <trkpt lat="47.28645" lon="-2.23387">
        <ele>-6.1999998092651</ele>
        <time>2021-09-26T09:12:25.000Z</time>
      </trkpt>
      <trkpt lat="47.28644" lon="-2.23394">
        <ele>-6.5999999046326</ele>
        <time>2021-09-26T09:12:26.000Z</time>
      </trkpt>
      <trkpt lat="47.28644" lon="-2.23401">
        <ele>-7</ele>
        <time>2021-09-26T09:12:27.000Z</time>
      </trkpt>
      <trkpt lat="47.28644" lon="-2.23407">
        <ele>-7.5999999046326</ele>
        <time>2021-09-26T09:12:28.000Z</time>
      </trkpt>
      <trkpt lat="47.28649" lon="-2.23428">
        <ele>-7.5999999046326</ele>
        <time>2021-09-26T09:12:31.000Z</time>
      </trkpt>
      <trkpt lat="47.28653" lon="-2.2344">
        <ele>-7.5999999046326</ele>
        <time>2021-09-26T09:12:33.000Z</time>
      </trkpt>
      <trkpt lat="47.28655" lon="-2.23447">
        <ele>-7.5999999046326</ele>
        <time>2021-09-26T09:12:34.000Z</time>
      </trkpt>
      <trkpt lat="47.28656" lon="-2.23458">
        <ele>-7.5999999046326</ele>
        <time>2021-09-26T09:12:36.000Z</time>
      </trkpt>
      <trkpt lat="47.28657" lon="-2.23472">
        <ele>-7.1999998092651</ele>
        <time>2021-09-26T09:12:38.000Z</time>
      </trkpt>
      <trkpt lat="47.28656" lon="-2.23479">
        <ele>-6.8000001907349</ele>
        <time>2021-09-26T09:12:39.000Z</time>
      </trkpt>
      <trkpt lat="47.28655" lon="-2.23486">
        <ele>-5.8000001907349</ele>
        <time>2021-09-26T09:12:40.000Z</time>
      </trkpt>
      <trkpt lat="47.28653" lon="-2.23494">
        <ele>-5.4000000953674</ele>
        <time>2021-09-26T09:12:41.000Z</time>
      </trkpt>
      <trkpt lat="47.28649" lon="-2.23524">
        <ele>-5.4000000953674</ele>
        <time>2021-09-26T09:12:45.000Z</time>
      </trkpt>
      <trkpt lat="47.28648" lon="-2.23539">
        <ele>-5.4000000953674</ele>
        <time>2021-09-26T09:12:47.000Z</time>
      </trkpt>
      <trkpt lat="47.2865" lon="-2.23553">
        <ele>-5.4000000953674</ele>
        <time>2021-09-26T09:12:49.000Z</time>
      </trkpt>
      <trkpt lat="47.28657" lon="-2.2356">
        <ele>-5.4000000953674</ele>
        <time>2021-09-26T09:12:51.000Z</time>
      </trkpt>
      <trkpt lat="47.28675" lon="-2.23573">
        <ele>-5.4000000953674</ele>
        <time>2021-09-26T09:12:55.000Z</time>
      </trkpt>
      <trkpt lat="47.28687" lon="-2.2359">
        <ele>-5.4000000953674</ele>
        <time>2021-09-26T09:12:58.000Z</time>
      </trkpt>
      <trkpt lat="47.28692" lon="-2.23593">
        <ele>-5.4000000953674</ele>
        <time>2021-09-26T09:12:59.000Z</time>
      </trkpt>
      <trkpt lat="47.28697" lon="-2.23593">
        <ele>-5.4000000953674</ele>
        <time>2021-09-26T09:13:00.000Z</time>
      </trkpt>
      <trkpt lat="47.28718" lon="-2.23583">
        <ele>-5.4000000953674</ele>
        <time>2021-09-26T09:13:05.000Z</time>
      </trkpt>
      <trkpt lat="47.28728" lon="-2.23563">
        <ele>-5.4000000953674</ele>
        <time>2021-09-26T09:13:09.000Z</time>
      </trkpt>
      <trkpt lat="47.28733" lon="-2.23552">
        <ele>-5.4000000953674</ele>
        <time>2021-09-26T09:13:11.000Z</time>
      </trkpt>
      <trkpt lat="47.28742" lon="-2.23539">
        <ele>-5.4000000953674</ele>
        <time>2021-09-26T09:13:14.000Z</time>
      </trkpt>
      <trkpt lat="47.28757" lon="-2.23527">
        <ele>-5.4000000953674</ele>
        <time>2021-09-26T09:13:19.000Z</time>
      </trkpt>
      <trkpt lat="47.28775" lon="-2.23519">
        <ele>-5</ele>
        <time>2021-09-26T09:13:25.000Z</time>
      </trkpt>
      <trkpt lat="47.28779" lon="-2.23517">
        <ele>-4.5999999046326</ele>
        <time>2021-09-26T09:13:26.000Z</time>
      </trkpt>
      <trkpt lat="47.28782" lon="-2.23516">
        <ele>-4.1999998092651</ele>
        <time>2021-09-26T09:13:27.000Z</time>
      </trkpt>
      <trkpt lat="47.28784" lon="-2.23515">
        <ele>-3.7999999523163</ele>
        <time>2021-09-26T09:13:28.000Z</time>
      </trkpt>
      <trkpt lat="47.28787" lon="-2.23514">
        <ele>-3.4000000953674</ele>
        <time>2021-09-26T09:13:29.000Z</time>
      </trkpt>
      <trkpt lat="47.28799" lon="-2.23512">
        <ele>-3.4000000953674</ele>
        <time>2021-09-26T09:13:32.000Z</time>
      </trkpt>
      <trkpt lat="47.28823" lon="-2.23509">
        <ele>-3.4000000953674</ele>
        <time>2021-09-26T09:13:38.000Z</time>
      </trkpt>
      <trkpt lat="47.28831" lon="-2.2351">
        <ele>-3</ele>
        <time>2021-09-26T09:13:40.000Z</time>
      </trkpt>
      <trkpt lat="47.28836" lon="-2.23511">
        <ele>-2.5999999046326</ele>
        <time>2021-09-26T09:13:41.000Z</time>
      </trkpt>
      <trkpt lat="47.2884" lon="-2.23511">
        <ele>-2.2000000476837</ele>
        <time>2021-09-26T09:13:42.000Z</time>
      </trkpt>
      <trkpt lat="47.28844" lon="-2.2351">
        <ele>-1.6000000238419</ele>
        <time>2021-09-26T09:13:43.000Z</time>
      </trkpt>
      <trkpt lat="47.28848" lon="-2.2351">
        <ele>-1.2000000476837</ele>
        <time>2021-09-26T09:13:44.000Z</time>
      </trkpt>
      <trkpt lat="47.28875" lon="-2.23507">
        <ele>-1.2000000476837</ele>
        <time>2021-09-26T09:13:50.000Z</time>
      </trkpt>
      <trkpt lat="47.28879" lon="-2.23507">
        <ele>-1.2000000476837</ele>
        <time>2021-09-26T09:13:51.000Z</time>
      </trkpt>
      <trkpt lat="47.28899" lon="-2.23506">
        <ele>-0.80000001192093</ele>
        <time>2021-09-26T09:13:55.000Z</time>
      </trkpt>
      <trkpt lat="47.28904" lon="-2.23505">
        <ele>-0.40000000596046</ele>
        <time>2021-09-26T09:13:56.000Z</time>
      </trkpt>
      <trkpt lat="47.28909" lon="-2.23505">
        <ele>13</ele>
        <time>2021-09-26T09:13:57.000Z</time>
      </trkpt>
      <trkpt lat="47.28914" lon="-2.23504">
        <ele>0.40000000596046</ele>
        <time>2021-09-26T09:13:58.000Z</time>
      </trkpt>
      <trkpt lat="47.28919" lon="-2.23502">
        <ele>0.80000001192093</ele>
        <time>2021-09-26T09:13:59.000Z</time>
      </trkpt>
      <trkpt lat="47.28941" lon="-2.23495">
        <ele>0.80000001192093</ele>
        <time>2021-09-26T09:14:04.000Z</time>
      </trkpt>
      <trkpt lat="47.28958" lon="-2.23489">
        <ele>0.80000001192093</ele>
        <time>2021-09-26T09:14:09.000Z</time>
      </trkpt>
      <trkpt lat="47.28958" lon="-2.23484">
        <ele>0.80000001192093</ele>
        <time>2021-09-26T09:14:10.000Z</time>
      </trkpt>
      <trkpt lat="47.28959" lon="-2.23472">
        <ele>0.80000001192093</ele>
        <time>2021-09-26T09:14:12.000Z</time>
      </trkpt>
      <trkpt lat="47.28961" lon="-2.23442">
        <ele>0.80000001192093</ele>
        <time>2021-09-26T09:14:16.000Z</time>
      </trkpt>
      <trkpt lat="47.28962" lon="-2.23434">
        <ele>0.80000001192093</ele>
        <time>2021-09-26T09:14:17.000Z</time>
      </trkpt>
      <trkpt lat="47.28967" lon="-2.23376">
        <ele>0.80000001192093</ele>
        <time>2021-09-26T09:14:24.000Z</time>
      </trkpt>
      <trkpt lat="47.28974" lon="-2.2332">
        <ele>0.80000001192093</ele>
        <time>2021-09-26T09:14:30.000Z</time>
      </trkpt>
      <trkpt lat="47.28983" lon="-2.23231">
        <ele>0.40000000596046</ele>
        <time>2021-09-26T09:14:38.000Z</time>
      </trkpt>
      <trkpt lat="47.28984" lon="-2.23219">
        <ele>9.5</ele>
        <time>2021-09-26T09:14:39.000Z</time>
      </trkpt>
      <trkpt lat="47.28985" lon="-2.23206">
        <ele>-0.40000000596046</ele>
        <time>2021-09-26T09:14:40.000Z</time>
      </trkpt>
      <trkpt lat="47.28986" lon="-2.23193">
        <ele>-0.80000001192093</ele>
        <time>2021-09-26T09:14:41.000Z</time>
      </trkpt>
      <trkpt lat="47.28988" lon="-2.2318">
        <ele>-1.2000000476837</ele>
        <time>2021-09-26T09:14:42.000Z</time>
      </trkpt>
      <trkpt lat="47.28993" lon="-2.2314">
        <ele>-1.6000000238419</ele>
        <time>2021-09-26T09:14:45.000Z</time>
      </trkpt>
      <trkpt lat="47.28995" lon="-2.23127">
        <ele>-2</ele>
        <time>2021-09-26T09:14:46.000Z</time>
      </trkpt>
      <trkpt lat="47.28997" lon="-2.23114">
        <ele>-2.4000000953674</ele>
        <time>2021-09-26T09:14:47.000Z</time>
      </trkpt>
      <trkpt lat="47.28999" lon="-2.231">
        <ele>-2.7999999523163</ele>
        <time>2021-09-26T09:14:48.000Z</time>
      </trkpt>
      <trkpt lat="47.29001" lon="-2.23086">
        <ele>-3.2000000476837</ele>
        <time>2021-09-26T09:14:49.000Z</time>
      </trkpt>
      <trkpt lat="47.29003" lon="-2.23073">
        <ele>-3.5999999046326</ele>
        <time>2021-09-26T09:14:50.000Z</time>
      </trkpt>
      <trkpt lat="47.29006" lon="-2.23061">
        <ele>-4.1999998092651</ele>
        <time>2021-09-26T09:14:51.000Z</time>
      </trkpt>
      <trkpt lat="47.2901" lon="-2.23048">
        <ele>-4.5999999046326</ele>
        <time>2021-09-26T09:14:52.000Z</time>
      </trkpt>
      <trkpt lat="47.29013" lon="-2.23036">
        <ele>-5</ele>
        <time>2021-09-26T09:14:53.000Z</time>
      </trkpt>
      <trkpt lat="47.29017" lon="-2.23023">
        <ele>-5.4000000953674</ele>
        <time>2021-09-26T09:14:54.000Z</time>
      </trkpt>
      <trkpt lat="47.29022" lon="-2.22998">
        <ele>-6</ele>
        <time>2021-09-26T09:14:56.000Z</time>
      </trkpt>
      <trkpt lat="47.29025" lon="-2.22987">
        <ele>-6.4000000953674</ele>
        <time>2021-09-26T09:14:57.000Z</time>
      </trkpt>
      <trkpt lat="47.29027" lon="-2.22977">
        <ele>-6.8000001907349</ele>
        <time>2021-09-26T09:14:58.000Z</time>
      </trkpt>
      <trkpt lat="47.2903" lon="-2.22972">
        <ele>-7.4000000953674</ele>
        <time>2021-09-26T09:14:59.000Z</time>
      </trkpt>
      <trkpt lat="47.29034" lon="-2.22971">
        <ele>-7.8000001907349</ele>
        <time>2021-09-26T09:15:00.000Z</time>
      </trkpt>
      <trkpt lat="47.29043" lon="-2.22978">
        <ele>-7.8000001907349</ele>
        <time>2021-09-26T09:15:02.000Z</time>
      </trkpt>
      <trkpt lat="47.29049" lon="-2.22993">
        <ele>-7.8000001907349</ele>
        <time>2021-09-26T09:15:04.000Z</time>
      </trkpt>
      <trkpt lat="47.29054" lon="-2.23">
        <ele>-7.8000001907349</ele>
        <time>2021-09-26T09:15:05.000Z</time>
      </trkpt>
      <trkpt lat="47.29082" lon="-2.23034">
        <ele>-7.8000001907349</ele>
        <time>2021-09-26T09:15:10.000Z</time>
      </trkpt>
      <trkpt lat="47.29119" lon="-2.23082">
        <ele>-7.8000001907349</ele>
        <time>2021-09-26T09:15:17.000Z</time>
      </trkpt>
      <trkpt lat="47.29156" lon="-2.23128">
        <ele>-7.8000001907349</ele>
        <time>2021-09-26T09:15:24.000Z</time>
      </trkpt>
      <trkpt lat="47.29189" lon="-2.23174">
        <ele>-7.8000001907349</ele>
        <time>2021-09-26T09:15:31.000Z</time>
      </trkpt>
      <trkpt lat="47.29196" lon="-2.23189">
        <ele>-7.8000001907349</ele>
        <time>2021-09-26T09:15:33.000Z</time>
      </trkpt>
      <trkpt lat="47.29201" lon="-2.23208">
        <ele>-7.8000001907349</ele>
        <time>2021-09-26T09:15:35.000Z</time>
      </trkpt>
      <trkpt lat="47.29206" lon="-2.23226">
        <ele>-7.8000001907349</ele>
        <time>2021-09-26T09:15:37.000Z</time>
      </trkpt>
      <trkpt lat="47.29215" lon="-2.2324">
        <ele>-7.8000001907349</ele>
        <time>2021-09-26T09:15:39.000Z</time>
      </trkpt>
      <trkpt lat="47.29224" lon="-2.23252">
        <ele>-7.8000001907349</ele>
        <time>2021-09-26T09:15:41.000Z</time>
      </trkpt>
      <trkpt lat="47.29243" lon="-2.23276">
        <ele>-7.8000001907349</ele>
        <time>2021-09-26T09:15:45.000Z</time>
      </trkpt>
      <trkpt lat="47.29251" lon="-2.23291">
        <ele>-7.8000001907349</ele>
        <time>2021-09-26T09:15:47.000Z</time>
      </trkpt>
      <trkpt lat="47.29262" lon="-2.23314">
        <ele>-7.8000001907349</ele>
        <time>2021-09-26T09:15:50.000Z</time>
      </trkpt>
      <trkpt lat="47.29264" lon="-2.23321">
        <ele>-7.8000001907349</ele>
        <time>2021-09-26T09:15:51.000Z</time>
      </trkpt>
      <trkpt lat="47.29272" lon="-2.2336">
        <ele>-7.8000001907349</ele>
        <time>2021-09-26T09:15:56.000Z</time>
      </trkpt>
      <trkpt lat="47.29284" lon="-2.23413">
        <ele>-7.8000001907349</ele>
        <time>2021-09-26T09:16:03.000Z</time>
      </trkpt>
      <trkpt lat="47.29294" lon="-2.23462">
        <ele>-7.8000001907349</ele>
        <time>2021-09-26T09:16:09.000Z</time>
      </trkpt>
      <trkpt lat="47.29306" lon="-2.2353">
        <ele>-7.8000001907349</ele>
        <time>2021-09-26T09:16:17.000Z</time>
      </trkpt>
      <trkpt lat="47.29313" lon="-2.23589">
        <ele>-7.8000001907349</ele>
        <time>2021-09-26T09:16:24.000Z</time>
      </trkpt>
      <trkpt lat="47.29313" lon="-2.23623">
        <ele>-7.8000001907349</ele>
        <time>2021-09-26T09:16:28.000Z</time>
      </trkpt>
      <trkpt lat="47.29314" lon="-2.23631">
        <ele>-7.8000001907349</ele>
        <time>2021-09-26T09:16:29.000Z</time>
      </trkpt>
      <trkpt lat="47.29314" lon="-2.23679">
        <ele>-7.8000001907349</ele>
        <time>2021-09-26T09:16:35.000Z</time>
      </trkpt>
      <trkpt lat="47.29315" lon="-2.2374">
        <ele>-7.8000001907349</ele>
        <time>2021-09-26T09:16:42.000Z</time>
      </trkpt>
      <trkpt lat="47.29316" lon="-2.23794">
        <ele>-7.8000001907349</ele>
        <time>2021-09-26T09:16:49.000Z</time>
      </trkpt>
      <trkpt lat="47.29321" lon="-2.2387">
        <ele>-7.8000001907349</ele>
        <time>2021-09-26T09:16:58.000Z</time>
      </trkpt>
      <trkpt lat="47.29333" lon="-2.23908">
        <ele>-7.8000001907349</ele>
        <time>2021-09-26T09:17:03.000Z</time>
      </trkpt>
      <trkpt lat="47.29336" lon="-2.23915">
        <ele>-7.8000001907349</ele>
        <time>2021-09-26T09:17:04.000Z</time>
      </trkpt>
      <trkpt lat="47.29358" lon="-2.23957">
        <ele>-7.8000001907349</ele>
        <time>2021-09-26T09:17:11.000Z</time>
      </trkpt>
      <trkpt lat="47.29363" lon="-2.23967">
        <ele>-7.8000001907349</ele>
        <time>2021-09-26T09:17:13.000Z</time>
      </trkpt>
      <trkpt lat="47.29361" lon="-2.23972">
        <ele>-7.8000001907349</ele>
        <time>2021-09-26T09:17:14.000Z</time>
      </trkpt>
      <trkpt lat="47.29349" lon="-2.23979">
        <ele>-7.8000001907349</ele>
        <time>2021-09-26T09:17:17.000Z</time>
      </trkpt>
      <trkpt lat="47.29334" lon="-2.23978">
        <ele>-7.8000001907349</ele>
        <time>2021-09-26T09:17:20.000Z</time>
      </trkpt>
      <trkpt lat="47.29323" lon="-2.23976">
        <ele>-7.8000001907349</ele>
        <time>2021-09-26T09:17:22.000Z</time>
      </trkpt>
      <trkpt lat="47.29288" lon="-2.23967">
        <ele>-7.8000001907349</ele>
        <time>2021-09-26T09:17:28.000Z</time>
      </trkpt>
      <trkpt lat="47.29269" lon="-2.23965">
        <ele>-7.8000001907349</ele>
        <time>2021-09-26T09:17:31.000Z</time>
      </trkpt>
      <trkpt lat="47.29257" lon="-2.23967">
        <ele>-7.8000001907349</ele>
        <time>2021-09-26T09:17:33.000Z</time>
      </trkpt>
      <trkpt lat="47.29241" lon="-2.23972">
        <ele>-7.8000001907349</ele>
        <time>2021-09-26T09:17:36.000Z</time>
      </trkpt>
      <trkpt lat="47.29237" lon="-2.23975">
        <ele>-7.8000001907349</ele>
        <time>2021-09-26T09:17:37.000Z</time>
      </trkpt>
      <trkpt lat="47.29233" lon="-2.23978">
        <ele>-7.8000001907349</ele>
        <time>2021-09-26T09:17:38.000Z</time>
      </trkpt>
      <trkpt lat="47.29213" lon="-2.23995">
        <ele>-7.8000001907349</ele>
        <time>2021-09-26T09:17:43.000Z</time>
      </trkpt>
      <trkpt lat="47.29187" lon="-2.24019">
        <ele>-7.8000001907349</ele>
        <time>2021-09-26T09:17:50.000Z</time>
      </trkpt>
      <trkpt lat="47.2917" lon="-2.24031">
        <ele>-7.4000000953674</ele>
        <time>2021-09-26T09:17:54.000Z</time>
      </trkpt>
      <trkpt lat="47.29165" lon="-2.24034">
        <ele>-7</ele>
        <time>2021-09-26T09:17:55.000Z</time>
      </trkpt>
      <trkpt lat="47.29161" lon="-2.24036">
        <ele>-6.5999999046326</ele>
        <time>2021-09-26T09:17:56.000Z</time>
      </trkpt>
      <trkpt lat="47.29156" lon="-2.24039">
        <ele>-6</ele>
        <time>2021-09-26T09:17:57.000Z</time>
      </trkpt>
      <trkpt lat="47.29152" lon="-2.24043">
        <ele>-5.5999999046326</ele>
        <time>2021-09-26T09:17:58.000Z</time>
      </trkpt>
      <trkpt lat="47.29142" lon="-2.24048">
        <ele>-5.5999999046326</ele>
        <time>2021-09-26T09:18:00.000Z</time>
      </trkpt>
      <trkpt lat="47.29138" lon="-2.24051">
        <ele>-5.1999998092651</ele>
        <time>2021-09-26T09:18:01.000Z</time>
      </trkpt>
      <trkpt lat="47.29133" lon="-2.24054">
        <ele>-4.8000001907349</ele>
        <time>2021-09-26T09:18:02.000Z</time>
      </trkpt>
      <trkpt lat="47.29128" lon="-2.24056">
        <ele>-4.1999998092651</ele>
        <time>2021-09-26T09:18:03.000Z</time>
      </trkpt>
      <trkpt lat="47.29125" lon="-2.24059">
        <ele>-3.7999999523163</ele>
        <time>2021-09-26T09:18:04.000Z</time>
      </trkpt>
      <trkpt lat="47.29121" lon="-2.24063">
        <ele>-3.4000000953674</ele>
        <time>2021-09-26T09:18:05.000Z</time>
      </trkpt>
      <trkpt lat="47.29119" lon="-2.24067">
        <ele>-3.4000000953674</ele>
        <time>2021-09-26T09:18:06.000Z</time>
      </trkpt>
      <trkpt lat="47.29118" lon="-2.24077">
        <ele>-3.4000000953674</ele>
        <time>2021-09-26T09:18:08.000Z</time>
      </trkpt>
      <trkpt lat="47.29123" lon="-2.24094">
        <ele>-3.4000000953674</ele>
        <time>2021-09-26T09:18:11.000Z</time>
      </trkpt>
      <trkpt lat="47.29124" lon="-2.24101">
        <ele>-3.4000000953674</ele>
        <time>2021-09-26T09:18:12.000Z</time>
      </trkpt>
      <trkpt lat="47.29129" lon="-2.24134">
        <ele>-3</ele>
        <time>2021-09-26T09:18:17.000Z</time>
      </trkpt>
      <trkpt lat="47.29131" lon="-2.2414">
        <ele>-2.5999999046326</ele>
        <time>2021-09-26T09:18:18.000Z</time>
      </trkpt>
      <trkpt lat="47.29132" lon="-2.24147">
        <ele>-2.2000000476837</ele>
        <time>2021-09-26T09:18:19.000Z</time>
      </trkpt>
      <trkpt lat="47.29134" lon="-2.24154">
        <ele>-1.7999999523163</ele>
        <time>2021-09-26T09:18:20.000Z</time>
      </trkpt>
      <trkpt lat="47.29135" lon="-2.24161">
        <ele>-1.3999999761581</ele>
        <time>2021-09-26T09:18:21.000Z</time>
      </trkpt>
      <trkpt lat="47.29143" lon="-2.24191">
        <ele>-1.3999999761581</ele>
        <time>2021-09-26T09:18:25.000Z</time>
      </trkpt>
      <trkpt lat="47.29158" lon="-2.24245">
        <ele>-1.3999999761581</ele>
        <time>2021-09-26T09:18:32.000Z</time>
      </trkpt>
      <trkpt lat="47.29181" lon="-2.24312">
        <ele>-1.3999999761581</ele>
        <time>2021-09-26T09:18:40.000Z</time>
      </trkpt>
      <trkpt lat="47.29207" lon="-2.24375">
        <ele>-1.3999999761581</ele>
        <time>2021-09-26T09:18:48.000Z</time>
      </trkpt>
      <trkpt lat="47.29223" lon="-2.24426">
        <ele>-1.3999999761581</ele>
        <time>2021-09-26T09:18:55.000Z</time>
      </trkpt>
      <trkpt lat="47.29233" lon="-2.24467">
        <ele>-1.3999999761581</ele>
        <time>2021-09-26T09:19:01.000Z</time>
      </trkpt>
      <trkpt lat="47.29244" lon="-2.24474">
        <ele>-1.3999999761581</ele>
        <time>2021-09-26T09:19:04.000Z</time>
      </trkpt>
      <trkpt lat="47.29256" lon="-2.24468">
        <ele>-1.3999999761581</ele>
        <time>2021-09-26T09:19:07.000Z</time>
      </trkpt>
      <trkpt lat="47.29261" lon="-2.24466">
        <ele>-1.3999999761581</ele>
        <time>2021-09-26T09:19:08.000Z</time>
      </trkpt>
      <trkpt lat="47.29265" lon="-2.24466">
        <ele>-1.3999999761581</ele>
        <time>2021-09-26T09:19:09.000Z</time>
      </trkpt>
      <trkpt lat="47.29282" lon="-2.24457">
        <ele>-1.3999999761581</ele>
        <time>2021-09-26T09:19:13.000Z</time>
      </trkpt>
      <trkpt lat="47.29292" lon="-2.24462">
        <ele>-1.3999999761581</ele>
        <time>2021-09-26T09:19:16.000Z</time>
      </trkpt>
      <trkpt lat="47.29293" lon="-2.24477">
        <ele>-1.3999999761581</ele>
        <time>2021-09-26T09:19:19.000Z</time>
      </trkpt>
      <trkpt lat="47.29294" lon="-2.24512">
        <ele>-1.3999999761581</ele>
        <time>2021-09-26T09:19:25.000Z</time>
      </trkpt>
      <trkpt lat="47.29296" lon="-2.24559">
        <ele>-1.3999999761581</ele>
        <time>2021-09-26T09:19:31.000Z</time>
      </trkpt>
      <trkpt lat="47.29299" lon="-2.24618">
        <ele>-1.3999999761581</ele>
        <time>2021-09-26T09:19:38.000Z</time>
      </trkpt>
      <trkpt lat="47.29296" lon="-2.24662">
        <ele>-1.3999999761581</ele>
        <time>2021-09-26T09:19:44.000Z</time>
      </trkpt>
      <trkpt lat="47.29296" lon="-2.24676">
        <ele>-1.3999999761581</ele>
        <time>2021-09-26T09:19:46.000Z</time>
      </trkpt>
      <trkpt lat="47.293" lon="-2.24696">
        <ele>-1.3999999761581</ele>
        <time>2021-09-26T09:19:49.000Z</time>
      </trkpt>
      <trkpt lat="47.29314" lon="-2.24749">
        <ele>-1.3999999761581</ele>
        <time>2021-09-26T09:19:56.000Z</time>
      </trkpt>
      <trkpt lat="47.29317" lon="-2.24756">
        <ele>-1.3999999761581</ele>
        <time>2021-09-26T09:19:57.000Z</time>
      </trkpt>
      <trkpt lat="47.29322" lon="-2.24771">
        <ele>-1</ele>
        <time>2021-09-26T09:19:59.000Z</time>
      </trkpt>
      <trkpt lat="47.29324" lon="-2.24779">
        <ele>-0.40000000596046</ele>
        <time>2021-09-26T09:20:00.000Z</time>
      </trkpt>
      <trkpt lat="47.29325" lon="-2.24787">
        <ele>13.6</ele>
        <time>2021-09-26T09:20:01.000Z</time>
      </trkpt>
      <trkpt lat="47.29327" lon="-2.24795">
        <ele>0.40000000596046</ele>
        <time>2021-09-26T09:20:02.000Z</time>
      </trkpt>
      <trkpt lat="47.29328" lon="-2.24802">
        <ele>0.80000001192093</ele>
        <time>2021-09-26T09:20:03.000Z</time>
      </trkpt>
      <trkpt lat="47.29334" lon="-2.24843">
        <ele>0.80000001192093</ele>
        <time>2021-09-26T09:20:08.000Z</time>
      </trkpt>
      <trkpt lat="47.29336" lon="-2.24889">
        <ele>0.80000001192093</ele>
        <time>2021-09-26T09:20:14.000Z</time>
      </trkpt>
      <trkpt lat="47.29325" lon="-2.24915">
        <ele>0.80000001192093</ele>
        <time>2021-09-26T09:20:19.000Z</time>
      </trkpt>
      <trkpt lat="47.29306" lon="-2.24917">
        <ele>0.80000001192093</ele>
        <time>2021-09-26T09:20:23.000Z</time>
      </trkpt>
      <trkpt lat="47.29295" lon="-2.24918">
        <ele>0.80000001192093</ele>
        <time>2021-09-26T09:20:25.000Z</time>
      </trkpt>
      <trkpt lat="47.2928" lon="-2.2492">
        <ele>0.80000001192093</ele>
        <time>2021-09-26T09:20:28.000Z</time>
      </trkpt>
      <trkpt lat="47.29275" lon="-2.2492">
        <ele>0.80000001192093</ele>
        <time>2021-09-26T09:20:29.000Z</time>
      </trkpt>
      <trkpt lat="47.29266" lon="-2.24919">
        <ele>0.80000001192093</ele>
        <time>2021-09-26T09:20:31.000Z</time>
      </trkpt>
      <trkpt lat="47.29258" lon="-2.24927">
        <ele>0.80000001192093</ele>
        <time>2021-09-26T09:20:33.000Z</time>
      </trkpt>
      <trkpt lat="47.29256" lon="-2.24944">
        <ele>0.80000001192093</ele>
        <time>2021-09-26T09:20:36.000Z</time>
      </trkpt>
      <trkpt lat="47.29262" lon="-2.24969">
        <ele>0.80000001192093</ele>
        <time>2021-09-26T09:20:39.000Z</time>
      </trkpt>
      <trkpt lat="47.29264" lon="-2.24977">
        <ele>0.80000001192093</ele>
        <time>2021-09-26T09:20:40.000Z</time>
      </trkpt>
      <trkpt lat="47.29275" lon="-2.2502">
        <ele>0.80000001192093</ele>
        <time>2021-09-26T09:20:45.000Z</time>
      </trkpt>
      <trkpt lat="47.29282" lon="-2.25046">
        <ele>1.2000000476837</ele>
        <time>2021-09-26T09:20:48.000Z</time>
      </trkpt>
      <trkpt lat="47.29284" lon="-2.25054">
        <ele>1.6000000238419</ele>
        <time>2021-09-26T09:20:49.000Z</time>
      </trkpt>
      <trkpt lat="47.29286" lon="-2.25063">
        <ele>2</ele>
        <time>2021-09-26T09:20:50.000Z</time>
      </trkpt>
      <trkpt lat="47.29288" lon="-2.25071">
        <ele>2.4000000953674</ele>
        <time>2021-09-26T09:20:51.000Z</time>
      </trkpt>
      <trkpt lat="47.2929" lon="-2.25079">
        <ele>2.7999999523163</ele>
        <time>2021-09-26T09:20:52.000Z</time>
      </trkpt>
      <trkpt lat="47.29292" lon="-2.25087">
        <ele>2.7999999523163</ele>
        <time>2021-09-26T09:20:53.000Z</time>
      </trkpt>
      <trkpt lat="47.29301" lon="-2.25147">
        <ele>2.2000000476837</ele>
        <time>2021-09-26T09:20:59.000Z</time>
      </trkpt>
      <trkpt lat="47.29302" lon="-2.25157">
        <ele>1.7999999523163</ele>
        <time>2021-09-26T09:21:00.000Z</time>
      </trkpt>
      <trkpt lat="47.29304" lon="-2.25168">
        <ele>1.3999999761581</ele>
        <time>2021-09-26T09:21:01.000Z</time>
      </trkpt>
      <trkpt lat="47.29305" lon="-2.25179">
        <ele>0.80000001192093</ele>
        <time>2021-09-26T09:21:02.000Z</time>
      </trkpt>
      <trkpt lat="47.29307" lon="-2.25188">
        <ele>0.40000000596046</ele>
        <time>2021-09-26T09:21:03.000Z</time>
      </trkpt>
      <trkpt lat="47.2931" lon="-2.25195">
        <ele>0.40000000596046</ele>
        <time>2021-09-26T09:21:04.000Z</time>
      </trkpt>
      <trkpt lat="47.29314" lon="-2.25199">
        <ele>10.5</ele>
        <time>2021-09-26T09:21:05.000Z</time>
      </trkpt>
      <trkpt lat="47.29318" lon="-2.252">
        <ele>-0.60000002384186</ele>
        <time>2021-09-26T09:21:06.000Z</time>
      </trkpt>
      <trkpt lat="47.29323" lon="-2.25199">
        <ele>-1</ele>
        <time>2021-09-26T09:21:07.000Z</time>
      </trkpt>
      <trkpt lat="47.29328" lon="-2.25199">
        <ele>-1.3999999761581</ele>
        <time>2021-09-26T09:21:08.000Z</time>
      </trkpt>
      <trkpt lat="47.29333" lon="-2.25198">
        <ele>-1.7999999523163</ele>
        <time>2021-09-26T09:21:09.000Z</time>
      </trkpt>
      <trkpt lat="47.29345" lon="-2.25198">
        <ele>-1.7999999523163</ele>
        <time>2021-09-26T09:21:11.000Z</time>
      </trkpt>
      <trkpt lat="47.29351" lon="-2.25201">
        <ele>-1.7999999523163</ele>
        <time>2021-09-26T09:21:12.000Z</time>
      </trkpt>
      <trkpt lat="47.29397" lon="-2.25214">
        <ele>-1.7999999523163</ele>
        <time>2021-09-26T09:21:19.000Z</time>
      </trkpt>
      <trkpt lat="47.29404" lon="-2.25215">
        <ele>-1.7999999523163</ele>
        <time>2021-09-26T09:21:20.000Z</time>
      </trkpt>
      <trkpt lat="47.29423" lon="-2.25213">
        <ele>-1.7999999523163</ele>
        <time>2021-09-26T09:21:23.000Z</time>
      </trkpt>
      <trkpt lat="47.29453" lon="-2.25204">
        <ele>-1.3999999761581</ele>
        <time>2021-09-26T09:21:28.000Z</time>
      </trkpt>
      <trkpt lat="47.29459" lon="-2.25203">
        <ele>-1</ele>
        <time>2021-09-26T09:21:29.000Z</time>
      </trkpt>
      <trkpt lat="47.29464" lon="-2.25201">
        <ele>-0.60000002384186</ele>
        <time>2021-09-26T09:21:30.000Z</time>
      </trkpt>
      <trkpt lat="47.2947" lon="-2.252">
        <ele>-0.20000000298023</ele>
        <time>2021-09-26T09:21:31.000Z</time>
      </trkpt>
      <trkpt lat="47.29475" lon="-2.25198">
        <ele>0.20000000298023</ele>
        <time>2021-09-26T09:21:32.000Z</time>
      </trkpt>
      <trkpt lat="47.29503" lon="-2.25191">
        <ele>0.20000000298023</ele>
        <time>2021-09-26T09:21:37.000Z</time>
      </trkpt>
      <trkpt lat="47.29532" lon="-2.2518">
        <ele>0.20000000298023</ele>
        <time>2021-09-26T09:21:43.000Z</time>
      </trkpt>
      <trkpt lat="47.29542" lon="-2.25186">
        <ele>0.60000002384186</ele>
        <time>2021-09-26T09:21:46.000Z</time>
      </trkpt>
      <trkpt lat="47.29543" lon="-2.25188">
        <ele>1.2000000476837</ele>
        <time>2021-09-26T09:21:47.000Z</time>
      </trkpt>
      <trkpt lat="47.29544" lon="-2.2519">
        <ele>1.6000000238419</ele>
        <time>2021-09-26T09:21:48.000Z</time>
      </trkpt>
      <trkpt lat="47.29544" lon="-2.2519">
        <ele>2</ele>
        <time>2021-09-26T09:21:49.000Z</time>
      </trkpt>
      <trkpt lat="47.29545" lon="-2.2519">
        <ele>2.4000000953674</ele>
        <time>2021-09-26T09:21:50.000Z</time>
      </trkpt>
      <trkpt lat="47.29545" lon="-2.25194">
        <ele>2.4000000953674</ele>
        <time>2021-09-26T09:22:05.000Z</time>
      </trkpt>
      <trkpt lat="47.29541" lon="-2.25212">
        <ele>2.4000000953674</ele>
        <time>2021-09-26T09:22:09.000Z</time>
      </trkpt>
      <trkpt lat="47.2954" lon="-2.25224">
        <ele>2.4000000953674</ele>
        <time>2021-09-26T09:22:11.000Z</time>
      </trkpt>
      <trkpt lat="47.29538" lon="-2.25251">
        <ele>2.4000000953674</ele>
        <time>2021-09-26T09:22:15.000Z</time>
      </trkpt>
      <trkpt lat="47.29539" lon="-2.25278">
        <ele>2.4000000953674</ele>
        <time>2021-09-26T09:22:19.000Z</time>
      </trkpt>
      <trkpt lat="47.29542" lon="-2.25293">
        <ele>2.4000000953674</ele>
        <time>2021-09-26T09:22:21.000Z</time>
      </trkpt>
      <trkpt lat="47.29552" lon="-2.25321">
        <ele>2.4000000953674</ele>
        <time>2021-09-26T09:22:25.000Z</time>
      </trkpt>
      <trkpt lat="47.29556" lon="-2.25327">
        <ele>2.4000000953674</ele>
        <time>2021-09-26T09:22:26.000Z</time>
      </trkpt>
      <trkpt lat="47.29573" lon="-2.25366">
        <ele>2.7999999523163</ele>
        <time>2021-09-26T09:22:32.000Z</time>
      </trkpt>
      <trkpt lat="47.29576" lon="-2.25373">
        <ele>3.7999999523163</ele>
        <time>2021-09-26T09:22:33.000Z</time>
      </trkpt>
      <trkpt lat="47.29577" lon="-2.25381">
        <ele>4.1999998092651</ele>
        <time>2021-09-26T09:22:34.000Z</time>
      </trkpt>
      <trkpt lat="47.29579" lon="-2.25389">
        <ele>4.5999999046326</ele>
        <time>2021-09-26T09:22:35.000Z</time>
      </trkpt>
      <trkpt lat="47.29584" lon="-2.25421">
        <ele>4.5999999046326</ele>
        <time>2021-09-26T09:22:39.000Z</time>
      </trkpt>
      <trkpt lat="47.29586" lon="-2.2546">
        <ele>5</ele>
        <time>2021-09-26T09:22:44.000Z</time>
      </trkpt>
      <trkpt lat="47.29587" lon="-2.25468">
        <ele>5.4000000953674</ele>
        <time>2021-09-26T09:22:45.000Z</time>
      </trkpt>
      <trkpt lat="47.29587" lon="-2.25475">
        <ele>6</ele>
        <time>2021-09-26T09:22:46.000Z</time>
      </trkpt>
      <trkpt lat="47.29587" lon="-2.25482">
        <ele>6.4000000953674</ele>
        <time>2021-09-26T09:22:47.000Z</time>
      </trkpt>
      <trkpt lat="47.29587" lon="-2.2549">
        <ele>6.8000001907349</ele>
        <time>2021-09-26T09:22:48.000Z</time>
      </trkpt>
      <trkpt lat="47.29583" lon="-2.25512">
        <ele>6.8000001907349</ele>
        <time>2021-09-26T09:22:51.000Z</time>
      </trkpt>
      <trkpt lat="47.29581" lon="-2.25519">
        <ele>6.8000001907349</ele>
        <time>2021-09-26T09:22:52.000Z</time>
      </trkpt>
      <trkpt lat="47.29566" lon="-2.25542">
        <ele>6.8000001907349</ele>
        <time>2021-09-26T09:22:56.000Z</time>
      </trkpt>
      <trkpt lat="47.29547" lon="-2.25556">
        <ele>6.8000001907349</ele>
        <time>2021-09-26T09:23:00.000Z</time>
      </trkpt>
      <trkpt lat="47.29542" lon="-2.25559">
        <ele>6.8000001907349</ele>
        <time>2021-09-26T09:23:01.000Z</time>
      </trkpt>
      <trkpt lat="47.29503" lon="-2.25585">
        <ele>7.1999998092651</ele>
        <time>2021-09-26T09:23:09.000Z</time>
      </trkpt>
      <trkpt lat="47.29499" lon="-2.25588">
        <ele>7.5999999046326</ele>
        <time>2021-09-26T09:23:10.000Z</time>
      </trkpt>
      <trkpt lat="47.29494" lon="-2.25591">
        <ele>8</ele>
        <time>2021-09-26T09:23:11.000Z</time>
      </trkpt>
      <trkpt lat="47.29489" lon="-2.25594">
        <ele>8.6000003814697</ele>
        <time>2021-09-26T09:23:12.000Z</time>
      </trkpt>
      <trkpt lat="47.29484" lon="-2.25596">
        <ele>9</ele>
        <time>2021-09-26T09:23:13.000Z</time>
      </trkpt>
      <trkpt lat="47.29464" lon="-2.25606">
        <ele>9</ele>
        <time>2021-09-26T09:23:17.000Z</time>
      </trkpt>
      <trkpt lat="47.29425" lon="-2.25622">
        <ele>9</ele>
        <time>2021-09-26T09:23:25.000Z</time>
      </trkpt>
      <trkpt lat="47.29395" lon="-2.25637">
        <ele>9</ele>
        <time>2021-09-26T09:23:31.000Z</time>
      </trkpt>
      <trkpt lat="47.2939" lon="-2.25642">
        <ele>9</ele>
        <time>2021-09-26T09:23:32.000Z</time>
      </trkpt>
      <trkpt lat="47.29382" lon="-2.25662">
        <ele>9</ele>
        <time>2021-09-26T09:23:35.000Z</time>
      </trkpt>
      <trkpt lat="47.2938" lon="-2.25688">
        <ele>9</ele>
        <time>2021-09-26T09:23:38.000Z</time>
      </trkpt>
      <trkpt lat="47.29379" lon="-2.25695">
        <ele>9</ele>
        <time>2021-09-26T09:23:39.000Z</time>
      </trkpt>
      <trkpt lat="47.29365" lon="-2.25742">
        <ele>9</ele>
        <time>2021-09-26T09:23:45.000Z</time>
      </trkpt>
      <trkpt lat="47.29359" lon="-2.25755">
        <ele>9</ele>
        <time>2021-09-26T09:23:47.000Z</time>
      </trkpt>
      <trkpt lat="47.29347" lon="-2.2577">
        <ele>9</ele>
        <time>2021-09-26T09:23:50.000Z</time>
      </trkpt>
      <trkpt lat="47.29328" lon="-2.25788">
        <ele>9</ele>
        <time>2021-09-26T09:23:56.000Z</time>
      </trkpt>
      <trkpt lat="47.29327" lon="-2.2579">
        <ele>9</ele>
        <time>2021-09-26T09:23:57.000Z</time>
      </trkpt>
      <trkpt lat="47.29326" lon="-2.25792">
        <ele>9</ele>
        <time>2021-09-26T09:24:00.000Z</time>
      </trkpt>
      <trkpt lat="47.29328" lon="-2.25793">
        <ele>9</ele>
        <time>2021-09-26T09:24:01.000Z</time>
      </trkpt>
      <trkpt lat="47.29334" lon="-2.25796">
        <ele>9</ele>
        <time>2021-09-26T09:24:05.000Z</time>
      </trkpt>
      <trkpt lat="47.2935" lon="-2.25797">
        <ele>9</ele>
        <time>2021-09-26T09:24:11.000Z</time>
      </trkpt>
      <trkpt lat="47.29351" lon="-2.25795">
        <ele>9</ele>
        <time>2021-09-26T09:24:12.000Z</time>
      </trkpt>
      <trkpt lat="47.29353" lon="-2.25786">
        <ele>9</ele>
        <time>2021-09-26T09:24:15.000Z</time>
      </trkpt>
      <trkpt lat="47.29361" lon="-2.2577">
        <ele>9</ele>
        <time>2021-09-26T09:24:20.000Z</time>
      </trkpt>
      <trkpt lat="47.29377" lon="-2.25757">
        <ele>9</ele>
        <time>2021-09-26T09:24:26.000Z</time>
      </trkpt>
      <trkpt lat="47.29385" lon="-2.25755">
        <ele>8.6000003814697</ele>
        <time>2021-09-26T09:24:29.000Z</time>
      </trkpt>
      <trkpt lat="47.29388" lon="-2.25756">
        <ele>8.1999998092651</ele>
        <time>2021-09-26T09:24:30.000Z</time>
      </trkpt>
      <trkpt lat="47.29391" lon="-2.25756">
        <ele>7.5999999046326</ele>
        <time>2021-09-26T09:24:31.000Z</time>
      </trkpt>
      <trkpt lat="47.29394" lon="-2.25756">
        <ele>7.1999998092651</ele>
        <time>2021-09-26T09:24:32.000Z</time>
      </trkpt>
      <trkpt lat="47.29397" lon="-2.25757">
        <ele>6.8000001907349</ele>
        <time>2021-09-26T09:24:33.000Z</time>
      </trkpt>
      <trkpt lat="47.29402" lon="-2.25762">
        <ele>6.8000001907349</ele>
        <time>2021-09-26T09:24:35.000Z</time>
      </trkpt>
      <trkpt lat="47.29406" lon="-2.25763">
        <ele>6.8000001907349</ele>
        <time>2021-09-26T09:24:36.000Z</time>
      </trkpt>
      <trkpt lat="47.29416" lon="-2.25773">
        <ele>6.4000000953674</ele>
        <time>2021-09-26T09:24:39.000Z</time>
      </trkpt>
      <trkpt lat="47.29418" lon="-2.25778">
        <ele>6</ele>
        <time>2021-09-26T09:24:40.000Z</time>
      </trkpt>
      <trkpt lat="47.29418" lon="-2.25781">
        <ele>5.4000000953674</ele>
        <time>2021-09-26T09:24:41.000Z</time>
      </trkpt>
      <trkpt lat="47.29417" lon="-2.25786">
        <ele>5</ele>
        <time>2021-09-26T09:24:42.000Z</time>
      </trkpt>
      <trkpt lat="47.29418" lon="-2.2579">
        <ele>4.5999999046326</ele>
        <time>2021-09-26T09:24:43.000Z</time>
      </trkpt>
      <trkpt lat="47.29419" lon="-2.25793">
        <ele>4.5999999046326</ele>
        <time>2021-09-26T09:24:44.000Z</time>
      </trkpt>
      <trkpt lat="47.2942" lon="-2.25813">
        <ele>4.5999999046326</ele>
        <time>2021-09-26T09:24:48.000Z</time>
      </trkpt>
      <trkpt lat="47.29419" lon="-2.25819">
        <ele>4.5999999046326</ele>
        <time>2021-09-26T09:24:49.000Z</time>
      </trkpt>
      <trkpt lat="47.2942" lon="-2.25848">
        <ele>4.5999999046326</ele>
        <time>2021-09-26T09:24:54.000Z</time>
      </trkpt>
      <trkpt lat="47.29432" lon="-2.25887">
        <ele>4.5999999046326</ele>
        <time>2021-09-26T09:24:59.000Z</time>
      </trkpt>
      <trkpt lat="47.2944" lon="-2.25919">
        <ele>4.5999999046326</ele>
        <time>2021-09-26T09:25:02.000Z</time>
      </trkpt>
      <trkpt lat="47.2944" lon="-2.25936">
        <ele>4.5999999046326</ele>
        <time>2021-09-26T09:25:04.000Z</time>
      </trkpt>
      <trkpt lat="47.29427" lon="-2.25958">
        <ele>4.5999999046326</ele>
        <time>2021-09-26T09:25:08.000Z</time>
      </trkpt>
      <trkpt lat="47.29418" lon="-2.25964">
        <ele>4.5999999046326</ele>
        <time>2021-09-26T09:25:10.000Z</time>
      </trkpt>
      <trkpt lat="47.29402" lon="-2.25961">
        <ele>4.5999999046326</ele>
        <time>2021-09-26T09:25:13.000Z</time>
      </trkpt>
      <trkpt lat="47.29391" lon="-2.25965">
        <ele>4.5999999046326</ele>
        <time>2021-09-26T09:25:17.000Z</time>
      </trkpt>
      <trkpt lat="47.29386" lon="-2.25973">
        <ele>4.5999999046326</ele>
        <time>2021-09-26T09:25:19.000Z</time>
      </trkpt>
      <trkpt lat="47.29384" lon="-2.25978">
        <ele>4.5999999046326</ele>
        <time>2021-09-26T09:25:20.000Z</time>
      </trkpt>
      <trkpt lat="47.29381" lon="-2.25984">
        <ele>4.5999999046326</ele>
        <time>2021-09-26T09:25:21.000Z</time>
      </trkpt>
      <trkpt lat="47.29372" lon="-2.26012">
        <ele>4.5999999046326</ele>
        <time>2021-09-26T09:25:25.000Z</time>
      </trkpt>
      <trkpt lat="47.29374" lon="-2.26018">
        <ele>4.5999999046326</ele>
        <time>2021-09-26T09:25:26.000Z</time>
      </trkpt>
      <trkpt lat="47.2938" lon="-2.26032">
        <ele>4.5999999046326</ele>
        <time>2021-09-26T09:25:29.000Z</time>
      </trkpt>
      <trkpt lat="47.29383" lon="-2.26039">
        <ele>4.5999999046326</ele>
        <time>2021-09-26T09:25:30.000Z</time>
      </trkpt>
      <trkpt lat="47.29387" lon="-2.26052">
        <ele>4.5999999046326</ele>
        <time>2021-09-26T09:25:32.000Z</time>
      </trkpt>
      <trkpt lat="47.29394" lon="-2.26076">
        <ele>4.5999999046326</ele>
        <time>2021-09-26T09:25:35.000Z</time>
      </trkpt>
      <trkpt lat="47.29397" lon="-2.26085">
        <ele>4.5999999046326</ele>
        <time>2021-09-26T09:25:36.000Z</time>
      </trkpt>
      <trkpt lat="47.29398" lon="-2.26107">
        <ele>4.5999999046326</ele>
        <time>2021-09-26T09:25:39.000Z</time>
      </trkpt>
      <trkpt lat="47.29399" lon="-2.26115">
        <ele>4.5999999046326</ele>
        <time>2021-09-26T09:25:40.000Z</time>
      </trkpt>
      <trkpt lat="47.29401" lon="-2.26138">
        <ele>4.5999999046326</ele>
        <time>2021-09-26T09:25:43.000Z</time>
      </trkpt>
      <trkpt lat="47.294" lon="-2.26149">
        <ele>4.5999999046326</ele>
        <time>2021-09-26T09:25:45.000Z</time>
      </trkpt>
      <trkpt lat="47.29398" lon="-2.26153">
        <ele>4.5999999046326</ele>
        <time>2021-09-26T09:25:46.000Z</time>
      </trkpt>
      <trkpt lat="47.29392" lon="-2.26155">
        <ele>4.5999999046326</ele>
        <time>2021-09-26T09:25:48.000Z</time>
      </trkpt>
      <trkpt lat="47.29386" lon="-2.2615">
        <ele>5.5999999046326</ele>
        <time>2021-09-26T09:25:50.000Z</time>
      </trkpt>
      <trkpt lat="47.29382" lon="-2.26149">
        <ele>6</ele>
        <time>2021-09-26T09:25:51.000Z</time>
      </trkpt>
      <trkpt lat="47.2938" lon="-2.2615">
        <ele>6.4000000953674</ele>
        <time>2021-09-26T09:25:52.000Z</time>
      </trkpt>
      <trkpt lat="47.29378" lon="-2.2615">
        <ele>7</ele>
        <time>2021-09-26T09:25:53.000Z</time>
      </trkpt>
      <trkpt lat="47.29375" lon="-2.2615">
        <ele>7</ele>
        <time>2021-09-26T09:25:55.000Z</time>
      </trkpt>
      <trkpt lat="47.29368" lon="-2.26154">
        <ele>7</ele>
        <time>2021-09-26T09:26:01.000Z</time>
      </trkpt>
      <trkpt lat="47.29368" lon="-2.26154">
        <ele>7</ele>
        <time>2021-09-26T09:26:02.000Z</time>
      </trkpt>
      <trkpt lat="47.2936" lon="-2.2616">
        <ele>7</ele>
        <time>2021-09-26T09:27:08.000Z</time>
      </trkpt>
      <trkpt lat="47.29357" lon="-2.26161">
        <ele>7</ele>
        <time>2021-09-26T09:27:10.000Z</time>
      </trkpt>
      <trkpt lat="47.2935" lon="-2.26164">
        <ele>7</ele>
        <time>2021-09-26T09:27:15.000Z</time>
      </trkpt>
      <trkpt lat="47.29342" lon="-2.26166">
        <ele>7.4000000953674</ele>
        <time>2021-09-26T09:27:20.000Z</time>
      </trkpt>
      <trkpt lat="47.2934" lon="-2.26167">
        <ele>7.8000001907349</ele>
        <time>2021-09-26T09:27:21.000Z</time>
      </trkpt>
      <trkpt lat="47.29339" lon="-2.26167">
        <ele>8.1999998092651</ele>
        <time>2021-09-26T09:27:22.000Z</time>
      </trkpt>
      <trkpt lat="47.29336" lon="-2.26167">
        <ele>8.6000003814697</ele>
        <time>2021-09-26T09:27:23.000Z</time>
      </trkpt>
      <trkpt lat="47.29334" lon="-2.26167">
        <ele>9</ele>
        <time>2021-09-26T09:27:24.000Z</time>
      </trkpt>
      <trkpt lat="47.2932" lon="-2.26171">
        <ele>9</ele>
        <time>2021-09-26T09:27:31.000Z</time>
      </trkpt>
      <trkpt lat="47.29318" lon="-2.26182">
        <ele>9</ele>
        <time>2021-09-26T09:27:36.000Z</time>
      </trkpt>
      <trkpt lat="47.29315" lon="-2.26183">
        <ele>9</ele>
        <time>2021-09-26T09:27:38.000Z</time>
      </trkpt>
      <trkpt lat="47.29307" lon="-2.26181">
        <ele>9</ele>
        <time>2021-09-26T09:27:40.000Z</time>
      </trkpt>
      <trkpt lat="47.2929" lon="-2.26178">
        <ele>9</ele>
        <time>2021-09-26T09:27:44.000Z</time>
      </trkpt>
      <trkpt lat="47.29286" lon="-2.26176">
        <ele>9</ele>
        <time>2021-09-26T09:27:45.000Z</time>
      </trkpt>
      <trkpt lat="47.29273" lon="-2.26175">
        <ele>9</ele>
        <time>2021-09-26T09:27:49.000Z</time>
      </trkpt>
      <trkpt lat="47.29269" lon="-2.26172">
        <ele>9</ele>
        <time>2021-09-26T09:27:51.000Z</time>
      </trkpt>
      <trkpt lat="47.29267" lon="-2.26169">
        <ele>9</ele>
        <time>2021-09-26T09:27:54.000Z</time>
      </trkpt>
      <trkpt lat="47.29266" lon="-2.26169">
        <ele>9</ele>
        <time>2021-09-26T09:27:55.000Z</time>
      </trkpt>
      <trkpt lat="47.29264" lon="-2.26167">
        <ele>9</ele>
        <time>2021-09-26T09:29:04.000Z</time>
      </trkpt>
      <trkpt lat="47.29263" lon="-2.26163">
        <ele>9</ele>
        <time>2021-09-26T09:29:06.000Z</time>
      </trkpt>
      <trkpt lat="47.29261" lon="-2.26156">
        <ele>9</ele>
        <time>2021-09-26T09:29:08.000Z</time>
      </trkpt>
      <trkpt lat="47.29256" lon="-2.26143">
        <ele>9</ele>
        <time>2021-09-26T09:29:11.000Z</time>
      </trkpt>
      <trkpt lat="47.29244" lon="-2.26117">
        <ele>9</ele>
        <time>2021-09-26T09:29:17.000Z</time>
      </trkpt>
      <trkpt lat="47.29238" lon="-2.26105">
        <ele>9</ele>
        <time>2021-09-26T09:29:20.000Z</time>
      </trkpt>
      <trkpt lat="47.29238" lon="-2.26098">
        <ele>9</ele>
        <time>2021-09-26T09:29:22.000Z</time>
      </trkpt>
      <trkpt lat="47.29243" lon="-2.2609">
        <ele>9</ele>
        <time>2021-09-26T09:29:26.000Z</time>
      </trkpt>
      <trkpt lat="47.29245" lon="-2.26088">
        <ele>9</ele>
        <time>2021-09-26T09:29:27.000Z</time>
      </trkpt>
      <trkpt lat="47.29258" lon="-2.26081">
        <ele>9</ele>
        <time>2021-09-26T09:29:32.000Z</time>
      </trkpt>
      <trkpt lat="47.29273" lon="-2.2607">
        <ele>9</ele>
        <time>2021-09-26T09:29:37.000Z</time>
      </trkpt>
      <trkpt lat="47.29275" lon="-2.26065">
        <ele>9</ele>
        <time>2021-09-26T09:29:38.000Z</time>
      </trkpt>
      <trkpt lat="47.29274" lon="-2.26054">
        <ele>9</ele>
        <time>2021-09-26T09:29:40.000Z</time>
      </trkpt>
      <trkpt lat="47.29267" lon="-2.26032">
        <ele>9</ele>
        <time>2021-09-26T09:29:43.000Z</time>
      </trkpt>
      <trkpt lat="47.29261" lon="-2.26019">
        <ele>9</ele>
        <time>2021-09-26T09:29:45.000Z</time>
      </trkpt>
      <trkpt lat="47.29253" lon="-2.25996">
        <ele>9</ele>
        <time>2021-09-26T09:29:50.000Z</time>
      </trkpt>
      <trkpt lat="47.29253" lon="-2.25993">
        <ele>9</ele>
        <time>2021-09-26T09:29:51.000Z</time>
      </trkpt>
      <trkpt lat="47.29261" lon="-2.25984">
        <ele>9</ele>
        <time>2021-09-26T09:29:54.000Z</time>
      </trkpt>
      <trkpt lat="47.2928" lon="-2.25974">
        <ele>9</ele>
        <time>2021-09-26T09:29:59.000Z</time>
      </trkpt>
      <trkpt lat="47.29284" lon="-2.25973">
        <ele>8.6000003814697</ele>
        <time>2021-09-26T09:30:00.000Z</time>
      </trkpt>
      <trkpt lat="47.29291" lon="-2.2597">
        <ele>8.1999998092651</ele>
        <time>2021-09-26T09:30:01.000Z</time>
      </trkpt>
      <trkpt lat="47.29298" lon="-2.25969">
        <ele>7.8000001907349</ele>
        <time>2021-09-26T09:30:02.000Z</time>
      </trkpt>
      <trkpt lat="47.29304" lon="-2.25969">
        <ele>7.4000000953674</ele>
        <time>2021-09-26T09:30:03.000Z</time>
      </trkpt>
      <trkpt lat="47.29308" lon="-2.2597">
        <ele>7</ele>
        <time>2021-09-26T09:30:04.000Z</time>
      </trkpt>
      <trkpt lat="47.29312" lon="-2.25972">
        <ele>7</ele>
        <time>2021-09-26T09:30:05.000Z</time>
      </trkpt>
      <trkpt lat="47.29331" lon="-2.25977">
        <ele>7</ele>
        <time>2021-09-26T09:30:09.000Z</time>
      </trkpt>
      <trkpt lat="47.2934" lon="-2.25971">
        <ele>7</ele>
        <time>2021-09-26T09:30:11.000Z</time>
      </trkpt>
      <trkpt lat="47.29344" lon="-2.25966">
        <ele>7</ele>
        <time>2021-09-26T09:30:12.000Z</time>
      </trkpt>
      <trkpt lat="47.2936" lon="-2.25943">
        <ele>7</ele>
        <time>2021-09-26T09:30:17.000Z</time>
      </trkpt>
      <trkpt lat="47.29361" lon="-2.25919">
        <ele>7</ele>
        <time>2021-09-26T09:30:21.000Z</time>
      </trkpt>
      <trkpt lat="47.2936" lon="-2.25913">
        <ele>7</ele>
        <time>2021-09-26T09:30:22.000Z</time>
      </trkpt>
      <trkpt lat="47.29359" lon="-2.25884">
        <ele>7</ele>
        <time>2021-09-26T09:30:27.000Z</time>
      </trkpt>
      <trkpt lat="47.29358" lon="-2.25881">
        <ele>7</ele>
        <time>2021-09-26T09:30:28.000Z</time>
      </trkpt>
      <trkpt lat="47.29352" lon="-2.25879">
        <ele>7</ele>
        <time>2021-09-26T09:30:30.000Z</time>
      </trkpt>
      <trkpt lat="47.29337" lon="-2.25884">
        <ele>7</ele>
        <time>2021-09-26T09:30:34.000Z</time>
      </trkpt>
      <trkpt lat="47.29333" lon="-2.25885">
        <ele>7</ele>
        <time>2021-09-26T09:30:35.000Z</time>
      </trkpt>
      <trkpt lat="47.29324" lon="-2.25883">
        <ele>7</ele>
        <time>2021-09-26T09:30:38.000Z</time>
      </trkpt>
      <trkpt lat="47.29317" lon="-2.25865">
        <ele>7</ele>
        <time>2021-09-26T09:30:43.000Z</time>
      </trkpt>
      <trkpt lat="47.29314" lon="-2.25852">
        <ele>7</ele>
        <time>2021-09-26T09:30:48.000Z</time>
      </trkpt>
      <trkpt lat="47.29304" lon="-2.25849">
        <ele>7</ele>
        <time>2021-09-26T09:30:52.000Z</time>
      </trkpt>
      <trkpt lat="47.29302" lon="-2.25857">
        <ele>7</ele>
        <time>2021-09-26T09:30:56.000Z</time>
      </trkpt>
      <trkpt lat="47.29306" lon="-2.25864">
        <ele>7</ele>
        <time>2021-09-26T09:30:58.000Z</time>
      </trkpt>
      <trkpt lat="47.29311" lon="-2.25871">
        <ele>7</ele>
        <time>2021-09-26T09:31:00.000Z</time>
      </trkpt>
      <trkpt lat="47.29315" lon="-2.25889">
        <ele>7</ele>
        <time>2021-09-26T09:31:05.000Z</time>
      </trkpt>
      <trkpt lat="47.29314" lon="-2.25893">
        <ele>7</ele>
        <time>2021-09-26T09:31:06.000Z</time>
      </trkpt>
      <trkpt lat="47.29307" lon="-2.25901">
        <ele>7</ele>
        <time>2021-09-26T09:31:09.000Z</time>
      </trkpt>
      <trkpt lat="47.29299" lon="-2.2591">
        <ele>7</ele>
        <time>2021-09-26T09:31:13.000Z</time>
      </trkpt>
      <trkpt lat="47.29284" lon="-2.25923">
        <ele>7</ele>
        <time>2021-09-26T09:31:18.000Z</time>
      </trkpt>
      <trkpt lat="47.29274" lon="-2.25935">
        <ele>7</ele>
        <time>2021-09-26T09:31:21.000Z</time>
      </trkpt>
      <trkpt lat="47.29263" lon="-2.25944">
        <ele>7</ele>
        <time>2021-09-26T09:31:24.000Z</time>
      </trkpt>
      <trkpt lat="47.29233" lon="-2.25958">
        <ele>7</ele>
        <time>2021-09-26T09:31:31.000Z</time>
      </trkpt>
      <trkpt lat="47.29206" lon="-2.25975">
        <ele>7</ele>
        <time>2021-09-26T09:31:38.000Z</time>
      </trkpt>
      <trkpt lat="47.29184" lon="-2.25978">
        <ele>7</ele>
        <time>2021-09-26T09:31:43.000Z</time>
      </trkpt>
      <trkpt lat="47.29154" lon="-2.2598">
        <ele>7</ele>
        <time>2021-09-26T09:31:49.000Z</time>
      </trkpt>
      <trkpt lat="47.29144" lon="-2.25979">
        <ele>7</ele>
        <time>2021-09-26T09:31:51.000Z</time>
      </trkpt>
      <trkpt lat="47.29125" lon="-2.25976">
        <ele>7</ele>
        <time>2021-09-26T09:31:55.000Z</time>
      </trkpt>
      <trkpt lat="47.29102" lon="-2.25984">
        <ele>7</ele>
        <time>2021-09-26T09:32:01.000Z</time>
      </trkpt>
      <trkpt lat="47.29088" lon="-2.26">
        <ele>7</ele>
        <time>2021-09-26T09:32:07.000Z</time>
      </trkpt>
      <trkpt lat="47.29086" lon="-2.2601">
        <ele>7</ele>
        <time>2021-09-26T09:32:12.000Z</time>
      </trkpt>
      <trkpt lat="47.29093" lon="-2.2603">
        <ele>7</ele>
        <time>2021-09-26T09:32:17.000Z</time>
      </trkpt>
      <trkpt lat="47.29104" lon="-2.26058">
        <ele>7</ele>
        <time>2021-09-26T09:32:23.000Z</time>
      </trkpt>
      <trkpt lat="47.29107" lon="-2.26069">
        <ele>7</ele>
        <time>2021-09-26T09:32:27.000Z</time>
      </trkpt>
      <trkpt lat="47.29107" lon="-2.26071">
        <ele>7</ele>
        <time>2021-09-26T09:32:28.000Z</time>
      </trkpt>
      <trkpt lat="47.29108" lon="-2.26082">
        <ele>7</ele>
        <time>2021-09-26T09:32:35.000Z</time>
      </trkpt>
      <trkpt lat="47.29108" lon="-2.26084">
        <ele>7</ele>
        <time>2021-09-26T09:32:37.000Z</time>
      </trkpt>
      <trkpt lat="47.29108" lon="-2.26088">
        <ele>6.8000001907349</ele>
        <time>2021-09-26T09:36:39.000Z</time>
      </trkpt>
      <trkpt lat="47.29108" lon="-2.2609">
        <ele>6.8000001907349</ele>
        <time>2021-09-26T09:36:40.000Z</time>
      </trkpt>
      <trkpt lat="47.29106" lon="-2.26111">
        <ele>6.8000001907349</ele>
        <time>2021-09-26T09:36:44.000Z</time>
      </trkpt>
      <trkpt lat="47.29105" lon="-2.26117">
        <ele>6.8000001907349</ele>
        <time>2021-09-26T09:36:45.000Z</time>
      </trkpt>
      <trkpt lat="47.29103" lon="-2.26129">
        <ele>7.1999998092651</ele>
        <time>2021-09-26T09:36:47.000Z</time>
      </trkpt>
      <trkpt lat="47.29102" lon="-2.26135">
        <ele>7.5999999046326</ele>
        <time>2021-09-26T09:36:48.000Z</time>
      </trkpt>
      <trkpt lat="47.29102" lon="-2.26141">
        <ele>8</ele>
        <time>2021-09-26T09:36:49.000Z</time>
      </trkpt>
      <trkpt lat="47.29101" lon="-2.26148">
        <ele>8.3999996185303</ele>
        <time>2021-09-26T09:36:50.000Z</time>
      </trkpt>
      <trkpt lat="47.29101" lon="-2.26154">
        <ele>8.8000001907349</ele>
        <time>2021-09-26T09:36:51.000Z</time>
      </trkpt>
      <trkpt lat="47.29094" lon="-2.26197">
        <ele>8.8000001907349</ele>
        <time>2021-09-26T09:36:57.000Z</time>
      </trkpt>
      <trkpt lat="47.29083" lon="-2.26256">
        <ele>8.8000001907349</ele>
        <time>2021-09-26T09:37:05.000Z</time>
      </trkpt>
      <trkpt lat="47.29078" lon="-2.26285">
        <ele>9.1999998092651</ele>
        <time>2021-09-26T09:37:09.000Z</time>
      </trkpt>
      <trkpt lat="47.29076" lon="-2.26292">
        <ele>9.6000003814697</ele>
        <time>2021-09-26T09:37:10.000Z</time>
      </trkpt>
      <trkpt lat="47.29074" lon="-2.26298">
        <ele>10</ele>
        <time>2021-09-26T09:37:11.000Z</time>
      </trkpt>
      <trkpt lat="47.29073" lon="-2.26305">
        <ele>10.39999961853</ele>
        <time>2021-09-26T09:37:12.000Z</time>
      </trkpt>
      <trkpt lat="47.29071" lon="-2.26312">
        <ele>10.800000190735</ele>
        <time>2021-09-26T09:37:13.000Z</time>
      </trkpt>
      <trkpt lat="47.29061" lon="-2.26335">
        <ele>10.800000190735</ele>
        <time>2021-09-26T09:37:17.000Z</time>
      </trkpt>
      <trkpt lat="47.29053" lon="-2.26344">
        <ele>10.800000190735</ele>
        <time>2021-09-26T09:37:19.000Z</time>
      </trkpt>
      <trkpt lat="47.29043" lon="-2.26352">
        <ele>10.800000190735</ele>
        <time>2021-09-26T09:37:21.000Z</time>
      </trkpt>
      <trkpt lat="47.29029" lon="-2.26362">
        <ele>10.800000190735</ele>
        <time>2021-09-26T09:37:24.000Z</time>
      </trkpt>
      <trkpt lat="47.29021" lon="-2.2637">
        <ele>10.800000190735</ele>
        <time>2021-09-26T09:37:26.000Z</time>
      </trkpt>
      <trkpt lat="47.29017" lon="-2.26383">
        <ele>10.800000190735</ele>
        <time>2021-09-26T09:37:28.000Z</time>
      </trkpt>
      <trkpt lat="47.29017" lon="-2.26419">
        <ele>10.800000190735</ele>
        <time>2021-09-26T09:37:33.000Z</time>
      </trkpt>
      <trkpt lat="47.29022" lon="-2.26467">
        <ele>10.800000190735</ele>
        <time>2021-09-26T09:37:38.000Z</time>
      </trkpt>
      <trkpt lat="47.29034" lon="-2.26543">
        <ele>10.800000190735</ele>
        <time>2021-09-26T09:37:45.000Z</time>
      </trkpt>
      <trkpt lat="47.29039" lon="-2.26561">
        <ele>10</ele>
        <time>2021-09-26T09:37:47.000Z</time>
      </trkpt>
      <trkpt lat="47.29041" lon="-2.26569">
        <ele>9.6000003814697</ele>
        <time>2021-09-26T09:37:48.000Z</time>
      </trkpt>
      <trkpt lat="47.29043" lon="-2.26577">
        <ele>9.1999998092651</ele>
        <time>2021-09-26T09:37:49.000Z</time>
      </trkpt>
      <trkpt lat="47.29043" lon="-2.26583">
        <ele>8.8000001907349</ele>
        <time>2021-09-26T09:37:50.000Z</time>
      </trkpt>
      <trkpt lat="47.29046" lon="-2.26606">
        <ele>8.8000001907349</ele>
        <time>2021-09-26T09:37:54.000Z</time>
      </trkpt>
      <trkpt lat="47.29047" lon="-2.2662">
        <ele>8.8000001907349</ele>
        <time>2021-09-26T09:37:56.000Z</time>
      </trkpt>
      <trkpt lat="47.2905" lon="-2.26673">
        <ele>8.8000001907349</ele>
        <time>2021-09-26T09:38:02.000Z</time>
      </trkpt>
      <trkpt lat="47.29057" lon="-2.2674">
        <ele>8.1999998092651</ele>
        <time>2021-09-26T09:38:08.000Z</time>
      </trkpt>
      <trkpt lat="47.29059" lon="-2.26752">
        <ele>7.8000001907349</ele>
        <time>2021-09-26T09:38:09.000Z</time>
      </trkpt>
      <trkpt lat="47.2906" lon="-2.26765">
        <ele>7.1999998092651</ele>
        <time>2021-09-26T09:38:10.000Z</time>
      </trkpt>
      <trkpt lat="47.29062" lon="-2.26778">
        <ele>6.8000001907349</ele>
        <time>2021-09-26T09:38:11.000Z</time>
      </trkpt>
      <trkpt lat="47.29063" lon="-2.26791">
        <ele>6.1999998092651</ele>
        <time>2021-09-26T09:38:12.000Z</time>
      </trkpt>
      <trkpt lat="47.29064" lon="-2.26804">
        <ele>5.8000001907349</ele>
        <time>2021-09-26T09:38:13.000Z</time>
      </trkpt>
      <trkpt lat="47.29064" lon="-2.26818">
        <ele>5.4000000953674</ele>
        <time>2021-09-26T09:38:14.000Z</time>
      </trkpt>
      <trkpt lat="47.29064" lon="-2.26832">
        <ele>5</ele>
        <time>2021-09-26T09:38:15.000Z</time>
      </trkpt>
      <trkpt lat="47.29064" lon="-2.26845">
        <ele>4.5999999046326</ele>
        <time>2021-09-26T09:38:16.000Z</time>
      </trkpt>
      <trkpt lat="47.29064" lon="-2.26858">
        <ele>4.1999998092651</ele>
        <time>2021-09-26T09:38:17.000Z</time>
      </trkpt>
      <trkpt lat="47.29062" lon="-2.26895">
        <ele>4.1999998092651</ele>
        <time>2021-09-26T09:38:20.000Z</time>
      </trkpt>
      <trkpt lat="47.29058" lon="-2.2696">
        <ele>3.7999999523163</ele>
        <time>2021-09-26T09:38:26.000Z</time>
      </trkpt>
      <trkpt lat="47.29058" lon="-2.26969">
        <ele>3.4000000953674</ele>
        <time>2021-09-26T09:38:27.000Z</time>
      </trkpt>
      <trkpt lat="47.29058" lon="-2.26978">
        <ele>3</ele>
        <time>2021-09-26T09:38:28.000Z</time>
      </trkpt>
      <trkpt lat="47.29058" lon="-2.26987">
        <ele>2.4000000953674</ele>
        <time>2021-09-26T09:38:29.000Z</time>
      </trkpt>
      <trkpt lat="47.29058" lon="-2.26995">
        <ele>2</ele>
        <time>2021-09-26T09:38:30.000Z</time>
      </trkpt>
      <trkpt lat="47.29057" lon="-2.27003">
        <ele>2</ele>
        <time>2021-09-26T09:38:31.000Z</time>
      </trkpt>
      <trkpt lat="47.29056" lon="-2.2701">
        <ele>2</ele>
        <time>2021-09-26T09:38:32.000Z</time>
      </trkpt>
      <trkpt lat="47.29058" lon="-2.27036">
        <ele>2</ele>
        <time>2021-09-26T09:38:36.000Z</time>
      </trkpt>
      <trkpt lat="47.29062" lon="-2.2706">
        <ele>2</ele>
        <time>2021-09-26T09:38:40.000Z</time>
      </trkpt>
      <trkpt lat="47.29053" lon="-2.27086">
        <ele>2</ele>
        <time>2021-09-26T09:38:45.000Z</time>
      </trkpt>
      <trkpt lat="47.29039" lon="-2.27095">
        <ele>2</ele>
        <time>2021-09-26T09:38:49.000Z</time>
      </trkpt>
      <trkpt lat="47.29025" lon="-2.27105">
        <ele>2</ele>
        <time>2021-09-26T09:38:53.000Z</time>
      </trkpt>
      <trkpt lat="47.29024" lon="-2.27113">
        <ele>2</ele>
        <time>2021-09-26T09:38:55.000Z</time>
      </trkpt>
      <trkpt lat="47.29024" lon="-2.27116">
        <ele>2</ele>
        <time>2021-09-26T09:38:56.000Z</time>
      </trkpt>
      <trkpt lat="47.29035" lon="-2.27132">
        <ele>2</ele>
        <time>2021-09-26T09:39:02.000Z</time>
      </trkpt>
      <trkpt lat="47.29039" lon="-2.27138">
        <ele>2</ele>
        <time>2021-09-26T09:39:04.000Z</time>
      </trkpt>
      <trkpt lat="47.2905" lon="-2.27151">
        <ele>2</ele>
        <time>2021-09-26T09:39:07.000Z</time>
      </trkpt>
      <trkpt lat="47.29065" lon="-2.27182">
        <ele>2</ele>
        <time>2021-09-26T09:39:12.000Z</time>
      </trkpt>
      <trkpt lat="47.29075" lon="-2.27193">
        <ele>2</ele>
        <time>2021-09-26T09:39:14.000Z</time>
      </trkpt>
      <trkpt lat="47.29088" lon="-2.27197">
        <ele>2</ele>
        <time>2021-09-26T09:39:16.000Z</time>
      </trkpt>
      <trkpt lat="47.29098" lon="-2.27197">
        <ele>2</ele>
        <time>2021-09-26T09:39:18.000Z</time>
      </trkpt>
      <trkpt lat="47.29102" lon="-2.27197">
        <ele>2</ele>
        <time>2021-09-26T09:39:19.000Z</time>
      </trkpt>
      <trkpt lat="47.29111" lon="-2.27199">
        <ele>2</ele>
        <time>2021-09-26T09:39:23.000Z</time>
      </trkpt>
      <trkpt lat="47.29114" lon="-2.27206">
        <ele>2</ele>
        <time>2021-09-26T09:39:29.000Z</time>
      </trkpt>
      <trkpt lat="47.29114" lon="-2.27212">
        <ele>2</ele>
        <time>2021-09-26T09:39:32.000Z</time>
      </trkpt>
      <trkpt lat="47.29114" lon="-2.27218">
        <ele>2</ele>
        <time>2021-09-26T09:39:34.000Z</time>
      </trkpt>
      <trkpt lat="47.2911" lon="-2.27244">
        <ele>2</ele>
        <time>2021-09-26T09:39:39.000Z</time>
      </trkpt>
      <trkpt lat="47.29108" lon="-2.2727">
        <ele>2</ele>
        <time>2021-09-26T09:39:44.000Z</time>
      </trkpt>
      <trkpt lat="47.29104" lon="-2.27302">
        <ele>2</ele>
        <time>2021-09-26T09:39:49.000Z</time>
      </trkpt>
      <trkpt lat="47.29103" lon="-2.27309">
        <ele>2</ele>
        <time>2021-09-26T09:39:50.000Z</time>
      </trkpt>
      <trkpt lat="47.29097" lon="-2.27326">
        <ele>2</ele>
        <time>2021-09-26T09:39:53.000Z</time>
      </trkpt>
      <trkpt lat="47.29095" lon="-2.27331">
        <ele>2</ele>
        <time>2021-09-26T09:39:54.000Z</time>
      </trkpt>
      <trkpt lat="47.29094" lon="-2.27348">
        <ele>2</ele>
        <time>2021-09-26T09:39:59.000Z</time>
      </trkpt>
      <trkpt lat="47.29099" lon="-2.27359">
        <ele>2</ele>
        <time>2021-09-26T09:40:05.000Z</time>
      </trkpt>
      <trkpt lat="47.29099" lon="-2.27362">
        <ele>2</ele>
        <time>2021-09-26T09:40:06.000Z</time>
      </trkpt>
      <trkpt lat="47.29102" lon="-2.27374">
        <ele>2</ele>
        <time>2021-09-26T09:40:10.000Z</time>
      </trkpt>
      <trkpt lat="47.29103" lon="-2.27383">
        <ele>2</ele>
        <time>2021-09-26T09:40:12.000Z</time>
      </trkpt>
      <trkpt lat="47.2911" lon="-2.27424">
        <ele>2</ele>
        <time>2021-09-26T09:40:20.000Z</time>
      </trkpt>
      <trkpt lat="47.29108" lon="-2.2746">
        <ele>2</ele>
        <time>2021-09-26T09:40:26.000Z</time>
      </trkpt>
      <trkpt lat="47.29106" lon="-2.27488">
        <ele>2</ele>
        <time>2021-09-26T09:40:32.000Z</time>
      </trkpt>
      <trkpt lat="47.29103" lon="-2.27518">
        <ele>2</ele>
        <time>2021-09-26T09:40:39.000Z</time>
      </trkpt>
      <trkpt lat="47.29103" lon="-2.27524">
        <ele>2</ele>
        <time>2021-09-26T09:40:41.000Z</time>
      </trkpt>
      <trkpt lat="47.29096" lon="-2.27531">
        <ele>2</ele>
        <time>2021-09-26T09:40:44.000Z</time>
      </trkpt>
      <trkpt lat="47.29093" lon="-2.27533">
        <ele>2.4000000953674</ele>
        <time>2021-09-26T09:40:45.000Z</time>
      </trkpt>
      <trkpt lat="47.29089" lon="-2.27534">
        <ele>3</ele>
        <time>2021-09-26T09:40:46.000Z</time>
      </trkpt>
      <trkpt lat="47.29085" lon="-2.27535">
        <ele>3.4000000953674</ele>
        <time>2021-09-26T09:40:47.000Z</time>
      </trkpt>
      <trkpt lat="47.29081" lon="-2.27537">
        <ele>3.7999999523163</ele>
        <time>2021-09-26T09:40:48.000Z</time>
      </trkpt>
      <trkpt lat="47.29076" lon="-2.27537">
        <ele>4.1999998092651</ele>
        <time>2021-09-26T09:40:49.000Z</time>
      </trkpt>
      <trkpt lat="47.29041" lon="-2.2753">
        <ele>4.1999998092651</ele>
        <time>2021-09-26T09:40:55.000Z</time>
      </trkpt>
      <trkpt lat="47.28995" lon="-2.27526">
        <ele>4.1999998092651</ele>
        <time>2021-09-26T09:41:03.000Z</time>
      </trkpt>
      <trkpt lat="47.28946" lon="-2.27526">
        <ele>4.1999998092651</ele>
        <time>2021-09-26T09:41:11.000Z</time>
      </trkpt>
      <trkpt lat="47.28897" lon="-2.27528">
        <ele>4.1999998092651</ele>
        <time>2021-09-26T09:41:19.000Z</time>
      </trkpt>
      <trkpt lat="47.2887" lon="-2.27533">
        <ele>4.1999998092651</ele>
        <time>2021-09-26T09:41:24.000Z</time>
      </trkpt>
      <trkpt lat="47.28828" lon="-2.27538">
        <ele>4.1999998092651</ele>
        <time>2021-09-26T09:41:31.000Z</time>
      </trkpt>
      <trkpt lat="47.28805" lon="-2.27542">
        <ele>4.1999998092651</ele>
        <time>2021-09-26T09:41:35.000Z</time>
      </trkpt>
      <trkpt lat="47.28793" lon="-2.27539">
        <ele>4.1999998092651</ele>
        <time>2021-09-26T09:41:37.000Z</time>
      </trkpt>
      <trkpt lat="47.28782" lon="-2.27533">
        <ele>4.1999998092651</ele>
        <time>2021-09-26T09:41:39.000Z</time>
      </trkpt>
      <trkpt lat="47.28759" lon="-2.27524">
        <ele>4.1999998092651</ele>
        <time>2021-09-26T09:41:43.000Z</time>
      </trkpt>
      <trkpt lat="47.2872" lon="-2.27504">
        <ele>4.1999998092651</ele>
        <time>2021-09-26T09:41:50.000Z</time>
      </trkpt>
      <trkpt lat="47.28685" lon="-2.27476">
        <ele>4.1999998092651</ele>
        <time>2021-09-26T09:41:57.000Z</time>
      </trkpt>
      <trkpt lat="47.28675" lon="-2.27465">
        <ele>4.5999999046326</ele>
        <time>2021-09-26T09:41:59.000Z</time>
      </trkpt>
      <trkpt lat="47.28671" lon="-2.2746">
        <ele>5</ele>
        <time>2021-09-26T09:42:00.000Z</time>
      </trkpt>
      <trkpt lat="47.28667" lon="-2.27455">
        <ele>5.4000000953674</ele>
        <time>2021-09-26T09:42:01.000Z</time>
      </trkpt>
      <trkpt lat="47.28663" lon="-2.27449">
        <ele>5.8000001907349</ele>
        <time>2021-09-26T09:42:02.000Z</time>
      </trkpt>
      <trkpt lat="47.28659" lon="-2.27443">
        <ele>6.1999998092651</ele>
        <time>2021-09-26T09:42:03.000Z</time>
      </trkpt>
      <trkpt lat="47.28627" lon="-2.27384">
        <ele>6.1999998092651</ele>
        <time>2021-09-26T09:42:12.000Z</time>
      </trkpt>
      <trkpt lat="47.28617" lon="-2.27363">
        <ele>6.8000001907349</ele>
        <time>2021-09-26T09:42:15.000Z</time>
      </trkpt>
      <trkpt lat="47.28614" lon="-2.27357">
        <ele>7.1999998092651</ele>
        <time>2021-09-26T09:42:16.000Z</time>
      </trkpt>
      <trkpt lat="47.2861" lon="-2.27351">
        <ele>7.5999999046326</ele>
        <time>2021-09-26T09:42:17.000Z</time>
      </trkpt>
      <trkpt lat="47.28606" lon="-2.27347">
        <ele>8</ele>
        <time>2021-09-26T09:42:18.000Z</time>
      </trkpt>
      <trkpt lat="47.286" lon="-2.27345">
        <ele>8.3999996185303</ele>
        <time>2021-09-26T09:42:19.000Z</time>
      </trkpt>
      <trkpt lat="47.28584" lon="-2.2735">
        <ele>8.3999996185303</ele>
        <time>2021-09-26T09:42:22.000Z</time>
      </trkpt>
      <trkpt lat="47.28569" lon="-2.27362">
        <ele>8.8000001907349</ele>
        <time>2021-09-26T09:42:25.000Z</time>
      </trkpt>
      <trkpt lat="47.28563" lon="-2.27365">
        <ele>9.1999998092651</ele>
        <time>2021-09-26T09:42:26.000Z</time>
      </trkpt>
      <trkpt lat="47.28558" lon="-2.27367">
        <ele>9.6000003814697</ele>
        <time>2021-09-26T09:42:27.000Z</time>
      </trkpt>
      <trkpt lat="47.28552" lon="-2.27368">
        <ele>10.199999809265</ele>
        <time>2021-09-26T09:42:28.000Z</time>
      </trkpt>
      <trkpt lat="47.28547" lon="-2.27368">
        <ele>10.60000038147</ele>
        <time>2021-09-26T09:42:29.000Z</time>
      </trkpt>
      <trkpt lat="47.28541" lon="-2.27368">
        <ele>10.60000038147</ele>
        <time>2021-09-26T09:42:30.000Z</time>
      </trkpt>
      <trkpt lat="47.2853" lon="-2.27367">
        <ele>10.60000038147</ele>
        <time>2021-09-26T09:42:32.000Z</time>
      </trkpt>
      <trkpt lat="47.28498" lon="-2.27365">
        <ele>10.60000038147</ele>
        <time>2021-09-26T09:42:38.000Z</time>
      </trkpt>
      <trkpt lat="47.28474" lon="-2.2736">
        <ele>11</ele>
        <time>2021-09-26T09:42:43.000Z</time>
      </trkpt>
      <trkpt lat="47.28469" lon="-2.27359">
        <ele>11.39999961853</ele>
        <time>2021-09-26T09:42:44.000Z</time>
      </trkpt>
      <trkpt lat="47.28465" lon="-2.27359">
        <ele>11.800000190735</ele>
        <time>2021-09-26T09:42:45.000Z</time>
      </trkpt>
      <trkpt lat="47.28461" lon="-2.27358">
        <ele>12.199999809265</ele>
        <time>2021-09-26T09:42:46.000Z</time>
      </trkpt>
      <trkpt lat="47.28456" lon="-2.27357">
        <ele>12.60000038147</ele>
        <time>2021-09-26T09:42:47.000Z</time>
      </trkpt>
      <trkpt lat="47.28427" lon="-2.27356">
        <ele>12.60000038147</ele>
        <time>2021-09-26T09:42:54.000Z</time>
      </trkpt>
      <trkpt lat="47.2839" lon="-2.27362">
        <ele>12.60000038147</ele>
        <time>2021-09-26T09:43:02.000Z</time>
      </trkpt>
      <trkpt lat="47.28386" lon="-2.27363">
        <ele>12.60000038147</ele>
        <time>2021-09-26T09:43:03.000Z</time>
      </trkpt>
      <trkpt lat="47.28382" lon="-2.27371">
        <ele>12.60000038147</ele>
        <time>2021-09-26T09:43:05.000Z</time>
      </trkpt>
      <trkpt lat="47.28378" lon="-2.27385">
        <ele>13.39999961853</ele>
        <time>2021-09-26T09:43:08.000Z</time>
      </trkpt>
      <trkpt lat="47.28377" lon="-2.2739">
        <ele>13.800000190735</ele>
        <time>2021-09-26T09:43:09.000Z</time>
      </trkpt>
      <trkpt lat="47.28377" lon="-2.27395">
        <ele>14.199999809265</ele>
        <time>2021-09-26T09:43:10.000Z</time>
      </trkpt>
      <trkpt lat="47.28377" lon="-2.274">
        <ele>14.60000038147</ele>
        <time>2021-09-26T09:43:11.000Z</time>
      </trkpt>
      <trkpt lat="47.28374" lon="-2.27408">
        <ele>15.199999809265</ele>
        <time>2021-09-26T09:43:13.000Z</time>
      </trkpt>
      <trkpt lat="47.28374" lon="-2.27412">
        <ele>15.60000038147</ele>
        <time>2021-09-26T09:43:14.000Z</time>
      </trkpt>
      <trkpt lat="47.28373" lon="-2.27417">
        <ele>16</ele>
        <time>2021-09-26T09:43:15.000Z</time>
      </trkpt>
      <trkpt lat="47.28373" lon="-2.27422">
        <ele>16.39999961853</ele>
        <time>2021-09-26T09:43:16.000Z</time>
      </trkpt>
      <trkpt lat="47.28373" lon="-2.27427">
        <ele>16.799999237061</ele>
        <time>2021-09-26T09:43:17.000Z</time>
      </trkpt>
      <trkpt lat="47.28371" lon="-2.27444">
        <ele>17.200000762939</ele>
        <time>2021-09-26T09:43:20.000Z</time>
      </trkpt>
      <trkpt lat="47.2837" lon="-2.2745">
        <ele>17.60000038147</ele>
        <time>2021-09-26T09:43:21.000Z</time>
      </trkpt>
      <trkpt lat="47.28369" lon="-2.27456">
        <ele>18</ele>
        <time>2021-09-26T09:43:22.000Z</time>
      </trkpt>
      <trkpt lat="47.28369" lon="-2.27463">
        <ele>18.39999961853</ele>
        <time>2021-09-26T09:43:23.000Z</time>
      </trkpt>
      <trkpt lat="47.28368" lon="-2.27469">
        <ele>18.799999237061</ele>
        <time>2021-09-26T09:43:24.000Z</time>
      </trkpt>
      <trkpt lat="47.28364" lon="-2.27496">
        <ele>18.799999237061</ele>
        <time>2021-09-26T09:43:28.000Z</time>
      </trkpt>
      <trkpt lat="47.28363" lon="-2.27502">
        <ele>18.799999237061</ele>
        <time>2021-09-26T09:43:29.000Z</time>
      </trkpt>
      <trkpt lat="47.28361" lon="-2.27516">
        <ele>18.799999237061</ele>
        <time>2021-09-26T09:43:31.000Z</time>
      </trkpt>
      <trkpt lat="47.28359" lon="-2.27528">
        <ele>18.799999237061</ele>
        <time>2021-09-26T09:43:33.000Z</time>
      </trkpt>
      <trkpt lat="47.28355" lon="-2.27562">
        <ele>18.799999237061</ele>
        <time>2021-09-26T09:43:38.000Z</time>
      </trkpt>
      <trkpt lat="47.28352" lon="-2.27575">
        <ele>18.799999237061</ele>
        <time>2021-09-26T09:43:40.000Z</time>
      </trkpt>
      <trkpt lat="47.28349" lon="-2.27589">
        <ele>18.799999237061</ele>
        <time>2021-09-26T09:43:42.000Z</time>
      </trkpt>
      <trkpt lat="47.2835" lon="-2.27609">
        <ele>18.799999237061</ele>
        <time>2021-09-26T09:43:45.000Z</time>
      </trkpt>
      <trkpt lat="47.28347" lon="-2.27656">
        <ele>18.799999237061</ele>
        <time>2021-09-26T09:43:53.000Z</time>
      </trkpt>
      <trkpt lat="47.2834" lon="-2.27707">
        <ele>18.799999237061</ele>
        <time>2021-09-26T09:44:00.000Z</time>
      </trkpt>
      <trkpt lat="47.28338" lon="-2.27753">
        <ele>18.799999237061</ele>
        <time>2021-09-26T09:44:06.000Z</time>
      </trkpt>
      <trkpt lat="47.28333" lon="-2.27807">
        <ele>18.799999237061</ele>
        <time>2021-09-26T09:44:14.000Z</time>
      </trkpt>
      <trkpt lat="47.28328" lon="-2.27852">
        <ele>18.799999237061</ele>
        <time>2021-09-26T09:44:21.000Z</time>
      </trkpt>
      <trkpt lat="47.28328" lon="-2.27859">
        <ele>18.799999237061</ele>
        <time>2021-09-26T09:44:22.000Z</time>
      </trkpt>
      <trkpt lat="47.28324" lon="-2.27906">
        <ele>18.799999237061</ele>
        <time>2021-09-26T09:44:29.000Z</time>
      </trkpt>
      <trkpt lat="47.28323" lon="-2.27951">
        <ele>18.799999237061</ele>
        <time>2021-09-26T09:44:35.000Z</time>
      </trkpt>
      <trkpt lat="47.28321" lon="-2.27973">
        <ele>18.799999237061</ele>
        <time>2021-09-26T09:44:38.000Z</time>
      </trkpt>
      <trkpt lat="47.28318" lon="-2.27983">
        <ele>18.799999237061</ele>
        <time>2021-09-26T09:44:40.000Z</time>
      </trkpt>
      <trkpt lat="47.28318" lon="-2.28">
        <ele>18.799999237061</ele>
        <time>2021-09-26T09:44:43.000Z</time>
      </trkpt>
      <trkpt lat="47.28319" lon="-2.28008">
        <ele>18.39999961853</ele>
        <time>2021-09-26T09:44:44.000Z</time>
      </trkpt>
      <trkpt lat="47.28319" lon="-2.28016">
        <ele>18</ele>
        <time>2021-09-26T09:44:45.000Z</time>
      </trkpt>
      <trkpt lat="47.28319" lon="-2.28025">
        <ele>17.60000038147</ele>
        <time>2021-09-26T09:44:46.000Z</time>
      </trkpt>
      <trkpt lat="47.28318" lon="-2.28033">
        <ele>17.200000762939</ele>
        <time>2021-09-26T09:44:47.000Z</time>
      </trkpt>
      <trkpt lat="47.28318" lon="-2.28043">
        <ele>16.60000038147</ele>
        <time>2021-09-26T09:44:48.000Z</time>
      </trkpt>
      <trkpt lat="47.2832" lon="-2.28054">
        <ele>16.200000762939</ele>
        <time>2021-09-26T09:44:49.000Z</time>
      </trkpt>
      <trkpt lat="47.28321" lon="-2.28062">
        <ele>15.800000190735</ele>
        <time>2021-09-26T09:44:50.000Z</time>
      </trkpt>
      <trkpt lat="47.28322" lon="-2.2807">
        <ele>15.39999961853</ele>
        <time>2021-09-26T09:44:51.000Z</time>
      </trkpt>
      <trkpt lat="47.28323" lon="-2.28076">
        <ele>14.800000190735</ele>
        <time>2021-09-26T09:44:52.000Z</time>
      </trkpt>
      <trkpt lat="47.28323" lon="-2.2808">
        <ele>14.199999809265</ele>
        <time>2021-09-26T09:44:53.000Z</time>
      </trkpt>
      <trkpt lat="47.28323" lon="-2.28084">
        <ele>13.60000038147</ele>
        <time>2021-09-26T09:44:54.000Z</time>
      </trkpt>
      <trkpt lat="47.28325" lon="-2.28088">
        <ele>12.800000190735</ele>
        <time>2021-09-26T09:44:55.000Z</time>
      </trkpt>
      <trkpt lat="47.28326" lon="-2.28091">
        <ele>12.199999809265</ele>
        <time>2021-09-26T09:44:56.000Z</time>
      </trkpt>
      <trkpt lat="47.28327" lon="-2.28094">
        <ele>12.199999809265</ele>
        <time>2021-09-26T09:44:59.000Z</time>
      </trkpt>
      <trkpt lat="47.2833" lon="-2.28094">
        <ele>12.199999809265</ele>
        <time>2021-09-26T09:45:28.000Z</time>
      </trkpt>
      <trkpt lat="47.28332" lon="-2.28094">
        <ele>12.199999809265</ele>
        <time>2021-09-26T09:45:29.000Z</time>
      </trkpt>
      <trkpt lat="47.28342" lon="-2.28097">
        <ele>12.199999809265</ele>
        <time>2021-09-26T09:45:36.000Z</time>
      </trkpt>
      <trkpt lat="47.28344" lon="-2.28104">
        <ele>12.199999809265</ele>
        <time>2021-09-26T09:45:37.000Z</time>
      </trkpt>
      <trkpt lat="47.28354" lon="-2.28135">
        <ele>12.199999809265</ele>
        <time>2021-09-26T09:45:42.000Z</time>
      </trkpt>
      <trkpt lat="47.28361" lon="-2.28165">
        <ele>12.199999809265</ele>
        <time>2021-09-26T09:45:48.000Z</time>
      </trkpt>
      <trkpt lat="47.28363" lon="-2.28188">
        <ele>12.800000190735</ele>
        <time>2021-09-26T09:45:52.000Z</time>
      </trkpt>
      <trkpt lat="47.28364" lon="-2.28194">
        <ele>13.199999809265</ele>
        <time>2021-09-26T09:45:53.000Z</time>
      </trkpt>
      <trkpt lat="47.28364" lon="-2.282">
        <ele>13.60000038147</ele>
        <time>2021-09-26T09:45:54.000Z</time>
      </trkpt>
      <trkpt lat="47.28365" lon="-2.28205">
        <ele>14</ele>
        <time>2021-09-26T09:45:55.000Z</time>
      </trkpt>
      <trkpt lat="47.28365" lon="-2.2821">
        <ele>14.39999961853</ele>
        <time>2021-09-26T09:45:56.000Z</time>
      </trkpt>
      <trkpt lat="47.28367" lon="-2.28231">
        <ele>15</ele>
        <time>2021-09-26T09:46:00.000Z</time>
      </trkpt>
      <trkpt lat="47.28367" lon="-2.28236">
        <ele>15.39999961853</ele>
        <time>2021-09-26T09:46:01.000Z</time>
      </trkpt>
      <trkpt lat="47.28368" lon="-2.28242">
        <ele>15.800000190735</ele>
        <time>2021-09-26T09:46:02.000Z</time>
      </trkpt>
      <trkpt lat="47.28368" lon="-2.28247">
        <ele>16.799999237061</ele>
        <time>2021-09-26T09:46:03.000Z</time>
      </trkpt>
      <trkpt lat="47.28368" lon="-2.28253">
        <ele>16.799999237061</ele>
        <time>2021-09-26T09:46:04.000Z</time>
      </trkpt>
      <trkpt lat="47.2837" lon="-2.28285">
        <ele>16.799999237061</ele>
        <time>2021-09-26T09:46:10.000Z</time>
      </trkpt>
      <trkpt lat="47.2837" lon="-2.2829">
        <ele>17.200000762939</ele>
        <time>2021-09-26T09:46:11.000Z</time>
      </trkpt>
      <trkpt lat="47.28369" lon="-2.28295">
        <ele>17.60000038147</ele>
        <time>2021-09-26T09:46:12.000Z</time>
      </trkpt>
      <trkpt lat="47.2837" lon="-2.28302">
        <ele>18</ele>
        <time>2021-09-26T09:46:13.000Z</time>
      </trkpt>
      <trkpt lat="47.2837" lon="-2.28307">
        <ele>18.60000038147</ele>
        <time>2021-09-26T09:46:14.000Z</time>
      </trkpt>
      <trkpt lat="47.2837" lon="-2.28313">
        <ele>19</ele>
        <time>2021-09-26T09:46:15.000Z</time>
      </trkpt>
      <trkpt lat="47.2837" lon="-2.28319">
        <ele>19</ele>
        <time>2021-09-26T09:46:16.000Z</time>
      </trkpt>
      <trkpt lat="47.2837" lon="-2.28359">
        <ele>19</ele>
        <time>2021-09-26T09:46:22.000Z</time>
      </trkpt>
      <trkpt lat="47.28373" lon="-2.28398">
        <ele>19</ele>
        <time>2021-09-26T09:46:28.000Z</time>
      </trkpt>
      <trkpt lat="47.28374" lon="-2.28412">
        <ele>19</ele>
        <time>2021-09-26T09:46:30.000Z</time>
      </trkpt>
      <trkpt lat="47.28376" lon="-2.28443">
        <ele>19</ele>
        <time>2021-09-26T09:46:34.000Z</time>
      </trkpt>
      <trkpt lat="47.28379" lon="-2.28509">
        <ele>19</ele>
        <time>2021-09-26T09:46:42.000Z</time>
      </trkpt>
      <trkpt lat="47.28381" lon="-2.28582">
        <ele>19</ele>
        <time>2021-09-26T09:46:51.000Z</time>
      </trkpt>
      <trkpt lat="47.28383" lon="-2.28647">
        <ele>19</ele>
        <time>2021-09-26T09:46:59.000Z</time>
      </trkpt>
      <trkpt lat="47.28385" lon="-2.28697">
        <ele>19</ele>
        <time>2021-09-26T09:47:05.000Z</time>
      </trkpt>
      <trkpt lat="47.28386" lon="-2.28767">
        <ele>19</ele>
        <time>2021-09-26T09:47:13.000Z</time>
      </trkpt>
      <trkpt lat="47.28389" lon="-2.28838">
        <ele>19</ele>
        <time>2021-09-26T09:47:21.000Z</time>
      </trkpt>
      <trkpt lat="47.28391" lon="-2.28914">
        <ele>19</ele>
        <time>2021-09-26T09:47:29.000Z</time>
      </trkpt>
      <trkpt lat="47.28393" lon="-2.28971">
        <ele>19</ele>
        <time>2021-09-26T09:47:36.000Z</time>
      </trkpt>
      <trkpt lat="47.28398" lon="-2.28993">
        <ele>19</ele>
        <time>2021-09-26T09:47:40.000Z</time>
      </trkpt>
      <trkpt lat="47.28409" lon="-2.28995">
        <ele>19</ele>
        <time>2021-09-26T09:47:43.000Z</time>
      </trkpt>
      <trkpt lat="47.28413" lon="-2.28996">
        <ele>19</ele>
        <time>2021-09-26T09:47:44.000Z</time>
      </trkpt>
      <trkpt lat="47.28428" lon="-2.28997">
        <ele>19</ele>
        <time>2021-09-26T09:47:47.000Z</time>
      </trkpt>
      <trkpt lat="47.28439" lon="-2.28999">
        <ele>18.60000038147</ele>
        <time>2021-09-26T09:47:49.000Z</time>
      </trkpt>
      <trkpt lat="47.28444" lon="-2.29">
        <ele>18.200000762939</ele>
        <time>2021-09-26T09:47:50.000Z</time>
      </trkpt>
      <trkpt lat="47.2845" lon="-2.29001">
        <ele>17.799999237061</ele>
        <time>2021-09-26T09:47:51.000Z</time>
      </trkpt>
      <trkpt lat="47.28456" lon="-2.29002">
        <ele>17.39999961853</ele>
        <time>2021-09-26T09:47:52.000Z</time>
      </trkpt>
      <trkpt lat="47.28461" lon="-2.29004">
        <ele>17</ele>
        <time>2021-09-26T09:47:53.000Z</time>
      </trkpt>
      <trkpt lat="47.28492" lon="-2.29015">
        <ele>17</ele>
        <time>2021-09-26T09:47:58.000Z</time>
      </trkpt>
      <trkpt lat="47.28499" lon="-2.29018">
        <ele>16.60000038147</ele>
        <time>2021-09-26T09:47:59.000Z</time>
      </trkpt>
      <trkpt lat="47.28505" lon="-2.29021">
        <ele>16.200000762939</ele>
        <time>2021-09-26T09:48:00.000Z</time>
      </trkpt>
      <trkpt lat="47.28512" lon="-2.29024">
        <ele>15.800000190735</ele>
        <time>2021-09-26T09:48:01.000Z</time>
      </trkpt>
      <trkpt lat="47.28517" lon="-2.29027">
        <ele>15.199999809265</ele>
        <time>2021-09-26T09:48:02.000Z</time>
      </trkpt>
      <trkpt lat="47.28523" lon="-2.2903">
        <ele>14.800000190735</ele>
        <time>2021-09-26T09:48:03.000Z</time>
      </trkpt>
      <trkpt lat="47.28535" lon="-2.29034">
        <ele>14.800000190735</ele>
        <time>2021-09-26T09:48:05.000Z</time>
      </trkpt>
      <trkpt lat="47.28554" lon="-2.29038">
        <ele>14.800000190735</ele>
        <time>2021-09-26T09:48:08.000Z</time>
      </trkpt>
      <trkpt lat="47.2856" lon="-2.29039">
        <ele>14.39999961853</ele>
        <time>2021-09-26T09:48:09.000Z</time>
      </trkpt>
      <trkpt lat="47.28566" lon="-2.2904">
        <ele>14</ele>
        <time>2021-09-26T09:48:10.000Z</time>
      </trkpt>
      <trkpt lat="47.28572" lon="-2.29041">
        <ele>13.60000038147</ele>
        <time>2021-09-26T09:48:11.000Z</time>
      </trkpt>
      <trkpt lat="47.28577" lon="-2.29042">
        <ele>13.199999809265</ele>
        <time>2021-09-26T09:48:12.000Z</time>
      </trkpt>
      <trkpt lat="47.28583" lon="-2.29043">
        <ele>12.800000190735</ele>
        <time>2021-09-26T09:48:13.000Z</time>
      </trkpt>
      <trkpt lat="47.28599" lon="-2.29049">
        <ele>12.800000190735</ele>
        <time>2021-09-26T09:48:16.000Z</time>
      </trkpt>
      <trkpt lat="47.28606" lon="-2.29068">
        <ele>12.800000190735</ele>
        <time>2021-09-26T09:48:19.000Z</time>
      </trkpt>
      <trkpt lat="47.28602" lon="-2.29098">
        <ele>12.800000190735</ele>
        <time>2021-09-26T09:48:23.000Z</time>
      </trkpt>
      <trkpt lat="47.286" lon="-2.29105">
        <ele>12.800000190735</ele>
        <time>2021-09-26T09:48:24.000Z</time>
      </trkpt>
      <trkpt lat="47.28582" lon="-2.29147">
        <ele>12.800000190735</ele>
        <time>2021-09-26T09:48:30.000Z</time>
      </trkpt>
      <trkpt lat="47.28566" lon="-2.29169">
        <ele>12.800000190735</ele>
        <time>2021-09-26T09:48:34.000Z</time>
      </trkpt>
      <trkpt lat="47.28561" lon="-2.29173">
        <ele>12.800000190735</ele>
        <time>2021-09-26T09:48:35.000Z</time>
      </trkpt>
      <trkpt lat="47.28529" lon="-2.292">
        <ele>12.800000190735</ele>
        <time>2021-09-26T09:48:42.000Z</time>
      </trkpt>
      <trkpt lat="47.2852" lon="-2.29227">
        <ele>12.800000190735</ele>
        <time>2021-09-26T09:48:46.000Z</time>
      </trkpt>
      <trkpt lat="47.28521" lon="-2.29243">
        <ele>12.800000190735</ele>
        <time>2021-09-26T09:48:48.000Z</time>
      </trkpt>
      <trkpt lat="47.28521" lon="-2.29264">
        <ele>12.800000190735</ele>
        <time>2021-09-26T09:48:51.000Z</time>
      </trkpt>
      <trkpt lat="47.28522" lon="-2.29277">
        <ele>12.800000190735</ele>
        <time>2021-09-26T09:48:53.000Z</time>
      </trkpt>
      <trkpt lat="47.2852" lon="-2.29292">
        <ele>12.800000190735</ele>
        <time>2021-09-26T09:48:56.000Z</time>
      </trkpt>
      <trkpt lat="47.2851" lon="-2.293">
        <ele>12.800000190735</ele>
        <time>2021-09-26T09:48:59.000Z</time>
      </trkpt>
      <trkpt lat="47.28507" lon="-2.29303">
        <ele>12.800000190735</ele>
        <time>2021-09-26T09:49:00.000Z</time>
      </trkpt>
      <trkpt lat="47.28483" lon="-2.29318">
        <ele>12.800000190735</ele>
        <time>2021-09-26T09:49:07.000Z</time>
      </trkpt>
      <trkpt lat="47.28476" lon="-2.29321">
        <ele>13.199999809265</ele>
        <time>2021-09-26T09:49:09.000Z</time>
      </trkpt>
      <trkpt lat="47.28472" lon="-2.29323">
        <ele>13.800000190735</ele>
        <time>2021-09-26T09:49:10.000Z</time>
      </trkpt>
      <trkpt lat="47.28468" lon="-2.29324">
        <ele>14.199999809265</ele>
        <time>2021-09-26T09:49:11.000Z</time>
      </trkpt>
      <trkpt lat="47.28465" lon="-2.29326">
        <ele>14.60000038147</ele>
        <time>2021-09-26T09:49:12.000Z</time>
      </trkpt>
      <trkpt lat="47.28462" lon="-2.29327">
        <ele>15</ele>
        <time>2021-09-26T09:49:13.000Z</time>
      </trkpt>
      <trkpt lat="47.28458" lon="-2.29329">
        <ele>15</ele>
        <time>2021-09-26T09:49:14.000Z</time>
      </trkpt>
      <trkpt lat="47.28428" lon="-2.29338">
        <ele>15.39999961853</ele>
        <time>2021-09-26T09:49:22.000Z</time>
      </trkpt>
      <trkpt lat="47.28424" lon="-2.2934">
        <ele>15.800000190735</ele>
        <time>2021-09-26T09:49:23.000Z</time>
      </trkpt>
      <trkpt lat="47.2842" lon="-2.29342">
        <ele>16.200000762939</ele>
        <time>2021-09-26T09:49:24.000Z</time>
      </trkpt>
      <trkpt lat="47.28416" lon="-2.29344">
        <ele>16.60000038147</ele>
        <time>2021-09-26T09:49:25.000Z</time>
      </trkpt>
      <trkpt lat="47.28413" lon="-2.29346">
        <ele>17</ele>
        <time>2021-09-26T09:49:26.000Z</time>
      </trkpt>
      <trkpt lat="47.28405" lon="-2.29352">
        <ele>17</ele>
        <time>2021-09-26T09:49:28.000Z</time>
      </trkpt>
      <trkpt lat="47.28372" lon="-2.29372">
        <ele>17</ele>
        <time>2021-09-26T09:49:36.000Z</time>
      </trkpt>
      <trkpt lat="47.28345" lon="-2.29396">
        <ele>17</ele>
        <time>2021-09-26T09:49:42.000Z</time>
      </trkpt>
      <trkpt lat="47.28311" lon="-2.29433">
        <ele>17</ele>
        <time>2021-09-26T09:49:49.000Z</time>
      </trkpt>
      <trkpt lat="47.2828" lon="-2.29457">
        <ele>17</ele>
        <time>2021-09-26T09:49:55.000Z</time>
      </trkpt>
      <trkpt lat="47.28251" lon="-2.29477">
        <ele>17</ele>
        <time>2021-09-26T09:50:01.000Z</time>
      </trkpt>
      <trkpt lat="47.28229" lon="-2.29488">
        <ele>17</ele>
        <time>2021-09-26T09:50:05.000Z</time>
      </trkpt>
      <trkpt lat="47.28224" lon="-2.29491">
        <ele>17</ele>
        <time>2021-09-26T09:50:06.000Z</time>
      </trkpt>
      <trkpt lat="47.28208" lon="-2.29499">
        <ele>17.39999961853</ele>
        <time>2021-09-26T09:50:09.000Z</time>
      </trkpt>
      <trkpt lat="47.28202" lon="-2.29501">
        <ele>18.200000762939</ele>
        <time>2021-09-26T09:50:10.000Z</time>
      </trkpt>
      <trkpt lat="47.28197" lon="-2.29504">
        <ele>18.799999237061</ele>
        <time>2021-09-26T09:50:11.000Z</time>
      </trkpt>
      <trkpt lat="47.28192" lon="-2.29507">
        <ele>19.200000762939</ele>
        <time>2021-09-26T09:50:12.000Z</time>
      </trkpt>
      <trkpt lat="47.28186" lon="-2.2951">
        <ele>19.200000762939</ele>
        <time>2021-09-26T09:50:13.000Z</time>
      </trkpt>
      <trkpt lat="47.28159" lon="-2.29519">
        <ele>19.200000762939</ele>
        <time>2021-09-26T09:50:18.000Z</time>
      </trkpt>
      <trkpt lat="47.28149" lon="-2.29523">
        <ele>19.60000038147</ele>
        <time>2021-09-26T09:50:20.000Z</time>
      </trkpt>
      <trkpt lat="47.28143" lon="-2.29525">
        <ele>20</ele>
        <time>2021-09-26T09:50:21.000Z</time>
      </trkpt>
      <trkpt lat="47.28137" lon="-2.29527">
        <ele>20.39999961853</ele>
        <time>2021-09-26T09:50:22.000Z</time>
      </trkpt>
      <trkpt lat="47.28132" lon="-2.2953">
        <ele>20.799999237061</ele>
        <time>2021-09-26T09:50:23.000Z</time>
      </trkpt>
      <trkpt lat="47.28126" lon="-2.29532">
        <ele>21.200000762939</ele>
        <time>2021-09-26T09:50:24.000Z</time>
      </trkpt>
      <trkpt lat="47.2809" lon="-2.29547">
        <ele>21.200000762939</ele>
        <time>2021-09-26T09:50:31.000Z</time>
      </trkpt>
      <trkpt lat="47.28066" lon="-2.29558">
        <ele>21.200000762939</ele>
        <time>2021-09-26T09:50:37.000Z</time>
      </trkpt>
      <trkpt lat="47.2804" lon="-2.29571">
        <ele>21.200000762939</ele>
        <time>2021-09-26T09:50:43.000Z</time>
      </trkpt>
      <trkpt lat="47.28011" lon="-2.29582">
        <ele>21.200000762939</ele>
        <time>2021-09-26T09:50:49.000Z</time>
      </trkpt>
      <trkpt lat="47.27969" lon="-2.29595">
        <ele>21.200000762939</ele>
        <time>2021-09-26T09:50:57.000Z</time>
      </trkpt>
      <trkpt lat="47.27933" lon="-2.29599">
        <ele>21.200000762939</ele>
        <time>2021-09-26T09:51:04.000Z</time>
      </trkpt>
      <trkpt lat="47.27898" lon="-2.29596">
        <ele>21.200000762939</ele>
        <time>2021-09-26T09:51:11.000Z</time>
      </trkpt>
      <trkpt lat="47.27862" lon="-2.29593">
        <ele>21.200000762939</ele>
        <time>2021-09-26T09:51:19.000Z</time>
      </trkpt>
      <trkpt lat="47.2785" lon="-2.29596">
        <ele>21.200000762939</ele>
        <time>2021-09-26T09:51:23.000Z</time>
      </trkpt>
      <trkpt lat="47.27834" lon="-2.29593">
        <ele>21.200000762939</ele>
        <time>2021-09-26T09:51:27.000Z</time>
      </trkpt>
      <trkpt lat="47.27823" lon="-2.29593">
        <ele>21.200000762939</ele>
        <time>2021-09-26T09:51:29.000Z</time>
      </trkpt>
      <trkpt lat="47.27801" lon="-2.29593">
        <ele>21.200000762939</ele>
        <time>2021-09-26T09:51:33.000Z</time>
      </trkpt>
      <trkpt lat="47.27767" lon="-2.29593">
        <ele>21.200000762939</ele>
        <time>2021-09-26T09:51:39.000Z</time>
      </trkpt>
      <trkpt lat="47.27736" lon="-2.29593">
        <ele>20.799999237061</ele>
        <time>2021-09-26T09:51:44.000Z</time>
      </trkpt>
      <trkpt lat="47.2773" lon="-2.29593">
        <ele>20.39999961853</ele>
        <time>2021-09-26T09:51:45.000Z</time>
      </trkpt>
      <trkpt lat="47.27724" lon="-2.29594">
        <ele>19.799999237061</ele>
        <time>2021-09-26T09:51:46.000Z</time>
      </trkpt>
      <trkpt lat="47.27718" lon="-2.29594">
        <ele>19.39999961853</ele>
        <time>2021-09-26T09:51:47.000Z</time>
      </trkpt>
      <trkpt lat="47.27712" lon="-2.29594">
        <ele>19</ele>
        <time>2021-09-26T09:51:48.000Z</time>
      </trkpt>
      <trkpt lat="47.27669" lon="-2.29595">
        <ele>19</ele>
        <time>2021-09-26T09:51:55.000Z</time>
      </trkpt>
      <trkpt lat="47.27627" lon="-2.29595">
        <ele>19</ele>
        <time>2021-09-26T09:52:02.000Z</time>
      </trkpt>
      <trkpt lat="47.27578" lon="-2.29596">
        <ele>19</ele>
        <time>2021-09-26T09:52:10.000Z</time>
      </trkpt>
      <trkpt lat="47.27527" lon="-2.29596">
        <ele>19</ele>
        <time>2021-09-26T09:52:18.000Z</time>
      </trkpt>
      <trkpt lat="47.27484" lon="-2.29605">
        <ele>19</ele>
        <time>2021-09-26T09:52:25.000Z</time>
      </trkpt>
      <trkpt lat="47.27436" lon="-2.29618">
        <ele>19</ele>
        <time>2021-09-26T09:52:33.000Z</time>
      </trkpt>
      <trkpt lat="47.27399" lon="-2.29627">
        <ele>19</ele>
        <time>2021-09-26T09:52:39.000Z</time>
      </trkpt>
      <trkpt lat="47.27356" lon="-2.29634">
        <ele>19</ele>
        <time>2021-09-26T09:52:46.000Z</time>
      </trkpt>
      <trkpt lat="47.27313" lon="-2.29639">
        <ele>19</ele>
        <time>2021-09-26T09:52:53.000Z</time>
      </trkpt>
      <trkpt lat="47.27277" lon="-2.29643">
        <ele>19</ele>
        <time>2021-09-26T09:52:59.000Z</time>
      </trkpt>
      <trkpt lat="47.27267" lon="-2.29646">
        <ele>19</ele>
        <time>2021-09-26T09:53:03.000Z</time>
      </trkpt>
      <trkpt lat="47.27266" lon="-2.29654">
        <ele>19</ele>
        <time>2021-09-26T09:53:07.000Z</time>
      </trkpt>
      <trkpt lat="47.27267" lon="-2.29656">
        <ele>19</ele>
        <time>2021-09-26T09:53:08.000Z</time>
      </trkpt>
      <trkpt lat="47.27268" lon="-2.29671">
        <ele>19</ele>
        <time>2021-09-26T09:53:15.000Z</time>
      </trkpt>
      <trkpt lat="47.27268" lon="-2.29671">
        <ele>19</ele>
        <time>2021-09-26T09:53:17.000Z</time>
      </trkpt>
      <trkpt lat="47.27271" lon="-2.29688">
        <ele>19</ele>
        <time>2021-09-26T09:54:21.000Z</time>
      </trkpt>
      <trkpt lat="47.27272" lon="-2.29693">
        <ele>19</ele>
        <time>2021-09-26T09:54:22.000Z</time>
      </trkpt>
      <trkpt lat="47.27279" lon="-2.29723">
        <ele>19</ele>
        <time>2021-09-26T09:54:28.000Z</time>
      </trkpt>
      <trkpt lat="47.27286" lon="-2.29753">
        <ele>19</ele>
        <time>2021-09-26T09:54:34.000Z</time>
      </trkpt>
      <trkpt lat="47.27298" lon="-2.29793">
        <ele>19</ele>
        <time>2021-09-26T09:54:42.000Z</time>
      </trkpt>
      <trkpt lat="47.27313" lon="-2.29816">
        <ele>19</ele>
        <time>2021-09-26T09:54:47.000Z</time>
      </trkpt>
      <trkpt lat="47.27331" lon="-2.29841">
        <ele>19</ele>
        <time>2021-09-26T09:54:53.000Z</time>
      </trkpt>
      <trkpt lat="47.27343" lon="-2.29867">
        <ele>19</ele>
        <time>2021-09-26T09:54:57.000Z</time>
      </trkpt>
      <trkpt lat="47.27347" lon="-2.29873">
        <ele>19</ele>
        <time>2021-09-26T09:54:58.000Z</time>
      </trkpt>
      <trkpt lat="47.27368" lon="-2.29915">
        <ele>19</ele>
        <time>2021-09-26T09:55:05.000Z</time>
      </trkpt>
      <trkpt lat="47.27391" lon="-2.29966">
        <ele>19</ele>
        <time>2021-09-26T09:55:13.000Z</time>
      </trkpt>
      <trkpt lat="47.27411" lon="-2.3001">
        <ele>19</ele>
        <time>2021-09-26T09:55:19.000Z</time>
      </trkpt>
      <trkpt lat="47.2742" lon="-2.30032">
        <ele>19</ele>
        <time>2021-09-26T09:55:22.000Z</time>
      </trkpt>
      <trkpt lat="47.27428" lon="-2.30055">
        <ele>19</ele>
        <time>2021-09-26T09:55:25.000Z</time>
      </trkpt>
      <trkpt lat="47.27442" lon="-2.30111">
        <ele>18.60000038147</ele>
        <time>2021-09-26T09:55:32.000Z</time>
      </trkpt>
      <trkpt lat="47.27444" lon="-2.30119">
        <ele>18.200000762939</ele>
        <time>2021-09-26T09:55:33.000Z</time>
      </trkpt>
      <trkpt lat="47.27446" lon="-2.30127">
        <ele>17.799999237061</ele>
        <time>2021-09-26T09:55:34.000Z</time>
      </trkpt>
      <trkpt lat="47.27447" lon="-2.30135">
        <ele>17.39999961853</ele>
        <time>2021-09-26T09:55:35.000Z</time>
      </trkpt>
      <trkpt lat="47.27449" lon="-2.30143">
        <ele>17</ele>
        <time>2021-09-26T09:55:36.000Z</time>
      </trkpt>
      <trkpt lat="47.27455" lon="-2.30175">
        <ele>17</ele>
        <time>2021-09-26T09:55:40.000Z</time>
      </trkpt>
      <trkpt lat="47.27461" lon="-2.30205">
        <ele>16.60000038147</ele>
        <time>2021-09-26T09:55:44.000Z</time>
      </trkpt>
      <trkpt lat="47.27463" lon="-2.30214">
        <ele>16.200000762939</ele>
        <time>2021-09-26T09:55:45.000Z</time>
      </trkpt>
      <trkpt lat="47.27464" lon="-2.30222">
        <ele>15.800000190735</ele>
        <time>2021-09-26T09:55:46.000Z</time>
      </trkpt>
      <trkpt lat="47.27467" lon="-2.3023">
        <ele>15.39999961853</ele>
        <time>2021-09-26T09:55:47.000Z</time>
      </trkpt>
      <trkpt lat="47.27469" lon="-2.30238">
        <ele>15</ele>
        <time>2021-09-26T09:55:48.000Z</time>
      </trkpt>
      <trkpt lat="47.27477" lon="-2.30274">
        <ele>15</ele>
        <time>2021-09-26T09:55:52.000Z</time>
      </trkpt>
      <trkpt lat="47.27481" lon="-2.30294">
        <ele>14.39999961853</ele>
        <time>2021-09-26T09:55:54.000Z</time>
      </trkpt>
      <trkpt lat="47.27482" lon="-2.30304">
        <ele>14</ele>
        <time>2021-09-26T09:55:55.000Z</time>
      </trkpt>
      <trkpt lat="47.27483" lon="-2.30315">
        <ele>13.60000038147</ele>
        <time>2021-09-26T09:55:56.000Z</time>
      </trkpt>
      <trkpt lat="47.27484" lon="-2.30325">
        <ele>13.199999809265</ele>
        <time>2021-09-26T09:55:57.000Z</time>
      </trkpt>
      <trkpt lat="47.27486" lon="-2.30336">
        <ele>12.800000190735</ele>
        <time>2021-09-26T09:55:58.000Z</time>
      </trkpt>
      <trkpt lat="47.27487" lon="-2.30346">
        <ele>12.800000190735</ele>
        <time>2021-09-26T09:55:59.000Z</time>
      </trkpt>
      <trkpt lat="47.27494" lon="-2.30377">
        <ele>12.39999961853</ele>
        <time>2021-09-26T09:56:02.000Z</time>
      </trkpt>
      <trkpt lat="47.27496" lon="-2.30387">
        <ele>12</ele>
        <time>2021-09-26T09:56:03.000Z</time>
      </trkpt>
      <trkpt lat="47.27498" lon="-2.30396">
        <ele>11.60000038147</ele>
        <time>2021-09-26T09:56:04.000Z</time>
      </trkpt>
      <trkpt lat="47.275" lon="-2.30406">
        <ele>11</ele>
        <time>2021-09-26T09:56:05.000Z</time>
      </trkpt>
      <trkpt lat="47.27502" lon="-2.30417">
        <ele>10.60000038147</ele>
        <time>2021-09-26T09:56:06.000Z</time>
      </trkpt>
      <trkpt lat="47.27516" lon="-2.30479">
        <ele>10.199999809265</ele>
        <time>2021-09-26T09:56:12.000Z</time>
      </trkpt>
      <trkpt lat="47.27518" lon="-2.30489">
        <ele>9.8000001907349</ele>
        <time>2021-09-26T09:56:13.000Z</time>
      </trkpt>
      <trkpt lat="47.2752" lon="-2.305">
        <ele>9.3999996185303</ele>
        <time>2021-09-26T09:56:14.000Z</time>
      </trkpt>
      <trkpt lat="47.27522" lon="-2.3051">
        <ele>9</ele>
        <time>2021-09-26T09:56:15.000Z</time>
      </trkpt>
      <trkpt lat="47.27524" lon="-2.30519">
        <ele>8.6000003814697</ele>
        <time>2021-09-26T09:56:16.000Z</time>
      </trkpt>
      <trkpt lat="47.27529" lon="-2.30537">
        <ele>8.6000003814697</ele>
        <time>2021-09-26T09:56:18.000Z</time>
      </trkpt>
      <trkpt lat="47.27545" lon="-2.30586">
        <ele>8.6000003814697</ele>
        <time>2021-09-26T09:56:24.000Z</time>
      </trkpt>
      <trkpt lat="47.27547" lon="-2.30608">
        <ele>8.6000003814697</ele>
        <time>2021-09-26T09:56:28.000Z</time>
      </trkpt>
      <trkpt lat="47.27548" lon="-2.3062">
        <ele>8.6000003814697</ele>
        <time>2021-09-26T09:56:30.000Z</time>
      </trkpt>
      <trkpt lat="47.27557" lon="-2.30648">
        <ele>8.6000003814697</ele>
        <time>2021-09-26T09:56:34.000Z</time>
      </trkpt>
      <trkpt lat="47.27566" lon="-2.3069">
        <ele>8.6000003814697</ele>
        <time>2021-09-26T09:56:39.000Z</time>
      </trkpt>
      <trkpt lat="47.27576" lon="-2.30737">
        <ele>8.6000003814697</ele>
        <time>2021-09-26T09:56:45.000Z</time>
      </trkpt>
      <trkpt lat="47.27597" lon="-2.30795">
        <ele>8.6000003814697</ele>
        <time>2021-09-26T09:56:53.000Z</time>
      </trkpt>
      <trkpt lat="47.27616" lon="-2.30837">
        <ele>8.6000003814697</ele>
        <time>2021-09-26T09:56:59.000Z</time>
      </trkpt>
      <trkpt lat="47.27635" lon="-2.30882">
        <ele>8.6000003814697</ele>
        <time>2021-09-26T09:57:05.000Z</time>
      </trkpt>
      <trkpt lat="47.27663" lon="-2.30942">
        <ele>8.6000003814697</ele>
        <time>2021-09-26T09:57:13.000Z</time>
      </trkpt>
      <trkpt lat="47.27688" lon="-2.31004">
        <ele>8.6000003814697</ele>
        <time>2021-09-26T09:57:21.000Z</time>
      </trkpt>
      <trkpt lat="47.27708" lon="-2.31056">
        <ele>8.6000003814697</ele>
        <time>2021-09-26T09:57:28.000Z</time>
      </trkpt>
      <trkpt lat="47.27713" lon="-2.31069">
        <ele>8.6000003814697</ele>
        <time>2021-09-26T09:57:30.000Z</time>
      </trkpt>
      <trkpt lat="47.27716" lon="-2.31089">
        <ele>8.6000003814697</ele>
        <time>2021-09-26T09:57:33.000Z</time>
      </trkpt>
      <trkpt lat="47.27707" lon="-2.31123">
        <ele>8.6000003814697</ele>
        <time>2021-09-26T09:57:38.000Z</time>
      </trkpt>
      <trkpt lat="47.27703" lon="-2.31137">
        <ele>8.6000003814697</ele>
        <time>2021-09-26T09:57:40.000Z</time>
      </trkpt>
      <trkpt lat="47.27696" lon="-2.31166">
        <ele>8.6000003814697</ele>
        <time>2021-09-26T09:57:44.000Z</time>
      </trkpt>
      <trkpt lat="47.27683" lon="-2.31224">
        <ele>8.6000003814697</ele>
        <time>2021-09-26T09:57:51.000Z</time>
      </trkpt>
      <trkpt lat="47.27679" lon="-2.31241">
        <ele>8.6000003814697</ele>
        <time>2021-09-26T09:57:53.000Z</time>
      </trkpt>
      <trkpt lat="47.27675" lon="-2.31258">
        <ele>8.1999998092651</ele>
        <time>2021-09-26T09:57:55.000Z</time>
      </trkpt>
      <trkpt lat="47.27672" lon="-2.31267">
        <ele>7.8000001907349</ele>
        <time>2021-09-26T09:57:56.000Z</time>
      </trkpt>
      <trkpt lat="47.2767" lon="-2.31276">
        <ele>7</ele>
        <time>2021-09-26T09:57:57.000Z</time>
      </trkpt>
      <trkpt lat="47.27668" lon="-2.31285">
        <ele>6.4000000953674</ele>
        <time>2021-09-26T09:57:58.000Z</time>
      </trkpt>
      <trkpt lat="47.27652" lon="-2.31337">
        <ele>6.4000000953674</ele>
        <time>2021-09-26T09:58:04.000Z</time>
      </trkpt>
      <trkpt lat="47.2764" lon="-2.31377">
        <ele>6</ele>
        <time>2021-09-26T09:58:08.000Z</time>
      </trkpt>
      <trkpt lat="47.27638" lon="-2.31388">
        <ele>5.5999999046326</ele>
        <time>2021-09-26T09:58:09.000Z</time>
      </trkpt>
      <trkpt lat="47.27635" lon="-2.31399">
        <ele>5.1999998092651</ele>
        <time>2021-09-26T09:58:10.000Z</time>
      </trkpt>
      <trkpt lat="47.27632" lon="-2.3141">
        <ele>4.8000001907349</ele>
        <time>2021-09-26T09:58:11.000Z</time>
      </trkpt>
      <trkpt lat="47.27629" lon="-2.31422">
        <ele>4.4000000953674</ele>
        <time>2021-09-26T09:58:12.000Z</time>
      </trkpt>
      <trkpt lat="47.27623" lon="-2.31444">
        <ele>4</ele>
        <time>2021-09-26T09:58:14.000Z</time>
      </trkpt>
      <trkpt lat="47.2762" lon="-2.31455">
        <ele>3.5999999046326</ele>
        <time>2021-09-26T09:58:15.000Z</time>
      </trkpt>
      <trkpt lat="47.27617" lon="-2.31465">
        <ele>3.2000000476837</ele>
        <time>2021-09-26T09:58:16.000Z</time>
      </trkpt>
      <trkpt lat="47.27614" lon="-2.31476">
        <ele>2.7999999523163</ele>
        <time>2021-09-26T09:58:17.000Z</time>
      </trkpt>
      <trkpt lat="47.27611" lon="-2.31486">
        <ele>2.4000000953674</ele>
        <time>2021-09-26T09:58:18.000Z</time>
      </trkpt>
      <trkpt lat="47.27596" lon="-2.31544">
        <ele>2.4000000953674</ele>
        <time>2021-09-26T09:58:24.000Z</time>
      </trkpt>
      <trkpt lat="47.27576" lon="-2.31593">
        <ele>2.4000000953674</ele>
        <time>2021-09-26T09:58:30.000Z</time>
      </trkpt>
      <trkpt lat="47.27563" lon="-2.31637">
        <ele>2.4000000953674</ele>
        <time>2021-09-26T09:58:35.000Z</time>
      </trkpt>
      <trkpt lat="47.2755" lon="-2.31692">
        <ele>2.4000000953674</ele>
        <time>2021-09-26T09:58:41.000Z</time>
      </trkpt>
      <trkpt lat="47.27537" lon="-2.31749">
        <ele>2.4000000953674</ele>
        <time>2021-09-26T09:58:46.000Z</time>
      </trkpt>
      <trkpt lat="47.27534" lon="-2.31761">
        <ele>2</ele>
        <time>2021-09-26T09:58:47.000Z</time>
      </trkpt>
      <trkpt lat="47.27532" lon="-2.31774">
        <ele>1.6000000238419</ele>
        <time>2021-09-26T09:58:48.000Z</time>
      </trkpt>
      <trkpt lat="47.27529" lon="-2.31786">
        <ele>1.2000000476837</ele>
        <time>2021-09-26T09:58:49.000Z</time>
      </trkpt>
      <trkpt lat="47.27526" lon="-2.31798">
        <ele>0.60000002384186</ele>
        <time>2021-09-26T09:58:50.000Z</time>
      </trkpt>
      <trkpt lat="47.27522" lon="-2.31809">
        <ele>0.20000000298023</ele>
        <time>2021-09-26T09:58:51.000Z</time>
      </trkpt>
      <trkpt lat="47.27514" lon="-2.31832">
        <ele>0.20000000298023</ele>
        <time>2021-09-26T09:58:53.000Z</time>
      </trkpt>
      <trkpt lat="47.27485" lon="-2.31911">
        <ele>0.20000000298023</ele>
        <time>2021-09-26T09:59:00.000Z</time>
      </trkpt>
      <trkpt lat="47.2748" lon="-2.31923">
        <ele>-0.20000000298023</ele>
        <time>2021-09-26T09:59:01.000Z</time>
      </trkpt>
      <trkpt lat="47.27475" lon="-2.31934">
        <ele>-0.60000002384186</ele>
        <time>2021-09-26T09:59:02.000Z</time>
      </trkpt>
      <trkpt lat="47.2747" lon="-2.31944">
        <ele>-1</ele>
        <time>2021-09-26T09:59:03.000Z</time>
      </trkpt>
      <trkpt lat="47.27466" lon="-2.31955">
        <ele>-1.3999999761581</ele>
        <time>2021-09-26T09:59:04.000Z</time>
      </trkpt>
      <trkpt lat="47.27461" lon="-2.31966">
        <ele>-1.7999999523163</ele>
        <time>2021-09-26T09:59:05.000Z</time>
      </trkpt>
      <trkpt lat="47.27457" lon="-2.31976">
        <ele>-1.7999999523163</ele>
        <time>2021-09-26T09:59:06.000Z</time>
      </trkpt>
      <trkpt lat="47.27434" lon="-2.32033">
        <ele>-2.2000000476837</ele>
        <time>2021-09-26T09:59:12.000Z</time>
      </trkpt>
      <trkpt lat="47.27429" lon="-2.3204">
        <ele>-2.5999999046326</ele>
        <time>2021-09-26T09:59:13.000Z</time>
      </trkpt>
      <trkpt lat="47.27424" lon="-2.32044">
        <ele>-3.2000000476837</ele>
        <time>2021-09-26T09:59:14.000Z</time>
      </trkpt>
      <trkpt lat="47.27418" lon="-2.32044">
        <ele>-3.5999999046326</ele>
        <time>2021-09-26T09:59:15.000Z</time>
      </trkpt>
      <trkpt lat="47.27412" lon="-2.32043">
        <ele>-4</ele>
        <time>2021-09-26T09:59:16.000Z</time>
      </trkpt>
      <trkpt lat="47.27401" lon="-2.32035">
        <ele>-4</ele>
        <time>2021-09-26T09:59:18.000Z</time>
      </trkpt>
      <trkpt lat="47.27391" lon="-2.32025">
        <ele>-4</ele>
        <time>2021-09-26T09:59:20.000Z</time>
      </trkpt>
      <trkpt lat="47.27381" lon="-2.32018">
        <ele>-4</ele>
        <time>2021-09-26T09:59:22.000Z</time>
      </trkpt>
      <trkpt lat="47.27376" lon="-2.32014">
        <ele>-4</ele>
        <time>2021-09-26T09:59:23.000Z</time>
      </trkpt>
      <trkpt lat="47.27357" lon="-2.31995">
        <ele>-4</ele>
        <time>2021-09-26T09:59:28.000Z</time>
      </trkpt>
      <trkpt lat="47.27347" lon="-2.31988">
        <ele>-4</ele>
        <time>2021-09-26T09:59:32.000Z</time>
      </trkpt>
      <trkpt lat="47.27345" lon="-2.31989">
        <ele>-4</ele>
        <time>2021-09-26T09:59:33.000Z</time>
      </trkpt>
      <trkpt lat="47.27345" lon="-2.31995">
        <ele>-4</ele>
        <time>2021-09-26T09:59:35.000Z</time>
      </trkpt>
      <trkpt lat="47.27349" lon="-2.32005">
        <ele>-4</ele>
        <time>2021-09-26T09:59:38.000Z</time>
      </trkpt>
      <trkpt lat="47.27352" lon="-2.32013">
        <ele>-4</ele>
        <time>2021-09-26T09:59:40.000Z</time>
      </trkpt>
      <trkpt lat="47.27365" lon="-2.32033">
        <ele>-4</ele>
        <time>2021-09-26T09:59:45.000Z</time>
      </trkpt>
      <trkpt lat="47.27386" lon="-2.32061">
        <ele>-4</ele>
        <time>2021-09-26T09:59:51.000Z</time>
      </trkpt>
      <trkpt lat="47.27395" lon="-2.32069">
        <ele>-4</ele>
        <time>2021-09-26T09:59:53.000Z</time>
      </trkpt>
      <trkpt lat="47.27407" lon="-2.32087">
        <ele>-4</ele>
        <time>2021-09-26T09:59:56.000Z</time>
      </trkpt>
      <trkpt lat="47.27412" lon="-2.32119">
        <ele>-4</ele>
        <time>2021-09-26T10:00:00.000Z</time>
      </trkpt>
      <trkpt lat="47.27409" lon="-2.32135">
        <ele>-4</ele>
        <time>2021-09-26T10:00:02.000Z</time>
      </trkpt>
      <trkpt lat="47.27406" lon="-2.32154">
        <ele>-4</ele>
        <time>2021-09-26T10:00:04.000Z</time>
      </trkpt>
      <trkpt lat="47.27394" lon="-2.32226">
        <ele>-4</ele>
        <time>2021-09-26T10:00:12.000Z</time>
      </trkpt>
      <trkpt lat="47.27391" lon="-2.32243">
        <ele>-4</ele>
        <time>2021-09-26T10:00:14.000Z</time>
      </trkpt>
      <trkpt lat="47.27382" lon="-2.32274">
        <ele>-4</ele>
        <time>2021-09-26T10:00:18.000Z</time>
      </trkpt>
      <trkpt lat="47.27374" lon="-2.3231">
        <ele>-4</ele>
        <time>2021-09-26T10:00:23.000Z</time>
      </trkpt>
      <trkpt lat="47.27373" lon="-2.32318">
        <ele>-3.5999999046326</ele>
        <time>2021-09-26T10:00:24.000Z</time>
      </trkpt>
      <trkpt lat="47.27372" lon="-2.32325">
        <ele>-3.2000000476837</ele>
        <time>2021-09-26T10:00:25.000Z</time>
      </trkpt>
      <trkpt lat="47.2737" lon="-2.32333">
        <ele>-2.7999999523163</ele>
        <time>2021-09-26T10:00:26.000Z</time>
      </trkpt>
      <trkpt lat="47.27368" lon="-2.32342">
        <ele>-2.4000000953674</ele>
        <time>2021-09-26T10:00:27.000Z</time>
      </trkpt>
      <trkpt lat="47.27367" lon="-2.3235">
        <ele>-2</ele>
        <time>2021-09-26T10:00:28.000Z</time>
      </trkpt>
      <trkpt lat="47.27364" lon="-2.32367">
        <ele>-2</ele>
        <time>2021-09-26T10:00:30.000Z</time>
      </trkpt>
      <trkpt lat="47.27353" lon="-2.32417">
        <ele>-2</ele>
        <time>2021-09-26T10:00:35.000Z</time>
      </trkpt>
      <trkpt lat="47.27335" lon="-2.32464">
        <ele>-2</ele>
        <time>2021-09-26T10:00:40.000Z</time>
      </trkpt>
      <trkpt lat="47.27331" lon="-2.32472">
        <ele>-2.4000000953674</ele>
        <time>2021-09-26T10:00:41.000Z</time>
      </trkpt>
      <trkpt lat="47.27327" lon="-2.32479">
        <ele>-2.7999999523163</ele>
        <time>2021-09-26T10:00:42.000Z</time>
      </trkpt>
      <trkpt lat="47.27322" lon="-2.32486">
        <ele>-3.2000000476837</ele>
        <time>2021-09-26T10:00:43.000Z</time>
      </trkpt>
      <trkpt lat="47.27318" lon="-2.32493">
        <ele>-3.5999999046326</ele>
        <time>2021-09-26T10:00:44.000Z</time>
      </trkpt>
      <trkpt lat="47.27315" lon="-2.325">
        <ele>-4.1999998092651</ele>
        <time>2021-09-26T10:00:45.000Z</time>
      </trkpt>
      <trkpt lat="47.27285" lon="-2.32545">
        <ele>-4.1999998092651</ele>
        <time>2021-09-26T10:00:52.000Z</time>
      </trkpt>
      <trkpt lat="47.27266" lon="-2.32567">
        <ele>-4.1999998092651</ele>
        <time>2021-09-26T10:00:56.000Z</time>
      </trkpt>
      <trkpt lat="47.27256" lon="-2.32577">
        <ele>-4.1999998092651</ele>
        <time>2021-09-26T10:00:58.000Z</time>
      </trkpt>
      <trkpt lat="47.2722" lon="-2.32613">
        <ele>-4.1999998092651</ele>
        <time>2021-09-26T10:01:05.000Z</time>
      </trkpt>
      <trkpt lat="47.2718" lon="-2.32651">
        <ele>-4.1999998092651</ele>
        <time>2021-09-26T10:01:13.000Z</time>
      </trkpt>
      <trkpt lat="47.27146" lon="-2.32683">
        <ele>-4.1999998092651</ele>
        <time>2021-09-26T10:01:20.000Z</time>
      </trkpt>
      <trkpt lat="47.27134" lon="-2.32697">
        <ele>-4.1999998092651</ele>
        <time>2021-09-26T10:01:23.000Z</time>
      </trkpt>
      <trkpt lat="47.27129" lon="-2.32709">
        <ele>-4.1999998092651</ele>
        <time>2021-09-26T10:01:25.000Z</time>
      </trkpt>
      <trkpt lat="47.27125" lon="-2.32711">
        <ele>-4.1999998092651</ele>
        <time>2021-09-26T10:01:26.000Z</time>
      </trkpt>
      <trkpt lat="47.27117" lon="-2.32718">
        <ele>-4.1999998092651</ele>
        <time>2021-09-26T10:01:28.000Z</time>
      </trkpt>
      <trkpt lat="47.27088" lon="-2.32744">
        <ele>-4.1999998092651</ele>
        <time>2021-09-26T10:01:34.000Z</time>
      </trkpt>
      <trkpt lat="47.27044" lon="-2.32784">
        <ele>-4.1999998092651</ele>
        <time>2021-09-26T10:01:42.000Z</time>
      </trkpt>
      <trkpt lat="47.27002" lon="-2.32824">
        <ele>-4.1999998092651</ele>
        <time>2021-09-26T10:01:50.000Z</time>
      </trkpt>
      <trkpt lat="47.26963" lon="-2.32859">
        <ele>-4.1999998092651</ele>
        <time>2021-09-26T10:01:57.000Z</time>
      </trkpt>
      <trkpt lat="47.26918" lon="-2.32901">
        <ele>-4.1999998092651</ele>
        <time>2021-09-26T10:02:05.000Z</time>
      </trkpt>
      <trkpt lat="47.26884" lon="-2.32931">
        <ele>-4.1999998092651</ele>
        <time>2021-09-26T10:02:11.000Z</time>
      </trkpt>
      <trkpt lat="47.26848" lon="-2.32963">
        <ele>-4.1999998092651</ele>
        <time>2021-09-26T10:02:18.000Z</time>
      </trkpt>
      <trkpt lat="47.26806" lon="-2.33004">
        <ele>-4.1999998092651</ele>
        <time>2021-09-26T10:02:26.000Z</time>
      </trkpt>
      <trkpt lat="47.268" lon="-2.33011">
        <ele>-4.1999998092651</ele>
        <time>2021-09-26T10:02:27.000Z</time>
      </trkpt>
      <trkpt lat="47.26776" lon="-2.33036">
        <ele>-4.1999998092651</ele>
        <time>2021-09-26T10:02:32.000Z</time>
      </trkpt>
      <trkpt lat="47.26744" lon="-2.33065">
        <ele>-4.1999998092651</ele>
        <time>2021-09-26T10:02:39.000Z</time>
      </trkpt>
      <trkpt lat="47.26739" lon="-2.33066">
        <ele>-4.1999998092651</ele>
        <time>2021-09-26T10:02:41.000Z</time>
      </trkpt>
      <trkpt lat="47.26736" lon="-2.33064">
        <ele>-4.5999999046326</ele>
        <time>2021-09-26T10:02:42.000Z</time>
      </trkpt>
      <trkpt lat="47.26733" lon="-2.33059">
        <ele>-5</ele>
        <time>2021-09-26T10:02:43.000Z</time>
      </trkpt>
      <trkpt lat="47.2673" lon="-2.33056">
        <ele>-5.5999999046326</ele>
        <time>2021-09-26T10:02:44.000Z</time>
      </trkpt>
      <trkpt lat="47.26727" lon="-2.33055">
        <ele>-6</ele>
        <time>2021-09-26T10:02:45.000Z</time>
      </trkpt>
      <trkpt lat="47.26724" lon="-2.3306">
        <ele>-6.5999999046326</ele>
        <time>2021-09-26T10:02:46.000Z</time>
      </trkpt>
      <trkpt lat="47.26722" lon="-2.33065">
        <ele>-6.5999999046326</ele>
        <time>2021-09-26T10:02:47.000Z</time>
      </trkpt>
      <trkpt lat="47.26714" lon="-2.33077">
        <ele>-6.5999999046326</ele>
        <time>2021-09-26T10:02:49.000Z</time>
      </trkpt>
      <trkpt lat="47.26704" lon="-2.33089">
        <ele>-6.5999999046326</ele>
        <time>2021-09-26T10:02:51.000Z</time>
      </trkpt>
      <trkpt lat="47.26695" lon="-2.33098">
        <ele>-6.5999999046326</ele>
        <time>2021-09-26T10:02:53.000Z</time>
      </trkpt>
      <trkpt lat="47.2668" lon="-2.33111">
        <ele>-6.5999999046326</ele>
        <time>2021-09-26T10:02:56.000Z</time>
      </trkpt>
      <trkpt lat="47.26652" lon="-2.33139">
        <ele>-6.5999999046326</ele>
        <time>2021-09-26T10:03:02.000Z</time>
      </trkpt>
      <trkpt lat="47.26632" lon="-2.33153">
        <ele>-6.5999999046326</ele>
        <time>2021-09-26T10:03:06.000Z</time>
      </trkpt>
      <trkpt lat="47.26626" lon="-2.33153">
        <ele>-6.5999999046326</ele>
        <time>2021-09-26T10:03:07.000Z</time>
      </trkpt>
      <trkpt lat="47.26608" lon="-2.33156">
        <ele>-6.5999999046326</ele>
        <time>2021-09-26T10:03:11.000Z</time>
      </trkpt>
      <trkpt lat="47.26604" lon="-2.3316">
        <ele>-6.5999999046326</ele>
        <time>2021-09-26T10:03:12.000Z</time>
      </trkpt>
      <trkpt lat="47.26602" lon="-2.33166">
        <ele>-6.5999999046326</ele>
        <time>2021-09-26T10:03:13.000Z</time>
      </trkpt>
      <trkpt lat="47.26594" lon="-2.33186">
        <ele>-6.5999999046326</ele>
        <time>2021-09-26T10:03:16.000Z</time>
      </trkpt>
      <trkpt lat="47.26581" lon="-2.33207">
        <ele>-6.5999999046326</ele>
        <time>2021-09-26T10:03:21.000Z</time>
      </trkpt>
      <trkpt lat="47.26554" lon="-2.33224">
        <ele>-6.5999999046326</ele>
        <time>2021-09-26T10:03:27.000Z</time>
      </trkpt>
      <trkpt lat="47.26514" lon="-2.33249">
        <ele>-6.5999999046326</ele>
        <time>2021-09-26T10:03:36.000Z</time>
      </trkpt>
      <trkpt lat="47.26498" lon="-2.33263">
        <ele>-6.5999999046326</ele>
        <time>2021-09-26T10:03:41.000Z</time>
      </trkpt>
      <trkpt lat="47.26491" lon="-2.33277">
        <ele>-6.5999999046326</ele>
        <time>2021-09-26T10:03:44.000Z</time>
      </trkpt>
      <trkpt lat="47.26489" lon="-2.33279">
        <ele>-6.5999999046326</ele>
        <time>2021-09-26T10:03:45.000Z</time>
      </trkpt>
      <trkpt lat="47.26483" lon="-2.3329">
        <ele>-6.5999999046326</ele>
        <time>2021-09-26T10:03:49.000Z</time>
      </trkpt>
      <trkpt lat="47.26483" lon="-2.33291">
        <ele>-6.5999999046326</ele>
        <time>2021-09-26T10:03:50.000Z</time>
      </trkpt>
      <trkpt lat="47.26482" lon="-2.33293">
        <ele>-6.5999999046326</ele>
        <time>2021-09-26T10:09:11.000Z</time>
      </trkpt>
      <trkpt lat="47.26481" lon="-2.33295">
        <ele>-6.5999999046326</ele>
        <time>2021-09-26T10:09:12.000Z</time>
      </trkpt>
      <trkpt lat="47.26468" lon="-2.33309">
        <ele>-6.5999999046326</ele>
        <time>2021-09-26T10:09:19.000Z</time>
      </trkpt>
      <trkpt lat="47.26435" lon="-2.33337">
        <ele>-6.5999999046326</ele>
        <time>2021-09-26T10:09:29.000Z</time>
      </trkpt>
      <trkpt lat="47.26412" lon="-2.33353">
        <ele>-6.5999999046326</ele>
        <time>2021-09-26T10:09:35.000Z</time>
      </trkpt>
      <trkpt lat="47.26408" lon="-2.33356">
        <ele>-6.5999999046326</ele>
        <time>2021-09-26T10:09:36.000Z</time>
      </trkpt>
      <trkpt lat="47.26367" lon="-2.33381">
        <ele>-6.5999999046326</ele>
        <time>2021-09-26T10:09:45.000Z</time>
      </trkpt>
      <trkpt lat="47.26343" lon="-2.33393">
        <ele>-6.5999999046326</ele>
        <time>2021-09-26T10:09:51.000Z</time>
      </trkpt>
      <trkpt lat="47.26318" lon="-2.33409">
        <ele>-6.5999999046326</ele>
        <time>2021-09-26T10:09:58.000Z</time>
      </trkpt>
      <trkpt lat="47.26307" lon="-2.33419">
        <ele>-6.5999999046326</ele>
        <time>2021-09-26T10:10:01.000Z</time>
      </trkpt>
      <trkpt lat="47.26298" lon="-2.33422">
        <ele>-6.5999999046326</ele>
        <time>2021-09-26T10:10:03.000Z</time>
      </trkpt>
      <trkpt lat="47.26277" lon="-2.33426">
        <ele>-6.5999999046326</ele>
        <time>2021-09-26T10:10:08.000Z</time>
      </trkpt>
      <trkpt lat="47.26242" lon="-2.33431">
        <ele>-6.5999999046326</ele>
        <time>2021-09-26T10:10:16.000Z</time>
      </trkpt>
      <trkpt lat="47.26208" lon="-2.33441">
        <ele>-6.5999999046326</ele>
        <time>2021-09-26T10:10:24.000Z</time>
      </trkpt>
      <trkpt lat="47.26181" lon="-2.33444">
        <ele>-6.5999999046326</ele>
        <time>2021-09-26T10:10:31.000Z</time>
      </trkpt>
      <trkpt lat="47.26163" lon="-2.33439">
        <ele>-6.5999999046326</ele>
        <time>2021-09-26T10:10:36.000Z</time>
      </trkpt>
      <trkpt lat="47.26142" lon="-2.3343">
        <ele>-6.5999999046326</ele>
        <time>2021-09-26T10:10:43.000Z</time>
      </trkpt>
      <trkpt lat="47.2614" lon="-2.33431">
        <ele>-6.5999999046326</ele>
        <time>2021-09-26T10:10:44.000Z</time>
      </trkpt>
      <trkpt lat="47.26138" lon="-2.33438">
        <ele>-6.5999999046326</ele>
        <time>2021-09-26T10:10:46.000Z</time>
      </trkpt>
      <trkpt lat="47.2613" lon="-2.3346">
        <ele>-6.5999999046326</ele>
        <time>2021-09-26T10:10:51.000Z</time>
      </trkpt>
      <trkpt lat="47.26121" lon="-2.33482">
        <ele>-6.5999999046326</ele>
        <time>2021-09-26T10:10:55.000Z</time>
      </trkpt>
      <trkpt lat="47.26115" lon="-2.33491">
        <ele>-6.5999999046326</ele>
        <time>2021-09-26T10:10:57.000Z</time>
      </trkpt>
      <trkpt lat="47.26102" lon="-2.3349">
        <ele>-6.5999999046326</ele>
        <time>2021-09-26T10:11:00.000Z</time>
      </trkpt>
      <trkpt lat="47.26083" lon="-2.33485">
        <ele>-6.5999999046326</ele>
        <time>2021-09-26T10:11:05.000Z</time>
      </trkpt>
      <trkpt lat="47.26079" lon="-2.33483">
        <ele>-6.5999999046326</ele>
        <time>2021-09-26T10:11:06.000Z</time>
      </trkpt>
      <trkpt lat="47.26061" lon="-2.33482">
        <ele>-6.5999999046326</ele>
        <time>2021-09-26T10:11:10.000Z</time>
      </trkpt>
      <trkpt lat="47.26049" lon="-2.33479">
        <ele>-6.5999999046326</ele>
        <time>2021-09-26T10:11:13.000Z</time>
      </trkpt>
      <trkpt lat="47.26046" lon="-2.33474">
        <ele>-6.5999999046326</ele>
        <time>2021-09-26T10:11:14.000Z</time>
      </trkpt>
      <trkpt lat="47.26043" lon="-2.33472">
        <ele>-6.5999999046326</ele>
        <time>2021-09-26T10:11:15.000Z</time>
      </trkpt>
      <trkpt lat="47.26039" lon="-2.33473">
        <ele>-6.5999999046326</ele>
        <time>2021-09-26T10:11:16.000Z</time>
      </trkpt>
      <trkpt lat="47.26028" lon="-2.33483">
        <ele>-6.5999999046326</ele>
        <time>2021-09-26T10:11:19.000Z</time>
      </trkpt>
      <trkpt lat="47.26024" lon="-2.33486">
        <ele>-6.5999999046326</ele>
        <time>2021-09-26T10:11:20.000Z</time>
      </trkpt>
      <trkpt lat="47.2601" lon="-2.33489">
        <ele>-6.5999999046326</ele>
        <time>2021-09-26T10:11:23.000Z</time>
      </trkpt>
      <trkpt lat="47.26" lon="-2.33491">
        <ele>-6.5999999046326</ele>
        <time>2021-09-26T10:11:25.000Z</time>
      </trkpt>
      <trkpt lat="47.25992" lon="-2.33494">
        <ele>-6.5999999046326</ele>
        <time>2021-09-26T10:11:27.000Z</time>
      </trkpt>
      <trkpt lat="47.25981" lon="-2.33505">
        <ele>-6.5999999046326</ele>
        <time>2021-09-26T10:11:30.000Z</time>
      </trkpt>
      <trkpt lat="47.25967" lon="-2.33508">
        <ele>-6.5999999046326</ele>
        <time>2021-09-26T10:11:33.000Z</time>
      </trkpt>
      <trkpt lat="47.25963" lon="-2.33508">
        <ele>-6.5999999046326</ele>
        <time>2021-09-26T10:11:34.000Z</time>
      </trkpt>
      <trkpt lat="47.25958" lon="-2.33508">
        <ele>-6.5999999046326</ele>
        <time>2021-09-26T10:11:35.000Z</time>
      </trkpt>
      <trkpt lat="47.2595" lon="-2.33514">
        <ele>-6.5999999046326</ele>
        <time>2021-09-26T10:11:37.000Z</time>
      </trkpt>
      <trkpt lat="47.25909" lon="-2.33552">
        <ele>-6.5999999046326</ele>
        <time>2021-09-26T10:11:47.000Z</time>
      </trkpt>
      <trkpt lat="47.25877" lon="-2.33576">
        <ele>-6.5999999046326</ele>
        <time>2021-09-26T10:11:55.000Z</time>
      </trkpt>
      <trkpt lat="47.25872" lon="-2.33577">
        <ele>-6</ele>
        <time>2021-09-26T10:11:56.000Z</time>
      </trkpt>
      <trkpt lat="47.25866" lon="-2.33578">
        <ele>-5.5999999046326</ele>
        <time>2021-09-26T10:11:57.000Z</time>
      </trkpt>
      <trkpt lat="47.25861" lon="-2.33578">
        <ele>-5.1999998092651</ele>
        <time>2021-09-26T10:11:58.000Z</time>
      </trkpt>
      <trkpt lat="47.25856" lon="-2.33578">
        <ele>-4.8000001907349</ele>
        <time>2021-09-26T10:11:59.000Z</time>
      </trkpt>
      <trkpt lat="47.25851" lon="-2.33579">
        <ele>-4.4000000953674</ele>
        <time>2021-09-26T10:12:00.000Z</time>
      </trkpt>
      <trkpt lat="47.25845" lon="-2.33579">
        <ele>-4.4000000953674</ele>
        <time>2021-09-26T10:12:01.000Z</time>
      </trkpt>
      <trkpt lat="47.25808" lon="-2.3358">
        <ele>-4.4000000953674</ele>
        <time>2021-09-26T10:12:08.000Z</time>
      </trkpt>
      <trkpt lat="47.2576" lon="-2.33584">
        <ele>-4.4000000953674</ele>
        <time>2021-09-26T10:12:17.000Z</time>
      </trkpt>
      <trkpt lat="47.25755" lon="-2.33585">
        <ele>-4.4000000953674</ele>
        <time>2021-09-26T10:12:18.000Z</time>
      </trkpt>
      <trkpt lat="47.25739" lon="-2.33587">
        <ele>-4.4000000953674</ele>
        <time>2021-09-26T10:12:21.000Z</time>
      </trkpt>
      <trkpt lat="47.25733" lon="-2.33586">
        <ele>-4.4000000953674</ele>
        <time>2021-09-26T10:12:22.000Z</time>
      </trkpt>
      <trkpt lat="47.25728" lon="-2.33585">
        <ele>-4.4000000953674</ele>
        <time>2021-09-26T10:12:23.000Z</time>
      </trkpt>
      <trkpt lat="47.2571" lon="-2.33587">
        <ele>-4.4000000953674</ele>
        <time>2021-09-26T10:12:26.000Z</time>
      </trkpt>
      <trkpt lat="47.25669" lon="-2.33582">
        <ele>-4.4000000953674</ele>
        <time>2021-09-26T10:12:33.000Z</time>
      </trkpt>
      <trkpt lat="47.25641" lon="-2.33571">
        <ele>-4</ele>
        <time>2021-09-26T10:12:38.000Z</time>
      </trkpt>
      <trkpt lat="47.25636" lon="-2.33567">
        <ele>-3.5999999046326</ele>
        <time>2021-09-26T10:12:39.000Z</time>
      </trkpt>
      <trkpt lat="47.2563" lon="-2.33564">
        <ele>-3.2000000476837</ele>
        <time>2021-09-26T10:12:40.000Z</time>
      </trkpt>
      <trkpt lat="47.25625" lon="-2.3356">
        <ele>-2.7999999523163</ele>
        <time>2021-09-26T10:12:41.000Z</time>
      </trkpt>
      <trkpt lat="47.2562" lon="-2.33556">
        <ele>-2.4000000953674</ele>
        <time>2021-09-26T10:12:42.000Z</time>
      </trkpt>
      <trkpt lat="47.256" lon="-2.33537">
        <ele>-2.4000000953674</ele>
        <time>2021-09-26T10:12:46.000Z</time>
      </trkpt>
      <trkpt lat="47.25573" lon="-2.33501">
        <ele>-2.4000000953674</ele>
        <time>2021-09-26T10:12:52.000Z</time>
      </trkpt>
      <trkpt lat="47.25547" lon="-2.33452">
        <ele>-2.4000000953674</ele>
        <time>2021-09-26T10:12:59.000Z</time>
      </trkpt>
      <trkpt lat="47.25534" lon="-2.33403">
        <ele>-2.4000000953674</ele>
        <time>2021-09-26T10:13:05.000Z</time>
      </trkpt>
      <trkpt lat="47.25523" lon="-2.33331">
        <ele>-2.4000000953674</ele>
        <time>2021-09-26T10:13:13.000Z</time>
      </trkpt>
      <trkpt lat="47.25513" lon="-2.33256">
        <ele>-2.4000000953674</ele>
        <time>2021-09-26T10:13:21.000Z</time>
      </trkpt>
      <trkpt lat="47.25503" lon="-2.33185">
        <ele>-2.4000000953674</ele>
        <time>2021-09-26T10:13:29.000Z</time>
      </trkpt>
      <trkpt lat="47.25493" lon="-2.3311">
        <ele>-2.4000000953674</ele>
        <time>2021-09-26T10:13:38.000Z</time>
      </trkpt>
      <trkpt lat="47.25492" lon="-2.33103">
        <ele>-2.4000000953674</ele>
        <time>2021-09-26T10:13:39.000Z</time>
      </trkpt>
      <trkpt lat="47.25485" lon="-2.33093">
        <ele>-2.4000000953674</ele>
        <time>2021-09-26T10:13:41.000Z</time>
      </trkpt>
      <trkpt lat="47.2547" lon="-2.33097">
        <ele>-2.4000000953674</ele>
        <time>2021-09-26T10:13:44.000Z</time>
      </trkpt>
      <trkpt lat="47.25435" lon="-2.33114">
        <ele>-2.4000000953674</ele>
        <time>2021-09-26T10:13:51.000Z</time>
      </trkpt>
      <trkpt lat="47.25399" lon="-2.33131">
        <ele>-2.4000000953674</ele>
        <time>2021-09-26T10:13:59.000Z</time>
      </trkpt>
      <trkpt lat="47.25388" lon="-2.33136">
        <ele>-2.4000000953674</ele>
        <time>2021-09-26T10:14:03.000Z</time>
      </trkpt>
      <trkpt lat="47.25379" lon="-2.33136">
        <ele>-2.4000000953674</ele>
        <time>2021-09-26T10:14:07.000Z</time>
      </trkpt>
      <trkpt lat="47.25377" lon="-2.33124">
        <ele>-2.4000000953674</ele>
        <time>2021-09-26T10:14:11.000Z</time>
      </trkpt>
      <trkpt lat="47.25371" lon="-2.33113">
        <ele>-2.4000000953674</ele>
        <time>2021-09-26T10:14:15.000Z</time>
      </trkpt>
      <trkpt lat="47.2537" lon="-2.3311">
        <ele>-2.4000000953674</ele>
        <time>2021-09-26T10:14:18.000Z</time>
      </trkpt>
      <trkpt lat="47.25365" lon="-2.33095">
        <ele>-2.4000000953674</ele>
        <time>2021-09-26T10:24:49.000Z</time>
      </trkpt>
      <trkpt lat="47.25358" lon="-2.33077">
        <ele>-2.4000000953674</ele>
        <time>2021-09-26T10:24:55.000Z</time>
      </trkpt>
      <trkpt lat="47.25347" lon="-2.33045">
        <ele>-2.4000000953674</ele>
        <time>2021-09-26T10:25:03.000Z</time>
      </trkpt>
      <trkpt lat="47.25334" lon="-2.33014">
        <ele>-2.4000000953674</ele>
        <time>2021-09-26T10:25:10.000Z</time>
      </trkpt>
      <trkpt lat="47.25322" lon="-2.32982">
        <ele>-2.4000000953674</ele>
        <time>2021-09-26T10:25:17.000Z</time>
      </trkpt>
      <trkpt lat="47.25311" lon="-2.32956">
        <ele>-2.4000000953674</ele>
        <time>2021-09-26T10:25:24.000Z</time>
      </trkpt>
      <trkpt lat="47.25306" lon="-2.32931">
        <ele>-2.4000000953674</ele>
        <time>2021-09-26T10:25:30.000Z</time>
      </trkpt>
      <trkpt lat="47.25316" lon="-2.32914">
        <ele>-2.4000000953674</ele>
        <time>2021-09-26T10:25:34.000Z</time>
      </trkpt>
      <trkpt lat="47.25342" lon="-2.32889">
        <ele>-2.4000000953674</ele>
        <time>2021-09-26T10:25:41.000Z</time>
      </trkpt>
      <trkpt lat="47.25377" lon="-2.32858">
        <ele>-2.4000000953674</ele>
        <time>2021-09-26T10:25:50.000Z</time>
      </trkpt>
      <trkpt lat="47.2538" lon="-2.32853">
        <ele>-2.4000000953674</ele>
        <time>2021-09-26T10:25:51.000Z</time>
      </trkpt>
      <trkpt lat="47.25394" lon="-2.32834">
        <ele>-2.4000000953674</ele>
        <time>2021-09-26T10:25:55.000Z</time>
      </trkpt>
      <trkpt lat="47.25401" lon="-2.32824">
        <ele>-2.4000000953674</ele>
        <time>2021-09-26T10:25:57.000Z</time>
      </trkpt>
      <trkpt lat="47.25422" lon="-2.32793">
        <ele>-2</ele>
        <time>2021-09-26T10:26:04.000Z</time>
      </trkpt>
      <trkpt lat="47.25424" lon="-2.32787">
        <ele>-1.6000000238419</ele>
        <time>2021-09-26T10:26:05.000Z</time>
      </trkpt>
      <trkpt lat="47.25426" lon="-2.32781">
        <ele>-1.2000000476837</ele>
        <time>2021-09-26T10:26:06.000Z</time>
      </trkpt>
      <trkpt lat="47.25427" lon="-2.32776">
        <ele>-0.60000002384186</ele>
        <time>2021-09-26T10:26:07.000Z</time>
      </trkpt>
      <trkpt lat="47.25429" lon="-2.32771">
        <ele>-0.20000000298023</ele>
        <time>2021-09-26T10:26:08.000Z</time>
      </trkpt>
      <trkpt lat="47.25432" lon="-2.32768">
        <ele>-0.20000000298023</ele>
        <time>2021-09-26T10:26:09.000Z</time>
      </trkpt>
      <trkpt lat="47.25452" lon="-2.32742">
        <ele>-0.20000000298023</ele>
        <time>2021-09-26T10:26:15.000Z</time>
      </trkpt>
      <trkpt lat="47.25474" lon="-2.32712">
        <ele>-0.20000000298023</ele>
        <time>2021-09-26T10:26:22.000Z</time>
      </trkpt>
      <trkpt lat="47.2548" lon="-2.32702">
        <ele>-0.20000000298023</ele>
        <time>2021-09-26T10:26:24.000Z</time>
      </trkpt>
      <trkpt lat="47.25487" lon="-2.32682">
        <ele>-0.20000000298023</ele>
        <time>2021-09-26T10:26:28.000Z</time>
      </trkpt>
      <trkpt lat="47.25486" lon="-2.32654">
        <ele>0.20000000298023</ele>
        <time>2021-09-26T10:26:33.000Z</time>
      </trkpt>
      <trkpt lat="47.25485" lon="-2.32649">
        <ele>0.60000002384186</ele>
        <time>2021-09-26T10:26:34.000Z</time>
      </trkpt>
      <trkpt lat="47.25484" lon="-2.32642">
        <ele>1</ele>
        <time>2021-09-26T10:26:35.000Z</time>
      </trkpt>
      <trkpt lat="47.25483" lon="-2.32636">
        <ele>1.3999999761581</ele>
        <time>2021-09-26T10:26:36.000Z</time>
      </trkpt>
      <trkpt lat="47.25481" lon="-2.3263">
        <ele>1.7999999523163</ele>
        <time>2021-09-26T10:26:37.000Z</time>
      </trkpt>
      <trkpt lat="47.25479" lon="-2.32611">
        <ele>1.7999999523163</ele>
        <time>2021-09-26T10:26:40.000Z</time>
      </trkpt>
      <trkpt lat="47.25478" lon="-2.32571">
        <ele>1.7999999523163</ele>
        <time>2021-09-26T10:26:47.000Z</time>
      </trkpt>
      <trkpt lat="47.25484" lon="-2.32556">
        <ele>1.7999999523163</ele>
        <time>2021-09-26T10:26:50.000Z</time>
      </trkpt>
      <trkpt lat="47.25488" lon="-2.32552">
        <ele>1.7999999523163</ele>
        <time>2021-09-26T10:26:51.000Z</time>
      </trkpt>
      <trkpt lat="47.25515" lon="-2.32527">
        <ele>1.7999999523163</ele>
        <time>2021-09-26T10:26:58.000Z</time>
      </trkpt>
      <trkpt lat="47.25544" lon="-2.325">
        <ele>1.7999999523163</ele>
        <time>2021-09-26T10:27:04.000Z</time>
      </trkpt>
      <trkpt lat="47.25568" lon="-2.32479">
        <ele>1</ele>
        <time>2021-09-26T10:27:08.000Z</time>
      </trkpt>
      <trkpt lat="47.25574" lon="-2.32473">
        <ele>0.60000002384186</ele>
        <time>2021-09-26T10:27:09.000Z</time>
      </trkpt>
      <trkpt lat="47.2558" lon="-2.32467">
        <ele>0.20000000298023</ele>
        <time>2021-09-26T10:27:10.000Z</time>
      </trkpt>
      <trkpt lat="47.25586" lon="-2.32461">
        <ele>-0.20000000298023</ele>
        <time>2021-09-26T10:27:11.000Z</time>
      </trkpt>
      <trkpt lat="47.25617" lon="-2.32428">
        <ele>-0.80000001192093</ele>
        <time>2021-09-26T10:27:16.000Z</time>
      </trkpt>
      <trkpt lat="47.25623" lon="-2.32422">
        <ele>-1.3999999761581</ele>
        <time>2021-09-26T10:27:17.000Z</time>
      </trkpt>
      <trkpt lat="47.2563" lon="-2.32416">
        <ele>-1.7999999523163</ele>
        <time>2021-09-26T10:27:18.000Z</time>
      </trkpt>
      <trkpt lat="47.25636" lon="-2.3241">
        <ele>-2.4000000953674</ele>
        <time>2021-09-26T10:27:19.000Z</time>
      </trkpt>
      <trkpt lat="47.25642" lon="-2.32407">
        <ele>-2.7999999523163</ele>
        <time>2021-09-26T10:27:20.000Z</time>
      </trkpt>
      <trkpt lat="47.25653" lon="-2.32399">
        <ele>-2.7999999523163</ele>
        <time>2021-09-26T10:27:22.000Z</time>
      </trkpt>
      <trkpt lat="47.25656" lon="-2.32392">
        <ele>-3.2000000476837</ele>
        <time>2021-09-26T10:27:23.000Z</time>
      </trkpt>
      <trkpt lat="47.25657" lon="-2.32384">
        <ele>-3.5999999046326</ele>
        <time>2021-09-26T10:27:24.000Z</time>
      </trkpt>
      <trkpt lat="47.25656" lon="-2.32376">
        <ele>-4</ele>
        <time>2021-09-26T10:27:25.000Z</time>
      </trkpt>
      <trkpt lat="47.25655" lon="-2.32368">
        <ele>-4.4000000953674</ele>
        <time>2021-09-26T10:27:26.000Z</time>
      </trkpt>
      <trkpt lat="47.25655" lon="-2.32361">
        <ele>-4.8000001907349</ele>
        <time>2021-09-26T10:27:27.000Z</time>
      </trkpt>
      <trkpt lat="47.25651" lon="-2.32331">
        <ele>-4.4000000953674</ele>
        <time>2021-09-26T10:27:31.000Z</time>
      </trkpt>
      <trkpt lat="47.25651" lon="-2.32323">
        <ele>-4</ele>
        <time>2021-09-26T10:27:32.000Z</time>
      </trkpt>
      <trkpt lat="47.2565" lon="-2.32316">
        <ele>-3.2000000476837</ele>
        <time>2021-09-26T10:27:33.000Z</time>
      </trkpt>
      <trkpt lat="47.2565" lon="-2.32308">
        <ele>-2.7999999523163</ele>
        <time>2021-09-26T10:27:34.000Z</time>
      </trkpt>
      <trkpt lat="47.25649" lon="-2.32293">
        <ele>-2.4000000953674</ele>
        <time>2021-09-26T10:27:36.000Z</time>
      </trkpt>
      <trkpt lat="47.25649" lon="-2.32286">
        <ele>-1.7999999523163</ele>
        <time>2021-09-26T10:27:37.000Z</time>
      </trkpt>
      <trkpt lat="47.25649" lon="-2.32279">
        <ele>-1.3999999761581</ele>
        <time>2021-09-26T10:27:38.000Z</time>
      </trkpt>
      <trkpt lat="47.25648" lon="-2.32271">
        <ele>-1</ele>
        <time>2021-09-26T10:27:39.000Z</time>
      </trkpt>
      <trkpt lat="47.25648" lon="-2.32265">
        <ele>-0.60000002384186</ele>
        <time>2021-09-26T10:27:40.000Z</time>
      </trkpt>
      <trkpt lat="47.25646" lon="-2.32251">
        <ele>-0.20000000298023</ele>
        <time>2021-09-26T10:27:42.000Z</time>
      </trkpt>
      <trkpt lat="47.25646" lon="-2.32245">
        <ele>0.20000000298023</ele>
        <time>2021-09-26T10:27:43.000Z</time>
      </trkpt>
      <trkpt lat="47.25645" lon="-2.32238">
        <ele>0.60000002384186</ele>
        <time>2021-09-26T10:27:44.000Z</time>
      </trkpt>
      <trkpt lat="47.25645" lon="-2.32231">
        <ele>1</ele>
        <time>2021-09-26T10:27:45.000Z</time>
      </trkpt>
      <trkpt lat="47.25645" lon="-2.32224">
        <ele>1.3999999761581</ele>
        <time>2021-09-26T10:27:46.000Z</time>
      </trkpt>
      <trkpt lat="47.25644" lon="-2.32212">
        <ele>1.3999999761581</ele>
        <time>2021-09-26T10:27:48.000Z</time>
      </trkpt>
      <trkpt lat="47.25642" lon="-2.32206">
        <ele>2</ele>
        <time>2021-09-26T10:27:49.000Z</time>
      </trkpt>
      <trkpt lat="47.25641" lon="-2.322">
        <ele>2.4000000953674</ele>
        <time>2021-09-26T10:27:50.000Z</time>
      </trkpt>
      <trkpt lat="47.25639" lon="-2.32194">
        <ele>2.7999999523163</ele>
        <time>2021-09-26T10:27:51.000Z</time>
      </trkpt>
      <trkpt lat="47.25638" lon="-2.32188">
        <ele>3.2000000476837</ele>
        <time>2021-09-26T10:27:52.000Z</time>
      </trkpt>
      <trkpt lat="47.25636" lon="-2.32182">
        <ele>3.5999999046326</ele>
        <time>2021-09-26T10:27:53.000Z</time>
      </trkpt>
      <trkpt lat="47.25628" lon="-2.32148">
        <ele>3.5999999046326</ele>
        <time>2021-09-26T10:27:58.000Z</time>
      </trkpt>
      <trkpt lat="47.25623" lon="-2.32134">
        <ele>3.5999999046326</ele>
        <time>2021-09-26T10:28:00.000Z</time>
      </trkpt>
      <trkpt lat="47.25613" lon="-2.32106">
        <ele>3.5999999046326</ele>
        <time>2021-09-26T10:28:04.000Z</time>
      </trkpt>
      <trkpt lat="47.25608" lon="-2.32093">
        <ele>3.5999999046326</ele>
        <time>2021-09-26T10:28:06.000Z</time>
      </trkpt>
      <trkpt lat="47.25594" lon="-2.32054">
        <ele>4</ele>
        <time>2021-09-26T10:28:12.000Z</time>
      </trkpt>
      <trkpt lat="47.25592" lon="-2.32048">
        <ele>4.4000000953674</ele>
        <time>2021-09-26T10:28:13.000Z</time>
      </trkpt>
      <trkpt lat="47.25589" lon="-2.32041">
        <ele>4.8000001907349</ele>
        <time>2021-09-26T10:28:14.000Z</time>
      </trkpt>
      <trkpt lat="47.25587" lon="-2.32035">
        <ele>5.1999998092651</ele>
        <time>2021-09-26T10:28:15.000Z</time>
      </trkpt>
      <trkpt lat="47.25584" lon="-2.32028">
        <ele>5.5999999046326</ele>
        <time>2021-09-26T10:28:16.000Z</time>
      </trkpt>
      <trkpt lat="47.25578" lon="-2.32008">
        <ele>5.5999999046326</ele>
        <time>2021-09-26T10:28:19.000Z</time>
      </trkpt>
      <trkpt lat="47.25568" lon="-2.31966">
        <ele>5.5999999046326</ele>
        <time>2021-09-26T10:28:25.000Z</time>
      </trkpt>
      <trkpt lat="47.25565" lon="-2.31944">
        <ele>5.5999999046326</ele>
        <time>2021-09-26T10:28:28.000Z</time>
      </trkpt>
      <trkpt lat="47.25563" lon="-2.31923">
        <ele>5.5999999046326</ele>
        <time>2021-09-26T10:28:31.000Z</time>
      </trkpt>
      <trkpt lat="47.25562" lon="-2.31881">
        <ele>6.1999998092651</ele>
        <time>2021-09-26T10:28:37.000Z</time>
      </trkpt>
      <trkpt lat="47.25562" lon="-2.31875">
        <ele>6.5999999046326</ele>
        <time>2021-09-26T10:28:38.000Z</time>
      </trkpt>
      <trkpt lat="47.25562" lon="-2.31868">
        <ele>7</ele>
        <time>2021-09-26T10:28:39.000Z</time>
      </trkpt>
      <trkpt lat="47.25562" lon="-2.31862">
        <ele>7.4000000953674</ele>
        <time>2021-09-26T10:28:40.000Z</time>
      </trkpt>
      <trkpt lat="47.25562" lon="-2.31855">
        <ele>7.8000001907349</ele>
        <time>2021-09-26T10:28:41.000Z</time>
      </trkpt>
      <trkpt lat="47.25562" lon="-2.31834">
        <ele>7.8000001907349</ele>
        <time>2021-09-26T10:28:44.000Z</time>
      </trkpt>
      <trkpt lat="47.25562" lon="-2.31827">
        <ele>7.8000001907349</ele>
        <time>2021-09-26T10:28:45.000Z</time>
      </trkpt>
      <trkpt lat="47.25564" lon="-2.31786">
        <ele>7.8000001907349</ele>
        <time>2021-09-26T10:28:51.000Z</time>
      </trkpt>
      <trkpt lat="47.25577" lon="-2.31764">
        <ele>7.8000001907349</ele>
        <time>2021-09-26T10:28:55.000Z</time>
      </trkpt>
      <trkpt lat="47.25581" lon="-2.3176">
        <ele>7.8000001907349</ele>
        <time>2021-09-26T10:28:56.000Z</time>
      </trkpt>
      <trkpt lat="47.25584" lon="-2.31756">
        <ele>7.8000001907349</ele>
        <time>2021-09-26T10:28:57.000Z</time>
      </trkpt>
      <trkpt lat="47.25586" lon="-2.31751">
        <ele>7.1999998092651</ele>
        <time>2021-09-26T10:28:58.000Z</time>
      </trkpt>
      <trkpt lat="47.25587" lon="-2.31746">
        <ele>6.8000001907349</ele>
        <time>2021-09-26T10:28:59.000Z</time>
      </trkpt>
      <trkpt lat="47.25588" lon="-2.3174">
        <ele>6.1999998092651</ele>
        <time>2021-09-26T10:29:00.000Z</time>
      </trkpt>
      <trkpt lat="47.25588" lon="-2.31734">
        <ele>5.8000001907349</ele>
        <time>2021-09-26T10:29:01.000Z</time>
      </trkpt>
      <trkpt lat="47.25589" lon="-2.31729">
        <ele>5.4000000953674</ele>
        <time>2021-09-26T10:29:02.000Z</time>
      </trkpt>
      <trkpt lat="47.25593" lon="-2.31718">
        <ele>5.4000000953674</ele>
        <time>2021-09-26T10:29:04.000Z</time>
      </trkpt>
      <trkpt lat="47.25596" lon="-2.31713">
        <ele>5.4000000953674</ele>
        <time>2021-09-26T10:29:05.000Z</time>
      </trkpt>
      <trkpt lat="47.25613" lon="-2.31707">
        <ele>5.4000000953674</ele>
        <time>2021-09-26T10:29:09.000Z</time>
      </trkpt>
      <trkpt lat="47.25618" lon="-2.31708">
        <ele>5.4000000953674</ele>
        <time>2021-09-26T10:29:10.000Z</time>
      </trkpt>
      <trkpt lat="47.25633" lon="-2.31705">
        <ele>5.4000000953674</ele>
        <time>2021-09-26T10:29:13.000Z</time>
      </trkpt>
      <trkpt lat="47.25643" lon="-2.31698">
        <ele>5.4000000953674</ele>
        <time>2021-09-26T10:29:15.000Z</time>
      </trkpt>
      <trkpt lat="47.25654" lon="-2.31674">
        <ele>4.8000001907349</ele>
        <time>2021-09-26T10:29:18.000Z</time>
      </trkpt>
      <trkpt lat="47.25657" lon="-2.31667">
        <ele>4.4000000953674</ele>
        <time>2021-09-26T10:29:19.000Z</time>
      </trkpt>
      <trkpt lat="47.2566" lon="-2.31663">
        <ele>4</ele>
        <time>2021-09-26T10:29:20.000Z</time>
      </trkpt>
      <trkpt lat="47.25664" lon="-2.31662">
        <ele>3.5999999046326</ele>
        <time>2021-09-26T10:29:21.000Z</time>
      </trkpt>
      <trkpt lat="47.25669" lon="-2.31663">
        <ele>3.2000000476837</ele>
        <time>2021-09-26T10:29:22.000Z</time>
      </trkpt>
      <trkpt lat="47.25677" lon="-2.31671">
        <ele>3.2000000476837</ele>
        <time>2021-09-26T10:29:24.000Z</time>
      </trkpt>
      <trkpt lat="47.25692" lon="-2.31679">
        <ele>3.2000000476837</ele>
        <time>2021-09-26T10:29:27.000Z</time>
      </trkpt>
      <trkpt lat="47.25697" lon="-2.31682">
        <ele>3.2000000476837</ele>
        <time>2021-09-26T10:29:28.000Z</time>
      </trkpt>
      <trkpt lat="47.25703" lon="-2.31686">
        <ele>3.2000000476837</ele>
        <time>2021-09-26T10:29:29.000Z</time>
      </trkpt>
      <trkpt lat="47.25714" lon="-2.31696">
        <ele>2.7999999523163</ele>
        <time>2021-09-26T10:29:31.000Z</time>
      </trkpt>
      <trkpt lat="47.25719" lon="-2.317">
        <ele>2.4000000953674</ele>
        <time>2021-09-26T10:29:32.000Z</time>
      </trkpt>
      <trkpt lat="47.25725" lon="-2.31702">
        <ele>2</ele>
        <time>2021-09-26T10:29:33.000Z</time>
      </trkpt>
      <trkpt lat="47.2573" lon="-2.31701">
        <ele>1.6000000238419</ele>
        <time>2021-09-26T10:29:34.000Z</time>
      </trkpt>
      <trkpt lat="47.25736" lon="-2.31698">
        <ele>1.2000000476837</ele>
        <time>2021-09-26T10:29:35.000Z</time>
      </trkpt>
      <trkpt lat="47.2574" lon="-2.31693">
        <ele>1.2000000476837</ele>
        <time>2021-09-26T10:29:36.000Z</time>
      </trkpt>
      <trkpt lat="47.25745" lon="-2.31688">
        <ele>1.2000000476837</ele>
        <time>2021-09-26T10:29:37.000Z</time>
      </trkpt>
      <trkpt lat="47.25773" lon="-2.31665">
        <ele>1.2000000476837</ele>
        <time>2021-09-26T10:29:43.000Z</time>
      </trkpt>
      <trkpt lat="47.25797" lon="-2.31645">
        <ele>1.2000000476837</ele>
        <time>2021-09-26T10:29:49.000Z</time>
      </trkpt>
      <trkpt lat="47.25825" lon="-2.31621">
        <ele>1.2000000476837</ele>
        <time>2021-09-26T10:29:56.000Z</time>
      </trkpt>
      <trkpt lat="47.25832" lon="-2.31615">
        <ele>1.6000000238419</ele>
        <time>2021-09-26T10:29:58.000Z</time>
      </trkpt>
      <trkpt lat="47.25835" lon="-2.31612">
        <ele>2</ele>
        <time>2021-09-26T10:29:59.000Z</time>
      </trkpt>
      <trkpt lat="47.25839" lon="-2.31608">
        <ele>2.4000000953674</ele>
        <time>2021-09-26T10:30:00.000Z</time>
      </trkpt>
      <trkpt lat="47.25843" lon="-2.31604">
        <ele>3.2000000476837</ele>
        <time>2021-09-26T10:30:01.000Z</time>
      </trkpt>
      <trkpt lat="47.25847" lon="-2.316">
        <ele>3.2000000476837</ele>
        <time>2021-09-26T10:30:02.000Z</time>
      </trkpt>
      <trkpt lat="47.25872" lon="-2.31578">
        <ele>3.2000000476837</ele>
        <time>2021-09-26T10:30:07.000Z</time>
      </trkpt>
      <trkpt lat="47.25877" lon="-2.31571">
        <ele>2.7999999523163</ele>
        <time>2021-09-26T10:30:08.000Z</time>
      </trkpt>
      <trkpt lat="47.25881" lon="-2.31563">
        <ele>2.4000000953674</ele>
        <time>2021-09-26T10:30:09.000Z</time>
      </trkpt>
      <trkpt lat="47.25885" lon="-2.31554">
        <ele>2</ele>
        <time>2021-09-26T10:30:10.000Z</time>
      </trkpt>
      <trkpt lat="47.25888" lon="-2.31546">
        <ele>1.6000000238419</ele>
        <time>2021-09-26T10:30:11.000Z</time>
      </trkpt>
      <trkpt lat="47.25891" lon="-2.31537">
        <ele>1.2000000476837</ele>
        <time>2021-09-26T10:30:12.000Z</time>
      </trkpt>
      <trkpt lat="47.25901" lon="-2.31518">
        <ele>1.2000000476837</ele>
        <time>2021-09-26T10:30:15.000Z</time>
      </trkpt>
      <trkpt lat="47.25904" lon="-2.31516">
        <ele>1.2000000476837</ele>
        <time>2021-09-26T10:30:16.000Z</time>
      </trkpt>
      <trkpt lat="47.25909" lon="-2.31511">
        <ele>0.80000001192093</ele>
        <time>2021-09-26T10:30:18.000Z</time>
      </trkpt>
      <trkpt lat="47.2591" lon="-2.31509">
        <ele>0.20000000298023</ele>
        <time>2021-09-26T10:30:19.000Z</time>
      </trkpt>
      <trkpt lat="47.25911" lon="-2.31507">
        <ele>-0.20000000298023</ele>
        <time>2021-09-26T10:30:20.000Z</time>
      </trkpt>
      <trkpt lat="47.2591" lon="-2.31505">
        <ele>-0.60000002384186</ele>
        <time>2021-09-26T10:30:21.000Z</time>
      </trkpt>
      <trkpt lat="47.2591" lon="-2.31504">
        <ele>-1</ele>
        <time>2021-09-26T10:30:22.000Z</time>
      </trkpt>
      <trkpt lat="47.2591" lon="-2.31504">
        <ele>-1</ele>
        <time>2021-09-26T10:30:24.000Z</time>
      </trkpt>
      <trkpt lat="47.25912" lon="-2.31502">
        <ele>-1</ele>
        <time>2021-09-26T10:30:25.000Z</time>
      </trkpt>
      <trkpt lat="47.25914" lon="-2.31492">
        <ele>-1</ele>
        <time>2021-09-26T10:30:28.000Z</time>
      </trkpt>
      <trkpt lat="47.25924" lon="-2.31461">
        <ele>-1</ele>
        <time>2021-09-26T10:30:34.000Z</time>
      </trkpt>
      <trkpt lat="47.2593" lon="-2.31458">
        <ele>-1</ele>
        <time>2021-09-26T10:30:36.000Z</time>
      </trkpt>
      <trkpt lat="47.25934" lon="-2.31461">
        <ele>-1</ele>
        <time>2021-09-26T10:30:37.000Z</time>
      </trkpt>
      <trkpt lat="47.25956" lon="-2.31479">
        <ele>-1</ele>
        <time>2021-09-26T10:30:42.000Z</time>
      </trkpt>
      <trkpt lat="47.25966" lon="-2.31494">
        <ele>-1</ele>
        <time>2021-09-26T10:30:45.000Z</time>
      </trkpt>
      <trkpt lat="47.25972" lon="-2.31506">
        <ele>-1</ele>
        <time>2021-09-26T10:30:47.000Z</time>
      </trkpt>
      <trkpt lat="47.25984" lon="-2.31527">
        <ele>-1</ele>
        <time>2021-09-26T10:30:51.000Z</time>
      </trkpt>
      <trkpt lat="47.25989" lon="-2.31537">
        <ele>-1</ele>
        <time>2021-09-26T10:30:53.000Z</time>
      </trkpt>
      <trkpt lat="47.25992" lon="-2.31542">
        <ele>-1</ele>
        <time>2021-09-26T10:30:54.000Z</time>
      </trkpt>
      <trkpt lat="47.26002" lon="-2.31556">
        <ele>-1</ele>
        <time>2021-09-26T10:30:57.000Z</time>
      </trkpt>
      <trkpt lat="47.26008" lon="-2.31564">
        <ele>-1</ele>
        <time>2021-09-26T10:30:59.000Z</time>
      </trkpt>
      <trkpt lat="47.26019" lon="-2.31555">
        <ele>-1</ele>
        <time>2021-09-26T10:31:02.000Z</time>
      </trkpt>
      <trkpt lat="47.26022" lon="-2.3155">
        <ele>-1</ele>
        <time>2021-09-26T10:31:03.000Z</time>
      </trkpt>
      <trkpt lat="47.26027" lon="-2.31538">
        <ele>-1</ele>
        <time>2021-09-26T10:31:05.000Z</time>
      </trkpt>
      <trkpt lat="47.2603" lon="-2.31526">
        <ele>-1</ele>
        <time>2021-09-26T10:31:07.000Z</time>
      </trkpt>
      <trkpt lat="47.26041" lon="-2.31515">
        <ele>-1</ele>
        <time>2021-09-26T10:31:11.000Z</time>
      </trkpt>
      <trkpt lat="47.26053" lon="-2.31531">
        <ele>-1</ele>
        <time>2021-09-26T10:31:14.000Z</time>
      </trkpt>
      <trkpt lat="47.26056" lon="-2.31537">
        <ele>-1</ele>
        <time>2021-09-26T10:31:15.000Z</time>
      </trkpt>
      <trkpt lat="47.26063" lon="-2.31548">
        <ele>-1.3999999761581</ele>
        <time>2021-09-26T10:31:17.000Z</time>
      </trkpt>
      <trkpt lat="47.26066" lon="-2.31553">
        <ele>-2</ele>
        <time>2021-09-26T10:31:18.000Z</time>
      </trkpt>
      <trkpt lat="47.26068" lon="-2.31559">
        <ele>-2.4000000953674</ele>
        <time>2021-09-26T10:31:19.000Z</time>
      </trkpt>
      <trkpt lat="47.2607" lon="-2.31566">
        <ele>-2.7999999523163</ele>
        <time>2021-09-26T10:31:20.000Z</time>
      </trkpt>
      <trkpt lat="47.26072" lon="-2.31571">
        <ele>-3.2000000476837</ele>
        <time>2021-09-26T10:31:21.000Z</time>
      </trkpt>
      <trkpt lat="47.26081" lon="-2.31579">
        <ele>-3.2000000476837</ele>
        <time>2021-09-26T10:31:24.000Z</time>
      </trkpt>
      <trkpt lat="47.26094" lon="-2.31597">
        <ele>-3.2000000476837</ele>
        <time>2021-09-26T10:31:29.000Z</time>
      </trkpt>
      <trkpt lat="47.261" lon="-2.31607">
        <ele>-3.2000000476837</ele>
        <time>2021-09-26T10:31:31.000Z</time>
      </trkpt>
      <trkpt lat="47.26112" lon="-2.31617">
        <ele>-3.2000000476837</ele>
        <time>2021-09-26T10:31:34.000Z</time>
      </trkpt>
      <trkpt lat="47.26131" lon="-2.31617">
        <ele>-3.2000000476837</ele>
        <time>2021-09-26T10:31:38.000Z</time>
      </trkpt>
      <trkpt lat="47.26157" lon="-2.31609">
        <ele>-3.2000000476837</ele>
        <time>2021-09-26T10:31:44.000Z</time>
      </trkpt>
      <trkpt lat="47.26165" lon="-2.31605">
        <ele>-3.2000000476837</ele>
        <time>2021-09-26T10:31:48.000Z</time>
      </trkpt>
      <trkpt lat="47.26169" lon="-2.31604">
        <ele>-3.2000000476837</ele>
        <time>2021-09-26T10:31:54.000Z</time>
      </trkpt>
      <trkpt lat="47.2617" lon="-2.31604">
        <ele>-3.2000000476837</ele>
        <time>2021-09-26T10:31:55.000Z</time>
      </trkpt>
      <trkpt lat="47.26177" lon="-2.31601">
        <ele>-3.2000000476837</ele>
        <time>2021-09-26T10:31:58.000Z</time>
      </trkpt>
      <trkpt lat="47.26183" lon="-2.31598">
        <ele>-3.2000000476837</ele>
        <time>2021-09-26T10:32:00.000Z</time>
      </trkpt>
      <trkpt lat="47.26206" lon="-2.31591">
        <ele>-3.2000000476837</ele>
        <time>2021-09-26T10:32:06.000Z</time>
      </trkpt>
      <trkpt lat="47.26226" lon="-2.316">
        <ele>-3.2000000476837</ele>
        <time>2021-09-26T10:32:11.000Z</time>
      </trkpt>
      <trkpt lat="47.26236" lon="-2.31608">
        <ele>-3.2000000476837</ele>
        <time>2021-09-26T10:32:14.000Z</time>
      </trkpt>
      <trkpt lat="47.2624" lon="-2.31612">
        <ele>-3.2000000476837</ele>
        <time>2021-09-26T10:32:15.000Z</time>
      </trkpt>
      <trkpt lat="47.26247" lon="-2.31621">
        <ele>-3.2000000476837</ele>
        <time>2021-09-26T10:32:17.000Z</time>
      </trkpt>
      <trkpt lat="47.26259" lon="-2.31639">
        <ele>-3.2000000476837</ele>
        <time>2021-09-26T10:32:21.000Z</time>
      </trkpt>
      <trkpt lat="47.26274" lon="-2.31669">
        <ele>-3.2000000476837</ele>
        <time>2021-09-26T10:32:27.000Z</time>
      </trkpt>
      <trkpt lat="47.26291" lon="-2.31704">
        <ele>-3.2000000476837</ele>
        <time>2021-09-26T10:32:34.000Z</time>
      </trkpt>
      <trkpt lat="47.26305" lon="-2.31716">
        <ele>-3.2000000476837</ele>
        <time>2021-09-26T10:32:38.000Z</time>
      </trkpt>
      <trkpt lat="47.26308" lon="-2.31714">
        <ele>-3.2000000476837</ele>
        <time>2021-09-26T10:32:39.000Z</time>
      </trkpt>
      <trkpt lat="47.26319" lon="-2.31709">
        <ele>-3.2000000476837</ele>
        <time>2021-09-26T10:32:42.000Z</time>
      </trkpt>
      <trkpt lat="47.2633" lon="-2.31698">
        <ele>-3.2000000476837</ele>
        <time>2021-09-26T10:32:46.000Z</time>
      </trkpt>
      <trkpt lat="47.26339" lon="-2.31688">
        <ele>-3.2000000476837</ele>
        <time>2021-09-26T10:32:50.000Z</time>
      </trkpt>
      <trkpt lat="47.26342" lon="-2.31687">
        <ele>-3.2000000476837</ele>
        <time>2021-09-26T10:32:51.000Z</time>
      </trkpt>
      <trkpt lat="47.26357" lon="-2.31679">
        <ele>-2.7999999523163</ele>
        <time>2021-09-26T10:32:56.000Z</time>
      </trkpt>
      <trkpt lat="47.2636" lon="-2.31678">
        <ele>-2.4000000953674</ele>
        <time>2021-09-26T10:32:57.000Z</time>
      </trkpt>
      <trkpt lat="47.26362" lon="-2.31677">
        <ele>-2</ele>
        <time>2021-09-26T10:32:58.000Z</time>
      </trkpt>
      <trkpt lat="47.26366" lon="-2.31676">
        <ele>-1.6000000238419</ele>
        <time>2021-09-26T10:32:59.000Z</time>
      </trkpt>
      <trkpt lat="47.26369" lon="-2.31675">
        <ele>-1.2000000476837</ele>
        <time>2021-09-26T10:33:00.000Z</time>
      </trkpt>
      <trkpt lat="47.26381" lon="-2.31667">
        <ele>-1.2000000476837</ele>
        <time>2021-09-26T10:33:04.000Z</time>
      </trkpt>
      <trkpt lat="47.26398" lon="-2.31659">
        <ele>-1.2000000476837</ele>
        <time>2021-09-26T10:33:10.000Z</time>
      </trkpt>
      <trkpt lat="47.26411" lon="-2.31648">
        <ele>-1.2000000476837</ele>
        <time>2021-09-26T10:33:15.000Z</time>
      </trkpt>
      <trkpt lat="47.2641" lon="-2.31644">
        <ele>-1.2000000476837</ele>
        <time>2021-09-26T10:33:16.000Z</time>
      </trkpt>
      <trkpt lat="47.2641" lon="-2.31617">
        <ele>-1.2000000476837</ele>
        <time>2021-09-26T10:33:22.000Z</time>
      </trkpt>
      <trkpt lat="47.2641" lon="-2.31585">
        <ele>-1.2000000476837</ele>
        <time>2021-09-26T10:33:29.000Z</time>
      </trkpt>
      <trkpt lat="47.26409" lon="-2.31558">
        <ele>-1.2000000476837</ele>
        <time>2021-09-26T10:33:36.000Z</time>
      </trkpt>
      <trkpt lat="47.26411" lon="-2.31555">
        <ele>-1.2000000476837</ele>
        <time>2021-09-26T10:33:37.000Z</time>
      </trkpt>
      <trkpt lat="47.26415" lon="-2.31555">
        <ele>-0.80000001192093</ele>
        <time>2021-09-26T10:33:39.000Z</time>
      </trkpt>
      <trkpt lat="47.26415" lon="-2.31555">
        <ele>-0.40000000596046</ele>
        <time>2021-09-26T10:33:40.000Z</time>
      </trkpt>
      <trkpt lat="47.26415" lon="-2.31555">
        <ele>9.9</ele>
        <time>2021-09-26T10:33:41.000Z</time>
      </trkpt>
      <trkpt lat="47.26415" lon="-2.31556">
        <ele>0.40000000596046</ele>
        <time>2021-09-26T10:33:42.000Z</time>
      </trkpt>
    </trkseg>
  </trk>
</gpx>